<?xml version="1.0" encoding="UTF-8" standalone="no" ?>
<gpx xmlns="http://www.topografix.com/GPX/1/1" xmlns:xsi="http://www.w3.org/2001/XMLSchema-instance" xsi:schemaLocation="http://www.topografix.com/GPX/1/1 http://www.topografix.com/GPX/1/1/gpx.xsd" version="1.1" creator="VisuGPX - https://www.visugpx.com">
  <metadata>
    <name>HRP2023-J04</name>
  </metadata>
  <trk>
    <name><![CDATA[HRP2023-J04]]></name>
    <extensions>
      <line xmlns="http://www.topografix.com/GPX/gpx_style/0/2">
        <color>0000FF</color>
        <width>4</width>
      </line>
    </extensions>
    <trkseg>
      <trkpt lat="42.53427" lon="2.46526">
        <ele>2154.8000488281</ele>
        <time>2023-07-16T05:43:04.000Z</time>
      </trkpt>
      <trkpt lat="42.53426" lon="2.46528">
        <ele>2154.6000976562</ele>
        <time>2023-07-16T05:43:06.000Z</time>
      </trkpt>
      <trkpt lat="42.53424" lon="2.46531">
        <ele>2154.3999023438</ele>
        <time>2023-07-16T05:43:09.000Z</time>
      </trkpt>
      <trkpt lat="42.53423" lon="2.4653">
        <ele>2154.1999511719</ele>
        <time>2023-07-16T05:43:15.000Z</time>
      </trkpt>
      <trkpt lat="42.53422" lon="2.46532">
        <ele>2154</ele>
        <time>2023-07-16T05:43:20.000Z</time>
      </trkpt>
      <trkpt lat="42.53421" lon="2.46532">
        <ele>2153.8000488281</ele>
        <time>2023-07-16T05:43:23.000Z</time>
      </trkpt>
      <trkpt lat="42.53416" lon="2.46534">
        <ele>2153.6000976562</ele>
        <time>2023-07-16T05:43:31.000Z</time>
      </trkpt>
      <trkpt lat="42.53416" lon="2.46534">
        <ele>2153.6000976562</ele>
        <time>2023-07-16T05:43:32.000Z</time>
      </trkpt>
      <trkpt lat="42.5342" lon="2.46534">
        <ele>2153</ele>
        <time>2023-07-16T05:43:39.000Z</time>
      </trkpt>
      <trkpt lat="42.53419" lon="2.46535">
        <ele>2153</ele>
        <time>2023-07-16T05:43:46.000Z</time>
      </trkpt>
      <trkpt lat="42.53417" lon="2.46535">
        <ele>2153</ele>
        <time>2023-07-16T05:43:52.000Z</time>
      </trkpt>
      <trkpt lat="42.53414" lon="2.46536">
        <ele>2153.1999511719</ele>
        <time>2023-07-16T05:44:00.000Z</time>
      </trkpt>
      <trkpt lat="42.53412" lon="2.46537">
        <ele>2153.8000488281</ele>
        <time>2023-07-16T05:44:07.000Z</time>
      </trkpt>
      <trkpt lat="42.53415" lon="2.46533">
        <ele>2154.1999511719</ele>
        <time>2023-07-16T05:44:15.000Z</time>
      </trkpt>
      <trkpt lat="42.53415" lon="2.46533">
        <ele>2154.6000976562</ele>
        <time>2023-07-16T05:44:20.000Z</time>
      </trkpt>
      <trkpt lat="42.53414" lon="2.46532">
        <ele>2155</ele>
        <time>2023-07-16T05:44:23.000Z</time>
      </trkpt>
      <trkpt lat="42.53413" lon="2.46532">
        <ele>2155.6000976562</ele>
        <time>2023-07-16T05:44:26.000Z</time>
      </trkpt>
      <trkpt lat="42.5341" lon="2.46536">
        <ele>2156.3999023438</ele>
        <time>2023-07-16T05:44:32.000Z</time>
      </trkpt>
      <trkpt lat="42.53405" lon="2.46542">
        <ele>2156.1999511719</ele>
        <time>2023-07-16T05:44:40.000Z</time>
      </trkpt>
      <trkpt lat="42.53399" lon="2.4655">
        <ele>2156</ele>
        <time>2023-07-16T05:44:47.000Z</time>
      </trkpt>
      <trkpt lat="42.53393" lon="2.46558">
        <ele>2155.8000488281</ele>
        <time>2023-07-16T05:44:54.000Z</time>
      </trkpt>
      <trkpt lat="42.53388" lon="2.46565">
        <ele>2155.3999023438</ele>
        <time>2023-07-16T05:45:01.000Z</time>
      </trkpt>
      <trkpt lat="42.53383" lon="2.46569">
        <ele>2155.3999023438</ele>
        <time>2023-07-16T05:45:09.000Z</time>
      </trkpt>
      <trkpt lat="42.53374" lon="2.46578">
        <ele>2155.6000976562</ele>
        <time>2023-07-16T05:45:17.000Z</time>
      </trkpt>
      <trkpt lat="42.5337" lon="2.4658">
        <ele>2156</ele>
        <time>2023-07-16T05:45:23.000Z</time>
      </trkpt>
      <trkpt lat="42.53371" lon="2.46577">
        <ele>2156.1999511719</ele>
        <time>2023-07-16T05:45:26.000Z</time>
      </trkpt>
      <trkpt lat="42.53371" lon="2.46575">
        <ele>2156.3999023438</ele>
        <time>2023-07-16T05:45:30.000Z</time>
      </trkpt>
      <trkpt lat="42.53371" lon="2.46575">
        <ele>2156.6000976562</ele>
        <time>2023-07-16T05:45:33.000Z</time>
      </trkpt>
      <trkpt lat="42.53371" lon="2.46573">
        <ele>2157.1999511719</ele>
        <time>2023-07-16T05:45:39.000Z</time>
      </trkpt>
      <trkpt lat="42.53371" lon="2.46573">
        <ele>2157.8000488281</ele>
        <time>2023-07-16T05:45:44.000Z</time>
      </trkpt>
      <trkpt lat="42.5337" lon="2.46576">
        <ele>2158.1999511719</ele>
        <time>2023-07-16T05:45:47.000Z</time>
      </trkpt>
      <trkpt lat="42.53361" lon="2.46588">
        <ele>2158.8000488281</ele>
        <time>2023-07-16T05:45:56.000Z</time>
      </trkpt>
      <trkpt lat="42.53356" lon="2.46595">
        <ele>2159</ele>
        <time>2023-07-16T05:46:06.000Z</time>
      </trkpt>
      <trkpt lat="42.53349" lon="2.46599">
        <ele>2159.1999511719</ele>
        <time>2023-07-16T05:46:15.000Z</time>
      </trkpt>
      <trkpt lat="42.53342" lon="2.46607">
        <ele>2159.3999023438</ele>
        <time>2023-07-16T05:46:22.000Z</time>
      </trkpt>
      <trkpt lat="42.53337" lon="2.46611">
        <ele>2159.6000976562</ele>
        <time>2023-07-16T05:46:30.000Z</time>
      </trkpt>
      <trkpt lat="42.53337" lon="2.46611">
        <ele>2159.8000488281</ele>
        <time>2023-07-16T05:46:32.000Z</time>
      </trkpt>
      <trkpt lat="42.53334" lon="2.46615">
        <ele>2160</ele>
        <time>2023-07-16T05:46:37.000Z</time>
      </trkpt>
      <trkpt lat="42.53327" lon="2.46621">
        <ele>2160.1999511719</ele>
        <time>2023-07-16T05:46:46.000Z</time>
      </trkpt>
      <trkpt lat="42.53316" lon="2.46636">
        <ele>2161.1999511719</ele>
        <time>2023-07-16T05:46:56.000Z</time>
      </trkpt>
      <trkpt lat="42.53314" lon="2.46639">
        <ele>2161.1999511719</ele>
        <time>2023-07-16T05:47:00.000Z</time>
      </trkpt>
      <trkpt lat="42.53309" lon="2.46646">
        <ele>2162.1999511719</ele>
        <time>2023-07-16T05:47:05.000Z</time>
      </trkpt>
      <trkpt lat="42.53308" lon="2.46647">
        <ele>2162.3999023438</ele>
        <time>2023-07-16T05:47:07.000Z</time>
      </trkpt>
      <trkpt lat="42.53306" lon="2.4665">
        <ele>2163.1999511719</ele>
        <time>2023-07-16T05:47:13.000Z</time>
      </trkpt>
      <trkpt lat="42.53306" lon="2.46652">
        <ele>2163.3999023438</ele>
        <time>2023-07-16T05:47:14.000Z</time>
      </trkpt>
      <trkpt lat="42.53303" lon="2.46655">
        <ele>2163.8000488281</ele>
        <time>2023-07-16T05:47:19.000Z</time>
      </trkpt>
      <trkpt lat="42.53298" lon="2.46658">
        <ele>2164.3999023438</ele>
        <time>2023-07-16T05:47:27.000Z</time>
      </trkpt>
      <trkpt lat="42.53296" lon="2.46661">
        <ele>2164.3999023438</ele>
        <time>2023-07-16T05:47:31.000Z</time>
      </trkpt>
      <trkpt lat="42.53294" lon="2.46666">
        <ele>2165</ele>
        <time>2023-07-16T05:47:37.000Z</time>
      </trkpt>
      <trkpt lat="42.53292" lon="2.46675">
        <ele>2165.1999511719</ele>
        <time>2023-07-16T05:47:45.000Z</time>
      </trkpt>
      <trkpt lat="42.53291" lon="2.46678">
        <ele>2165.6000976562</ele>
        <time>2023-07-16T05:47:48.000Z</time>
      </trkpt>
      <trkpt lat="42.53289" lon="2.46681">
        <ele>2165.8000488281</ele>
        <time>2023-07-16T05:47:52.000Z</time>
      </trkpt>
      <trkpt lat="42.53282" lon="2.46687">
        <ele>2166.6000976562</ele>
        <time>2023-07-16T05:48:01.000Z</time>
      </trkpt>
      <trkpt lat="42.53281" lon="2.46687">
        <ele>2166.6000976562</ele>
        <time>2023-07-16T05:48:02.000Z</time>
      </trkpt>
      <trkpt lat="42.53276" lon="2.46691">
        <ele>2167</ele>
        <time>2023-07-16T05:48:09.000Z</time>
      </trkpt>
      <trkpt lat="42.53274" lon="2.46693">
        <ele>2167.6000976562</ele>
        <time>2023-07-16T05:48:14.000Z</time>
      </trkpt>
      <trkpt lat="42.53274" lon="2.46693">
        <ele>2168</ele>
        <time>2023-07-16T05:48:16.000Z</time>
      </trkpt>
      <trkpt lat="42.53271" lon="2.46696">
        <ele>2168.6000976562</ele>
        <time>2023-07-16T05:48:22.000Z</time>
      </trkpt>
      <trkpt lat="42.5327" lon="2.46697">
        <ele>2169</ele>
        <time>2023-07-16T05:48:25.000Z</time>
      </trkpt>
      <trkpt lat="42.53263" lon="2.46701">
        <ele>2169.8000488281</ele>
        <time>2023-07-16T05:48:32.000Z</time>
      </trkpt>
      <trkpt lat="42.53261" lon="2.46701">
        <ele>2170</ele>
        <time>2023-07-16T05:48:34.000Z</time>
      </trkpt>
      <trkpt lat="42.53258" lon="2.46704">
        <ele>2170.8000488281</ele>
        <time>2023-07-16T05:48:40.000Z</time>
      </trkpt>
      <trkpt lat="42.53257" lon="2.46704">
        <ele>2171</ele>
        <time>2023-07-16T05:48:41.000Z</time>
      </trkpt>
      <trkpt lat="42.53252" lon="2.46713">
        <ele>2171.8000488281</ele>
        <time>2023-07-16T05:48:50.000Z</time>
      </trkpt>
      <trkpt lat="42.53252" lon="2.46716">
        <ele>2172</ele>
        <time>2023-07-16T05:48:52.000Z</time>
      </trkpt>
      <trkpt lat="42.5325" lon="2.46722">
        <ele>2172.8000488281</ele>
        <time>2023-07-16T05:48:58.000Z</time>
      </trkpt>
      <trkpt lat="42.53249" lon="2.46722">
        <ele>2173</ele>
        <time>2023-07-16T05:48:59.000Z</time>
      </trkpt>
      <trkpt lat="42.53247" lon="2.46723">
        <ele>2173.3999023438</ele>
        <time>2023-07-16T05:49:06.000Z</time>
      </trkpt>
      <trkpt lat="42.53245" lon="2.46725">
        <ele>2173.8000488281</ele>
        <time>2023-07-16T05:49:13.000Z</time>
      </trkpt>
      <trkpt lat="42.53241" lon="2.4673">
        <ele>2174</ele>
        <time>2023-07-16T05:49:20.000Z</time>
      </trkpt>
      <trkpt lat="42.53239" lon="2.4673">
        <ele>2174.1999511719</ele>
        <time>2023-07-16T05:49:23.000Z</time>
      </trkpt>
      <trkpt lat="42.53235" lon="2.46728">
        <ele>2174.6000976562</ele>
        <time>2023-07-16T05:49:27.000Z</time>
      </trkpt>
      <trkpt lat="42.53235" lon="2.46726">
        <ele>2175.1999511719</ele>
        <time>2023-07-16T05:49:33.000Z</time>
      </trkpt>
      <trkpt lat="42.53235" lon="2.46726">
        <ele>2175.1999511719</ele>
        <time>2023-07-16T05:49:34.000Z</time>
      </trkpt>
      <trkpt lat="42.53229" lon="2.46723">
        <ele>2176</ele>
        <time>2023-07-16T05:49:42.000Z</time>
      </trkpt>
      <trkpt lat="42.53228" lon="2.46723">
        <ele>2176.1999511719</ele>
        <time>2023-07-16T05:49:43.000Z</time>
      </trkpt>
      <trkpt lat="42.53224" lon="2.46722">
        <ele>2177.1999511719</ele>
        <time>2023-07-16T05:49:50.000Z</time>
      </trkpt>
      <trkpt lat="42.53222" lon="2.46723">
        <ele>2178.3999023438</ele>
        <time>2023-07-16T05:49:57.000Z</time>
      </trkpt>
      <trkpt lat="42.53219" lon="2.46724">
        <ele>2179.6000976562</ele>
        <time>2023-07-16T05:50:03.000Z</time>
      </trkpt>
      <trkpt lat="42.53218" lon="2.46724">
        <ele>2180.3999023438</ele>
        <time>2023-07-16T05:50:07.000Z</time>
      </trkpt>
      <trkpt lat="42.53218" lon="2.46724">
        <ele>2180.6000976562</ele>
        <time>2023-07-16T05:50:08.000Z</time>
      </trkpt>
      <trkpt lat="42.53214" lon="2.46729">
        <ele>2181.6000976562</ele>
        <time>2023-07-16T05:50:14.000Z</time>
      </trkpt>
      <trkpt lat="42.53213" lon="2.46729">
        <ele>2181.8000488281</ele>
        <time>2023-07-16T05:50:15.000Z</time>
      </trkpt>
      <trkpt lat="42.5321" lon="2.46732">
        <ele>2182.6000976562</ele>
        <time>2023-07-16T05:50:20.000Z</time>
      </trkpt>
      <trkpt lat="42.53208" lon="2.46732">
        <ele>2183.1999511719</ele>
        <time>2023-07-16T05:50:24.000Z</time>
      </trkpt>
      <trkpt lat="42.53209" lon="2.46732">
        <ele>2183.6000976562</ele>
        <time>2023-07-16T05:50:26.000Z</time>
      </trkpt>
      <trkpt lat="42.53208" lon="2.46733">
        <ele>2184.6000976562</ele>
        <time>2023-07-16T05:50:31.000Z</time>
      </trkpt>
      <trkpt lat="42.53207" lon="2.46734">
        <ele>2184.8000488281</ele>
        <time>2023-07-16T05:50:32.000Z</time>
      </trkpt>
      <trkpt lat="42.53208" lon="2.46732">
        <ele>2185.6000976562</ele>
        <time>2023-07-16T05:50:40.000Z</time>
      </trkpt>
      <trkpt lat="42.53207" lon="2.46732">
        <ele>2185.6000976562</ele>
        <time>2023-07-16T05:50:43.000Z</time>
      </trkpt>
      <trkpt lat="42.5321" lon="2.46728">
        <ele>2185.6000976562</ele>
        <time>2023-07-16T05:50:49.000Z</time>
      </trkpt>
      <trkpt lat="42.53206" lon="2.46732">
        <ele>2185.6000976562</ele>
        <time>2023-07-16T05:50:57.000Z</time>
      </trkpt>
      <trkpt lat="42.53204" lon="2.46737">
        <ele>2185.1999511719</ele>
        <time>2023-07-16T05:51:04.000Z</time>
      </trkpt>
      <trkpt lat="42.53206" lon="2.46739">
        <ele>2185.3999023438</ele>
        <time>2023-07-16T05:51:13.000Z</time>
      </trkpt>
      <trkpt lat="42.53206" lon="2.46747">
        <ele>2186.3999023438</ele>
        <time>2023-07-16T05:51:21.000Z</time>
      </trkpt>
      <trkpt lat="42.53206" lon="2.46751">
        <ele>2186.8000488281</ele>
        <time>2023-07-16T05:51:24.000Z</time>
      </trkpt>
      <trkpt lat="42.53204" lon="2.46758">
        <ele>2187.3999023438</ele>
        <time>2023-07-16T05:51:30.000Z</time>
      </trkpt>
      <trkpt lat="42.53204" lon="2.4676">
        <ele>2187.8000488281</ele>
        <time>2023-07-16T05:51:32.000Z</time>
      </trkpt>
      <trkpt lat="42.53202" lon="2.46765">
        <ele>2188.3999023438</ele>
        <time>2023-07-16T05:51:38.000Z</time>
      </trkpt>
      <trkpt lat="42.53201" lon="2.46769">
        <ele>2188.8000488281</ele>
        <time>2023-07-16T05:51:42.000Z</time>
      </trkpt>
      <trkpt lat="42.53199" lon="2.46774">
        <ele>2189.1999511719</ele>
        <time>2023-07-16T05:51:47.000Z</time>
      </trkpt>
      <trkpt lat="42.53198" lon="2.46778">
        <ele>2189.8000488281</ele>
        <time>2023-07-16T05:51:53.000Z</time>
      </trkpt>
      <trkpt lat="42.53198" lon="2.46778">
        <ele>2189.8000488281</ele>
        <time>2023-07-16T05:51:54.000Z</time>
      </trkpt>
      <trkpt lat="42.53194" lon="2.46778">
        <ele>2189.8000488281</ele>
        <time>2023-07-16T05:52:02.000Z</time>
      </trkpt>
      <trkpt lat="42.53193" lon="2.46781">
        <ele>2189.8000488281</ele>
        <time>2023-07-16T05:52:08.000Z</time>
      </trkpt>
      <trkpt lat="42.53194" lon="2.4679">
        <ele>2190.8000488281</ele>
        <time>2023-07-16T05:52:17.000Z</time>
      </trkpt>
      <trkpt lat="42.53194" lon="2.4679">
        <ele>2191.6000976562</ele>
        <time>2023-07-16T05:52:23.000Z</time>
      </trkpt>
      <trkpt lat="42.53194" lon="2.46787">
        <ele>2192</ele>
        <time>2023-07-16T05:52:27.000Z</time>
      </trkpt>
      <trkpt lat="42.53194" lon="2.46786">
        <ele>2192.8000488281</ele>
        <time>2023-07-16T05:52:30.000Z</time>
      </trkpt>
      <trkpt lat="42.53194" lon="2.46783">
        <ele>2193</ele>
        <time>2023-07-16T05:52:32.000Z</time>
      </trkpt>
      <trkpt lat="42.53191" lon="2.46778">
        <ele>2193.8000488281</ele>
        <time>2023-07-16T05:52:37.000Z</time>
      </trkpt>
      <trkpt lat="42.5319" lon="2.46776">
        <ele>2194.1999511719</ele>
        <time>2023-07-16T05:52:39.000Z</time>
      </trkpt>
      <trkpt lat="42.53187" lon="2.46773">
        <ele>2195.1999511719</ele>
        <time>2023-07-16T05:52:45.000Z</time>
      </trkpt>
      <trkpt lat="42.53185" lon="2.46776">
        <ele>2195.6000976562</ele>
        <time>2023-07-16T05:52:53.000Z</time>
      </trkpt>
      <trkpt lat="42.53181" lon="2.46774">
        <ele>2196</ele>
        <time>2023-07-16T05:53:00.000Z</time>
      </trkpt>
      <trkpt lat="42.53179" lon="2.46773">
        <ele>2196.3999023438</ele>
        <time>2023-07-16T05:53:02.000Z</time>
      </trkpt>
      <trkpt lat="42.53175" lon="2.4677">
        <ele>2197.3999023438</ele>
        <time>2023-07-16T05:53:08.000Z</time>
      </trkpt>
      <trkpt lat="42.53173" lon="2.46769">
        <ele>2198.6000976562</ele>
        <time>2023-07-16T05:53:13.000Z</time>
      </trkpt>
      <trkpt lat="42.53171" lon="2.46768">
        <ele>2198.8000488281</ele>
        <time>2023-07-16T05:53:16.000Z</time>
      </trkpt>
      <trkpt lat="42.5317" lon="2.46768">
        <ele>2199.6000976562</ele>
        <time>2023-07-16T05:53:19.000Z</time>
      </trkpt>
      <trkpt lat="42.53166" lon="2.46771">
        <ele>2200.8000488281</ele>
        <time>2023-07-16T05:53:26.000Z</time>
      </trkpt>
      <trkpt lat="42.53165" lon="2.46773">
        <ele>2201</ele>
        <time>2023-07-16T05:53:27.000Z</time>
      </trkpt>
      <trkpt lat="42.53166" lon="2.46776">
        <ele>2201.8000488281</ele>
        <time>2023-07-16T05:53:33.000Z</time>
      </trkpt>
      <trkpt lat="42.53168" lon="2.46779">
        <ele>2203.1999511719</ele>
        <time>2023-07-16T05:53:41.000Z</time>
      </trkpt>
      <trkpt lat="42.53169" lon="2.46783">
        <ele>2203.3999023438</ele>
        <time>2023-07-16T05:53:50.000Z</time>
      </trkpt>
      <trkpt lat="42.53171" lon="2.4679">
        <ele>2204</ele>
        <time>2023-07-16T05:53:59.000Z</time>
      </trkpt>
      <trkpt lat="42.53172" lon="2.46792">
        <ele>2204.1999511719</ele>
        <time>2023-07-16T05:54:00.000Z</time>
      </trkpt>
      <trkpt lat="42.53173" lon="2.46798">
        <ele>2204.8000488281</ele>
        <time>2023-07-16T05:54:05.000Z</time>
      </trkpt>
      <trkpt lat="42.53173" lon="2.46802">
        <ele>2205.1999511719</ele>
        <time>2023-07-16T05:54:09.000Z</time>
      </trkpt>
      <trkpt lat="42.53171" lon="2.46808">
        <ele>2205.6000976562</ele>
        <time>2023-07-16T05:54:14.000Z</time>
      </trkpt>
      <trkpt lat="42.53167" lon="2.46813">
        <ele>2206.3999023438</ele>
        <time>2023-07-16T05:54:20.000Z</time>
      </trkpt>
      <trkpt lat="42.53166" lon="2.46815">
        <ele>2206.3999023438</ele>
        <time>2023-07-16T05:54:22.000Z</time>
      </trkpt>
      <trkpt lat="42.53161" lon="2.46826">
        <ele>2207.1999511719</ele>
        <time>2023-07-16T05:54:30.000Z</time>
      </trkpt>
      <trkpt lat="42.53161" lon="2.46826">
        <ele>2207.3999023438</ele>
        <time>2023-07-16T05:54:31.000Z</time>
      </trkpt>
      <trkpt lat="42.53159" lon="2.46827">
        <ele>2208</ele>
        <time>2023-07-16T05:54:36.000Z</time>
      </trkpt>
      <trkpt lat="42.53158" lon="2.46827">
        <ele>2208.6000976562</ele>
        <time>2023-07-16T05:54:38.000Z</time>
      </trkpt>
      <trkpt lat="42.53157" lon="2.46828">
        <ele>2208.8000488281</ele>
        <time>2023-07-16T05:54:40.000Z</time>
      </trkpt>
      <trkpt lat="42.53156" lon="2.46831">
        <ele>2209.6000976562</ele>
        <time>2023-07-16T05:54:45.000Z</time>
      </trkpt>
      <trkpt lat="42.53155" lon="2.46832">
        <ele>2209.8000488281</ele>
        <time>2023-07-16T05:54:48.000Z</time>
      </trkpt>
      <trkpt lat="42.53153" lon="2.46838">
        <ele>2210</ele>
        <time>2023-07-16T05:54:57.000Z</time>
      </trkpt>
      <trkpt lat="42.5315" lon="2.4684">
        <ele>2210.6000976562</ele>
        <time>2023-07-16T05:55:02.000Z</time>
      </trkpt>
      <trkpt lat="42.53149" lon="2.46842">
        <ele>2211</ele>
        <time>2023-07-16T05:55:04.000Z</time>
      </trkpt>
      <trkpt lat="42.53147" lon="2.46845">
        <ele>2211.8000488281</ele>
        <time>2023-07-16T05:55:08.000Z</time>
      </trkpt>
      <trkpt lat="42.53145" lon="2.46847">
        <ele>2212</ele>
        <time>2023-07-16T05:55:11.000Z</time>
      </trkpt>
      <trkpt lat="42.53142" lon="2.46851">
        <ele>2212.8000488281</ele>
        <time>2023-07-16T05:55:17.000Z</time>
      </trkpt>
      <trkpt lat="42.53142" lon="2.46853">
        <ele>2213</ele>
        <time>2023-07-16T05:55:18.000Z</time>
      </trkpt>
      <trkpt lat="42.53138" lon="2.4686">
        <ele>2213.3999023438</ele>
        <time>2023-07-16T05:55:26.000Z</time>
      </trkpt>
      <trkpt lat="42.53133" lon="2.46866">
        <ele>2213.8000488281</ele>
        <time>2023-07-16T05:55:34.000Z</time>
      </trkpt>
      <trkpt lat="42.53133" lon="2.46867">
        <ele>2213.8000488281</ele>
        <time>2023-07-16T05:55:35.000Z</time>
      </trkpt>
      <trkpt lat="42.53127" lon="2.46878">
        <ele>2214.8000488281</ele>
        <time>2023-07-16T05:55:44.000Z</time>
      </trkpt>
      <trkpt lat="42.53124" lon="2.4688">
        <ele>2216</ele>
        <time>2023-07-16T05:55:51.000Z</time>
      </trkpt>
      <trkpt lat="42.53121" lon="2.46881">
        <ele>2217.1999511719</ele>
        <time>2023-07-16T05:55:58.000Z</time>
      </trkpt>
      <trkpt lat="42.53116" lon="2.46888">
        <ele>2217.3999023438</ele>
        <time>2023-07-16T05:56:05.000Z</time>
      </trkpt>
      <trkpt lat="42.5311" lon="2.4689">
        <ele>2217.6000976562</ele>
        <time>2023-07-16T05:56:13.000Z</time>
      </trkpt>
      <trkpt lat="42.53104" lon="2.46892">
        <ele>2217.8000488281</ele>
        <time>2023-07-16T05:56:20.000Z</time>
      </trkpt>
      <trkpt lat="42.53101" lon="2.46892">
        <ele>2218.3999023438</ele>
        <time>2023-07-16T05:56:27.000Z</time>
      </trkpt>
      <trkpt lat="42.53097" lon="2.4689">
        <ele>2219.3999023438</ele>
        <time>2023-07-16T05:56:34.000Z</time>
      </trkpt>
      <trkpt lat="42.53095" lon="2.46884">
        <ele>2219.3999023438</ele>
        <time>2023-07-16T05:56:43.000Z</time>
      </trkpt>
      <trkpt lat="42.53093" lon="2.46882">
        <ele>2220.3999023438</ele>
        <time>2023-07-16T05:56:48.000Z</time>
      </trkpt>
      <trkpt lat="42.5309" lon="2.4688">
        <ele>2221.3999023438</ele>
        <time>2023-07-16T05:56:52.000Z</time>
      </trkpt>
      <trkpt lat="42.53089" lon="2.4688">
        <ele>2221.6000976562</ele>
        <time>2023-07-16T05:56:53.000Z</time>
      </trkpt>
      <trkpt lat="42.53086" lon="2.46883">
        <ele>2222.8000488281</ele>
        <time>2023-07-16T05:56:59.000Z</time>
      </trkpt>
      <trkpt lat="42.53086" lon="2.46883">
        <ele>2223</ele>
        <time>2023-07-16T05:57:00.000Z</time>
      </trkpt>
      <trkpt lat="42.53083" lon="2.46881">
        <ele>2223.8000488281</ele>
        <time>2023-07-16T05:57:07.000Z</time>
      </trkpt>
      <trkpt lat="42.53082" lon="2.46881">
        <ele>2224.1999511719</ele>
        <time>2023-07-16T05:57:09.000Z</time>
      </trkpt>
      <trkpt lat="42.5308" lon="2.46882">
        <ele>2225</ele>
        <time>2023-07-16T05:57:12.000Z</time>
      </trkpt>
      <trkpt lat="42.53076" lon="2.46885">
        <ele>2225.8000488281</ele>
        <time>2023-07-16T05:57:16.000Z</time>
      </trkpt>
      <trkpt lat="42.53076" lon="2.46886">
        <ele>2226.1999511719</ele>
        <time>2023-07-16T05:57:17.000Z</time>
      </trkpt>
      <trkpt lat="42.53073" lon="2.46892">
        <ele>2226.8000488281</ele>
        <time>2023-07-16T05:57:24.000Z</time>
      </trkpt>
      <trkpt lat="42.53067" lon="2.46894">
        <ele>2226.3999023438</ele>
        <time>2023-07-16T05:57:34.000Z</time>
      </trkpt>
      <trkpt lat="42.53065" lon="2.46893">
        <ele>2227.1999511719</ele>
        <time>2023-07-16T05:57:41.000Z</time>
      </trkpt>
      <trkpt lat="42.5306" lon="2.46894">
        <ele>2228.1999511719</ele>
        <time>2023-07-16T05:57:48.000Z</time>
      </trkpt>
      <trkpt lat="42.53056" lon="2.46896">
        <ele>2229</ele>
        <time>2023-07-16T05:57:55.000Z</time>
      </trkpt>
      <trkpt lat="42.53054" lon="2.46896">
        <ele>2229.3999023438</ele>
        <time>2023-07-16T05:57:57.000Z</time>
      </trkpt>
      <trkpt lat="42.53053" lon="2.46894">
        <ele>2230.3999023438</ele>
        <time>2023-07-16T05:58:01.000Z</time>
      </trkpt>
      <trkpt lat="42.53053" lon="2.46893">
        <ele>2230.6000976562</ele>
        <time>2023-07-16T05:58:02.000Z</time>
      </trkpt>
      <trkpt lat="42.53052" lon="2.46888">
        <ele>2231.8000488281</ele>
        <time>2023-07-16T05:58:06.000Z</time>
      </trkpt>
      <trkpt lat="42.53051" lon="2.46886">
        <ele>2232.1999511719</ele>
        <time>2023-07-16T05:58:08.000Z</time>
      </trkpt>
      <trkpt lat="42.53048" lon="2.46885">
        <ele>2232.8000488281</ele>
        <time>2023-07-16T05:58:12.000Z</time>
      </trkpt>
      <trkpt lat="42.53047" lon="2.46884">
        <ele>2233.1999511719</ele>
        <time>2023-07-16T05:58:16.000Z</time>
      </trkpt>
      <trkpt lat="42.53047" lon="2.46882">
        <ele>2234</ele>
        <time>2023-07-16T05:58:19.000Z</time>
      </trkpt>
      <trkpt lat="42.53046" lon="2.46879">
        <ele>2235</ele>
        <time>2023-07-16T05:58:23.000Z</time>
      </trkpt>
      <trkpt lat="42.53046" lon="2.46878">
        <ele>2235.3999023438</ele>
        <time>2023-07-16T05:58:24.000Z</time>
      </trkpt>
      <trkpt lat="42.53045" lon="2.46874">
        <ele>2236.1999511719</ele>
        <time>2023-07-16T05:58:28.000Z</time>
      </trkpt>
      <trkpt lat="42.53045" lon="2.46874">
        <ele>2236.6000976562</ele>
        <time>2023-07-16T05:58:31.000Z</time>
      </trkpt>
      <trkpt lat="42.53041" lon="2.4687">
        <ele>2237.1999511719</ele>
        <time>2023-07-16T05:58:40.000Z</time>
      </trkpt>
      <trkpt lat="42.53041" lon="2.4687">
        <ele>2237.3999023438</ele>
        <time>2023-07-16T05:58:41.000Z</time>
      </trkpt>
      <trkpt lat="42.53038" lon="2.4687">
        <ele>2238.3999023438</ele>
        <time>2023-07-16T05:58:47.000Z</time>
      </trkpt>
      <trkpt lat="42.53037" lon="2.46873">
        <ele>2239.1999511719</ele>
        <time>2023-07-16T05:58:51.000Z</time>
      </trkpt>
      <trkpt lat="42.53037" lon="2.46873">
        <ele>2239.6000976562</ele>
        <time>2023-07-16T05:58:52.000Z</time>
      </trkpt>
      <trkpt lat="42.53035" lon="2.46879">
        <ele>2240.3999023438</ele>
        <time>2023-07-16T05:59:00.000Z</time>
      </trkpt>
      <trkpt lat="42.53033" lon="2.4688">
        <ele>2240.6000976562</ele>
        <time>2023-07-16T05:59:05.000Z</time>
      </trkpt>
      <trkpt lat="42.53032" lon="2.46881">
        <ele>2240.8000488281</ele>
        <time>2023-07-16T05:59:08.000Z</time>
      </trkpt>
      <trkpt lat="42.53028" lon="2.46884">
        <ele>2241.8000488281</ele>
        <time>2023-07-16T05:59:16.000Z</time>
      </trkpt>
      <trkpt lat="42.53028" lon="2.46884">
        <ele>2242.1999511719</ele>
        <time>2023-07-16T05:59:17.000Z</time>
      </trkpt>
      <trkpt lat="42.53027" lon="2.46885">
        <ele>2243</ele>
        <time>2023-07-16T05:59:20.000Z</time>
      </trkpt>
      <trkpt lat="42.53025" lon="2.46887">
        <ele>2243</ele>
        <time>2023-07-16T05:59:26.000Z</time>
      </trkpt>
      <trkpt lat="42.53027" lon="2.46884">
        <ele>2242.8000488281</ele>
        <time>2023-07-16T05:59:34.000Z</time>
      </trkpt>
      <trkpt lat="42.53028" lon="2.46884">
        <ele>2242</ele>
        <time>2023-07-16T05:59:42.000Z</time>
      </trkpt>
      <trkpt lat="42.53029" lon="2.46885">
        <ele>2242</ele>
        <time>2023-07-16T05:59:43.000Z</time>
      </trkpt>
      <trkpt lat="42.53026" lon="2.46886">
        <ele>2241.6000976562</ele>
        <time>2023-07-16T05:59:50.000Z</time>
      </trkpt>
      <trkpt lat="42.53028" lon="2.46885">
        <ele>2241.3999023438</ele>
        <time>2023-07-16T05:59:58.000Z</time>
      </trkpt>
      <trkpt lat="42.53022" lon="2.46889">
        <ele>2241.1999511719</ele>
        <time>2023-07-16T06:00:06.000Z</time>
      </trkpt>
      <trkpt lat="42.53017" lon="2.46889">
        <ele>2243</ele>
        <time>2023-07-16T06:00:11.000Z</time>
      </trkpt>
      <trkpt lat="42.53016" lon="2.46888">
        <ele>2243.6000976562</ele>
        <time>2023-07-16T06:00:13.000Z</time>
      </trkpt>
      <trkpt lat="42.53015" lon="2.46888">
        <ele>2244</ele>
        <time>2023-07-16T06:00:15.000Z</time>
      </trkpt>
      <trkpt lat="42.53013" lon="2.46886">
        <ele>2244.8000488281</ele>
        <time>2023-07-16T06:00:19.000Z</time>
      </trkpt>
      <trkpt lat="42.53011" lon="2.46886">
        <ele>2245.1999511719</ele>
        <time>2023-07-16T06:00:22.000Z</time>
      </trkpt>
      <trkpt lat="42.53008" lon="2.46885">
        <ele>2245.8000488281</ele>
        <time>2023-07-16T06:00:28.000Z</time>
      </trkpt>
      <trkpt lat="42.53006" lon="2.46886">
        <ele>2246.1999511719</ele>
        <time>2023-07-16T06:00:31.000Z</time>
      </trkpt>
      <trkpt lat="42.53007" lon="2.46888">
        <ele>2247</ele>
        <time>2023-07-16T06:00:35.000Z</time>
      </trkpt>
      <trkpt lat="42.53005" lon="2.46891">
        <ele>2247.3999023438</ele>
        <time>2023-07-16T06:00:38.000Z</time>
      </trkpt>
      <trkpt lat="42.53003" lon="2.46895">
        <ele>2247.8000488281</ele>
        <time>2023-07-16T06:00:43.000Z</time>
      </trkpt>
      <trkpt lat="42.53002" lon="2.46896">
        <ele>2248.3999023438</ele>
        <time>2023-07-16T06:00:47.000Z</time>
      </trkpt>
      <trkpt lat="42.52999" lon="2.46899">
        <ele>2249.3999023438</ele>
        <time>2023-07-16T06:00:52.000Z</time>
      </trkpt>
      <trkpt lat="42.52999" lon="2.46899">
        <ele>2249.6000976562</ele>
        <time>2023-07-16T06:00:53.000Z</time>
      </trkpt>
      <trkpt lat="42.52999" lon="2.46893">
        <ele>2250</ele>
        <time>2023-07-16T06:00:58.000Z</time>
      </trkpt>
      <trkpt lat="42.52999" lon="2.4689">
        <ele>2250.6000976562</ele>
        <time>2023-07-16T06:01:02.000Z</time>
      </trkpt>
      <trkpt lat="42.52999" lon="2.46884">
        <ele>2251.6000976562</ele>
        <time>2023-07-16T06:01:08.000Z</time>
      </trkpt>
      <trkpt lat="42.52995" lon="2.46876">
        <ele>2252.8000488281</ele>
        <time>2023-07-16T06:01:17.000Z</time>
      </trkpt>
      <trkpt lat="42.52993" lon="2.46875">
        <ele>2253.8000488281</ele>
        <time>2023-07-16T06:01:22.000Z</time>
      </trkpt>
      <trkpt lat="42.52991" lon="2.46873">
        <ele>2254.3999023438</ele>
        <time>2023-07-16T06:01:26.000Z</time>
      </trkpt>
      <trkpt lat="42.52991" lon="2.46871">
        <ele>2255</ele>
        <time>2023-07-16T06:01:29.000Z</time>
      </trkpt>
      <trkpt lat="42.52989" lon="2.46866">
        <ele>2256</ele>
        <time>2023-07-16T06:01:35.000Z</time>
      </trkpt>
      <trkpt lat="42.52988" lon="2.46866">
        <ele>2256.1999511719</ele>
        <time>2023-07-16T06:01:36.000Z</time>
      </trkpt>
      <trkpt lat="42.52987" lon="2.46864">
        <ele>2257.1999511719</ele>
        <time>2023-07-16T06:01:40.000Z</time>
      </trkpt>
      <trkpt lat="42.52985" lon="2.46862">
        <ele>2257.3999023438</ele>
        <time>2023-07-16T06:01:44.000Z</time>
      </trkpt>
      <trkpt lat="42.52981" lon="2.46861">
        <ele>2258</ele>
        <time>2023-07-16T06:01:53.000Z</time>
      </trkpt>
      <trkpt lat="42.52979" lon="2.46861">
        <ele>2258.3999023438</ele>
        <time>2023-07-16T06:01:55.000Z</time>
      </trkpt>
      <trkpt lat="42.52973" lon="2.46861">
        <ele>2259</ele>
        <time>2023-07-16T06:02:01.000Z</time>
      </trkpt>
      <trkpt lat="42.52968" lon="2.4686">
        <ele>2259.3999023438</ele>
        <time>2023-07-16T06:02:09.000Z</time>
      </trkpt>
      <trkpt lat="42.52962" lon="2.46858">
        <ele>2260.1999511719</ele>
        <time>2023-07-16T06:02:18.000Z</time>
      </trkpt>
      <trkpt lat="42.5296" lon="2.46857">
        <ele>2260.3999023438</ele>
        <time>2023-07-16T06:02:23.000Z</time>
      </trkpt>
      <trkpt lat="42.52956" lon="2.46855">
        <ele>2261.3999023438</ele>
        <time>2023-07-16T06:02:28.000Z</time>
      </trkpt>
      <trkpt lat="42.52956" lon="2.46854">
        <ele>2261.6000976562</ele>
        <time>2023-07-16T06:02:29.000Z</time>
      </trkpt>
      <trkpt lat="42.52953" lon="2.46851">
        <ele>2262.6000976562</ele>
        <time>2023-07-16T06:02:35.000Z</time>
      </trkpt>
      <trkpt lat="42.52951" lon="2.46849">
        <ele>2263</ele>
        <time>2023-07-16T06:02:38.000Z</time>
      </trkpt>
      <trkpt lat="42.52948" lon="2.46848">
        <ele>2263.6000976562</ele>
        <time>2023-07-16T06:02:44.000Z</time>
      </trkpt>
      <trkpt lat="42.52947" lon="2.46849">
        <ele>2264</ele>
        <time>2023-07-16T06:02:47.000Z</time>
      </trkpt>
      <trkpt lat="42.52948" lon="2.46854">
        <ele>2264.8000488281</ele>
        <time>2023-07-16T06:02:52.000Z</time>
      </trkpt>
      <trkpt lat="42.52949" lon="2.46854">
        <ele>2265</ele>
        <time>2023-07-16T06:02:54.000Z</time>
      </trkpt>
      <trkpt lat="42.5295" lon="2.46859">
        <ele>2265.8000488281</ele>
        <time>2023-07-16T06:03:04.000Z</time>
      </trkpt>
      <trkpt lat="42.52951" lon="2.46864">
        <ele>2266.8000488281</ele>
        <time>2023-07-16T06:03:10.000Z</time>
      </trkpt>
      <trkpt lat="42.52951" lon="2.46867">
        <ele>2267.3999023438</ele>
        <time>2023-07-16T06:03:13.000Z</time>
      </trkpt>
      <trkpt lat="42.52951" lon="2.46869">
        <ele>2267.8000488281</ele>
        <time>2023-07-16T06:03:15.000Z</time>
      </trkpt>
      <trkpt lat="42.52952" lon="2.46872">
        <ele>2269</ele>
        <time>2023-07-16T06:03:19.000Z</time>
      </trkpt>
      <trkpt lat="42.52953" lon="2.46874">
        <ele>2270</ele>
        <time>2023-07-16T06:03:23.000Z</time>
      </trkpt>
      <trkpt lat="42.52953" lon="2.46875">
        <ele>2270.1999511719</ele>
        <time>2023-07-16T06:03:24.000Z</time>
      </trkpt>
      <trkpt lat="42.52953" lon="2.46881">
        <ele>2271.1999511719</ele>
        <time>2023-07-16T06:03:30.000Z</time>
      </trkpt>
      <trkpt lat="42.52954" lon="2.46883">
        <ele>2271.3999023438</ele>
        <time>2023-07-16T06:03:32.000Z</time>
      </trkpt>
      <trkpt lat="42.52955" lon="2.46893">
        <ele>2272.1999511719</ele>
        <time>2023-07-16T06:03:42.000Z</time>
      </trkpt>
      <trkpt lat="42.52955" lon="2.46893">
        <ele>2272.1999511719</ele>
        <time>2023-07-16T06:03:43.000Z</time>
      </trkpt>
      <trkpt lat="42.52955" lon="2.46897">
        <ele>2273.1999511719</ele>
        <time>2023-07-16T06:03:49.000Z</time>
      </trkpt>
      <trkpt lat="42.52955" lon="2.46898">
        <ele>2273.3999023438</ele>
        <time>2023-07-16T06:03:50.000Z</time>
      </trkpt>
      <trkpt lat="42.52952" lon="2.46902">
        <ele>2274.3999023438</ele>
        <time>2023-07-16T06:03:58.000Z</time>
      </trkpt>
      <trkpt lat="42.52952" lon="2.46903">
        <ele>2274.3999023438</ele>
        <time>2023-07-16T06:04:00.000Z</time>
      </trkpt>
      <trkpt lat="42.52949" lon="2.46911">
        <ele>2275.1999511719</ele>
        <time>2023-07-16T06:04:07.000Z</time>
      </trkpt>
      <trkpt lat="42.52949" lon="2.46911">
        <ele>2275.3999023438</ele>
        <time>2023-07-16T06:04:08.000Z</time>
      </trkpt>
      <trkpt lat="42.52947" lon="2.4691">
        <ele>2276</ele>
        <time>2023-07-16T06:04:12.000Z</time>
      </trkpt>
      <trkpt lat="42.52946" lon="2.46908">
        <ele>2276.3999023438</ele>
        <time>2023-07-16T06:04:16.000Z</time>
      </trkpt>
      <trkpt lat="42.52945" lon="2.46905">
        <ele>2276.8000488281</ele>
        <time>2023-07-16T06:04:19.000Z</time>
      </trkpt>
      <trkpt lat="42.52942" lon="2.469">
        <ele>2277.3999023438</ele>
        <time>2023-07-16T06:04:26.000Z</time>
      </trkpt>
      <trkpt lat="42.52941" lon="2.469">
        <ele>2277.6000976562</ele>
        <time>2023-07-16T06:04:30.000Z</time>
      </trkpt>
      <trkpt lat="42.52937" lon="2.469">
        <ele>2278</ele>
        <time>2023-07-16T06:04:33.000Z</time>
      </trkpt>
      <trkpt lat="42.52934" lon="2.46899">
        <ele>2278.6000976562</ele>
        <time>2023-07-16T06:04:38.000Z</time>
      </trkpt>
      <trkpt lat="42.52932" lon="2.46898">
        <ele>2279</ele>
        <time>2023-07-16T06:04:41.000Z</time>
      </trkpt>
      <trkpt lat="42.52931" lon="2.46896">
        <ele>2279.6000976562</ele>
        <time>2023-07-16T06:04:46.000Z</time>
      </trkpt>
      <trkpt lat="42.52929" lon="2.46893">
        <ele>2280.1999511719</ele>
        <time>2023-07-16T06:04:50.000Z</time>
      </trkpt>
      <trkpt lat="42.52928" lon="2.46891">
        <ele>2280.8000488281</ele>
        <time>2023-07-16T06:04:54.000Z</time>
      </trkpt>
      <trkpt lat="42.52926" lon="2.46891">
        <ele>2281.1999511719</ele>
        <time>2023-07-16T06:04:58.000Z</time>
      </trkpt>
      <trkpt lat="42.52925" lon="2.4689">
        <ele>2281.8000488281</ele>
        <time>2023-07-16T06:05:01.000Z</time>
      </trkpt>
      <trkpt lat="42.52923" lon="2.4689">
        <ele>2283</ele>
        <time>2023-07-16T06:05:07.000Z</time>
      </trkpt>
      <trkpt lat="42.52921" lon="2.46888">
        <ele>2284.1999511719</ele>
        <time>2023-07-16T06:05:13.000Z</time>
      </trkpt>
      <trkpt lat="42.52919" lon="2.46887">
        <ele>2284.3999023438</ele>
        <time>2023-07-16T06:05:15.000Z</time>
      </trkpt>
      <trkpt lat="42.52915" lon="2.46885">
        <ele>2285.1999511719</ele>
        <time>2023-07-16T06:05:21.000Z</time>
      </trkpt>
      <trkpt lat="42.52912" lon="2.46884">
        <ele>2285.6000976562</ele>
        <time>2023-07-16T06:05:25.000Z</time>
      </trkpt>
      <trkpt lat="42.52909" lon="2.46884">
        <ele>2286.3999023438</ele>
        <time>2023-07-16T06:05:32.000Z</time>
      </trkpt>
      <trkpt lat="42.52904" lon="2.46884">
        <ele>2287.1999511719</ele>
        <time>2023-07-16T06:05:38.000Z</time>
      </trkpt>
      <trkpt lat="42.52903" lon="2.46883">
        <ele>2287.3999023438</ele>
        <time>2023-07-16T06:05:40.000Z</time>
      </trkpt>
      <trkpt lat="42.529" lon="2.46882">
        <ele>2288.3999023438</ele>
        <time>2023-07-16T06:05:45.000Z</time>
      </trkpt>
      <trkpt lat="42.52898" lon="2.46882">
        <ele>2289.1999511719</ele>
        <time>2023-07-16T06:05:48.000Z</time>
      </trkpt>
      <trkpt lat="42.52898" lon="2.46883">
        <ele>2289.6000976562</ele>
        <time>2023-07-16T06:05:50.000Z</time>
      </trkpt>
      <trkpt lat="42.52899" lon="2.46884">
        <ele>2290</ele>
        <time>2023-07-16T06:05:52.000Z</time>
      </trkpt>
      <trkpt lat="42.529" lon="2.46886">
        <ele>2290.3999023438</ele>
        <time>2023-07-16T06:05:55.000Z</time>
      </trkpt>
      <trkpt lat="42.52902" lon="2.46888">
        <ele>2290.6000976562</ele>
        <time>2023-07-16T06:05:59.000Z</time>
      </trkpt>
      <trkpt lat="42.52904" lon="2.46893">
        <ele>2291.1999511719</ele>
        <time>2023-07-16T06:06:04.000Z</time>
      </trkpt>
      <trkpt lat="42.52904" lon="2.46897">
        <ele>2291.8000488281</ele>
        <time>2023-07-16T06:06:09.000Z</time>
      </trkpt>
      <trkpt lat="42.52905" lon="2.46902">
        <ele>2292.8000488281</ele>
        <time>2023-07-16T06:06:14.000Z</time>
      </trkpt>
      <trkpt lat="42.52909" lon="2.46908">
        <ele>2293.8000488281</ele>
        <time>2023-07-16T06:06:22.000Z</time>
      </trkpt>
      <trkpt lat="42.52909" lon="2.46909">
        <ele>2294</ele>
        <time>2023-07-16T06:06:23.000Z</time>
      </trkpt>
      <trkpt lat="42.52909" lon="2.46912">
        <ele>2295</ele>
        <time>2023-07-16T06:06:27.000Z</time>
      </trkpt>
      <trkpt lat="42.52905" lon="2.46914">
        <ele>2296.1999511719</ele>
        <time>2023-07-16T06:06:31.000Z</time>
      </trkpt>
      <trkpt lat="42.52899" lon="2.46916">
        <ele>2296.3999023438</ele>
        <time>2023-07-16T06:06:38.000Z</time>
      </trkpt>
      <trkpt lat="42.52896" lon="2.46913">
        <ele>2296.6000976562</ele>
        <time>2023-07-16T06:06:45.000Z</time>
      </trkpt>
      <trkpt lat="42.52896" lon="2.46911">
        <ele>2297.8000488281</ele>
        <time>2023-07-16T06:06:49.000Z</time>
      </trkpt>
      <trkpt lat="42.52895" lon="2.46909">
        <ele>2298.1999511719</ele>
        <time>2023-07-16T06:06:52.000Z</time>
      </trkpt>
      <trkpt lat="42.5289" lon="2.46903">
        <ele>2298.3999023438</ele>
        <time>2023-07-16T06:07:02.000Z</time>
      </trkpt>
      <trkpt lat="42.52887" lon="2.46902">
        <ele>2298.8000488281</ele>
        <time>2023-07-16T06:07:08.000Z</time>
      </trkpt>
      <trkpt lat="42.52883" lon="2.46902">
        <ele>2299.6000976562</ele>
        <time>2023-07-16T06:07:11.000Z</time>
      </trkpt>
      <trkpt lat="42.52881" lon="2.46903">
        <ele>2300</ele>
        <time>2023-07-16T06:07:13.000Z</time>
      </trkpt>
      <trkpt lat="42.52876" lon="2.46905">
        <ele>2300.1999511719</ele>
        <time>2023-07-16T06:07:19.000Z</time>
      </trkpt>
      <trkpt lat="42.52871" lon="2.46904">
        <ele>2300.3999023438</ele>
        <time>2023-07-16T06:07:26.000Z</time>
      </trkpt>
      <trkpt lat="42.5287" lon="2.46904">
        <ele>2301.1999511719</ele>
        <time>2023-07-16T06:07:28.000Z</time>
      </trkpt>
      <trkpt lat="42.52868" lon="2.46903">
        <ele>2302.3999023438</ele>
        <time>2023-07-16T06:07:31.000Z</time>
      </trkpt>
      <trkpt lat="42.52866" lon="2.46903">
        <ele>2302.6000976562</ele>
        <time>2023-07-16T06:07:34.000Z</time>
      </trkpt>
      <trkpt lat="42.5286" lon="2.46903">
        <ele>2302.8000488281</ele>
        <time>2023-07-16T06:07:41.000Z</time>
      </trkpt>
      <trkpt lat="42.52858" lon="2.46903">
        <ele>2303.3999023438</ele>
        <time>2023-07-16T06:07:48.000Z</time>
      </trkpt>
      <trkpt lat="42.52857" lon="2.46903">
        <ele>2303.6000976562</ele>
        <time>2023-07-16T06:07:50.000Z</time>
      </trkpt>
      <trkpt lat="42.52851" lon="2.46901">
        <ele>2304.6000976562</ele>
        <time>2023-07-16T06:07:57.000Z</time>
      </trkpt>
      <trkpt lat="42.52849" lon="2.46901">
        <ele>2305.8000488281</ele>
        <time>2023-07-16T06:08:03.000Z</time>
      </trkpt>
      <trkpt lat="42.52848" lon="2.46901">
        <ele>2306</ele>
        <time>2023-07-16T06:08:05.000Z</time>
      </trkpt>
      <trkpt lat="42.52847" lon="2.46901">
        <ele>2306.8000488281</ele>
        <time>2023-07-16T06:08:09.000Z</time>
      </trkpt>
      <trkpt lat="42.52842" lon="2.46901">
        <ele>2307.6000976562</ele>
        <time>2023-07-16T06:08:13.000Z</time>
      </trkpt>
      <trkpt lat="42.52842" lon="2.46901">
        <ele>2307.8000488281</ele>
        <time>2023-07-16T06:08:14.000Z</time>
      </trkpt>
      <trkpt lat="42.52837" lon="2.46901">
        <ele>2309</ele>
        <time>2023-07-16T06:08:21.000Z</time>
      </trkpt>
      <trkpt lat="42.52836" lon="2.46901">
        <ele>2309.1999511719</ele>
        <time>2023-07-16T06:08:22.000Z</time>
      </trkpt>
      <trkpt lat="42.52835" lon="2.46901">
        <ele>2310.1999511719</ele>
        <time>2023-07-16T06:08:26.000Z</time>
      </trkpt>
      <trkpt lat="42.52834" lon="2.46901">
        <ele>2310.3999023438</ele>
        <time>2023-07-16T06:08:29.000Z</time>
      </trkpt>
      <trkpt lat="42.5283" lon="2.46899">
        <ele>2311.1999511719</ele>
        <time>2023-07-16T06:08:37.000Z</time>
      </trkpt>
      <trkpt lat="42.52824" lon="2.46902">
        <ele>2312.3999023438</ele>
        <time>2023-07-16T06:08:46.000Z</time>
      </trkpt>
      <trkpt lat="42.5282" lon="2.46905">
        <ele>2313.3999023438</ele>
        <time>2023-07-16T06:08:53.000Z</time>
      </trkpt>
      <trkpt lat="42.52818" lon="2.46905">
        <ele>2313.3999023438</ele>
        <time>2023-07-16T06:08:54.000Z</time>
      </trkpt>
      <trkpt lat="42.52814" lon="2.46907">
        <ele>2314.1999511719</ele>
        <time>2023-07-16T06:09:04.000Z</time>
      </trkpt>
      <trkpt lat="42.52813" lon="2.46907">
        <ele>2314.3999023438</ele>
        <time>2023-07-16T06:09:06.000Z</time>
      </trkpt>
      <trkpt lat="42.5281" lon="2.46907">
        <ele>2314.8000488281</ele>
        <time>2023-07-16T06:09:11.000Z</time>
      </trkpt>
      <trkpt lat="42.52804" lon="2.46909">
        <ele>2315.1999511719</ele>
        <time>2023-07-16T06:09:20.000Z</time>
      </trkpt>
      <trkpt lat="42.52801" lon="2.46909">
        <ele>2315.3999023438</ele>
        <time>2023-07-16T06:09:23.000Z</time>
      </trkpt>
      <trkpt lat="42.528" lon="2.46911">
        <ele>2315.3999023438</ele>
        <time>2023-07-16T06:09:27.000Z</time>
      </trkpt>
      <trkpt lat="42.52796" lon="2.46913">
        <ele>2316.6000976562</ele>
        <time>2023-07-16T06:09:34.000Z</time>
      </trkpt>
      <trkpt lat="42.52795" lon="2.46913">
        <ele>2316.8000488281</ele>
        <time>2023-07-16T06:09:35.000Z</time>
      </trkpt>
      <trkpt lat="42.52791" lon="2.46913">
        <ele>2317.6000976562</ele>
        <time>2023-07-16T06:09:39.000Z</time>
      </trkpt>
      <trkpt lat="42.52788" lon="2.46914">
        <ele>2318.1999511719</ele>
        <time>2023-07-16T06:09:43.000Z</time>
      </trkpt>
      <trkpt lat="42.52786" lon="2.46915">
        <ele>2318.8000488281</ele>
        <time>2023-07-16T06:09:47.000Z</time>
      </trkpt>
      <trkpt lat="42.52784" lon="2.46916">
        <ele>2319.8000488281</ele>
        <time>2023-07-16T06:09:53.000Z</time>
      </trkpt>
      <trkpt lat="42.52779" lon="2.46917">
        <ele>2320.8000488281</ele>
        <time>2023-07-16T06:10:01.000Z</time>
      </trkpt>
      <trkpt lat="42.52775" lon="2.46913">
        <ele>2321.1999511719</ele>
        <time>2023-07-16T06:10:08.000Z</time>
      </trkpt>
      <trkpt lat="42.52774" lon="2.46917">
        <ele>2321.8000488281</ele>
        <time>2023-07-16T06:10:15.000Z</time>
      </trkpt>
      <trkpt lat="42.52772" lon="2.46918">
        <ele>2321.8000488281</ele>
        <time>2023-07-16T06:10:16.000Z</time>
      </trkpt>
      <trkpt lat="42.52769" lon="2.46918">
        <ele>2322.3999023438</ele>
        <time>2023-07-16T06:10:21.000Z</time>
      </trkpt>
      <trkpt lat="42.52767" lon="2.46917">
        <ele>2322.8000488281</ele>
        <time>2023-07-16T06:10:25.000Z</time>
      </trkpt>
      <trkpt lat="42.52764" lon="2.46917">
        <ele>2323.1999511719</ele>
        <time>2023-07-16T06:10:30.000Z</time>
      </trkpt>
      <trkpt lat="42.52759" lon="2.46918">
        <ele>2324</ele>
        <time>2023-07-16T06:10:35.000Z</time>
      </trkpt>
      <trkpt lat="42.52759" lon="2.46919">
        <ele>2324.1999511719</ele>
        <time>2023-07-16T06:10:37.000Z</time>
      </trkpt>
      <trkpt lat="42.5276" lon="2.4692">
        <ele>2325</ele>
        <time>2023-07-16T06:10:40.000Z</time>
      </trkpt>
      <trkpt lat="42.52762" lon="2.46921">
        <ele>2325.6000976562</ele>
        <time>2023-07-16T06:10:44.000Z</time>
      </trkpt>
      <trkpt lat="42.52763" lon="2.46921">
        <ele>2326.1999511719</ele>
        <time>2023-07-16T06:10:46.000Z</time>
      </trkpt>
      <trkpt lat="42.52766" lon="2.46925">
        <ele>2326.6000976562</ele>
        <time>2023-07-16T06:10:53.000Z</time>
      </trkpt>
      <trkpt lat="42.52768" lon="2.46928">
        <ele>2326.8000488281</ele>
        <time>2023-07-16T06:11:01.000Z</time>
      </trkpt>
      <trkpt lat="42.52769" lon="2.46933">
        <ele>2327.3999023438</ele>
        <time>2023-07-16T06:11:07.000Z</time>
      </trkpt>
      <trkpt lat="42.52769" lon="2.46935">
        <ele>2327.6000976562</ele>
        <time>2023-07-16T06:11:08.000Z</time>
      </trkpt>
      <trkpt lat="42.52768" lon="2.46935">
        <ele>2328.6000976562</ele>
        <time>2023-07-16T06:11:11.000Z</time>
      </trkpt>
      <trkpt lat="42.52766" lon="2.46935">
        <ele>2329.6000976562</ele>
        <time>2023-07-16T06:11:14.000Z</time>
      </trkpt>
      <trkpt lat="42.52765" lon="2.46935">
        <ele>2329.6000976562</ele>
        <time>2023-07-16T06:11:15.000Z</time>
      </trkpt>
      <trkpt lat="42.52762" lon="2.46937">
        <ele>2330.3999023438</ele>
        <time>2023-07-16T06:11:21.000Z</time>
      </trkpt>
      <trkpt lat="42.52759" lon="2.46937">
        <ele>2330.8000488281</ele>
        <time>2023-07-16T06:11:25.000Z</time>
      </trkpt>
      <trkpt lat="42.52755" lon="2.46937">
        <ele>2331.3999023438</ele>
        <time>2023-07-16T06:11:31.000Z</time>
      </trkpt>
      <trkpt lat="42.52752" lon="2.46936">
        <ele>2331.8000488281</ele>
        <time>2023-07-16T06:11:36.000Z</time>
      </trkpt>
      <trkpt lat="42.5275" lon="2.46935">
        <ele>2332.1999511719</ele>
        <time>2023-07-16T06:11:40.000Z</time>
      </trkpt>
      <trkpt lat="42.5275" lon="2.46936">
        <ele>2333.1999511719</ele>
        <time>2023-07-16T06:11:43.000Z</time>
      </trkpt>
      <trkpt lat="42.52751" lon="2.46936">
        <ele>2333.6000976562</ele>
        <time>2023-07-16T06:11:46.000Z</time>
      </trkpt>
      <trkpt lat="42.52752" lon="2.46937">
        <ele>2334.1999511719</ele>
        <time>2023-07-16T06:11:49.000Z</time>
      </trkpt>
      <trkpt lat="42.52752" lon="2.46937">
        <ele>2334.1999511719</ele>
        <time>2023-07-16T06:11:50.000Z</time>
      </trkpt>
      <trkpt lat="42.52753" lon="2.46937">
        <ele>2334.6000976562</ele>
        <time>2023-07-16T06:12:01.000Z</time>
      </trkpt>
      <trkpt lat="42.52752" lon="2.46938">
        <ele>2335</ele>
        <time>2023-07-16T06:12:09.000Z</time>
      </trkpt>
      <trkpt lat="42.52755" lon="2.46941">
        <ele>2335.6000976562</ele>
        <time>2023-07-16T06:12:14.000Z</time>
      </trkpt>
      <trkpt lat="42.52756" lon="2.46943">
        <ele>2336.1999511719</ele>
        <time>2023-07-16T06:12:17.000Z</time>
      </trkpt>
      <trkpt lat="42.52757" lon="2.46945">
        <ele>2336.6000976562</ele>
        <time>2023-07-16T06:12:19.000Z</time>
      </trkpt>
      <trkpt lat="42.52758" lon="2.46949">
        <ele>2337.8000488281</ele>
        <time>2023-07-16T06:12:23.000Z</time>
      </trkpt>
      <trkpt lat="42.52758" lon="2.4695">
        <ele>2338.8000488281</ele>
        <time>2023-07-16T06:12:27.000Z</time>
      </trkpt>
      <trkpt lat="42.52759" lon="2.4695">
        <ele>2338.8000488281</ele>
        <time>2023-07-16T06:12:28.000Z</time>
      </trkpt>
      <trkpt lat="42.52762" lon="2.46954">
        <ele>2340</ele>
        <time>2023-07-16T06:12:34.000Z</time>
      </trkpt>
      <trkpt lat="42.52763" lon="2.46955">
        <ele>2340.6000976562</ele>
        <time>2023-07-16T06:12:36.000Z</time>
      </trkpt>
      <trkpt lat="42.52765" lon="2.46956">
        <ele>2341.1999511719</ele>
        <time>2023-07-16T06:12:38.000Z</time>
      </trkpt>
      <trkpt lat="42.52767" lon="2.46958">
        <ele>2342.1999511719</ele>
        <time>2023-07-16T06:12:44.000Z</time>
      </trkpt>
      <trkpt lat="42.52766" lon="2.46959">
        <ele>2342.3999023438</ele>
        <time>2023-07-16T06:12:46.000Z</time>
      </trkpt>
      <trkpt lat="42.52761" lon="2.46961">
        <ele>2343</ele>
        <time>2023-07-16T06:12:54.000Z</time>
      </trkpt>
      <trkpt lat="42.5276" lon="2.46961">
        <ele>2343.1999511719</ele>
        <time>2023-07-16T06:13:02.000Z</time>
      </trkpt>
      <trkpt lat="42.52759" lon="2.46962">
        <ele>2343.3999023438</ele>
        <time>2023-07-16T06:13:04.000Z</time>
      </trkpt>
      <trkpt lat="42.52753" lon="2.46967">
        <ele>2344</ele>
        <time>2023-07-16T06:13:12.000Z</time>
      </trkpt>
      <trkpt lat="42.52748" lon="2.4697">
        <ele>2344.6000976562</ele>
        <time>2023-07-16T06:13:17.000Z</time>
      </trkpt>
      <trkpt lat="42.52748" lon="2.46971">
        <ele>2344.8000488281</ele>
        <time>2023-07-16T06:13:19.000Z</time>
      </trkpt>
      <trkpt lat="42.52747" lon="2.46976">
        <ele>2345.1999511719</ele>
        <time>2023-07-16T06:13:25.000Z</time>
      </trkpt>
      <trkpt lat="42.52743" lon="2.46974">
        <ele>2345.6000976562</ele>
        <time>2023-07-16T06:13:30.000Z</time>
      </trkpt>
      <trkpt lat="42.52743" lon="2.46973">
        <ele>2345.6000976562</ele>
        <time>2023-07-16T06:13:31.000Z</time>
      </trkpt>
      <trkpt lat="42.52739" lon="2.46973">
        <ele>2346.3999023438</ele>
        <time>2023-07-16T06:13:39.000Z</time>
      </trkpt>
      <trkpt lat="42.52738" lon="2.46972">
        <ele>2346.6000976562</ele>
        <time>2023-07-16T06:13:44.000Z</time>
      </trkpt>
      <trkpt lat="42.52739" lon="2.46972">
        <ele>2346.6000976562</ele>
        <time>2023-07-16T06:13:47.000Z</time>
      </trkpt>
      <trkpt lat="42.5274" lon="2.4697">
        <ele>2347.8000488281</ele>
        <time>2023-07-16T06:13:54.000Z</time>
      </trkpt>
      <trkpt lat="42.52739" lon="2.4697">
        <ele>2347.8000488281</ele>
        <time>2023-07-16T06:13:56.000Z</time>
      </trkpt>
      <trkpt lat="42.52739" lon="2.4697">
        <ele>2348.6000976562</ele>
        <time>2023-07-16T06:14:06.000Z</time>
      </trkpt>
      <trkpt lat="42.5274" lon="2.46969">
        <ele>2348.8000488281</ele>
        <time>2023-07-16T06:14:08.000Z</time>
      </trkpt>
      <trkpt lat="42.52738" lon="2.46971">
        <ele>2348.8000488281</ele>
        <time>2023-07-16T06:14:13.000Z</time>
      </trkpt>
      <trkpt lat="42.52732" lon="2.46972">
        <ele>2349.1999511719</ele>
        <time>2023-07-16T06:14:21.000Z</time>
      </trkpt>
      <trkpt lat="42.52728" lon="2.46971">
        <ele>2349.8000488281</ele>
        <time>2023-07-16T06:14:26.000Z</time>
      </trkpt>
      <trkpt lat="42.52727" lon="2.46972">
        <ele>2349.8000488281</ele>
        <time>2023-07-16T06:14:27.000Z</time>
      </trkpt>
      <trkpt lat="42.52723" lon="2.46973">
        <ele>2350</ele>
        <time>2023-07-16T06:14:36.000Z</time>
      </trkpt>
      <trkpt lat="42.52721" lon="2.46974">
        <ele>2351</ele>
        <time>2023-07-16T06:14:41.000Z</time>
      </trkpt>
      <trkpt lat="42.5272" lon="2.46974">
        <ele>2351.8000488281</ele>
        <time>2023-07-16T06:14:43.000Z</time>
      </trkpt>
      <trkpt lat="42.5272" lon="2.46973">
        <ele>2352</ele>
        <time>2023-07-16T06:14:44.000Z</time>
      </trkpt>
      <trkpt lat="42.52716" lon="2.46974">
        <ele>2352.3999023438</ele>
        <time>2023-07-16T06:14:51.000Z</time>
      </trkpt>
      <trkpt lat="42.52717" lon="2.46975">
        <ele>2353.6000976562</ele>
        <time>2023-07-16T06:14:54.000Z</time>
      </trkpt>
      <trkpt lat="42.52719" lon="2.46978">
        <ele>2354.3999023438</ele>
        <time>2023-07-16T06:14:59.000Z</time>
      </trkpt>
      <trkpt lat="42.52721" lon="2.46981">
        <ele>2354.8000488281</ele>
        <time>2023-07-16T06:15:03.000Z</time>
      </trkpt>
      <trkpt lat="42.52722" lon="2.46984">
        <ele>2355.1999511719</ele>
        <time>2023-07-16T06:15:06.000Z</time>
      </trkpt>
      <trkpt lat="42.52724" lon="2.46992">
        <ele>2355.6000976562</ele>
        <time>2023-07-16T06:15:14.000Z</time>
      </trkpt>
      <trkpt lat="42.52726" lon="2.46998">
        <ele>2355.3999023438</ele>
        <time>2023-07-16T06:15:21.000Z</time>
      </trkpt>
      <trkpt lat="42.52728" lon="2.47003">
        <ele>2355.8000488281</ele>
        <time>2023-07-16T06:15:27.000Z</time>
      </trkpt>
      <trkpt lat="42.52728" lon="2.47005">
        <ele>2356.3999023438</ele>
        <time>2023-07-16T06:15:29.000Z</time>
      </trkpt>
      <trkpt lat="42.52729" lon="2.47006">
        <ele>2356.8000488281</ele>
        <time>2023-07-16T06:15:31.000Z</time>
      </trkpt>
      <trkpt lat="42.52729" lon="2.47011">
        <ele>2358</ele>
        <time>2023-07-16T06:15:37.000Z</time>
      </trkpt>
      <trkpt lat="42.52728" lon="2.47019">
        <ele>2359</ele>
        <time>2023-07-16T06:15:45.000Z</time>
      </trkpt>
      <trkpt lat="42.52728" lon="2.47021">
        <ele>2359</ele>
        <time>2023-07-16T06:15:46.000Z</time>
      </trkpt>
      <trkpt lat="42.52728" lon="2.47025">
        <ele>2360.1999511719</ele>
        <time>2023-07-16T06:15:51.000Z</time>
      </trkpt>
      <trkpt lat="42.52729" lon="2.47027">
        <ele>2361</ele>
        <time>2023-07-16T06:15:54.000Z</time>
      </trkpt>
      <trkpt lat="42.52729" lon="2.47028">
        <ele>2361.1999511719</ele>
        <time>2023-07-16T06:15:55.000Z</time>
      </trkpt>
      <trkpt lat="42.52728" lon="2.47031">
        <ele>2362.1999511719</ele>
        <time>2023-07-16T06:15:59.000Z</time>
      </trkpt>
      <trkpt lat="42.52728" lon="2.47035">
        <ele>2362.8000488281</ele>
        <time>2023-07-16T06:16:04.000Z</time>
      </trkpt>
      <trkpt lat="42.52728" lon="2.47036">
        <ele>2363.3999023438</ele>
        <time>2023-07-16T06:16:06.000Z</time>
      </trkpt>
      <trkpt lat="42.52727" lon="2.47042">
        <ele>2364.3999023438</ele>
        <time>2023-07-16T06:16:11.000Z</time>
      </trkpt>
      <trkpt lat="42.52726" lon="2.47044">
        <ele>2364.6000976562</ele>
        <time>2023-07-16T06:16:14.000Z</time>
      </trkpt>
      <trkpt lat="42.52723" lon="2.47051">
        <ele>2365</ele>
        <time>2023-07-16T06:16:23.000Z</time>
      </trkpt>
      <trkpt lat="42.52722" lon="2.47054">
        <ele>2365.6000976562</ele>
        <time>2023-07-16T06:16:26.000Z</time>
      </trkpt>
      <trkpt lat="42.52721" lon="2.4706">
        <ele>2366.3999023438</ele>
        <time>2023-07-16T06:16:32.000Z</time>
      </trkpt>
      <trkpt lat="42.52721" lon="2.47061">
        <ele>2366.6000976562</ele>
        <time>2023-07-16T06:16:33.000Z</time>
      </trkpt>
      <trkpt lat="42.52719" lon="2.47063">
        <ele>2367.6000976562</ele>
        <time>2023-07-16T06:16:39.000Z</time>
      </trkpt>
      <trkpt lat="42.52719" lon="2.47064">
        <ele>2367.8000488281</ele>
        <time>2023-07-16T06:16:40.000Z</time>
      </trkpt>
      <trkpt lat="42.52718" lon="2.47066">
        <ele>2368.6000976562</ele>
        <time>2023-07-16T06:16:42.000Z</time>
      </trkpt>
      <trkpt lat="42.52716" lon="2.4707">
        <ele>2368.8000488281</ele>
        <time>2023-07-16T06:16:48.000Z</time>
      </trkpt>
      <trkpt lat="42.52714" lon="2.47075">
        <ele>2369.8000488281</ele>
        <time>2023-07-16T06:16:54.000Z</time>
      </trkpt>
      <trkpt lat="42.52714" lon="2.47075">
        <ele>2370.1999511719</ele>
        <time>2023-07-16T06:16:56.000Z</time>
      </trkpt>
      <trkpt lat="42.52714" lon="2.47073">
        <ele>2370.1999511719</ele>
        <time>2023-07-16T06:16:58.000Z</time>
      </trkpt>
      <trkpt lat="42.52713" lon="2.47069">
        <ele>2370.8000488281</ele>
        <time>2023-07-16T06:17:03.000Z</time>
      </trkpt>
      <trkpt lat="42.52713" lon="2.47069">
        <ele>2370.8000488281</ele>
        <time>2023-07-16T06:17:04.000Z</time>
      </trkpt>
      <trkpt lat="42.52712" lon="2.47069">
        <ele>2370.8000488281</ele>
        <time>2023-07-16T06:17:13.000Z</time>
      </trkpt>
      <trkpt lat="42.52714" lon="2.47069">
        <ele>2371</ele>
        <time>2023-07-16T06:17:20.000Z</time>
      </trkpt>
      <trkpt lat="42.52713" lon="2.47065">
        <ele>2371.1999511719</ele>
        <time>2023-07-16T06:17:28.000Z</time>
      </trkpt>
      <trkpt lat="42.52711" lon="2.47063">
        <ele>2371.8000488281</ele>
        <time>2023-07-16T06:17:32.000Z</time>
      </trkpt>
      <trkpt lat="42.5271" lon="2.47062">
        <ele>2372</ele>
        <time>2023-07-16T06:17:34.000Z</time>
      </trkpt>
      <trkpt lat="42.52708" lon="2.47058">
        <ele>2372.8000488281</ele>
        <time>2023-07-16T06:17:40.000Z</time>
      </trkpt>
      <trkpt lat="42.52707" lon="2.47055">
        <ele>2373.3999023438</ele>
        <time>2023-07-16T06:17:44.000Z</time>
      </trkpt>
      <trkpt lat="42.52705" lon="2.47051">
        <ele>2374</ele>
        <time>2023-07-16T06:17:48.000Z</time>
      </trkpt>
      <trkpt lat="42.52703" lon="2.47047">
        <ele>2374.6000976562</ele>
        <time>2023-07-16T06:17:53.000Z</time>
      </trkpt>
      <trkpt lat="42.52704" lon="2.47045">
        <ele>2374.6000976562</ele>
        <time>2023-07-16T06:18:02.000Z</time>
      </trkpt>
      <trkpt lat="42.52705" lon="2.47048">
        <ele>2373.8000488281</ele>
        <time>2023-07-16T06:18:10.000Z</time>
      </trkpt>
      <trkpt lat="42.52703" lon="2.47049">
        <ele>2374.1999511719</ele>
        <time>2023-07-16T06:18:18.000Z</time>
      </trkpt>
      <trkpt lat="42.52704" lon="2.47049">
        <ele>2374.3999023438</ele>
        <time>2023-07-16T06:18:26.000Z</time>
      </trkpt>
      <trkpt lat="42.52704" lon="2.4705">
        <ele>2373.3999023438</ele>
        <time>2023-07-16T06:18:35.000Z</time>
      </trkpt>
      <trkpt lat="42.52704" lon="2.47049">
        <ele>2374.6000976562</ele>
        <time>2023-07-16T06:18:43.000Z</time>
      </trkpt>
      <trkpt lat="42.52704" lon="2.4705">
        <ele>2374.8000488281</ele>
        <time>2023-07-16T06:18:49.000Z</time>
      </trkpt>
      <trkpt lat="42.52701" lon="2.4705">
        <ele>2374.8000488281</ele>
        <time>2023-07-16T06:19:00.000Z</time>
      </trkpt>
      <trkpt lat="42.52703" lon="2.47049">
        <ele>2374.1999511719</ele>
        <time>2023-07-16T06:19:07.000Z</time>
      </trkpt>
      <trkpt lat="42.52703" lon="2.4705">
        <ele>2375.3999023438</ele>
        <time>2023-07-16T06:19:14.000Z</time>
      </trkpt>
      <trkpt lat="42.52703" lon="2.47051">
        <ele>2376.1999511719</ele>
        <time>2023-07-16T06:19:16.000Z</time>
      </trkpt>
      <trkpt lat="42.52703" lon="2.47051">
        <ele>2376.3999023438</ele>
        <time>2023-07-16T06:19:19.000Z</time>
      </trkpt>
      <trkpt lat="42.52703" lon="2.47048">
        <ele>2377</ele>
        <time>2023-07-16T06:19:24.000Z</time>
      </trkpt>
      <trkpt lat="42.52699" lon="2.47045">
        <ele>2377.3999023438</ele>
        <time>2023-07-16T06:19:33.000Z</time>
      </trkpt>
      <trkpt lat="42.52698" lon="2.47044">
        <ele>2377.8000488281</ele>
        <time>2023-07-16T06:19:36.000Z</time>
      </trkpt>
      <trkpt lat="42.52696" lon="2.47043">
        <ele>2379.8000488281</ele>
        <time>2023-07-16T06:19:39.000Z</time>
      </trkpt>
      <trkpt lat="42.52695" lon="2.47044">
        <ele>2381</ele>
        <time>2023-07-16T06:19:42.000Z</time>
      </trkpt>
      <trkpt lat="42.52694" lon="2.47048">
        <ele>2381.3999023438</ele>
        <time>2023-07-16T06:19:46.000Z</time>
      </trkpt>
      <trkpt lat="42.52693" lon="2.47052">
        <ele>2383</ele>
        <time>2023-07-16T06:19:50.000Z</time>
      </trkpt>
      <trkpt lat="42.52691" lon="2.47054">
        <ele>2384.3999023438</ele>
        <time>2023-07-16T06:19:53.000Z</time>
      </trkpt>
      <trkpt lat="42.52691" lon="2.47055">
        <ele>2385.6000976562</ele>
        <time>2023-07-16T06:19:54.000Z</time>
      </trkpt>
      <trkpt lat="42.5269" lon="2.47056">
        <ele>2385.6000976562</ele>
        <time>2023-07-16T06:19:55.000Z</time>
      </trkpt>
      <trkpt lat="42.52686" lon="2.47052">
        <ele>2384.3999023438</ele>
        <time>2023-07-16T06:20:02.000Z</time>
      </trkpt>
      <trkpt lat="42.52686" lon="2.47051">
        <ele>2383</ele>
        <time>2023-07-16T06:20:03.000Z</time>
      </trkpt>
      <trkpt lat="42.52684" lon="2.47046">
        <ele>2384.6000976562</ele>
        <time>2023-07-16T06:20:10.000Z</time>
      </trkpt>
      <trkpt lat="42.52684" lon="2.47046">
        <ele>2385.6000976562</ele>
        <time>2023-07-16T06:20:11.000Z</time>
      </trkpt>
      <trkpt lat="42.52683" lon="2.47045">
        <ele>2385.8000488281</ele>
        <time>2023-07-16T06:20:12.000Z</time>
      </trkpt>
      <trkpt lat="42.52681" lon="2.47044">
        <ele>2384.1999511719</ele>
        <time>2023-07-16T06:20:17.000Z</time>
      </trkpt>
      <trkpt lat="42.52679" lon="2.47043">
        <ele>2384</ele>
        <time>2023-07-16T06:20:19.000Z</time>
      </trkpt>
      <trkpt lat="42.52678" lon="2.47043">
        <ele>2383.1999511719</ele>
        <time>2023-07-16T06:20:22.000Z</time>
      </trkpt>
      <trkpt lat="42.52678" lon="2.47044">
        <ele>2383</ele>
        <time>2023-07-16T06:20:25.000Z</time>
      </trkpt>
      <trkpt lat="42.52678" lon="2.47046">
        <ele>2383</ele>
        <time>2023-07-16T06:20:27.000Z</time>
      </trkpt>
      <trkpt lat="42.52677" lon="2.47054">
        <ele>2384</ele>
        <time>2023-07-16T06:20:37.000Z</time>
      </trkpt>
      <trkpt lat="42.52676" lon="2.47057">
        <ele>2384.1999511719</ele>
        <time>2023-07-16T06:20:40.000Z</time>
      </trkpt>
      <trkpt lat="42.52672" lon="2.47059">
        <ele>2384.1999511719</ele>
        <time>2023-07-16T06:20:45.000Z</time>
      </trkpt>
      <trkpt lat="42.5267" lon="2.47056">
        <ele>2385</ele>
        <time>2023-07-16T06:20:53.000Z</time>
      </trkpt>
      <trkpt lat="42.5267" lon="2.47055">
        <ele>2385.6000976562</ele>
        <time>2023-07-16T06:20:54.000Z</time>
      </trkpt>
      <trkpt lat="42.52667" lon="2.47058">
        <ele>2386.8000488281</ele>
        <time>2023-07-16T06:21:01.000Z</time>
      </trkpt>
      <trkpt lat="42.52667" lon="2.47061">
        <ele>2388</ele>
        <time>2023-07-16T06:21:08.000Z</time>
      </trkpt>
      <trkpt lat="42.52667" lon="2.47062">
        <ele>2388</ele>
        <time>2023-07-16T06:21:09.000Z</time>
      </trkpt>
      <trkpt lat="42.52662" lon="2.47063">
        <ele>2389</ele>
        <time>2023-07-16T06:21:17.000Z</time>
      </trkpt>
      <trkpt lat="42.52661" lon="2.47061">
        <ele>2389.1999511719</ele>
        <time>2023-07-16T06:21:24.000Z</time>
      </trkpt>
      <trkpt lat="42.52659" lon="2.47057">
        <ele>2390</ele>
        <time>2023-07-16T06:21:31.000Z</time>
      </trkpt>
      <trkpt lat="42.52658" lon="2.47057">
        <ele>2390</ele>
        <time>2023-07-16T06:21:33.000Z</time>
      </trkpt>
      <trkpt lat="42.52656" lon="2.47055">
        <ele>2390.8000488281</ele>
        <time>2023-07-16T06:21:38.000Z</time>
      </trkpt>
      <trkpt lat="42.52655" lon="2.47054">
        <ele>2391</ele>
        <time>2023-07-16T06:21:40.000Z</time>
      </trkpt>
      <trkpt lat="42.52652" lon="2.47053">
        <ele>2391.6000976562</ele>
        <time>2023-07-16T06:21:45.000Z</time>
      </trkpt>
      <trkpt lat="42.52651" lon="2.47053">
        <ele>2392.3999023438</ele>
        <time>2023-07-16T06:21:47.000Z</time>
      </trkpt>
      <trkpt lat="42.52651" lon="2.47052">
        <ele>2392.8000488281</ele>
        <time>2023-07-16T06:21:54.000Z</time>
      </trkpt>
      <trkpt lat="42.52648" lon="2.47053">
        <ele>2393.6000976562</ele>
        <time>2023-07-16T06:22:01.000Z</time>
      </trkpt>
      <trkpt lat="42.52641" lon="2.47054">
        <ele>2394.8000488281</ele>
        <time>2023-07-16T06:22:09.000Z</time>
      </trkpt>
      <trkpt lat="42.52639" lon="2.47053">
        <ele>2395.8000488281</ele>
        <time>2023-07-16T06:22:12.000Z</time>
      </trkpt>
      <trkpt lat="42.52634" lon="2.47053">
        <ele>2396.6000976562</ele>
        <time>2023-07-16T06:22:18.000Z</time>
      </trkpt>
      <trkpt lat="42.52633" lon="2.47054">
        <ele>2396.8000488281</ele>
        <time>2023-07-16T06:22:19.000Z</time>
      </trkpt>
      <trkpt lat="42.52632" lon="2.47054">
        <ele>2397.8000488281</ele>
        <time>2023-07-16T06:22:25.000Z</time>
      </trkpt>
      <trkpt lat="42.52632" lon="2.47054">
        <ele>2397.8000488281</ele>
        <time>2023-07-16T06:22:26.000Z</time>
      </trkpt>
      <trkpt lat="42.52631" lon="2.47053">
        <ele>2397.3999023438</ele>
        <time>2023-07-16T06:22:35.000Z</time>
      </trkpt>
      <trkpt lat="42.52637" lon="2.4705">
        <ele>2397.8000488281</ele>
        <time>2023-07-16T06:22:43.000Z</time>
      </trkpt>
      <trkpt lat="42.52634" lon="2.47048">
        <ele>2397.8000488281</ele>
        <time>2023-07-16T06:22:51.000Z</time>
      </trkpt>
      <trkpt lat="42.52629" lon="2.47053">
        <ele>2398.3999023438</ele>
        <time>2023-07-16T06:22:56.000Z</time>
      </trkpt>
      <trkpt lat="42.5263" lon="2.47055">
        <ele>2399</ele>
        <time>2023-07-16T06:22:58.000Z</time>
      </trkpt>
      <trkpt lat="42.52632" lon="2.4706">
        <ele>2399.8000488281</ele>
        <time>2023-07-16T06:23:03.000Z</time>
      </trkpt>
      <trkpt lat="42.52633" lon="2.47061">
        <ele>2400.1999511719</ele>
        <time>2023-07-16T06:23:05.000Z</time>
      </trkpt>
      <trkpt lat="42.52633" lon="2.47066">
        <ele>2400.8000488281</ele>
        <time>2023-07-16T06:23:09.000Z</time>
      </trkpt>
      <trkpt lat="42.52632" lon="2.4707">
        <ele>2401.1999511719</ele>
        <time>2023-07-16T06:23:12.000Z</time>
      </trkpt>
      <trkpt lat="42.52631" lon="2.47069">
        <ele>2401.3999023438</ele>
        <time>2023-07-16T06:23:15.000Z</time>
      </trkpt>
      <trkpt lat="42.5263" lon="2.47069">
        <ele>2401.6000976562</ele>
        <time>2023-07-16T06:23:17.000Z</time>
      </trkpt>
      <trkpt lat="42.52627" lon="2.47065">
        <ele>2402</ele>
        <time>2023-07-16T06:23:25.000Z</time>
      </trkpt>
      <trkpt lat="42.52627" lon="2.47064">
        <ele>2402.1999511719</ele>
        <time>2023-07-16T06:23:26.000Z</time>
      </trkpt>
      <trkpt lat="42.52622" lon="2.47065">
        <ele>2402.3999023438</ele>
        <time>2023-07-16T06:23:34.000Z</time>
      </trkpt>
      <trkpt lat="42.5262" lon="2.47067">
        <ele>2403</ele>
        <time>2023-07-16T06:23:41.000Z</time>
      </trkpt>
      <trkpt lat="42.5262" lon="2.47067">
        <ele>2403.3999023438</ele>
        <time>2023-07-16T06:23:43.000Z</time>
      </trkpt>
      <trkpt lat="42.52618" lon="2.47063">
        <ele>2403.8000488281</ele>
        <time>2023-07-16T06:23:48.000Z</time>
      </trkpt>
      <trkpt lat="42.52617" lon="2.47061">
        <ele>2404.8000488281</ele>
        <time>2023-07-16T06:23:53.000Z</time>
      </trkpt>
      <trkpt lat="42.52616" lon="2.47061">
        <ele>2406</ele>
        <time>2023-07-16T06:23:55.000Z</time>
      </trkpt>
      <trkpt lat="42.52616" lon="2.4706">
        <ele>2406.1999511719</ele>
        <time>2023-07-16T06:23:57.000Z</time>
      </trkpt>
      <trkpt lat="42.52614" lon="2.47058">
        <ele>2407</ele>
        <time>2023-07-16T06:24:01.000Z</time>
      </trkpt>
      <trkpt lat="42.52612" lon="2.47057">
        <ele>2408.1999511719</ele>
        <time>2023-07-16T06:24:04.000Z</time>
      </trkpt>
      <trkpt lat="42.52612" lon="2.47056">
        <ele>2409.3999023438</ele>
        <time>2023-07-16T06:24:06.000Z</time>
      </trkpt>
      <trkpt lat="42.52612" lon="2.47057">
        <ele>2410</ele>
        <time>2023-07-16T06:24:13.000Z</time>
      </trkpt>
      <trkpt lat="42.52613" lon="2.47056">
        <ele>2409.3999023438</ele>
        <time>2023-07-16T06:24:19.000Z</time>
      </trkpt>
      <trkpt lat="42.52609" lon="2.47058">
        <ele>2408.3999023438</ele>
        <time>2023-07-16T06:24:28.000Z</time>
      </trkpt>
      <trkpt lat="42.52606" lon="2.4706">
        <ele>2407.6000976562</ele>
        <time>2023-07-16T06:24:34.000Z</time>
      </trkpt>
      <trkpt lat="42.5261" lon="2.47061">
        <ele>2408</ele>
        <time>2023-07-16T06:24:42.000Z</time>
      </trkpt>
      <trkpt lat="42.52613" lon="2.4706">
        <ele>2408.6000976562</ele>
        <time>2023-07-16T06:24:49.000Z</time>
      </trkpt>
      <trkpt lat="42.52613" lon="2.47057">
        <ele>2408.1999511719</ele>
        <time>2023-07-16T06:24:55.000Z</time>
      </trkpt>
      <trkpt lat="42.52612" lon="2.4706">
        <ele>2409</ele>
        <time>2023-07-16T06:25:01.000Z</time>
      </trkpt>
      <trkpt lat="42.52613" lon="2.47065">
        <ele>2407.1999511719</ele>
        <time>2023-07-16T06:25:06.000Z</time>
      </trkpt>
      <trkpt lat="42.52614" lon="2.47065">
        <ele>2406.1999511719</ele>
        <time>2023-07-16T06:25:07.000Z</time>
      </trkpt>
      <trkpt lat="42.52614" lon="2.47065">
        <ele>2405.8000488281</ele>
        <time>2023-07-16T06:25:08.000Z</time>
      </trkpt>
      <trkpt lat="42.52616" lon="2.47063">
        <ele>2407.6000976562</ele>
        <time>2023-07-16T06:25:13.000Z</time>
      </trkpt>
      <trkpt lat="42.52616" lon="2.47061">
        <ele>2407.6000976562</ele>
        <time>2023-07-16T06:25:15.000Z</time>
      </trkpt>
      <trkpt lat="42.52609" lon="2.47056">
        <ele>2407.6000976562</ele>
        <time>2023-07-16T06:25:21.000Z</time>
      </trkpt>
      <trkpt lat="42.52606" lon="2.4706">
        <ele>2408.3999023438</ele>
        <time>2023-07-16T06:25:27.000Z</time>
      </trkpt>
      <trkpt lat="42.52607" lon="2.47064">
        <ele>2408.1999511719</ele>
        <time>2023-07-16T06:25:33.000Z</time>
      </trkpt>
      <trkpt lat="42.52608" lon="2.47068">
        <ele>2408.6000976562</ele>
        <time>2023-07-16T06:25:36.000Z</time>
      </trkpt>
      <trkpt lat="42.52608" lon="2.47072">
        <ele>2409.6000976562</ele>
        <time>2023-07-16T06:25:40.000Z</time>
      </trkpt>
      <trkpt lat="42.52607" lon="2.47071">
        <ele>2410.1999511719</ele>
        <time>2023-07-16T06:25:42.000Z</time>
      </trkpt>
      <trkpt lat="42.52607" lon="2.4707">
        <ele>2410.8000488281</ele>
        <time>2023-07-16T06:25:45.000Z</time>
      </trkpt>
      <trkpt lat="42.52604" lon="2.47069">
        <ele>2411</ele>
        <time>2023-07-16T06:25:50.000Z</time>
      </trkpt>
      <trkpt lat="42.526" lon="2.47067">
        <ele>2411.1999511719</ele>
        <time>2023-07-16T06:25:57.000Z</time>
      </trkpt>
      <trkpt lat="42.52597" lon="2.47066">
        <ele>2412</ele>
        <time>2023-07-16T06:26:00.000Z</time>
      </trkpt>
      <trkpt lat="42.52597" lon="2.47066">
        <ele>2413.6000976562</ele>
        <time>2023-07-16T06:26:03.000Z</time>
      </trkpt>
      <trkpt lat="42.52597" lon="2.47066">
        <ele>2413.6000976562</ele>
        <time>2023-07-16T06:26:04.000Z</time>
      </trkpt>
      <trkpt lat="42.52601" lon="2.47075">
        <ele>2414</ele>
        <time>2023-07-16T06:26:13.000Z</time>
      </trkpt>
      <trkpt lat="42.52601" lon="2.47077">
        <ele>2414.6000976562</ele>
        <time>2023-07-16T06:26:15.000Z</time>
      </trkpt>
      <trkpt lat="42.526" lon="2.47078">
        <ele>2415</ele>
        <time>2023-07-16T06:26:17.000Z</time>
      </trkpt>
      <trkpt lat="42.526" lon="2.47077">
        <ele>2415.1999511719</ele>
        <time>2023-07-16T06:26:19.000Z</time>
      </trkpt>
      <trkpt lat="42.52598" lon="2.47074">
        <ele>2415.6000976562</ele>
        <time>2023-07-16T06:26:23.000Z</time>
      </trkpt>
      <trkpt lat="42.52596" lon="2.47072">
        <ele>2416.1999511719</ele>
        <time>2023-07-16T06:26:27.000Z</time>
      </trkpt>
      <trkpt lat="42.52592" lon="2.47072">
        <ele>2416.8000488281</ele>
        <time>2023-07-16T06:26:32.000Z</time>
      </trkpt>
      <trkpt lat="42.52588" lon="2.47071">
        <ele>2417</ele>
        <time>2023-07-16T06:26:36.000Z</time>
      </trkpt>
      <trkpt lat="42.52582" lon="2.47074">
        <ele>2418</ele>
        <time>2023-07-16T06:26:47.000Z</time>
      </trkpt>
      <trkpt lat="42.52584" lon="2.47078">
        <ele>2418.8000488281</ele>
        <time>2023-07-16T06:26:54.000Z</time>
      </trkpt>
      <trkpt lat="42.52584" lon="2.47079">
        <ele>2419.1999511719</ele>
        <time>2023-07-16T06:26:55.000Z</time>
      </trkpt>
      <trkpt lat="42.52585" lon="2.47081">
        <ele>2420</ele>
        <time>2023-07-16T06:27:01.000Z</time>
      </trkpt>
      <trkpt lat="42.52586" lon="2.4708">
        <ele>2420.6000976562</ele>
        <time>2023-07-16T06:27:04.000Z</time>
      </trkpt>
      <trkpt lat="42.52588" lon="2.47078">
        <ele>2421.1999511719</ele>
        <time>2023-07-16T06:27:07.000Z</time>
      </trkpt>
      <trkpt lat="42.52587" lon="2.47076">
        <ele>2422.1999511719</ele>
        <time>2023-07-16T06:27:11.000Z</time>
      </trkpt>
      <trkpt lat="42.52587" lon="2.47076">
        <ele>2422.3999023438</ele>
        <time>2023-07-16T06:27:13.000Z</time>
      </trkpt>
      <trkpt lat="42.52583" lon="2.47075">
        <ele>2423.1999511719</ele>
        <time>2023-07-16T06:27:20.000Z</time>
      </trkpt>
      <trkpt lat="42.52567" lon="2.47071">
        <ele>2425.3999023438</ele>
        <time>2023-07-16T06:27:44.000Z</time>
      </trkpt>
      <trkpt lat="42.52565" lon="2.4707">
        <ele>2425.8000488281</ele>
        <time>2023-07-16T06:27:47.000Z</time>
      </trkpt>
      <trkpt lat="42.52543" lon="2.47061">
        <ele>2433.6000976562</ele>
        <time>2023-07-16T06:28:35.000Z</time>
      </trkpt>
      <trkpt lat="42.52543" lon="2.4706">
        <ele>2433.8000488281</ele>
        <time>2023-07-16T06:28:36.000Z</time>
      </trkpt>
      <trkpt lat="42.52539" lon="2.47059">
        <ele>2434.3999023438</ele>
        <time>2023-07-16T06:28:41.000Z</time>
      </trkpt>
      <trkpt lat="42.52538" lon="2.47058">
        <ele>2434.3999023438</ele>
        <time>2023-07-16T06:28:44.000Z</time>
      </trkpt>
      <trkpt lat="42.5253" lon="2.47058">
        <ele>2435.8000488281</ele>
        <time>2023-07-16T06:29:01.000Z</time>
      </trkpt>
      <trkpt lat="42.52529" lon="2.47057">
        <ele>2436.3999023438</ele>
        <time>2023-07-16T06:29:04.000Z</time>
      </trkpt>
      <trkpt lat="42.52528" lon="2.47058">
        <ele>2436.8000488281</ele>
        <time>2023-07-16T06:29:06.000Z</time>
      </trkpt>
      <trkpt lat="42.52527" lon="2.47058">
        <ele>2437.6000976562</ele>
        <time>2023-07-16T06:29:09.000Z</time>
      </trkpt>
      <trkpt lat="42.52526" lon="2.47061">
        <ele>2438.3999023438</ele>
        <time>2023-07-16T06:29:11.000Z</time>
      </trkpt>
      <trkpt lat="42.52526" lon="2.47061">
        <ele>2438.8000488281</ele>
        <time>2023-07-16T06:29:12.000Z</time>
      </trkpt>
      <trkpt lat="42.52526" lon="2.47063">
        <ele>2439.3999023438</ele>
        <time>2023-07-16T06:29:14.000Z</time>
      </trkpt>
      <trkpt lat="42.52526" lon="2.47063">
        <ele>2439.8000488281</ele>
        <time>2023-07-16T06:29:15.000Z</time>
      </trkpt>
      <trkpt lat="42.52526" lon="2.47064">
        <ele>2441.1999511719</ele>
        <time>2023-07-16T06:29:18.000Z</time>
      </trkpt>
      <trkpt lat="42.52527" lon="2.47065">
        <ele>2442.3999023438</ele>
        <time>2023-07-16T06:29:22.000Z</time>
      </trkpt>
      <trkpt lat="42.52528" lon="2.47068">
        <ele>2443.1999511719</ele>
        <time>2023-07-16T06:29:25.000Z</time>
      </trkpt>
      <trkpt lat="42.52528" lon="2.47069">
        <ele>2443.6000976562</ele>
        <time>2023-07-16T06:29:27.000Z</time>
      </trkpt>
      <trkpt lat="42.52531" lon="2.47074">
        <ele>2443.8000488281</ele>
        <time>2023-07-16T06:29:34.000Z</time>
      </trkpt>
      <trkpt lat="42.52533" lon="2.47082">
        <ele>2444.1999511719</ele>
        <time>2023-07-16T06:29:45.000Z</time>
      </trkpt>
      <trkpt lat="42.5253" lon="2.47089">
        <ele>2443.8000488281</ele>
        <time>2023-07-16T06:29:54.000Z</time>
      </trkpt>
      <trkpt lat="42.52532" lon="2.47093">
        <ele>2444.8000488281</ele>
        <time>2023-07-16T06:30:02.000Z</time>
      </trkpt>
      <trkpt lat="42.52536" lon="2.47099">
        <ele>2446</ele>
        <time>2023-07-16T06:30:09.000Z</time>
      </trkpt>
      <trkpt lat="42.52537" lon="2.471">
        <ele>2447.3999023438</ele>
        <time>2023-07-16T06:30:11.000Z</time>
      </trkpt>
      <trkpt lat="42.52537" lon="2.471">
        <ele>2448.6000976562</ele>
        <time>2023-07-16T06:30:13.000Z</time>
      </trkpt>
      <trkpt lat="42.52537" lon="2.47102">
        <ele>2449.8000488281</ele>
        <time>2023-07-16T06:30:15.000Z</time>
      </trkpt>
      <trkpt lat="42.52537" lon="2.47105">
        <ele>2450.6000976562</ele>
        <time>2023-07-16T06:30:19.000Z</time>
      </trkpt>
      <trkpt lat="42.52536" lon="2.47105">
        <ele>2450.8000488281</ele>
        <time>2023-07-16T06:30:21.000Z</time>
      </trkpt>
      <trkpt lat="42.52531" lon="2.47104">
        <ele>2451.6000976562</ele>
        <time>2023-07-16T06:30:27.000Z</time>
      </trkpt>
      <trkpt lat="42.5253" lon="2.47104">
        <ele>2451.8000488281</ele>
        <time>2023-07-16T06:30:28.000Z</time>
      </trkpt>
      <trkpt lat="42.52525" lon="2.47104">
        <ele>2453</ele>
        <time>2023-07-16T06:30:33.000Z</time>
      </trkpt>
      <trkpt lat="42.52525" lon="2.47103">
        <ele>2454.1999511719</ele>
        <time>2023-07-16T06:30:36.000Z</time>
      </trkpt>
      <trkpt lat="42.52525" lon="2.47103">
        <ele>2454.6000976562</ele>
        <time>2023-07-16T06:30:37.000Z</time>
      </trkpt>
      <trkpt lat="42.52524" lon="2.47103">
        <ele>2455.3999023438</ele>
        <time>2023-07-16T06:30:39.000Z</time>
      </trkpt>
      <trkpt lat="42.52524" lon="2.47103">
        <ele>2456.3999023438</ele>
        <time>2023-07-16T06:30:42.000Z</time>
      </trkpt>
      <trkpt lat="42.52523" lon="2.47103">
        <ele>2457.6000976562</ele>
        <time>2023-07-16T06:30:45.000Z</time>
      </trkpt>
      <trkpt lat="42.52522" lon="2.47102">
        <ele>2458.3999023438</ele>
        <time>2023-07-16T06:30:46.000Z</time>
      </trkpt>
      <trkpt lat="42.52521" lon="2.47102">
        <ele>2459.6000976562</ele>
        <time>2023-07-16T06:30:47.000Z</time>
      </trkpt>
      <trkpt lat="42.5252" lon="2.47101">
        <ele>2461.3999023438</ele>
        <time>2023-07-16T06:30:49.000Z</time>
      </trkpt>
      <trkpt lat="42.5252" lon="2.47101">
        <ele>2462.8000488281</ele>
        <time>2023-07-16T06:30:50.000Z</time>
      </trkpt>
      <trkpt lat="42.5252" lon="2.47101">
        <ele>2464</ele>
        <time>2023-07-16T06:30:51.000Z</time>
      </trkpt>
      <trkpt lat="42.5252" lon="2.47101">
        <ele>2463.6000976562</ele>
        <time>2023-07-16T06:30:56.000Z</time>
      </trkpt>
      <trkpt lat="42.52518" lon="2.471">
        <ele>2462.8000488281</ele>
        <time>2023-07-16T06:31:02.000Z</time>
      </trkpt>
      <trkpt lat="42.52517" lon="2.47099">
        <ele>2461.8000488281</ele>
        <time>2023-07-16T06:31:03.000Z</time>
      </trkpt>
      <trkpt lat="42.52516" lon="2.47099">
        <ele>2461.8000488281</ele>
        <time>2023-07-16T06:31:04.000Z</time>
      </trkpt>
      <trkpt lat="42.52514" lon="2.47097">
        <ele>2463</ele>
        <time>2023-07-16T06:31:10.000Z</time>
      </trkpt>
      <trkpt lat="42.52514" lon="2.47098">
        <ele>2464.1999511719</ele>
        <time>2023-07-16T06:31:11.000Z</time>
      </trkpt>
      <trkpt lat="42.52514" lon="2.47098">
        <ele>2466</ele>
        <time>2023-07-16T06:31:12.000Z</time>
      </trkpt>
      <trkpt lat="42.52513" lon="2.47098">
        <ele>2463.3999023438</ele>
        <time>2023-07-16T06:31:18.000Z</time>
      </trkpt>
      <trkpt lat="42.52513" lon="2.47097">
        <ele>2461.1999511719</ele>
        <time>2023-07-16T06:31:19.000Z</time>
      </trkpt>
      <trkpt lat="42.52512" lon="2.47097">
        <ele>2458.1999511719</ele>
        <time>2023-07-16T06:31:20.000Z</time>
      </trkpt>
      <trkpt lat="42.52511" lon="2.47097">
        <ele>2456.8000488281</ele>
        <time>2023-07-16T06:31:21.000Z</time>
      </trkpt>
      <trkpt lat="42.52511" lon="2.47096">
        <ele>2455.1999511719</ele>
        <time>2023-07-16T06:31:22.000Z</time>
      </trkpt>
      <trkpt lat="42.52508" lon="2.47096">
        <ele>2455.3999023438</ele>
        <time>2023-07-16T06:31:27.000Z</time>
      </trkpt>
      <trkpt lat="42.52505" lon="2.47095">
        <ele>2454</ele>
        <time>2023-07-16T06:31:35.000Z</time>
      </trkpt>
      <trkpt lat="42.52504" lon="2.47095">
        <ele>2453.8000488281</ele>
        <time>2023-07-16T06:31:38.000Z</time>
      </trkpt>
      <trkpt lat="42.52502" lon="2.47097">
        <ele>2453.3999023438</ele>
        <time>2023-07-16T06:31:47.000Z</time>
      </trkpt>
      <trkpt lat="42.52502" lon="2.47103">
        <ele>2454.8000488281</ele>
        <time>2023-07-16T06:31:56.000Z</time>
      </trkpt>
      <trkpt lat="42.52502" lon="2.47104">
        <ele>2455.1999511719</ele>
        <time>2023-07-16T06:31:57.000Z</time>
      </trkpt>
      <trkpt lat="42.52502" lon="2.47108">
        <ele>2455.8000488281</ele>
        <time>2023-07-16T06:32:03.000Z</time>
      </trkpt>
      <trkpt lat="42.52501" lon="2.47111">
        <ele>2456.1999511719</ele>
        <time>2023-07-16T06:32:06.000Z</time>
      </trkpt>
      <trkpt lat="42.52499" lon="2.47114">
        <ele>2457.1999511719</ele>
        <time>2023-07-16T06:32:11.000Z</time>
      </trkpt>
      <trkpt lat="42.52499" lon="2.47115">
        <ele>2458.3999023438</ele>
        <time>2023-07-16T06:32:13.000Z</time>
      </trkpt>
      <trkpt lat="42.52499" lon="2.47117">
        <ele>2459.8000488281</ele>
        <time>2023-07-16T06:32:17.000Z</time>
      </trkpt>
      <trkpt lat="42.525" lon="2.47121">
        <ele>2461.3999023438</ele>
        <time>2023-07-16T06:32:22.000Z</time>
      </trkpt>
      <trkpt lat="42.525" lon="2.47125">
        <ele>2462.3999023438</ele>
        <time>2023-07-16T06:32:26.000Z</time>
      </trkpt>
      <trkpt lat="42.52501" lon="2.47126">
        <ele>2464</ele>
        <time>2023-07-16T06:32:29.000Z</time>
      </trkpt>
      <trkpt lat="42.52501" lon="2.47127">
        <ele>2465</ele>
        <time>2023-07-16T06:32:30.000Z</time>
      </trkpt>
      <trkpt lat="42.525" lon="2.47128">
        <ele>2465.1999511719</ele>
        <time>2023-07-16T06:32:32.000Z</time>
      </trkpt>
      <trkpt lat="42.525" lon="2.47132">
        <ele>2464</ele>
        <time>2023-07-16T06:32:36.000Z</time>
      </trkpt>
      <trkpt lat="42.525" lon="2.47134">
        <ele>2463</ele>
        <time>2023-07-16T06:32:40.000Z</time>
      </trkpt>
      <trkpt lat="42.52501" lon="2.47139">
        <ele>2464.3999023438</ele>
        <time>2023-07-16T06:32:48.000Z</time>
      </trkpt>
      <trkpt lat="42.52501" lon="2.47141">
        <ele>2465.1999511719</ele>
        <time>2023-07-16T06:32:50.000Z</time>
      </trkpt>
      <trkpt lat="42.52501" lon="2.47144">
        <ele>2466.1999511719</ele>
        <time>2023-07-16T06:32:56.000Z</time>
      </trkpt>
      <trkpt lat="42.52502" lon="2.47145">
        <ele>2466.6000976562</ele>
        <time>2023-07-16T06:32:58.000Z</time>
      </trkpt>
      <trkpt lat="42.52502" lon="2.47147">
        <ele>2467.1999511719</ele>
        <time>2023-07-16T06:33:00.000Z</time>
      </trkpt>
      <trkpt lat="42.52499" lon="2.47151">
        <ele>2468.1999511719</ele>
        <time>2023-07-16T06:33:06.000Z</time>
      </trkpt>
      <trkpt lat="42.52495" lon="2.47149">
        <ele>2469.6000976562</ele>
        <time>2023-07-16T06:33:12.000Z</time>
      </trkpt>
      <trkpt lat="42.52495" lon="2.47149">
        <ele>2469.8000488281</ele>
        <time>2023-07-16T06:33:13.000Z</time>
      </trkpt>
      <trkpt lat="42.52493" lon="2.47147">
        <ele>2470.6000976562</ele>
        <time>2023-07-16T06:33:16.000Z</time>
      </trkpt>
      <trkpt lat="42.52488" lon="2.47145">
        <ele>2471.3999023438</ele>
        <time>2023-07-16T06:33:22.000Z</time>
      </trkpt>
      <trkpt lat="42.52488" lon="2.47144">
        <ele>2472</ele>
        <time>2023-07-16T06:33:24.000Z</time>
      </trkpt>
      <trkpt lat="42.52487" lon="2.47143">
        <ele>2472.6000976562</ele>
        <time>2023-07-16T06:33:29.000Z</time>
      </trkpt>
      <trkpt lat="42.52487" lon="2.47143">
        <ele>2473</ele>
        <time>2023-07-16T06:33:32.000Z</time>
      </trkpt>
      <trkpt lat="42.52487" lon="2.47142">
        <ele>2474.1999511719</ele>
        <time>2023-07-16T06:33:38.000Z</time>
      </trkpt>
      <trkpt lat="42.52483" lon="2.4714">
        <ele>2473.3999023438</ele>
        <time>2023-07-16T06:33:47.000Z</time>
      </trkpt>
      <trkpt lat="42.52479" lon="2.47139">
        <ele>2473.3999023438</ele>
        <time>2023-07-16T06:33:55.000Z</time>
      </trkpt>
      <trkpt lat="42.52474" lon="2.47139">
        <ele>2474.1999511719</ele>
        <time>2023-07-16T06:34:04.000Z</time>
      </trkpt>
      <trkpt lat="42.52472" lon="2.47137">
        <ele>2475.3999023438</ele>
        <time>2023-07-16T06:34:09.000Z</time>
      </trkpt>
      <trkpt lat="42.5247" lon="2.47137">
        <ele>2475.6000976562</ele>
        <time>2023-07-16T06:34:11.000Z</time>
      </trkpt>
      <trkpt lat="42.52467" lon="2.47135">
        <ele>2476.3999023438</ele>
        <time>2023-07-16T06:34:17.000Z</time>
      </trkpt>
      <trkpt lat="42.52466" lon="2.47134">
        <ele>2476.6000976562</ele>
        <time>2023-07-16T06:34:19.000Z</time>
      </trkpt>
      <trkpt lat="42.52464" lon="2.47135">
        <ele>2477.1999511719</ele>
        <time>2023-07-16T06:34:22.000Z</time>
      </trkpt>
      <trkpt lat="42.52464" lon="2.47136">
        <ele>2477.6000976562</ele>
        <time>2023-07-16T06:34:24.000Z</time>
      </trkpt>
      <trkpt lat="42.52465" lon="2.47137">
        <ele>2477.8000488281</ele>
        <time>2023-07-16T06:34:27.000Z</time>
      </trkpt>
      <trkpt lat="42.52465" lon="2.47143">
        <ele>2478.3999023438</ele>
        <time>2023-07-16T06:34:36.000Z</time>
      </trkpt>
      <trkpt lat="42.52465" lon="2.47145">
        <ele>2478.6000976562</ele>
        <time>2023-07-16T06:34:38.000Z</time>
      </trkpt>
      <trkpt lat="42.52465" lon="2.4715">
        <ele>2480</ele>
        <time>2023-07-16T06:34:44.000Z</time>
      </trkpt>
      <trkpt lat="42.52465" lon="2.47151">
        <ele>2480.3999023438</ele>
        <time>2023-07-16T06:34:46.000Z</time>
      </trkpt>
      <trkpt lat="42.52464" lon="2.47154">
        <ele>2481.3999023438</ele>
        <time>2023-07-16T06:34:50.000Z</time>
      </trkpt>
      <trkpt lat="42.52464" lon="2.47157">
        <ele>2482.1999511719</ele>
        <time>2023-07-16T06:34:54.000Z</time>
      </trkpt>
      <trkpt lat="42.52464" lon="2.47159">
        <ele>2482.3999023438</ele>
        <time>2023-07-16T06:34:56.000Z</time>
      </trkpt>
      <trkpt lat="42.52464" lon="2.47162">
        <ele>2483.3999023438</ele>
        <time>2023-07-16T06:35:01.000Z</time>
      </trkpt>
      <trkpt lat="42.52463" lon="2.47164">
        <ele>2484.1999511719</ele>
        <time>2023-07-16T06:35:05.000Z</time>
      </trkpt>
      <trkpt lat="42.52461" lon="2.47164">
        <ele>2484.6000976562</ele>
        <time>2023-07-16T06:35:09.000Z</time>
      </trkpt>
      <trkpt lat="42.52461" lon="2.47163">
        <ele>2485.6000976562</ele>
        <time>2023-07-16T06:35:10.000Z</time>
      </trkpt>
      <trkpt lat="42.5246" lon="2.47162">
        <ele>2486.6000976562</ele>
        <time>2023-07-16T06:35:12.000Z</time>
      </trkpt>
      <trkpt lat="42.52459" lon="2.47161">
        <ele>2486.8000488281</ele>
        <time>2023-07-16T06:35:13.000Z</time>
      </trkpt>
      <trkpt lat="42.52456" lon="2.47162">
        <ele>2488.1999511719</ele>
        <time>2023-07-16T06:35:17.000Z</time>
      </trkpt>
      <trkpt lat="42.52453" lon="2.47163">
        <ele>2489.6000976562</ele>
        <time>2023-07-16T06:35:21.000Z</time>
      </trkpt>
      <trkpt lat="42.52449" lon="2.47162">
        <ele>2490.6000976562</ele>
        <time>2023-07-16T06:35:26.000Z</time>
      </trkpt>
      <trkpt lat="42.52448" lon="2.4716">
        <ele>2491</ele>
        <time>2023-07-16T06:35:29.000Z</time>
      </trkpt>
      <trkpt lat="42.52448" lon="2.47158">
        <ele>2492.6000976562</ele>
        <time>2023-07-16T06:35:33.000Z</time>
      </trkpt>
      <trkpt lat="42.52448" lon="2.47158">
        <ele>2494</ele>
        <time>2023-07-16T06:35:34.000Z</time>
      </trkpt>
      <trkpt lat="42.52449" lon="2.47158">
        <ele>2494.8000488281</ele>
        <time>2023-07-16T06:35:36.000Z</time>
      </trkpt>
      <trkpt lat="42.52447" lon="2.47156">
        <ele>2492.8000488281</ele>
        <time>2023-07-16T06:35:39.000Z</time>
      </trkpt>
      <trkpt lat="42.52447" lon="2.47155">
        <ele>2491.3999023438</ele>
        <time>2023-07-16T06:35:40.000Z</time>
      </trkpt>
      <trkpt lat="42.52446" lon="2.47154">
        <ele>2490.1999511719</ele>
        <time>2023-07-16T06:35:42.000Z</time>
      </trkpt>
      <trkpt lat="42.52441" lon="2.47152">
        <ele>2490.1999511719</ele>
        <time>2023-07-16T06:35:50.000Z</time>
      </trkpt>
      <trkpt lat="42.52438" lon="2.47151">
        <ele>2491.6000976562</ele>
        <time>2023-07-16T06:35:55.000Z</time>
      </trkpt>
      <trkpt lat="42.52435" lon="2.4715">
        <ele>2491</ele>
        <time>2023-07-16T06:35:59.000Z</time>
      </trkpt>
      <trkpt lat="42.52431" lon="2.47146">
        <ele>2492.3999023438</ele>
        <time>2023-07-16T06:36:08.000Z</time>
      </trkpt>
      <trkpt lat="42.5243" lon="2.47144">
        <ele>2492.6000976562</ele>
        <time>2023-07-16T06:36:11.000Z</time>
      </trkpt>
      <trkpt lat="42.52428" lon="2.47144">
        <ele>2494</ele>
        <time>2023-07-16T06:36:14.000Z</time>
      </trkpt>
      <trkpt lat="42.52427" lon="2.47143">
        <ele>2494.3999023438</ele>
        <time>2023-07-16T06:36:16.000Z</time>
      </trkpt>
      <trkpt lat="42.52421" lon="2.47139">
        <ele>2493.1999511719</ele>
        <time>2023-07-16T06:36:25.000Z</time>
      </trkpt>
      <trkpt lat="42.52418" lon="2.47138">
        <ele>2495</ele>
        <time>2023-07-16T06:36:30.000Z</time>
      </trkpt>
      <trkpt lat="42.52416" lon="2.47137">
        <ele>2495.6000976562</ele>
        <time>2023-07-16T06:36:33.000Z</time>
      </trkpt>
      <trkpt lat="42.52415" lon="2.47136">
        <ele>2496.1999511719</ele>
        <time>2023-07-16T06:36:34.000Z</time>
      </trkpt>
      <trkpt lat="42.52411" lon="2.47135">
        <ele>2496.1999511719</ele>
        <time>2023-07-16T06:36:40.000Z</time>
      </trkpt>
      <trkpt lat="42.52407" lon="2.47132">
        <ele>2496.3999023438</ele>
        <time>2023-07-16T06:36:47.000Z</time>
      </trkpt>
      <trkpt lat="42.52404" lon="2.47129">
        <ele>2498</ele>
        <time>2023-07-16T06:36:55.000Z</time>
      </trkpt>
      <trkpt lat="42.52403" lon="2.47129">
        <ele>2498.1999511719</ele>
        <time>2023-07-16T06:36:56.000Z</time>
      </trkpt>
      <trkpt lat="42.52398" lon="2.47126">
        <ele>2498.3999023438</ele>
        <time>2023-07-16T06:37:06.000Z</time>
      </trkpt>
      <trkpt lat="42.52397" lon="2.4712">
        <ele>2498</ele>
        <time>2023-07-16T06:37:13.000Z</time>
      </trkpt>
      <trkpt lat="42.52396" lon="2.47117">
        <ele>2498.6000976562</ele>
        <time>2023-07-16T06:37:21.000Z</time>
      </trkpt>
      <trkpt lat="42.52393" lon="2.47112">
        <ele>2498.8000488281</ele>
        <time>2023-07-16T06:37:27.000Z</time>
      </trkpt>
      <trkpt lat="42.52391" lon="2.47109">
        <ele>2499</ele>
        <time>2023-07-16T06:37:32.000Z</time>
      </trkpt>
      <trkpt lat="42.52388" lon="2.47107">
        <ele>2499.6000976562</ele>
        <time>2023-07-16T06:37:37.000Z</time>
      </trkpt>
      <trkpt lat="42.52388" lon="2.47106">
        <ele>2500.1999511719</ele>
        <time>2023-07-16T06:37:41.000Z</time>
      </trkpt>
      <trkpt lat="42.52387" lon="2.47105">
        <ele>2501.3999023438</ele>
        <time>2023-07-16T06:37:45.000Z</time>
      </trkpt>
      <trkpt lat="42.52386" lon="2.47103">
        <ele>2501.3999023438</ele>
        <time>2023-07-16T06:37:48.000Z</time>
      </trkpt>
      <trkpt lat="42.52385" lon="2.471">
        <ele>2502.3999023438</ele>
        <time>2023-07-16T06:37:52.000Z</time>
      </trkpt>
      <trkpt lat="42.52381" lon="2.47096">
        <ele>2503</ele>
        <time>2023-07-16T06:38:01.000Z</time>
      </trkpt>
      <trkpt lat="42.52381" lon="2.47097">
        <ele>2503.6000976562</ele>
        <time>2023-07-16T06:38:05.000Z</time>
      </trkpt>
      <trkpt lat="42.52379" lon="2.47095">
        <ele>2503.8000488281</ele>
        <time>2023-07-16T06:38:08.000Z</time>
      </trkpt>
      <trkpt lat="42.52378" lon="2.47093">
        <ele>2504.8000488281</ele>
        <time>2023-07-16T06:38:15.000Z</time>
      </trkpt>
      <trkpt lat="42.52378" lon="2.47093">
        <ele>2505.8000488281</ele>
        <time>2023-07-16T06:38:19.000Z</time>
      </trkpt>
      <trkpt lat="42.52378" lon="2.47093">
        <ele>2505.8000488281</ele>
        <time>2023-07-16T06:38:22.000Z</time>
      </trkpt>
      <trkpt lat="42.52379" lon="2.47094">
        <ele>2506.6000976562</ele>
        <time>2023-07-16T06:38:33.000Z</time>
      </trkpt>
      <trkpt lat="42.52379" lon="2.47094">
        <ele>2505.3999023438</ele>
        <time>2023-07-16T06:38:44.000Z</time>
      </trkpt>
      <trkpt lat="42.52379" lon="2.47095">
        <ele>2504.8000488281</ele>
        <time>2023-07-16T06:38:48.000Z</time>
      </trkpt>
      <trkpt lat="42.52379" lon="2.47095">
        <ele>2503.6000976562</ele>
        <time>2023-07-16T06:38:52.000Z</time>
      </trkpt>
      <trkpt lat="42.52377" lon="2.47091">
        <ele>2504</ele>
        <time>2023-07-16T06:39:03.000Z</time>
      </trkpt>
      <trkpt lat="42.52377" lon="2.47088">
        <ele>2504.6000976562</ele>
        <time>2023-07-16T06:39:06.000Z</time>
      </trkpt>
      <trkpt lat="42.52376" lon="2.47085">
        <ele>2505.8000488281</ele>
        <time>2023-07-16T06:39:10.000Z</time>
      </trkpt>
      <trkpt lat="42.52376" lon="2.47084">
        <ele>2506.1999511719</ele>
        <time>2023-07-16T06:39:11.000Z</time>
      </trkpt>
      <trkpt lat="42.52376" lon="2.47082">
        <ele>2506.8000488281</ele>
        <time>2023-07-16T06:39:14.000Z</time>
      </trkpt>
      <trkpt lat="42.52374" lon="2.47079">
        <ele>2508</ele>
        <time>2023-07-16T06:39:18.000Z</time>
      </trkpt>
      <trkpt lat="42.52373" lon="2.47076">
        <ele>2508.3999023438</ele>
        <time>2023-07-16T06:39:21.000Z</time>
      </trkpt>
      <trkpt lat="42.52371" lon="2.47075">
        <ele>2508</ele>
        <time>2023-07-16T06:39:28.000Z</time>
      </trkpt>
      <trkpt lat="42.52368" lon="2.47079">
        <ele>2507.8000488281</ele>
        <time>2023-07-16T06:39:36.000Z</time>
      </trkpt>
      <trkpt lat="42.52367" lon="2.47079">
        <ele>2509</ele>
        <time>2023-07-16T06:39:40.000Z</time>
      </trkpt>
      <trkpt lat="42.52364" lon="2.47079">
        <ele>2510.6000976562</ele>
        <time>2023-07-16T06:39:45.000Z</time>
      </trkpt>
      <trkpt lat="42.52363" lon="2.47078">
        <ele>2511.3999023438</ele>
        <time>2023-07-16T06:39:46.000Z</time>
      </trkpt>
      <trkpt lat="42.52362" lon="2.47078">
        <ele>2512.3999023438</ele>
        <time>2023-07-16T06:39:47.000Z</time>
      </trkpt>
      <trkpt lat="42.52361" lon="2.47074">
        <ele>2513.8000488281</ele>
        <time>2023-07-16T06:39:51.000Z</time>
      </trkpt>
      <trkpt lat="42.5236" lon="2.47073">
        <ele>2513.8000488281</ele>
        <time>2023-07-16T06:39:54.000Z</time>
      </trkpt>
      <trkpt lat="42.52357" lon="2.47071">
        <ele>2514</ele>
        <time>2023-07-16T06:40:01.000Z</time>
      </trkpt>
      <trkpt lat="42.52351" lon="2.47067">
        <ele>2513.8000488281</ele>
        <time>2023-07-16T06:40:11.000Z</time>
      </trkpt>
      <trkpt lat="42.52349" lon="2.47062">
        <ele>2513.1999511719</ele>
        <time>2023-07-16T06:40:18.000Z</time>
      </trkpt>
      <trkpt lat="42.52346" lon="2.47058">
        <ele>2512.6000976562</ele>
        <time>2023-07-16T06:40:23.000Z</time>
      </trkpt>
      <trkpt lat="42.52345" lon="2.47057">
        <ele>2512.3999023438</ele>
        <time>2023-07-16T06:40:27.000Z</time>
      </trkpt>
      <trkpt lat="42.5234" lon="2.47054">
        <ele>2512.8000488281</ele>
        <time>2023-07-16T06:40:33.000Z</time>
      </trkpt>
      <trkpt lat="42.52339" lon="2.47054">
        <ele>2513.8000488281</ele>
        <time>2023-07-16T06:40:37.000Z</time>
      </trkpt>
      <trkpt lat="42.52338" lon="2.47053">
        <ele>2514.6000976562</ele>
        <time>2023-07-16T06:40:41.000Z</time>
      </trkpt>
      <trkpt lat="42.52338" lon="2.47053">
        <ele>2515</ele>
        <time>2023-07-16T06:40:42.000Z</time>
      </trkpt>
      <trkpt lat="42.52336" lon="2.4705">
        <ele>2515.8000488281</ele>
        <time>2023-07-16T06:40:47.000Z</time>
      </trkpt>
      <trkpt lat="42.52334" lon="2.47047">
        <ele>2516.1999511719</ele>
        <time>2023-07-16T06:40:51.000Z</time>
      </trkpt>
      <trkpt lat="42.52333" lon="2.47045">
        <ele>2516.6000976562</ele>
        <time>2023-07-16T06:40:55.000Z</time>
      </trkpt>
      <trkpt lat="42.52331" lon="2.47042">
        <ele>2517.1999511719</ele>
        <time>2023-07-16T06:40:59.000Z</time>
      </trkpt>
      <trkpt lat="42.52329" lon="2.4704">
        <ele>2517.8000488281</ele>
        <time>2023-07-16T06:41:03.000Z</time>
      </trkpt>
      <trkpt lat="42.52328" lon="2.47037">
        <ele>2518.1999511719</ele>
        <time>2023-07-16T06:41:07.000Z</time>
      </trkpt>
      <trkpt lat="42.52327" lon="2.47036">
        <ele>2518.6000976562</ele>
        <time>2023-07-16T06:41:10.000Z</time>
      </trkpt>
      <trkpt lat="42.52326" lon="2.47034">
        <ele>2519.3999023438</ele>
        <time>2023-07-16T06:41:13.000Z</time>
      </trkpt>
      <trkpt lat="42.52325" lon="2.47033">
        <ele>2519.8000488281</ele>
        <time>2023-07-16T06:41:16.000Z</time>
      </trkpt>
      <trkpt lat="42.52324" lon="2.47031">
        <ele>2520.3999023438</ele>
        <time>2023-07-16T06:41:20.000Z</time>
      </trkpt>
      <trkpt lat="42.52322" lon="2.47029">
        <ele>2520.6000976562</ele>
        <time>2023-07-16T06:41:24.000Z</time>
      </trkpt>
      <trkpt lat="42.52319" lon="2.47027">
        <ele>2521.6000976562</ele>
        <time>2023-07-16T06:41:30.000Z</time>
      </trkpt>
      <trkpt lat="42.52319" lon="2.47027">
        <ele>2521.6000976562</ele>
        <time>2023-07-16T06:41:31.000Z</time>
      </trkpt>
      <trkpt lat="42.52318" lon="2.47023">
        <ele>2522.6000976562</ele>
        <time>2023-07-16T06:41:36.000Z</time>
      </trkpt>
      <trkpt lat="42.52318" lon="2.4702">
        <ele>2523</ele>
        <time>2023-07-16T06:41:39.000Z</time>
      </trkpt>
      <trkpt lat="42.52315" lon="2.47021">
        <ele>2523.6000976562</ele>
        <time>2023-07-16T06:41:45.000Z</time>
      </trkpt>
      <trkpt lat="42.52314" lon="2.47025">
        <ele>2523.8000488281</ele>
        <time>2023-07-16T06:41:50.000Z</time>
      </trkpt>
      <trkpt lat="42.52314" lon="2.47025">
        <ele>2524.1999511719</ele>
        <time>2023-07-16T06:41:51.000Z</time>
      </trkpt>
      <trkpt lat="42.52314" lon="2.47027">
        <ele>2524.8000488281</ele>
        <time>2023-07-16T06:41:53.000Z</time>
      </trkpt>
      <trkpt lat="42.52313" lon="2.47029">
        <ele>2526.6000976562</ele>
        <time>2023-07-16T06:41:56.000Z</time>
      </trkpt>
      <trkpt lat="42.52312" lon="2.47028">
        <ele>2527.3999023438</ele>
        <time>2023-07-16T06:41:59.000Z</time>
      </trkpt>
      <trkpt lat="42.52312" lon="2.47026">
        <ele>2527.8000488281</ele>
        <time>2023-07-16T06:42:01.000Z</time>
      </trkpt>
      <trkpt lat="42.52309" lon="2.47025">
        <ele>2528.1999511719</ele>
        <time>2023-07-16T06:42:07.000Z</time>
      </trkpt>
      <trkpt lat="42.52307" lon="2.47033">
        <ele>2528.6000976562</ele>
        <time>2023-07-16T06:42:17.000Z</time>
      </trkpt>
      <trkpt lat="42.52307" lon="2.47034">
        <ele>2529</ele>
        <time>2023-07-16T06:42:18.000Z</time>
      </trkpt>
      <trkpt lat="42.52307" lon="2.47038">
        <ele>2530</ele>
        <time>2023-07-16T06:42:24.000Z</time>
      </trkpt>
      <trkpt lat="42.52306" lon="2.4704">
        <ele>2531</ele>
        <time>2023-07-16T06:42:28.000Z</time>
      </trkpt>
      <trkpt lat="42.52306" lon="2.4704">
        <ele>2531.1999511719</ele>
        <time>2023-07-16T06:42:29.000Z</time>
      </trkpt>
      <trkpt lat="42.52304" lon="2.47041">
        <ele>2532.8000488281</ele>
        <time>2023-07-16T06:42:32.000Z</time>
      </trkpt>
      <trkpt lat="42.52302" lon="2.47041">
        <ele>2534</ele>
        <time>2023-07-16T06:42:34.000Z</time>
      </trkpt>
      <trkpt lat="42.523" lon="2.4704">
        <ele>2534.6000976562</ele>
        <time>2023-07-16T06:42:37.000Z</time>
      </trkpt>
      <trkpt lat="42.52299" lon="2.47039">
        <ele>2535.1999511719</ele>
        <time>2023-07-16T06:42:40.000Z</time>
      </trkpt>
      <trkpt lat="42.52298" lon="2.47035">
        <ele>2535.6000976562</ele>
        <time>2023-07-16T06:42:45.000Z</time>
      </trkpt>
      <trkpt lat="42.52296" lon="2.47029">
        <ele>2535.3999023438</ele>
        <time>2023-07-16T06:42:54.000Z</time>
      </trkpt>
      <trkpt lat="42.52294" lon="2.47028">
        <ele>2536.3999023438</ele>
        <time>2023-07-16T06:43:01.000Z</time>
      </trkpt>
      <trkpt lat="42.52294" lon="2.47027">
        <ele>2536.8000488281</ele>
        <time>2023-07-16T06:43:03.000Z</time>
      </trkpt>
      <trkpt lat="42.52293" lon="2.47027">
        <ele>2537.6000976562</ele>
        <time>2023-07-16T06:43:06.000Z</time>
      </trkpt>
      <trkpt lat="42.52291" lon="2.4703">
        <ele>2537.8000488281</ele>
        <time>2023-07-16T06:43:10.000Z</time>
      </trkpt>
      <trkpt lat="42.5229" lon="2.47032">
        <ele>2538.6000976562</ele>
        <time>2023-07-16T06:43:14.000Z</time>
      </trkpt>
      <trkpt lat="42.52288" lon="2.47032">
        <ele>2539.3999023438</ele>
        <time>2023-07-16T06:43:19.000Z</time>
      </trkpt>
      <trkpt lat="42.52288" lon="2.47032">
        <ele>2540</ele>
        <time>2023-07-16T06:43:21.000Z</time>
      </trkpt>
      <trkpt lat="42.52287" lon="2.4703">
        <ele>2541</ele>
        <time>2023-07-16T06:43:25.000Z</time>
      </trkpt>
      <trkpt lat="42.52286" lon="2.47029">
        <ele>2541.6000976562</ele>
        <time>2023-07-16T06:43:27.000Z</time>
      </trkpt>
      <trkpt lat="42.52285" lon="2.47028">
        <ele>2542</ele>
        <time>2023-07-16T06:43:29.000Z</time>
      </trkpt>
      <trkpt lat="42.52283" lon="2.47025">
        <ele>2543.1999511719</ele>
        <time>2023-07-16T06:43:35.000Z</time>
      </trkpt>
      <trkpt lat="42.52283" lon="2.47024">
        <ele>2543.1999511719</ele>
        <time>2023-07-16T06:43:36.000Z</time>
      </trkpt>
      <trkpt lat="42.52282" lon="2.47021">
        <ele>2544.3999023438</ele>
        <time>2023-07-16T06:43:43.000Z</time>
      </trkpt>
      <trkpt lat="42.52282" lon="2.4702">
        <ele>2544.8000488281</ele>
        <time>2023-07-16T06:43:44.000Z</time>
      </trkpt>
      <trkpt lat="42.52282" lon="2.47019">
        <ele>2545.8000488281</ele>
        <time>2023-07-16T06:43:45.000Z</time>
      </trkpt>
      <trkpt lat="42.52282" lon="2.47019">
        <ele>2547.1999511719</ele>
        <time>2023-07-16T06:43:47.000Z</time>
      </trkpt>
      <trkpt lat="42.52282" lon="2.47018">
        <ele>2548.1999511719</ele>
        <time>2023-07-16T06:43:49.000Z</time>
      </trkpt>
      <trkpt lat="42.5228" lon="2.47016">
        <ele>2547.8000488281</ele>
        <time>2023-07-16T06:43:53.000Z</time>
      </trkpt>
      <trkpt lat="42.5228" lon="2.47014">
        <ele>2546.8000488281</ele>
        <time>2023-07-16T06:43:55.000Z</time>
      </trkpt>
      <trkpt lat="42.52278" lon="2.47012">
        <ele>2545.8000488281</ele>
        <time>2023-07-16T06:44:00.000Z</time>
      </trkpt>
      <trkpt lat="42.52274" lon="2.47007">
        <ele>2545.6000976562</ele>
        <time>2023-07-16T06:44:08.000Z</time>
      </trkpt>
      <trkpt lat="42.52272" lon="2.47005">
        <ele>2547</ele>
        <time>2023-07-16T06:44:14.000Z</time>
      </trkpt>
      <trkpt lat="42.5227" lon="2.47002">
        <ele>2548</ele>
        <time>2023-07-16T06:44:18.000Z</time>
      </trkpt>
      <trkpt lat="42.52268" lon="2.46999">
        <ele>2548.1999511719</ele>
        <time>2023-07-16T06:44:22.000Z</time>
      </trkpt>
      <trkpt lat="42.52266" lon="2.46997">
        <ele>2549</ele>
        <time>2023-07-16T06:44:27.000Z</time>
      </trkpt>
      <trkpt lat="42.52264" lon="2.46994">
        <ele>2549.8000488281</ele>
        <time>2023-07-16T06:44:31.000Z</time>
      </trkpt>
      <trkpt lat="42.5226" lon="2.46989">
        <ele>2549.6000976562</ele>
        <time>2023-07-16T06:44:42.000Z</time>
      </trkpt>
      <trkpt lat="42.52256" lon="2.46985">
        <ele>2550</ele>
        <time>2023-07-16T06:44:50.000Z</time>
      </trkpt>
      <trkpt lat="42.52255" lon="2.46984">
        <ele>2550.1999511719</ele>
        <time>2023-07-16T06:44:54.000Z</time>
      </trkpt>
      <trkpt lat="42.52253" lon="2.46982">
        <ele>2550.3999023438</ele>
        <time>2023-07-16T06:44:56.000Z</time>
      </trkpt>
      <trkpt lat="42.52251" lon="2.46983">
        <ele>2551.3999023438</ele>
        <time>2023-07-16T06:45:00.000Z</time>
      </trkpt>
      <trkpt lat="42.52249" lon="2.46987">
        <ele>2552.6000976562</ele>
        <time>2023-07-16T06:45:04.000Z</time>
      </trkpt>
      <trkpt lat="42.52249" lon="2.46987">
        <ele>2554</ele>
        <time>2023-07-16T06:45:08.000Z</time>
      </trkpt>
      <trkpt lat="42.52249" lon="2.46988">
        <ele>2555.1999511719</ele>
        <time>2023-07-16T06:45:11.000Z</time>
      </trkpt>
      <trkpt lat="42.52249" lon="2.46989">
        <ele>2556.3999023438</ele>
        <time>2023-07-16T06:45:15.000Z</time>
      </trkpt>
      <trkpt lat="42.52249" lon="2.4699">
        <ele>2557.3999023438</ele>
        <time>2023-07-16T06:45:18.000Z</time>
      </trkpt>
      <trkpt lat="42.52249" lon="2.46992">
        <ele>2557.6000976562</ele>
        <time>2023-07-16T06:45:20.000Z</time>
      </trkpt>
      <trkpt lat="42.52248" lon="2.46992">
        <ele>2556.1999511719</ele>
        <time>2023-07-16T06:45:25.000Z</time>
      </trkpt>
      <trkpt lat="42.52248" lon="2.4699">
        <ele>2556</ele>
        <time>2023-07-16T06:45:28.000Z</time>
      </trkpt>
      <trkpt lat="42.52249" lon="2.46988">
        <ele>2555.8000488281</ele>
        <time>2023-07-16T06:45:38.000Z</time>
      </trkpt>
      <trkpt lat="42.5225" lon="2.46989">
        <ele>2555</ele>
        <time>2023-07-16T06:45:41.000Z</time>
      </trkpt>
      <trkpt lat="42.52251" lon="2.4699">
        <ele>2554</ele>
        <time>2023-07-16T06:45:44.000Z</time>
      </trkpt>
      <trkpt lat="42.5225" lon="2.46991">
        <ele>2553.3999023438</ele>
        <time>2023-07-16T06:45:47.000Z</time>
      </trkpt>
      <trkpt lat="42.5225" lon="2.4699">
        <ele>2553</ele>
        <time>2023-07-16T06:45:54.000Z</time>
      </trkpt>
      <trkpt lat="42.52251" lon="2.46989">
        <ele>2552.3999023438</ele>
        <time>2023-07-16T06:45:57.000Z</time>
      </trkpt>
      <trkpt lat="42.5225" lon="2.46991">
        <ele>2551.6000976562</ele>
        <time>2023-07-16T06:46:03.000Z</time>
      </trkpt>
      <trkpt lat="42.5225" lon="2.4699">
        <ele>2551.3999023438</ele>
        <time>2023-07-16T06:46:04.000Z</time>
      </trkpt>
      <trkpt lat="42.52249" lon="2.46989">
        <ele>2550.6000976562</ele>
        <time>2023-07-16T06:46:08.000Z</time>
      </trkpt>
      <trkpt lat="42.52248" lon="2.46989">
        <ele>2550.6000976562</ele>
        <time>2023-07-16T06:46:09.000Z</time>
      </trkpt>
      <trkpt lat="42.52244" lon="2.46985">
        <ele>2551.3999023438</ele>
        <time>2023-07-16T06:46:16.000Z</time>
      </trkpt>
      <trkpt lat="42.52244" lon="2.46981">
        <ele>2549.3999023438</ele>
        <time>2023-07-16T06:46:21.000Z</time>
      </trkpt>
      <trkpt lat="42.52244" lon="2.46979">
        <ele>2548.1999511719</ele>
        <time>2023-07-16T06:46:23.000Z</time>
      </trkpt>
      <trkpt lat="42.52244" lon="2.46974">
        <ele>2549.3999023438</ele>
        <time>2023-07-16T06:46:30.000Z</time>
      </trkpt>
      <trkpt lat="42.52244" lon="2.46973">
        <ele>2550</ele>
        <time>2023-07-16T06:46:31.000Z</time>
      </trkpt>
      <trkpt lat="42.52243" lon="2.46975">
        <ele>2550.3999023438</ele>
        <time>2023-07-16T06:46:34.000Z</time>
      </trkpt>
      <trkpt lat="42.52241" lon="2.46975">
        <ele>2551.1999511719</ele>
        <time>2023-07-16T06:46:36.000Z</time>
      </trkpt>
      <trkpt lat="42.52241" lon="2.46976">
        <ele>2551.8000488281</ele>
        <time>2023-07-16T06:46:37.000Z</time>
      </trkpt>
      <trkpt lat="42.52238" lon="2.46976">
        <ele>2553.1999511719</ele>
        <time>2023-07-16T06:46:41.000Z</time>
      </trkpt>
      <trkpt lat="42.52236" lon="2.46976">
        <ele>2554.6000976562</ele>
        <time>2023-07-16T06:46:43.000Z</time>
      </trkpt>
      <trkpt lat="42.52234" lon="2.46972">
        <ele>2555.6000976562</ele>
        <time>2023-07-16T06:46:50.000Z</time>
      </trkpt>
      <trkpt lat="42.52234" lon="2.46972">
        <ele>2556</ele>
        <time>2023-07-16T06:46:51.000Z</time>
      </trkpt>
      <trkpt lat="42.52233" lon="2.46971">
        <ele>2557</ele>
        <time>2023-07-16T06:46:53.000Z</time>
      </trkpt>
      <trkpt lat="42.52234" lon="2.46969">
        <ele>2558</ele>
        <time>2023-07-16T06:46:57.000Z</time>
      </trkpt>
      <trkpt lat="42.52234" lon="2.46968">
        <ele>2558</ele>
        <time>2023-07-16T06:46:58.000Z</time>
      </trkpt>
      <trkpt lat="42.52233" lon="2.46963">
        <ele>2558.3999023438</ele>
        <time>2023-07-16T06:47:06.000Z</time>
      </trkpt>
      <trkpt lat="42.52233" lon="2.46961">
        <ele>2559</ele>
        <time>2023-07-16T06:47:08.000Z</time>
      </trkpt>
      <trkpt lat="42.52232" lon="2.46959">
        <ele>2560</ele>
        <time>2023-07-16T06:47:11.000Z</time>
      </trkpt>
      <trkpt lat="42.52232" lon="2.46958">
        <ele>2560.6000976562</ele>
        <time>2023-07-16T06:47:13.000Z</time>
      </trkpt>
      <trkpt lat="42.52231" lon="2.46956">
        <ele>2561.1999511719</ele>
        <time>2023-07-16T06:47:15.000Z</time>
      </trkpt>
      <trkpt lat="42.52229" lon="2.46956">
        <ele>2562.3999023438</ele>
        <time>2023-07-16T06:47:20.000Z</time>
      </trkpt>
      <trkpt lat="42.52225" lon="2.46958">
        <ele>2563</ele>
        <time>2023-07-16T06:47:27.000Z</time>
      </trkpt>
      <trkpt lat="42.52223" lon="2.46961">
        <ele>2563.6000976562</ele>
        <time>2023-07-16T06:47:33.000Z</time>
      </trkpt>
      <trkpt lat="42.52223" lon="2.46958">
        <ele>2563.6000976562</ele>
        <time>2023-07-16T06:47:35.000Z</time>
      </trkpt>
      <trkpt lat="42.52223" lon="2.46952">
        <ele>2564.6000976562</ele>
        <time>2023-07-16T06:47:41.000Z</time>
      </trkpt>
      <trkpt lat="42.52223" lon="2.4695">
        <ele>2564.8000488281</ele>
        <time>2023-07-16T06:47:43.000Z</time>
      </trkpt>
      <trkpt lat="42.52223" lon="2.46949">
        <ele>2565.6000976562</ele>
        <time>2023-07-16T06:47:47.000Z</time>
      </trkpt>
      <trkpt lat="42.52223" lon="2.46948">
        <ele>2566.6000976562</ele>
        <time>2023-07-16T06:47:50.000Z</time>
      </trkpt>
      <trkpt lat="42.52223" lon="2.46947">
        <ele>2566.8000488281</ele>
        <time>2023-07-16T06:47:51.000Z</time>
      </trkpt>
      <trkpt lat="42.5222" lon="2.46946">
        <ele>2568</ele>
        <time>2023-07-16T06:47:56.000Z</time>
      </trkpt>
      <trkpt lat="42.52219" lon="2.46949">
        <ele>2568</ele>
        <time>2023-07-16T06:47:59.000Z</time>
      </trkpt>
      <trkpt lat="42.52216" lon="2.46948">
        <ele>2568.6000976562</ele>
        <time>2023-07-16T06:48:05.000Z</time>
      </trkpt>
      <trkpt lat="42.52216" lon="2.46948">
        <ele>2569.3999023438</ele>
        <time>2023-07-16T06:48:06.000Z</time>
      </trkpt>
      <trkpt lat="42.52216" lon="2.46947">
        <ele>2570</ele>
        <time>2023-07-16T06:48:07.000Z</time>
      </trkpt>
      <trkpt lat="42.52215" lon="2.46947">
        <ele>2570.3999023438</ele>
        <time>2023-07-16T06:48:09.000Z</time>
      </trkpt>
      <trkpt lat="42.52212" lon="2.46946">
        <ele>2570.6000976562</ele>
        <time>2023-07-16T06:48:14.000Z</time>
      </trkpt>
      <trkpt lat="42.52209" lon="2.46943">
        <ele>2571.6000976562</ele>
        <time>2023-07-16T06:48:21.000Z</time>
      </trkpt>
      <trkpt lat="42.52208" lon="2.46941">
        <ele>2571.8000488281</ele>
        <time>2023-07-16T06:48:23.000Z</time>
      </trkpt>
      <trkpt lat="42.52208" lon="2.4694">
        <ele>2572.8000488281</ele>
        <time>2023-07-16T06:48:28.000Z</time>
      </trkpt>
      <trkpt lat="42.52207" lon="2.4694">
        <ele>2573.6000976562</ele>
        <time>2023-07-16T06:48:30.000Z</time>
      </trkpt>
      <trkpt lat="42.52207" lon="2.4694">
        <ele>2573.8000488281</ele>
        <time>2023-07-16T06:48:33.000Z</time>
      </trkpt>
      <trkpt lat="42.52207" lon="2.46935">
        <ele>2574.6000976562</ele>
        <time>2023-07-16T06:48:38.000Z</time>
      </trkpt>
      <trkpt lat="42.52207" lon="2.46931">
        <ele>2574</ele>
        <time>2023-07-16T06:48:46.000Z</time>
      </trkpt>
      <trkpt lat="42.52205" lon="2.46922">
        <ele>2574.1999511719</ele>
        <time>2023-07-16T06:48:57.000Z</time>
      </trkpt>
      <trkpt lat="42.52204" lon="2.4692">
        <ele>2575.1999511719</ele>
        <time>2023-07-16T06:49:03.000Z</time>
      </trkpt>
      <trkpt lat="42.52204" lon="2.4692">
        <ele>2575.6000976562</ele>
        <time>2023-07-16T06:49:05.000Z</time>
      </trkpt>
      <trkpt lat="42.52203" lon="2.4692">
        <ele>2576.6000976562</ele>
        <time>2023-07-16T06:49:07.000Z</time>
      </trkpt>
      <trkpt lat="42.52202" lon="2.46918">
        <ele>2578.8000488281</ele>
        <time>2023-07-16T06:49:10.000Z</time>
      </trkpt>
      <trkpt lat="42.52202" lon="2.46918">
        <ele>2580</ele>
        <time>2023-07-16T06:49:11.000Z</time>
      </trkpt>
      <trkpt lat="42.52201" lon="2.46917">
        <ele>2581</ele>
        <time>2023-07-16T06:49:12.000Z</time>
      </trkpt>
      <trkpt lat="42.52202" lon="2.46916">
        <ele>2582</ele>
        <time>2023-07-16T06:49:13.000Z</time>
      </trkpt>
      <trkpt lat="42.52202" lon="2.46915">
        <ele>2583</ele>
        <time>2023-07-16T06:49:14.000Z</time>
      </trkpt>
      <trkpt lat="42.52202" lon="2.46915">
        <ele>2583.3999023438</ele>
        <time>2023-07-16T06:49:15.000Z</time>
      </trkpt>
      <trkpt lat="42.52202" lon="2.46914">
        <ele>2582.1999511719</ele>
        <time>2023-07-16T06:49:20.000Z</time>
      </trkpt>
      <trkpt lat="42.52202" lon="2.46914">
        <ele>2582.1999511719</ele>
        <time>2023-07-16T06:49:21.000Z</time>
      </trkpt>
      <trkpt lat="42.52203" lon="2.46912">
        <ele>2581.1999511719</ele>
        <time>2023-07-16T06:49:24.000Z</time>
      </trkpt>
      <trkpt lat="42.52203" lon="2.46909">
        <ele>2580</ele>
        <time>2023-07-16T06:49:28.000Z</time>
      </trkpt>
      <trkpt lat="42.52203" lon="2.46907">
        <ele>2579.6000976562</ele>
        <time>2023-07-16T06:49:30.000Z</time>
      </trkpt>
      <trkpt lat="42.52199" lon="2.46907">
        <ele>2580.1999511719</ele>
        <time>2023-07-16T06:49:38.000Z</time>
      </trkpt>
      <trkpt lat="42.52197" lon="2.46909">
        <ele>2581</ele>
        <time>2023-07-16T06:49:41.000Z</time>
      </trkpt>
      <trkpt lat="42.52196" lon="2.4691">
        <ele>2582</ele>
        <time>2023-07-16T06:49:43.000Z</time>
      </trkpt>
      <trkpt lat="42.52194" lon="2.46911">
        <ele>2582.8000488281</ele>
        <time>2023-07-16T06:49:46.000Z</time>
      </trkpt>
      <trkpt lat="42.52193" lon="2.46911">
        <ele>2583</ele>
        <time>2023-07-16T06:49:47.000Z</time>
      </trkpt>
      <trkpt lat="42.52189" lon="2.46913">
        <ele>2583.1999511719</ele>
        <time>2023-07-16T06:49:54.000Z</time>
      </trkpt>
      <trkpt lat="42.52186" lon="2.46909">
        <ele>2583.6000976562</ele>
        <time>2023-07-16T06:50:04.000Z</time>
      </trkpt>
      <trkpt lat="42.52186" lon="2.46908">
        <ele>2584.6000976562</ele>
        <time>2023-07-16T06:50:06.000Z</time>
      </trkpt>
      <trkpt lat="42.52187" lon="2.46907">
        <ele>2585.6000976562</ele>
        <time>2023-07-16T06:50:10.000Z</time>
      </trkpt>
      <trkpt lat="42.52188" lon="2.46905">
        <ele>2585.8000488281</ele>
        <time>2023-07-16T06:50:12.000Z</time>
      </trkpt>
      <trkpt lat="42.52188" lon="2.46897">
        <ele>2586.1999511719</ele>
        <time>2023-07-16T06:50:20.000Z</time>
      </trkpt>
      <trkpt lat="42.52186" lon="2.46895">
        <ele>2586.1999511719</ele>
        <time>2023-07-16T06:50:24.000Z</time>
      </trkpt>
      <trkpt lat="42.52185" lon="2.46895">
        <ele>2586</ele>
        <time>2023-07-16T06:50:26.000Z</time>
      </trkpt>
      <trkpt lat="42.52184" lon="2.46898">
        <ele>2586.6000976562</ele>
        <time>2023-07-16T06:50:32.000Z</time>
      </trkpt>
      <trkpt lat="42.52184" lon="2.46899">
        <ele>2586.8000488281</ele>
        <time>2023-07-16T06:50:33.000Z</time>
      </trkpt>
      <trkpt lat="42.52182" lon="2.46898">
        <ele>2587.8000488281</ele>
        <time>2023-07-16T06:50:37.000Z</time>
      </trkpt>
      <trkpt lat="42.52181" lon="2.46896">
        <ele>2588</ele>
        <time>2023-07-16T06:50:39.000Z</time>
      </trkpt>
      <trkpt lat="42.52181" lon="2.46895">
        <ele>2589</ele>
        <time>2023-07-16T06:50:41.000Z</time>
      </trkpt>
      <trkpt lat="42.5218" lon="2.4689">
        <ele>2590.1999511719</ele>
        <time>2023-07-16T06:50:46.000Z</time>
      </trkpt>
      <trkpt lat="42.5218" lon="2.46888">
        <ele>2590.3999023438</ele>
        <time>2023-07-16T06:50:47.000Z</time>
      </trkpt>
      <trkpt lat="42.52179" lon="2.46887">
        <ele>2590.8000488281</ele>
        <time>2023-07-16T06:50:55.000Z</time>
      </trkpt>
      <trkpt lat="42.52177" lon="2.46888">
        <ele>2591.1999511719</ele>
        <time>2023-07-16T06:50:58.000Z</time>
      </trkpt>
      <trkpt lat="42.52174" lon="2.46886">
        <ele>2592</ele>
        <time>2023-07-16T06:51:03.000Z</time>
      </trkpt>
      <trkpt lat="42.52174" lon="2.46885">
        <ele>2592.6000976562</ele>
        <time>2023-07-16T06:51:05.000Z</time>
      </trkpt>
      <trkpt lat="42.52175" lon="2.46882">
        <ele>2594</ele>
        <time>2023-07-16T06:51:10.000Z</time>
      </trkpt>
      <trkpt lat="42.52175" lon="2.46881">
        <ele>2594.8000488281</ele>
        <time>2023-07-16T06:51:12.000Z</time>
      </trkpt>
      <trkpt lat="42.52175" lon="2.4688">
        <ele>2595.1999511719</ele>
        <time>2023-07-16T06:51:13.000Z</time>
      </trkpt>
      <trkpt lat="42.52175" lon="2.46875">
        <ele>2595.8000488281</ele>
        <time>2023-07-16T06:51:20.000Z</time>
      </trkpt>
      <trkpt lat="42.52174" lon="2.46869">
        <ele>2595.3999023438</ele>
        <time>2023-07-16T06:51:27.000Z</time>
      </trkpt>
      <trkpt lat="42.52173" lon="2.46864">
        <ele>2596.6000976562</ele>
        <time>2023-07-16T06:51:33.000Z</time>
      </trkpt>
      <trkpt lat="42.52172" lon="2.46864">
        <ele>2596.8000488281</ele>
        <time>2023-07-16T06:51:35.000Z</time>
      </trkpt>
      <trkpt lat="42.52168" lon="2.46868">
        <ele>2596.3999023438</ele>
        <time>2023-07-16T06:51:42.000Z</time>
      </trkpt>
      <trkpt lat="42.52166" lon="2.46873">
        <ele>2597.3999023438</ele>
        <time>2023-07-16T06:51:49.000Z</time>
      </trkpt>
      <trkpt lat="42.52164" lon="2.46873">
        <ele>2597.6000976562</ele>
        <time>2023-07-16T06:51:52.000Z</time>
      </trkpt>
      <trkpt lat="42.52164" lon="2.46871">
        <ele>2598</ele>
        <time>2023-07-16T06:51:54.000Z</time>
      </trkpt>
      <trkpt lat="42.52164" lon="2.4687">
        <ele>2598.8000488281</ele>
        <time>2023-07-16T06:51:56.000Z</time>
      </trkpt>
      <trkpt lat="42.52164" lon="2.46867">
        <ele>2600</ele>
        <time>2023-07-16T06:52:02.000Z</time>
      </trkpt>
      <trkpt lat="42.52164" lon="2.46868">
        <ele>2600.1999511719</ele>
        <time>2023-07-16T06:52:03.000Z</time>
      </trkpt>
      <trkpt lat="42.52163" lon="2.46868">
        <ele>2601</ele>
        <time>2023-07-16T06:52:09.000Z</time>
      </trkpt>
      <trkpt lat="42.52162" lon="2.46867">
        <ele>2601.1999511719</ele>
        <time>2023-07-16T06:52:10.000Z</time>
      </trkpt>
      <trkpt lat="42.52158" lon="2.4687">
        <ele>2602.1999511719</ele>
        <time>2023-07-16T06:52:17.000Z</time>
      </trkpt>
      <trkpt lat="42.52157" lon="2.46869">
        <ele>2602.1999511719</ele>
        <time>2023-07-16T06:52:18.000Z</time>
      </trkpt>
      <trkpt lat="42.52157" lon="2.46865">
        <ele>2602.1999511719</ele>
        <time>2023-07-16T06:52:25.000Z</time>
      </trkpt>
      <trkpt lat="42.52157" lon="2.46858">
        <ele>2602.6000976562</ele>
        <time>2023-07-16T06:52:33.000Z</time>
      </trkpt>
      <trkpt lat="42.52157" lon="2.46855">
        <ele>2603.1999511719</ele>
        <time>2023-07-16T06:52:39.000Z</time>
      </trkpt>
      <trkpt lat="42.52157" lon="2.46853">
        <ele>2603.1999511719</ele>
        <time>2023-07-16T06:52:40.000Z</time>
      </trkpt>
      <trkpt lat="42.52155" lon="2.46849">
        <ele>2604.1999511719</ele>
        <time>2023-07-16T06:52:46.000Z</time>
      </trkpt>
      <trkpt lat="42.52155" lon="2.46848">
        <ele>2604.3999023438</ele>
        <time>2023-07-16T06:52:47.000Z</time>
      </trkpt>
      <trkpt lat="42.52152" lon="2.46845">
        <ele>2604.6000976562</ele>
        <time>2023-07-16T06:52:55.000Z</time>
      </trkpt>
      <trkpt lat="42.5215" lon="2.46843">
        <ele>2605.3999023438</ele>
        <time>2023-07-16T06:52:59.000Z</time>
      </trkpt>
      <trkpt lat="42.52149" lon="2.46841">
        <ele>2606.6000976562</ele>
        <time>2023-07-16T06:53:01.000Z</time>
      </trkpt>
      <trkpt lat="42.52149" lon="2.4684">
        <ele>2607.8000488281</ele>
        <time>2023-07-16T06:53:02.000Z</time>
      </trkpt>
      <trkpt lat="42.52148" lon="2.46838">
        <ele>2608</ele>
        <time>2023-07-16T06:53:04.000Z</time>
      </trkpt>
      <trkpt lat="42.52147" lon="2.46834">
        <ele>2608.8000488281</ele>
        <time>2023-07-16T06:53:11.000Z</time>
      </trkpt>
      <trkpt lat="42.52147" lon="2.46833">
        <ele>2609</ele>
        <time>2023-07-16T06:53:12.000Z</time>
      </trkpt>
      <trkpt lat="42.52146" lon="2.4683">
        <ele>2610</ele>
        <time>2023-07-16T06:53:15.000Z</time>
      </trkpt>
      <trkpt lat="42.52145" lon="2.46828">
        <ele>2610.6000976562</ele>
        <time>2023-07-16T06:53:20.000Z</time>
      </trkpt>
      <trkpt lat="42.52143" lon="2.46823">
        <ele>2610</ele>
        <time>2023-07-16T06:53:27.000Z</time>
      </trkpt>
      <trkpt lat="42.52141" lon="2.46818">
        <ele>2611.3999023438</ele>
        <time>2023-07-16T06:53:35.000Z</time>
      </trkpt>
      <trkpt lat="42.52141" lon="2.46818">
        <ele>2612</ele>
        <time>2023-07-16T06:53:36.000Z</time>
      </trkpt>
      <trkpt lat="42.52141" lon="2.46817">
        <ele>2613.8000488281</ele>
        <time>2023-07-16T06:53:37.000Z</time>
      </trkpt>
      <trkpt lat="42.52141" lon="2.46816">
        <ele>2616</ele>
        <time>2023-07-16T06:53:38.000Z</time>
      </trkpt>
      <trkpt lat="42.52138" lon="2.46811">
        <ele>2616.8000488281</ele>
        <time>2023-07-16T06:53:44.000Z</time>
      </trkpt>
      <trkpt lat="42.52136" lon="2.46805">
        <ele>2616</ele>
        <time>2023-07-16T06:53:52.000Z</time>
      </trkpt>
      <trkpt lat="42.52134" lon="2.46802">
        <ele>2617.3999023438</ele>
        <time>2023-07-16T06:53:58.000Z</time>
      </trkpt>
      <trkpt lat="42.52134" lon="2.468">
        <ele>2617.8000488281</ele>
        <time>2023-07-16T06:53:59.000Z</time>
      </trkpt>
      <trkpt lat="42.52133" lon="2.468">
        <ele>2618.3999023438</ele>
        <time>2023-07-16T06:54:00.000Z</time>
      </trkpt>
      <trkpt lat="42.5213" lon="2.46794">
        <ele>2619.1999511719</ele>
        <time>2023-07-16T06:54:06.000Z</time>
      </trkpt>
      <trkpt lat="42.5213" lon="2.46793">
        <ele>2619.6000976562</ele>
        <time>2023-07-16T06:54:07.000Z</time>
      </trkpt>
      <trkpt lat="42.5213" lon="2.46788">
        <ele>2620.1999511719</ele>
        <time>2023-07-16T06:54:14.000Z</time>
      </trkpt>
      <trkpt lat="42.52129" lon="2.46784">
        <ele>2619.6000976562</ele>
        <time>2023-07-16T06:54:22.000Z</time>
      </trkpt>
      <trkpt lat="42.52127" lon="2.46777">
        <ele>2620.3999023438</ele>
        <time>2023-07-16T06:54:31.000Z</time>
      </trkpt>
      <trkpt lat="42.52127" lon="2.46775">
        <ele>2620.8000488281</ele>
        <time>2023-07-16T06:54:34.000Z</time>
      </trkpt>
      <trkpt lat="42.52127" lon="2.46773">
        <ele>2621.8000488281</ele>
        <time>2023-07-16T06:54:36.000Z</time>
      </trkpt>
      <trkpt lat="42.52126" lon="2.4677">
        <ele>2622.6000976562</ele>
        <time>2023-07-16T06:54:40.000Z</time>
      </trkpt>
      <trkpt lat="42.52125" lon="2.46766">
        <ele>2623</ele>
        <time>2023-07-16T06:54:45.000Z</time>
      </trkpt>
      <trkpt lat="42.52125" lon="2.46764">
        <ele>2623.3999023438</ele>
        <time>2023-07-16T06:54:48.000Z</time>
      </trkpt>
      <trkpt lat="42.52125" lon="2.4676">
        <ele>2624</ele>
        <time>2023-07-16T06:54:56.000Z</time>
      </trkpt>
      <trkpt lat="42.52124" lon="2.46755">
        <ele>2624</ele>
        <time>2023-07-16T06:55:01.000Z</time>
      </trkpt>
      <trkpt lat="42.52123" lon="2.46752">
        <ele>2624.8000488281</ele>
        <time>2023-07-16T06:55:06.000Z</time>
      </trkpt>
      <trkpt lat="42.52123" lon="2.46751">
        <ele>2625</ele>
        <time>2023-07-16T06:55:07.000Z</time>
      </trkpt>
      <trkpt lat="42.52123" lon="2.46746">
        <ele>2626.1999511719</ele>
        <time>2023-07-16T06:55:12.000Z</time>
      </trkpt>
      <trkpt lat="42.52122" lon="2.46744">
        <ele>2626.8000488281</ele>
        <time>2023-07-16T06:55:15.000Z</time>
      </trkpt>
      <trkpt lat="42.5212" lon="2.46739">
        <ele>2627.1999511719</ele>
        <time>2023-07-16T06:55:19.000Z</time>
      </trkpt>
      <trkpt lat="42.5212" lon="2.46734">
        <ele>2627.6000976562</ele>
        <time>2023-07-16T06:55:25.000Z</time>
      </trkpt>
      <trkpt lat="42.5212" lon="2.46733">
        <ele>2628.1999511719</ele>
        <time>2023-07-16T06:55:28.000Z</time>
      </trkpt>
      <trkpt lat="42.52118" lon="2.46731">
        <ele>2628.8000488281</ele>
        <time>2023-07-16T06:55:34.000Z</time>
      </trkpt>
      <trkpt lat="42.52118" lon="2.46731">
        <ele>2627</ele>
        <time>2023-07-16T06:55:39.000Z</time>
      </trkpt>
      <trkpt lat="42.52119" lon="2.46731">
        <ele>2625.8000488281</ele>
        <time>2023-07-16T06:55:42.000Z</time>
      </trkpt>
      <trkpt lat="42.52119" lon="2.46732">
        <ele>2625.1999511719</ele>
        <time>2023-07-16T06:55:44.000Z</time>
      </trkpt>
      <trkpt lat="42.52119" lon="2.46728">
        <ele>2625.6000976562</ele>
        <time>2023-07-16T06:55:53.000Z</time>
      </trkpt>
      <trkpt lat="42.52118" lon="2.46724">
        <ele>2627</ele>
        <time>2023-07-16T06:55:57.000Z</time>
      </trkpt>
      <trkpt lat="42.52116" lon="2.46721">
        <ele>2628</ele>
        <time>2023-07-16T06:56:01.000Z</time>
      </trkpt>
      <trkpt lat="42.52116" lon="2.46719">
        <ele>2628.3999023438</ele>
        <time>2023-07-16T06:56:03.000Z</time>
      </trkpt>
      <trkpt lat="42.52115" lon="2.46718">
        <ele>2629.8000488281</ele>
        <time>2023-07-16T06:56:04.000Z</time>
      </trkpt>
      <trkpt lat="42.52115" lon="2.46716">
        <ele>2631</ele>
        <time>2023-07-16T06:56:08.000Z</time>
      </trkpt>
      <trkpt lat="42.52114" lon="2.46715">
        <ele>2631.6000976562</ele>
        <time>2023-07-16T06:56:09.000Z</time>
      </trkpt>
      <trkpt lat="42.52114" lon="2.46714">
        <ele>2632.1999511719</ele>
        <time>2023-07-16T06:56:10.000Z</time>
      </trkpt>
      <trkpt lat="42.52115" lon="2.46712">
        <ele>2633.1999511719</ele>
        <time>2023-07-16T06:56:13.000Z</time>
      </trkpt>
      <trkpt lat="42.52114" lon="2.4671">
        <ele>2633.8000488281</ele>
        <time>2023-07-16T06:56:18.000Z</time>
      </trkpt>
      <trkpt lat="42.52113" lon="2.46709">
        <ele>2634.6000976562</ele>
        <time>2023-07-16T06:56:20.000Z</time>
      </trkpt>
      <trkpt lat="42.5211" lon="2.46705">
        <ele>2635.6000976562</ele>
        <time>2023-07-16T06:56:27.000Z</time>
      </trkpt>
      <trkpt lat="42.5211" lon="2.46703">
        <ele>2636.6000976562</ele>
        <time>2023-07-16T06:56:30.000Z</time>
      </trkpt>
      <trkpt lat="42.52109" lon="2.46699">
        <ele>2637.1999511719</ele>
        <time>2023-07-16T06:56:37.000Z</time>
      </trkpt>
      <trkpt lat="42.52108" lon="2.46698">
        <ele>2637.6000976562</ele>
        <time>2023-07-16T06:56:39.000Z</time>
      </trkpt>
      <trkpt lat="42.52108" lon="2.46694">
        <ele>2638.6000976562</ele>
        <time>2023-07-16T06:56:44.000Z</time>
      </trkpt>
      <trkpt lat="42.52108" lon="2.46692">
        <ele>2638.8000488281</ele>
        <time>2023-07-16T06:56:46.000Z</time>
      </trkpt>
      <trkpt lat="42.52108" lon="2.46688">
        <ele>2639.8000488281</ele>
        <time>2023-07-16T06:56:51.000Z</time>
      </trkpt>
      <trkpt lat="42.52106" lon="2.46685">
        <ele>2641</ele>
        <time>2023-07-16T06:56:57.000Z</time>
      </trkpt>
      <trkpt lat="42.52105" lon="2.46686">
        <ele>2641.1999511719</ele>
        <time>2023-07-16T06:57:01.000Z</time>
      </trkpt>
      <trkpt lat="42.521" lon="2.46685">
        <ele>2642</ele>
        <time>2023-07-16T06:57:09.000Z</time>
      </trkpt>
      <trkpt lat="42.52099" lon="2.46686">
        <ele>2642</ele>
        <time>2023-07-16T06:57:10.000Z</time>
      </trkpt>
      <trkpt lat="42.52097" lon="2.46689">
        <ele>2643</ele>
        <time>2023-07-16T06:57:17.000Z</time>
      </trkpt>
      <trkpt lat="42.52094" lon="2.46688">
        <ele>2643.6000976562</ele>
        <time>2023-07-16T06:57:22.000Z</time>
      </trkpt>
      <trkpt lat="42.52095" lon="2.46686">
        <ele>2643.8000488281</ele>
        <time>2023-07-16T06:57:24.000Z</time>
      </trkpt>
      <trkpt lat="42.52095" lon="2.46681">
        <ele>2643.8000488281</ele>
        <time>2023-07-16T06:57:31.000Z</time>
      </trkpt>
      <trkpt lat="42.52094" lon="2.46677">
        <ele>2642.3999023438</ele>
        <time>2023-07-16T06:57:38.000Z</time>
      </trkpt>
      <trkpt lat="42.52093" lon="2.4667">
        <ele>2644.1999511719</ele>
        <time>2023-07-16T06:57:46.000Z</time>
      </trkpt>
      <trkpt lat="42.52093" lon="2.4667">
        <ele>2644.6000976562</ele>
        <time>2023-07-16T06:57:47.000Z</time>
      </trkpt>
      <trkpt lat="42.52093" lon="2.4667">
        <ele>2645.3999023438</ele>
        <time>2023-07-16T06:57:49.000Z</time>
      </trkpt>
      <trkpt lat="42.52094" lon="2.46668">
        <ele>2646.6000976562</ele>
        <time>2023-07-16T06:57:51.000Z</time>
      </trkpt>
      <trkpt lat="42.52094" lon="2.46665">
        <ele>2647.3999023438</ele>
        <time>2023-07-16T06:57:54.000Z</time>
      </trkpt>
      <trkpt lat="42.52093" lon="2.4666">
        <ele>2647.6000976562</ele>
        <time>2023-07-16T06:58:01.000Z</time>
      </trkpt>
      <trkpt lat="42.52093" lon="2.46659">
        <ele>2647.8000488281</ele>
        <time>2023-07-16T06:58:02.000Z</time>
      </trkpt>
      <trkpt lat="42.52093" lon="2.46657">
        <ele>2648.8000488281</ele>
        <time>2023-07-16T06:58:04.000Z</time>
      </trkpt>
      <trkpt lat="42.52093" lon="2.46654">
        <ele>2649.8000488281</ele>
        <time>2023-07-16T06:58:06.000Z</time>
      </trkpt>
      <trkpt lat="42.52093" lon="2.4665">
        <ele>2650</ele>
        <time>2023-07-16T06:58:12.000Z</time>
      </trkpt>
      <trkpt lat="42.52093" lon="2.46648">
        <ele>2651</ele>
        <time>2023-07-16T06:58:17.000Z</time>
      </trkpt>
      <trkpt lat="42.52092" lon="2.46646">
        <ele>2652</ele>
        <time>2023-07-16T06:58:20.000Z</time>
      </trkpt>
      <trkpt lat="42.52092" lon="2.46645">
        <ele>2652.8000488281</ele>
        <time>2023-07-16T06:58:21.000Z</time>
      </trkpt>
      <trkpt lat="42.52091" lon="2.46645">
        <ele>2653.6000976562</ele>
        <time>2023-07-16T06:58:22.000Z</time>
      </trkpt>
      <trkpt lat="42.5209" lon="2.46638">
        <ele>2652.3999023438</ele>
        <time>2023-07-16T06:58:29.000Z</time>
      </trkpt>
      <trkpt lat="42.52089" lon="2.46634">
        <ele>2653.8000488281</ele>
        <time>2023-07-16T06:58:36.000Z</time>
      </trkpt>
      <trkpt lat="42.52089" lon="2.46633">
        <ele>2653.8000488281</ele>
        <time>2023-07-16T06:58:37.000Z</time>
      </trkpt>
      <trkpt lat="42.5209" lon="2.46629">
        <ele>2653.6000976562</ele>
        <time>2023-07-16T06:58:43.000Z</time>
      </trkpt>
      <trkpt lat="42.52089" lon="2.46622">
        <ele>2654.6000976562</ele>
        <time>2023-07-16T06:58:51.000Z</time>
      </trkpt>
      <trkpt lat="42.52089" lon="2.46622">
        <ele>2655.3999023438</ele>
        <time>2023-07-16T06:58:52.000Z</time>
      </trkpt>
      <trkpt lat="42.52088" lon="2.4662">
        <ele>2656.8000488281</ele>
        <time>2023-07-16T06:58:54.000Z</time>
      </trkpt>
      <trkpt lat="42.52088" lon="2.46619">
        <ele>2656.6000976562</ele>
        <time>2023-07-16T06:58:59.000Z</time>
      </trkpt>
      <trkpt lat="42.52088" lon="2.46617">
        <ele>2655.8000488281</ele>
        <time>2023-07-16T06:59:04.000Z</time>
      </trkpt>
      <trkpt lat="42.52088" lon="2.46614">
        <ele>2655.8000488281</ele>
        <time>2023-07-16T06:59:08.000Z</time>
      </trkpt>
      <trkpt lat="42.52087" lon="2.46612">
        <ele>2657</ele>
        <time>2023-07-16T06:59:12.000Z</time>
      </trkpt>
      <trkpt lat="42.52086" lon="2.46611">
        <ele>2658</ele>
        <time>2023-07-16T06:59:15.000Z</time>
      </trkpt>
      <trkpt lat="42.52086" lon="2.4661">
        <ele>2658.1999511719</ele>
        <time>2023-07-16T06:59:16.000Z</time>
      </trkpt>
      <trkpt lat="42.52086" lon="2.46607">
        <ele>2659</ele>
        <time>2023-07-16T06:59:20.000Z</time>
      </trkpt>
      <trkpt lat="42.52086" lon="2.46604">
        <ele>2659.3999023438</ele>
        <time>2023-07-16T06:59:24.000Z</time>
      </trkpt>
      <trkpt lat="42.52086" lon="2.46602">
        <ele>2660</ele>
        <time>2023-07-16T06:59:29.000Z</time>
      </trkpt>
      <trkpt lat="42.52085" lon="2.46601">
        <ele>2660.6000976562</ele>
        <time>2023-07-16T06:59:31.000Z</time>
      </trkpt>
      <trkpt lat="42.52081" lon="2.46596">
        <ele>2660.8000488281</ele>
        <time>2023-07-16T06:59:39.000Z</time>
      </trkpt>
      <trkpt lat="42.52076" lon="2.466">
        <ele>2660.3999023438</ele>
        <time>2023-07-16T06:59:47.000Z</time>
      </trkpt>
      <trkpt lat="42.52073" lon="2.46603">
        <ele>2661.1999511719</ele>
        <time>2023-07-16T06:59:54.000Z</time>
      </trkpt>
      <trkpt lat="42.52072" lon="2.46603">
        <ele>2661.3999023438</ele>
        <time>2023-07-16T06:59:56.000Z</time>
      </trkpt>
      <trkpt lat="42.5207" lon="2.46605">
        <ele>2662.1999511719</ele>
        <time>2023-07-16T06:59:59.000Z</time>
      </trkpt>
      <trkpt lat="42.52067" lon="2.46607">
        <ele>2662.8000488281</ele>
        <time>2023-07-16T07:00:05.000Z</time>
      </trkpt>
      <trkpt lat="42.52065" lon="2.46607">
        <ele>2663.1999511719</ele>
        <time>2023-07-16T07:00:08.000Z</time>
      </trkpt>
      <trkpt lat="42.52066" lon="2.46604">
        <ele>2663.8000488281</ele>
        <time>2023-07-16T07:00:13.000Z</time>
      </trkpt>
      <trkpt lat="42.52065" lon="2.46599">
        <ele>2663.3999023438</ele>
        <time>2023-07-16T07:00:20.000Z</time>
      </trkpt>
      <trkpt lat="42.52063" lon="2.46589">
        <ele>2664.1999511719</ele>
        <time>2023-07-16T07:00:30.000Z</time>
      </trkpt>
      <trkpt lat="42.52063" lon="2.46589">
        <ele>2665.6000976562</ele>
        <time>2023-07-16T07:00:32.000Z</time>
      </trkpt>
      <trkpt lat="42.52063" lon="2.46585">
        <ele>2667.1999511719</ele>
        <time>2023-07-16T07:00:36.000Z</time>
      </trkpt>
      <trkpt lat="42.52063" lon="2.46582">
        <ele>2668.1999511719</ele>
        <time>2023-07-16T07:00:39.000Z</time>
      </trkpt>
      <trkpt lat="42.52062" lon="2.46581">
        <ele>2670</ele>
        <time>2023-07-16T07:00:41.000Z</time>
      </trkpt>
      <trkpt lat="42.52062" lon="2.46581">
        <ele>2670.6000976562</ele>
        <time>2023-07-16T07:00:42.000Z</time>
      </trkpt>
      <trkpt lat="42.52062" lon="2.46581">
        <ele>2671.1999511719</ele>
        <time>2023-07-16T07:00:43.000Z</time>
      </trkpt>
      <trkpt lat="42.52061" lon="2.46575">
        <ele>2670.6000976562</ele>
        <time>2023-07-16T07:00:50.000Z</time>
      </trkpt>
      <trkpt lat="42.52059" lon="2.46568">
        <ele>2671.3999023438</ele>
        <time>2023-07-16T07:00:57.000Z</time>
      </trkpt>
      <trkpt lat="42.52059" lon="2.46567">
        <ele>2672.1999511719</ele>
        <time>2023-07-16T07:00:59.000Z</time>
      </trkpt>
      <trkpt lat="42.52056" lon="2.46562">
        <ele>2672.8000488281</ele>
        <time>2023-07-16T07:01:06.000Z</time>
      </trkpt>
      <trkpt lat="42.52053" lon="2.46559">
        <ele>2673.3999023438</ele>
        <time>2023-07-16T07:01:10.000Z</time>
      </trkpt>
      <trkpt lat="42.5205" lon="2.46555">
        <ele>2674.1999511719</ele>
        <time>2023-07-16T07:01:15.000Z</time>
      </trkpt>
      <trkpt lat="42.52049" lon="2.46554">
        <ele>2674.3999023438</ele>
        <time>2023-07-16T07:01:16.000Z</time>
      </trkpt>
      <trkpt lat="42.52047" lon="2.4655">
        <ele>2675.6000976562</ele>
        <time>2023-07-16T07:01:19.000Z</time>
      </trkpt>
      <trkpt lat="42.52047" lon="2.46549">
        <ele>2677.1999511719</ele>
        <time>2023-07-16T07:01:21.000Z</time>
      </trkpt>
      <trkpt lat="42.52047" lon="2.46549">
        <ele>2678.6000976562</ele>
        <time>2023-07-16T07:01:23.000Z</time>
      </trkpt>
      <trkpt lat="42.52047" lon="2.46548">
        <ele>2679</ele>
        <time>2023-07-16T07:01:24.000Z</time>
      </trkpt>
      <trkpt lat="42.52046" lon="2.46546">
        <ele>2679.8000488281</ele>
        <time>2023-07-16T07:01:26.000Z</time>
      </trkpt>
      <trkpt lat="42.52044" lon="2.46542">
        <ele>2681.1999511719</ele>
        <time>2023-07-16T07:01:31.000Z</time>
      </trkpt>
      <trkpt lat="42.52044" lon="2.46541">
        <ele>2682.1999511719</ele>
        <time>2023-07-16T07:01:32.000Z</time>
      </trkpt>
      <trkpt lat="42.5204" lon="2.46534">
        <ele>2681.3999023438</ele>
        <time>2023-07-16T07:01:40.000Z</time>
      </trkpt>
      <trkpt lat="42.52039" lon="2.46533">
        <ele>2680.8000488281</ele>
        <time>2023-07-16T07:01:41.000Z</time>
      </trkpt>
      <trkpt lat="42.52037" lon="2.46529">
        <ele>2679.8000488281</ele>
        <time>2023-07-16T07:01:46.000Z</time>
      </trkpt>
      <trkpt lat="42.52036" lon="2.46528">
        <ele>2679.6000976562</ele>
        <time>2023-07-16T07:01:48.000Z</time>
      </trkpt>
      <trkpt lat="42.52034" lon="2.46524">
        <ele>2678.6000976562</ele>
        <time>2023-07-16T07:01:53.000Z</time>
      </trkpt>
      <trkpt lat="42.52033" lon="2.46524">
        <ele>2677.6000976562</ele>
        <time>2023-07-16T07:01:58.000Z</time>
      </trkpt>
      <trkpt lat="42.52034" lon="2.46525">
        <ele>2678.8000488281</ele>
        <time>2023-07-16T07:02:06.000Z</time>
      </trkpt>
      <trkpt lat="42.52033" lon="2.46525">
        <ele>2678.8000488281</ele>
        <time>2023-07-16T07:02:08.000Z</time>
      </trkpt>
      <trkpt lat="42.52032" lon="2.46523">
        <ele>2677.8000488281</ele>
        <time>2023-07-16T07:02:12.000Z</time>
      </trkpt>
      <trkpt lat="42.52029" lon="2.46522">
        <ele>2677.3999023438</ele>
        <time>2023-07-16T07:02:17.000Z</time>
      </trkpt>
      <trkpt lat="42.52027" lon="2.46518">
        <ele>2679.3999023438</ele>
        <time>2023-07-16T07:02:23.000Z</time>
      </trkpt>
      <trkpt lat="42.52026" lon="2.46517">
        <ele>2680</ele>
        <time>2023-07-16T07:02:24.000Z</time>
      </trkpt>
      <trkpt lat="42.52025" lon="2.46516">
        <ele>2680.6000976562</ele>
        <time>2023-07-16T07:02:25.000Z</time>
      </trkpt>
      <trkpt lat="42.52023" lon="2.46516">
        <ele>2681.6000976562</ele>
        <time>2023-07-16T07:02:27.000Z</time>
      </trkpt>
      <trkpt lat="42.52018" lon="2.46514">
        <ele>2682</ele>
        <time>2023-07-16T07:02:32.000Z</time>
      </trkpt>
      <trkpt lat="42.52017" lon="2.46512">
        <ele>2682.8000488281</ele>
        <time>2023-07-16T07:02:35.000Z</time>
      </trkpt>
      <trkpt lat="42.52014" lon="2.46508">
        <ele>2683.1999511719</ele>
        <time>2023-07-16T07:02:39.000Z</time>
      </trkpt>
      <trkpt lat="42.52014" lon="2.46507">
        <ele>2681.3999023438</ele>
        <time>2023-07-16T07:02:41.000Z</time>
      </trkpt>
      <trkpt lat="42.52013" lon="2.46504">
        <ele>2680.1999511719</ele>
        <time>2023-07-16T07:02:46.000Z</time>
      </trkpt>
      <trkpt lat="42.52007" lon="2.46498">
        <ele>2679.3999023438</ele>
        <time>2023-07-16T07:02:53.000Z</time>
      </trkpt>
      <trkpt lat="42.52002" lon="2.46495">
        <ele>2681.6000976562</ele>
        <time>2023-07-16T07:02:58.000Z</time>
      </trkpt>
      <trkpt lat="42.52001" lon="2.46493">
        <ele>2683.1999511719</ele>
        <time>2023-07-16T07:03:00.000Z</time>
      </trkpt>
      <trkpt lat="42.51999" lon="2.46492">
        <ele>2684</ele>
        <time>2023-07-16T07:03:02.000Z</time>
      </trkpt>
      <trkpt lat="42.51991" lon="2.46485">
        <ele>2683.1999511719</ele>
        <time>2023-07-16T07:03:12.000Z</time>
      </trkpt>
      <trkpt lat="42.51987" lon="2.4648">
        <ele>2683</ele>
        <time>2023-07-16T07:03:20.000Z</time>
      </trkpt>
      <trkpt lat="42.51983" lon="2.46475">
        <ele>2682.8000488281</ele>
        <time>2023-07-16T07:03:26.000Z</time>
      </trkpt>
      <trkpt lat="42.51977" lon="2.4647">
        <ele>2683.8000488281</ele>
        <time>2023-07-16T07:03:32.000Z</time>
      </trkpt>
      <trkpt lat="42.51973" lon="2.46468">
        <ele>2684.3999023438</ele>
        <time>2023-07-16T07:03:36.000Z</time>
      </trkpt>
      <trkpt lat="42.5197" lon="2.46467">
        <ele>2685</ele>
        <time>2023-07-16T07:03:41.000Z</time>
      </trkpt>
      <trkpt lat="42.51961" lon="2.46465">
        <ele>2684.6000976562</ele>
        <time>2023-07-16T07:03:50.000Z</time>
      </trkpt>
      <trkpt lat="42.51962" lon="2.46465">
        <ele>2683.1999511719</ele>
        <time>2023-07-16T07:03:57.000Z</time>
      </trkpt>
      <trkpt lat="42.51961" lon="2.46465">
        <ele>2683</ele>
        <time>2023-07-16T07:04:06.000Z</time>
      </trkpt>
      <trkpt lat="42.51956" lon="2.46463">
        <ele>2683.8000488281</ele>
        <time>2023-07-16T07:04:11.000Z</time>
      </trkpt>
      <trkpt lat="42.51955" lon="2.46463">
        <ele>2684.1999511719</ele>
        <time>2023-07-16T07:04:12.000Z</time>
      </trkpt>
      <trkpt lat="42.51949" lon="2.4646">
        <ele>2685.1999511719</ele>
        <time>2023-07-16T07:04:17.000Z</time>
      </trkpt>
      <trkpt lat="42.51943" lon="2.46458">
        <ele>2685</ele>
        <time>2023-07-16T07:04:24.000Z</time>
      </trkpt>
      <trkpt lat="42.51935" lon="2.46456">
        <ele>2685</ele>
        <time>2023-07-16T07:04:31.000Z</time>
      </trkpt>
      <trkpt lat="42.51935" lon="2.46456">
        <ele>2685.3999023438</ele>
        <time>2023-07-16T07:04:32.000Z</time>
      </trkpt>
      <trkpt lat="42.51932" lon="2.46456">
        <ele>2687</ele>
        <time>2023-07-16T07:04:35.000Z</time>
      </trkpt>
      <trkpt lat="42.5193" lon="2.46456">
        <ele>2688.3999023438</ele>
        <time>2023-07-16T07:04:37.000Z</time>
      </trkpt>
      <trkpt lat="42.51928" lon="2.46456">
        <ele>2690</ele>
        <time>2023-07-16T07:04:39.000Z</time>
      </trkpt>
      <trkpt lat="42.51925" lon="2.46455">
        <ele>2689.8000488281</ele>
        <time>2023-07-16T07:04:45.000Z</time>
      </trkpt>
      <trkpt lat="42.51926" lon="2.46456">
        <ele>2688.6000976562</ele>
        <time>2023-07-16T07:04:47.000Z</time>
      </trkpt>
      <trkpt lat="42.51927" lon="2.46456">
        <ele>2687.3999023438</ele>
        <time>2023-07-16T07:04:49.000Z</time>
      </trkpt>
      <trkpt lat="42.51927" lon="2.46456">
        <ele>2686.3999023438</ele>
        <time>2023-07-16T07:04:52.000Z</time>
      </trkpt>
      <trkpt lat="42.51926" lon="2.46456">
        <ele>2686.1999511719</ele>
        <time>2023-07-16T07:05:01.000Z</time>
      </trkpt>
      <trkpt lat="42.51923" lon="2.46456">
        <ele>2686.8000488281</ele>
        <time>2023-07-16T07:05:08.000Z</time>
      </trkpt>
      <trkpt lat="42.51921" lon="2.46457">
        <ele>2687.6000976562</ele>
        <time>2023-07-16T07:05:10.000Z</time>
      </trkpt>
      <trkpt lat="42.51919" lon="2.46458">
        <ele>2688.3999023438</ele>
        <time>2023-07-16T07:05:15.000Z</time>
      </trkpt>
      <trkpt lat="42.51917" lon="2.46458">
        <ele>2688.6000976562</ele>
        <time>2023-07-16T07:05:18.000Z</time>
      </trkpt>
      <trkpt lat="42.51914" lon="2.46457">
        <ele>2690</ele>
        <time>2023-07-16T07:05:20.000Z</time>
      </trkpt>
      <trkpt lat="42.51912" lon="2.46457">
        <ele>2691.6000976562</ele>
        <time>2023-07-16T07:05:22.000Z</time>
      </trkpt>
      <trkpt lat="42.51907" lon="2.46453">
        <ele>2690.6000976562</ele>
        <time>2023-07-16T07:05:28.000Z</time>
      </trkpt>
      <trkpt lat="42.51905" lon="2.46451">
        <ele>2690.3999023438</ele>
        <time>2023-07-16T07:05:31.000Z</time>
      </trkpt>
      <trkpt lat="42.51902" lon="2.46447">
        <ele>2692.1999511719</ele>
        <time>2023-07-16T07:05:36.000Z</time>
      </trkpt>
      <trkpt lat="42.519" lon="2.46444">
        <ele>2693.3999023438</ele>
        <time>2023-07-16T07:05:38.000Z</time>
      </trkpt>
      <trkpt lat="42.51894" lon="2.46442">
        <ele>2693.8000488281</ele>
        <time>2023-07-16T07:05:45.000Z</time>
      </trkpt>
      <trkpt lat="42.51889" lon="2.46439">
        <ele>2694.3999023438</ele>
        <time>2023-07-16T07:05:52.000Z</time>
      </trkpt>
      <trkpt lat="42.51888" lon="2.46438">
        <ele>2694.3999023438</ele>
        <time>2023-07-16T07:05:53.000Z</time>
      </trkpt>
      <trkpt lat="42.51886" lon="2.46436">
        <ele>2695.6000976562</ele>
        <time>2023-07-16T07:05:56.000Z</time>
      </trkpt>
      <trkpt lat="42.51881" lon="2.46433">
        <ele>2695.6000976562</ele>
        <time>2023-07-16T07:06:02.000Z</time>
      </trkpt>
      <trkpt lat="42.51874" lon="2.46428">
        <ele>2696.3999023438</ele>
        <time>2023-07-16T07:06:10.000Z</time>
      </trkpt>
      <trkpt lat="42.51868" lon="2.46425">
        <ele>2695.8000488281</ele>
        <time>2023-07-16T07:06:18.000Z</time>
      </trkpt>
      <trkpt lat="42.51864" lon="2.46422">
        <ele>2696.6000976562</ele>
        <time>2023-07-16T07:06:22.000Z</time>
      </trkpt>
      <trkpt lat="42.51862" lon="2.46421">
        <ele>2698</ele>
        <time>2023-07-16T07:06:25.000Z</time>
      </trkpt>
      <trkpt lat="42.51861" lon="2.4642">
        <ele>2698.1999511719</ele>
        <time>2023-07-16T07:06:26.000Z</time>
      </trkpt>
      <trkpt lat="42.51859" lon="2.46419">
        <ele>2699</ele>
        <time>2023-07-16T07:06:29.000Z</time>
      </trkpt>
      <trkpt lat="42.51855" lon="2.46416">
        <ele>2699.3999023438</ele>
        <time>2023-07-16T07:06:35.000Z</time>
      </trkpt>
      <trkpt lat="42.51853" lon="2.46413">
        <ele>2697.1999511719</ele>
        <time>2023-07-16T07:06:39.000Z</time>
      </trkpt>
      <trkpt lat="42.51852" lon="2.46412">
        <ele>2697</ele>
        <time>2023-07-16T07:06:41.000Z</time>
      </trkpt>
      <trkpt lat="42.51846" lon="2.46407">
        <ele>2696</ele>
        <time>2023-07-16T07:06:48.000Z</time>
      </trkpt>
      <trkpt lat="42.51846" lon="2.46405">
        <ele>2695.8000488281</ele>
        <time>2023-07-16T07:06:50.000Z</time>
      </trkpt>
      <trkpt lat="42.51843" lon="2.46401">
        <ele>2696.6000976562</ele>
        <time>2023-07-16T07:06:57.000Z</time>
      </trkpt>
      <trkpt lat="42.51841" lon="2.46399">
        <ele>2697</ele>
        <time>2023-07-16T07:06:59.000Z</time>
      </trkpt>
      <trkpt lat="42.51838" lon="2.46397">
        <ele>2698.1999511719</ele>
        <time>2023-07-16T07:07:05.000Z</time>
      </trkpt>
      <trkpt lat="42.51837" lon="2.46397">
        <ele>2699.6000976562</ele>
        <time>2023-07-16T07:07:07.000Z</time>
      </trkpt>
      <trkpt lat="42.51832" lon="2.46395">
        <ele>2699.8000488281</ele>
        <time>2023-07-16T07:07:12.000Z</time>
      </trkpt>
      <trkpt lat="42.51827" lon="2.46393">
        <ele>2700.6000976562</ele>
        <time>2023-07-16T07:07:20.000Z</time>
      </trkpt>
      <trkpt lat="42.51824" lon="2.46392">
        <ele>2701.8000488281</ele>
        <time>2023-07-16T07:07:23.000Z</time>
      </trkpt>
      <trkpt lat="42.5182" lon="2.46391">
        <ele>2703</ele>
        <time>2023-07-16T07:07:28.000Z</time>
      </trkpt>
      <trkpt lat="42.51814" lon="2.46391">
        <ele>2701</ele>
        <time>2023-07-16T07:07:35.000Z</time>
      </trkpt>
      <trkpt lat="42.51812" lon="2.46392">
        <ele>2699.8000488281</ele>
        <time>2023-07-16T07:07:39.000Z</time>
      </trkpt>
      <trkpt lat="42.51811" lon="2.46391">
        <ele>2698.6000976562</ele>
        <time>2023-07-16T07:07:41.000Z</time>
      </trkpt>
      <trkpt lat="42.51812" lon="2.46391">
        <ele>2697.6000976562</ele>
        <time>2023-07-16T07:07:42.000Z</time>
      </trkpt>
      <trkpt lat="42.51814" lon="2.46392">
        <ele>2697</ele>
        <time>2023-07-16T07:07:43.000Z</time>
      </trkpt>
      <trkpt lat="42.51818" lon="2.4639">
        <ele>2696.8000488281</ele>
        <time>2023-07-16T07:07:48.000Z</time>
      </trkpt>
      <trkpt lat="42.51818" lon="2.46389">
        <ele>2695.8000488281</ele>
        <time>2023-07-16T07:07:53.000Z</time>
      </trkpt>
      <trkpt lat="42.51819" lon="2.46389">
        <ele>2695.8000488281</ele>
        <time>2023-07-16T07:07:56.000Z</time>
      </trkpt>
      <trkpt lat="42.5182" lon="2.46388">
        <ele>2696.8000488281</ele>
        <time>2023-07-16T07:08:00.000Z</time>
      </trkpt>
      <trkpt lat="42.51819" lon="2.4639">
        <ele>2698.3999023438</ele>
        <time>2023-07-16T07:08:03.000Z</time>
      </trkpt>
      <trkpt lat="42.51819" lon="2.46391">
        <ele>2698.8000488281</ele>
        <time>2023-07-16T07:08:04.000Z</time>
      </trkpt>
      <trkpt lat="42.51819" lon="2.46392">
        <ele>2700.1999511719</ele>
        <time>2023-07-16T07:08:07.000Z</time>
      </trkpt>
      <trkpt lat="42.51819" lon="2.4639">
        <ele>2699</ele>
        <time>2023-07-16T07:08:12.000Z</time>
      </trkpt>
      <trkpt lat="42.51819" lon="2.4639">
        <ele>2697.1999511719</ele>
        <time>2023-07-16T07:08:14.000Z</time>
      </trkpt>
      <trkpt lat="42.51819" lon="2.4639">
        <ele>2696</ele>
        <time>2023-07-16T07:08:16.000Z</time>
      </trkpt>
      <trkpt lat="42.51817" lon="2.46392">
        <ele>2696.3999023438</ele>
        <time>2023-07-16T07:08:21.000Z</time>
      </trkpt>
      <trkpt lat="42.51815" lon="2.46393">
        <ele>2697</ele>
        <time>2023-07-16T07:08:23.000Z</time>
      </trkpt>
      <trkpt lat="42.51813" lon="2.46394">
        <ele>2698.3999023438</ele>
        <time>2023-07-16T07:08:25.000Z</time>
      </trkpt>
      <trkpt lat="42.51811" lon="2.46396">
        <ele>2699.8000488281</ele>
        <time>2023-07-16T07:08:29.000Z</time>
      </trkpt>
      <trkpt lat="42.5181" lon="2.464">
        <ele>2698.3999023438</ele>
        <time>2023-07-16T07:08:34.000Z</time>
      </trkpt>
      <trkpt lat="42.5181" lon="2.46401">
        <ele>2697.3999023438</ele>
        <time>2023-07-16T07:08:36.000Z</time>
      </trkpt>
      <trkpt lat="42.5181" lon="2.46401">
        <ele>2697.1999511719</ele>
        <time>2023-07-16T07:08:37.000Z</time>
      </trkpt>
      <trkpt lat="42.51806" lon="2.46405">
        <ele>2696.8000488281</ele>
        <time>2023-07-16T07:08:44.000Z</time>
      </trkpt>
      <trkpt lat="42.518" lon="2.46405">
        <ele>2698.1999511719</ele>
        <time>2023-07-16T07:08:51.000Z</time>
      </trkpt>
      <trkpt lat="42.51798" lon="2.46405">
        <ele>2698.1999511719</ele>
        <time>2023-07-16T07:08:53.000Z</time>
      </trkpt>
      <trkpt lat="42.51793" lon="2.46404">
        <ele>2698.8000488281</ele>
        <time>2023-07-16T07:09:00.000Z</time>
      </trkpt>
      <trkpt lat="42.51789" lon="2.46402">
        <ele>2697.3999023438</ele>
        <time>2023-07-16T07:09:09.000Z</time>
      </trkpt>
      <trkpt lat="42.51789" lon="2.46403">
        <ele>2697.1999511719</ele>
        <time>2023-07-16T07:09:11.000Z</time>
      </trkpt>
      <trkpt lat="42.5179" lon="2.46403">
        <ele>2695</ele>
        <time>2023-07-16T07:09:13.000Z</time>
      </trkpt>
      <trkpt lat="42.5179" lon="2.46402">
        <ele>2694.6000976562</ele>
        <time>2023-07-16T07:09:16.000Z</time>
      </trkpt>
      <trkpt lat="42.5179" lon="2.46401">
        <ele>2696.1999511719</ele>
        <time>2023-07-16T07:09:20.000Z</time>
      </trkpt>
      <trkpt lat="42.51789" lon="2.464">
        <ele>2696.3999023438</ele>
        <time>2023-07-16T07:09:25.000Z</time>
      </trkpt>
      <trkpt lat="42.51789" lon="2.46401">
        <ele>2695.1999511719</ele>
        <time>2023-07-16T07:09:26.000Z</time>
      </trkpt>
      <trkpt lat="42.51789" lon="2.46401">
        <ele>2693.6000976562</ele>
        <time>2023-07-16T07:09:27.000Z</time>
      </trkpt>
      <trkpt lat="42.5179" lon="2.46401">
        <ele>2692.6000976562</ele>
        <time>2023-07-16T07:09:28.000Z</time>
      </trkpt>
      <trkpt lat="42.5179" lon="2.46402">
        <ele>2692.6000976562</ele>
        <time>2023-07-16T07:09:33.000Z</time>
      </trkpt>
      <trkpt lat="42.51789" lon="2.46402">
        <ele>2693.6000976562</ele>
        <time>2023-07-16T07:09:34.000Z</time>
      </trkpt>
      <trkpt lat="42.51789" lon="2.46402">
        <ele>2694.6000976562</ele>
        <time>2023-07-16T07:09:36.000Z</time>
      </trkpt>
      <trkpt lat="42.51789" lon="2.46406">
        <ele>2694</ele>
        <time>2023-07-16T07:09:41.000Z</time>
      </trkpt>
      <trkpt lat="42.5179" lon="2.46407">
        <ele>2693.3999023438</ele>
        <time>2023-07-16T07:09:43.000Z</time>
      </trkpt>
      <trkpt lat="42.51791" lon="2.46412">
        <ele>2693</ele>
        <time>2023-07-16T07:09:48.000Z</time>
      </trkpt>
      <trkpt lat="42.51791" lon="2.46415">
        <ele>2692.3999023438</ele>
        <time>2023-07-16T07:09:51.000Z</time>
      </trkpt>
      <trkpt lat="42.51791" lon="2.4642">
        <ele>2691.6000976562</ele>
        <time>2023-07-16T07:09:56.000Z</time>
      </trkpt>
      <trkpt lat="42.51791" lon="2.46422">
        <ele>2690.8000488281</ele>
        <time>2023-07-16T07:09:58.000Z</time>
      </trkpt>
      <trkpt lat="42.51792" lon="2.46425">
        <ele>2690.3999023438</ele>
        <time>2023-07-16T07:10:03.000Z</time>
      </trkpt>
      <trkpt lat="42.51794" lon="2.46427">
        <ele>2690.1999511719</ele>
        <time>2023-07-16T07:10:12.000Z</time>
      </trkpt>
      <trkpt lat="42.51794" lon="2.46427">
        <ele>2689.8000488281</ele>
        <time>2023-07-16T07:10:15.000Z</time>
      </trkpt>
      <trkpt lat="42.51795" lon="2.46424">
        <ele>2689.1999511719</ele>
        <time>2023-07-16T07:10:22.000Z</time>
      </trkpt>
      <trkpt lat="42.51795" lon="2.46423">
        <ele>2688.8000488281</ele>
        <time>2023-07-16T07:10:26.000Z</time>
      </trkpt>
      <trkpt lat="42.51795" lon="2.46423">
        <ele>2688.8000488281</ele>
        <time>2023-07-16T07:10:30.000Z</time>
      </trkpt>
      <trkpt lat="42.51797" lon="2.46421">
        <ele>2689.8000488281</ele>
        <time>2023-07-16T07:10:34.000Z</time>
      </trkpt>
      <trkpt lat="42.51792" lon="2.46421">
        <ele>2690</ele>
        <time>2023-07-16T07:10:40.000Z</time>
      </trkpt>
      <trkpt lat="42.51791" lon="2.46421">
        <ele>2690.1999511719</ele>
        <time>2023-07-16T07:10:41.000Z</time>
      </trkpt>
      <trkpt lat="42.51789" lon="2.46421">
        <ele>2690.8000488281</ele>
        <time>2023-07-16T07:10:44.000Z</time>
      </trkpt>
      <trkpt lat="42.51787" lon="2.46421">
        <ele>2692</ele>
        <time>2023-07-16T07:10:46.000Z</time>
      </trkpt>
      <trkpt lat="42.51787" lon="2.46421">
        <ele>2692.1999511719</ele>
        <time>2023-07-16T07:10:47.000Z</time>
      </trkpt>
      <trkpt lat="42.5179" lon="2.46425">
        <ele>2691.3999023438</ele>
        <time>2023-07-16T07:10:56.000Z</time>
      </trkpt>
      <trkpt lat="42.51791" lon="2.46432">
        <ele>2691.3999023438</ele>
        <time>2023-07-16T07:11:03.000Z</time>
      </trkpt>
      <trkpt lat="42.51791" lon="2.46432">
        <ele>2691</ele>
        <time>2023-07-16T07:11:04.000Z</time>
      </trkpt>
      <trkpt lat="42.51792" lon="2.46438">
        <ele>2689.8000488281</ele>
        <time>2023-07-16T07:11:09.000Z</time>
      </trkpt>
      <trkpt lat="42.51792" lon="2.46439">
        <ele>2689.6000976562</ele>
        <time>2023-07-16T07:11:10.000Z</time>
      </trkpt>
      <trkpt lat="42.51792" lon="2.46445">
        <ele>2688</ele>
        <time>2023-07-16T07:11:15.000Z</time>
      </trkpt>
      <trkpt lat="42.51792" lon="2.46448">
        <ele>2686.8000488281</ele>
        <time>2023-07-16T07:11:18.000Z</time>
      </trkpt>
      <trkpt lat="42.5179" lon="2.46451">
        <ele>2686</ele>
        <time>2023-07-16T07:11:24.000Z</time>
      </trkpt>
      <trkpt lat="42.5179" lon="2.46452">
        <ele>2685.8000488281</ele>
        <time>2023-07-16T07:11:25.000Z</time>
      </trkpt>
      <trkpt lat="42.5179" lon="2.46456">
        <ele>2685</ele>
        <time>2023-07-16T07:11:33.000Z</time>
      </trkpt>
      <trkpt lat="42.51788" lon="2.46455">
        <ele>2684.6000976562</ele>
        <time>2023-07-16T07:11:38.000Z</time>
      </trkpt>
      <trkpt lat="42.51787" lon="2.46455">
        <ele>2684.1999511719</ele>
        <time>2023-07-16T07:11:40.000Z</time>
      </trkpt>
      <trkpt lat="42.51786" lon="2.46454">
        <ele>2683.3999023438</ele>
        <time>2023-07-16T07:11:42.000Z</time>
      </trkpt>
      <trkpt lat="42.5178" lon="2.46448">
        <ele>2683.8000488281</ele>
        <time>2023-07-16T07:11:50.000Z</time>
      </trkpt>
      <trkpt lat="42.51777" lon="2.46445">
        <ele>2684.6000976562</ele>
        <time>2023-07-16T07:11:57.000Z</time>
      </trkpt>
      <trkpt lat="42.51777" lon="2.46444">
        <ele>2684.6000976562</ele>
        <time>2023-07-16T07:11:58.000Z</time>
      </trkpt>
      <trkpt lat="42.51775" lon="2.4644">
        <ele>2683.1999511719</ele>
        <time>2023-07-16T07:12:02.000Z</time>
      </trkpt>
      <trkpt lat="42.51774" lon="2.46439">
        <ele>2682.1999511719</ele>
        <time>2023-07-16T07:12:05.000Z</time>
      </trkpt>
      <trkpt lat="42.51773" lon="2.46438">
        <ele>2682</ele>
        <time>2023-07-16T07:12:06.000Z</time>
      </trkpt>
      <trkpt lat="42.51772" lon="2.46436">
        <ele>2681.1999511719</ele>
        <time>2023-07-16T07:12:09.000Z</time>
      </trkpt>
      <trkpt lat="42.5177" lon="2.46435">
        <ele>2680</ele>
        <time>2023-07-16T07:12:11.000Z</time>
      </trkpt>
      <trkpt lat="42.51768" lon="2.46432">
        <ele>2679.8000488281</ele>
        <time>2023-07-16T07:12:16.000Z</time>
      </trkpt>
      <trkpt lat="42.51761" lon="2.46427">
        <ele>2679.1999511719</ele>
        <time>2023-07-16T07:12:24.000Z</time>
      </trkpt>
      <trkpt lat="42.5176" lon="2.46425">
        <ele>2679</ele>
        <time>2023-07-16T07:12:26.000Z</time>
      </trkpt>
      <trkpt lat="42.51756" lon="2.4642">
        <ele>2679.1999511719</ele>
        <time>2023-07-16T07:12:31.000Z</time>
      </trkpt>
      <trkpt lat="42.51753" lon="2.46417">
        <ele>2679.6000976562</ele>
        <time>2023-07-16T07:12:39.000Z</time>
      </trkpt>
      <trkpt lat="42.51747" lon="2.46415">
        <ele>2678.1999511719</ele>
        <time>2023-07-16T07:12:46.000Z</time>
      </trkpt>
      <trkpt lat="42.51743" lon="2.46411">
        <ele>2678.6000976562</ele>
        <time>2023-07-16T07:12:54.000Z</time>
      </trkpt>
      <trkpt lat="42.51739" lon="2.46408">
        <ele>2677</ele>
        <time>2023-07-16T07:12:58.000Z</time>
      </trkpt>
      <trkpt lat="42.51739" lon="2.46407">
        <ele>2676</ele>
        <time>2023-07-16T07:12:59.000Z</time>
      </trkpt>
      <trkpt lat="42.51738" lon="2.46406">
        <ele>2675.3999023438</ele>
        <time>2023-07-16T07:13:01.000Z</time>
      </trkpt>
      <trkpt lat="42.51738" lon="2.46407">
        <ele>2675</ele>
        <time>2023-07-16T07:13:02.000Z</time>
      </trkpt>
      <trkpt lat="42.51736" lon="2.46407">
        <ele>2673.8000488281</ele>
        <time>2023-07-16T07:13:05.000Z</time>
      </trkpt>
      <trkpt lat="42.51734" lon="2.46407">
        <ele>2673</ele>
        <time>2023-07-16T07:13:09.000Z</time>
      </trkpt>
      <trkpt lat="42.51733" lon="2.46406">
        <ele>2671.6000976562</ele>
        <time>2023-07-16T07:13:13.000Z</time>
      </trkpt>
      <trkpt lat="42.51732" lon="2.46405">
        <ele>2669.3999023438</ele>
        <time>2023-07-16T07:13:15.000Z</time>
      </trkpt>
      <trkpt lat="42.5173" lon="2.46404">
        <ele>2668.3999023438</ele>
        <time>2023-07-16T07:13:17.000Z</time>
      </trkpt>
      <trkpt lat="42.5173" lon="2.46403">
        <ele>2668.1999511719</ele>
        <time>2023-07-16T07:13:18.000Z</time>
      </trkpt>
      <trkpt lat="42.51726" lon="2.46397">
        <ele>2667.3999023438</ele>
        <time>2023-07-16T07:13:27.000Z</time>
      </trkpt>
      <trkpt lat="42.5172" lon="2.46393">
        <ele>2667</ele>
        <time>2023-07-16T07:13:36.000Z</time>
      </trkpt>
      <trkpt lat="42.51719" lon="2.46392">
        <ele>2666.3999023438</ele>
        <time>2023-07-16T07:13:37.000Z</time>
      </trkpt>
      <trkpt lat="42.51717" lon="2.4639">
        <ele>2665.1999511719</ele>
        <time>2023-07-16T07:13:40.000Z</time>
      </trkpt>
      <trkpt lat="42.51716" lon="2.46389">
        <ele>2664.8000488281</ele>
        <time>2023-07-16T07:13:43.000Z</time>
      </trkpt>
      <trkpt lat="42.51714" lon="2.46388">
        <ele>2664</ele>
        <time>2023-07-16T07:13:45.000Z</time>
      </trkpt>
      <trkpt lat="42.51711" lon="2.46386">
        <ele>2664.1999511719</ele>
        <time>2023-07-16T07:13:51.000Z</time>
      </trkpt>
      <trkpt lat="42.51707" lon="2.46382">
        <ele>2664.1999511719</ele>
        <time>2023-07-16T07:13:58.000Z</time>
      </trkpt>
      <trkpt lat="42.51704" lon="2.4638">
        <ele>2664.8000488281</ele>
        <time>2023-07-16T07:14:04.000Z</time>
      </trkpt>
      <trkpt lat="42.51702" lon="2.46374">
        <ele>2664.8000488281</ele>
        <time>2023-07-16T07:14:11.000Z</time>
      </trkpt>
      <trkpt lat="42.51701" lon="2.46372">
        <ele>2664.8000488281</ele>
        <time>2023-07-16T07:14:18.000Z</time>
      </trkpt>
      <trkpt lat="42.51698" lon="2.4637">
        <ele>2663</ele>
        <time>2023-07-16T07:14:23.000Z</time>
      </trkpt>
      <trkpt lat="42.51697" lon="2.46369">
        <ele>2662</ele>
        <time>2023-07-16T07:14:25.000Z</time>
      </trkpt>
      <trkpt lat="42.51697" lon="2.46368">
        <ele>2661.6000976562</ele>
        <time>2023-07-16T07:14:26.000Z</time>
      </trkpt>
      <trkpt lat="42.51695" lon="2.46367">
        <ele>2660.1999511719</ele>
        <time>2023-07-16T07:14:28.000Z</time>
      </trkpt>
      <trkpt lat="42.51693" lon="2.46364">
        <ele>2659.3999023438</ele>
        <time>2023-07-16T07:14:34.000Z</time>
      </trkpt>
      <trkpt lat="42.51693" lon="2.46363">
        <ele>2658.6000976562</ele>
        <time>2023-07-16T07:14:35.000Z</time>
      </trkpt>
      <trkpt lat="42.51692" lon="2.46362">
        <ele>2657.1999511719</ele>
        <time>2023-07-16T07:14:37.000Z</time>
      </trkpt>
      <trkpt lat="42.51691" lon="2.46359">
        <ele>2657</ele>
        <time>2023-07-16T07:14:40.000Z</time>
      </trkpt>
      <trkpt lat="42.51691" lon="2.46358">
        <ele>2656</ele>
        <time>2023-07-16T07:14:43.000Z</time>
      </trkpt>
      <trkpt lat="42.5169" lon="2.46358">
        <ele>2655.1999511719</ele>
        <time>2023-07-16T07:14:46.000Z</time>
      </trkpt>
      <trkpt lat="42.5169" lon="2.46357">
        <ele>2654.8000488281</ele>
        <time>2023-07-16T07:14:47.000Z</time>
      </trkpt>
      <trkpt lat="42.51688" lon="2.46353">
        <ele>2653.6000976562</ele>
        <time>2023-07-16T07:14:53.000Z</time>
      </trkpt>
      <trkpt lat="42.51684" lon="2.46352">
        <ele>2652.8000488281</ele>
        <time>2023-07-16T07:14:59.000Z</time>
      </trkpt>
      <trkpt lat="42.51678" lon="2.46349">
        <ele>2653</ele>
        <time>2023-07-16T07:15:07.000Z</time>
      </trkpt>
      <trkpt lat="42.51678" lon="2.46349">
        <ele>2652.3999023438</ele>
        <time>2023-07-16T07:15:09.000Z</time>
      </trkpt>
      <trkpt lat="42.51679" lon="2.46348">
        <ele>2652.3999023438</ele>
        <time>2023-07-16T07:15:17.000Z</time>
      </trkpt>
      <trkpt lat="42.51678" lon="2.4635">
        <ele>2652.6000976562</ele>
        <time>2023-07-16T07:15:26.000Z</time>
      </trkpt>
      <trkpt lat="42.51678" lon="2.46348">
        <ele>2652.1999511719</ele>
        <time>2023-07-16T07:15:35.000Z</time>
      </trkpt>
      <trkpt lat="42.51679" lon="2.46349">
        <ele>2652.6000976562</ele>
        <time>2023-07-16T07:15:44.000Z</time>
      </trkpt>
      <trkpt lat="42.51679" lon="2.46349">
        <ele>2653.1999511719</ele>
        <time>2023-07-16T07:15:53.000Z</time>
      </trkpt>
      <trkpt lat="42.51679" lon="2.4635">
        <ele>2653.3999023438</ele>
        <time>2023-07-16T07:15:54.000Z</time>
      </trkpt>
      <trkpt lat="42.5168" lon="2.46355">
        <ele>2653.3999023438</ele>
        <time>2023-07-16T07:16:01.000Z</time>
      </trkpt>
      <trkpt lat="42.51678" lon="2.4636">
        <ele>2652.3999023438</ele>
        <time>2023-07-16T07:16:09.000Z</time>
      </trkpt>
      <trkpt lat="42.51676" lon="2.46355">
        <ele>2652.8000488281</ele>
        <time>2023-07-16T07:16:15.000Z</time>
      </trkpt>
      <trkpt lat="42.51672" lon="2.46359">
        <ele>2652.1999511719</ele>
        <time>2023-07-16T07:16:21.000Z</time>
      </trkpt>
      <trkpt lat="42.51668" lon="2.46358">
        <ele>2653.1999511719</ele>
        <time>2023-07-16T07:16:28.000Z</time>
      </trkpt>
      <trkpt lat="42.51664" lon="2.46354">
        <ele>2653.1999511719</ele>
        <time>2023-07-16T07:16:34.000Z</time>
      </trkpt>
      <trkpt lat="42.5166" lon="2.4635">
        <ele>2651.1999511719</ele>
        <time>2023-07-16T07:16:43.000Z</time>
      </trkpt>
      <trkpt lat="42.51658" lon="2.46348">
        <ele>2650</ele>
        <time>2023-07-16T07:16:49.000Z</time>
      </trkpt>
      <trkpt lat="42.51659" lon="2.46349">
        <ele>2649.8000488281</ele>
        <time>2023-07-16T07:16:50.000Z</time>
      </trkpt>
      <trkpt lat="42.51658" lon="2.46352">
        <ele>2649</ele>
        <time>2023-07-16T07:16:55.000Z</time>
      </trkpt>
      <trkpt lat="42.51657" lon="2.46352">
        <ele>2649</ele>
        <time>2023-07-16T07:16:58.000Z</time>
      </trkpt>
      <trkpt lat="42.51655" lon="2.4635">
        <ele>2649.6000976562</ele>
        <time>2023-07-16T07:17:06.000Z</time>
      </trkpt>
      <trkpt lat="42.51652" lon="2.46346">
        <ele>2648.1999511719</ele>
        <time>2023-07-16T07:17:14.000Z</time>
      </trkpt>
      <trkpt lat="42.5165" lon="2.46342">
        <ele>2648</ele>
        <time>2023-07-16T07:17:16.000Z</time>
      </trkpt>
      <trkpt lat="42.51648" lon="2.46341">
        <ele>2647.1999511719</ele>
        <time>2023-07-16T07:17:20.000Z</time>
      </trkpt>
      <trkpt lat="42.51648" lon="2.4634">
        <ele>2646.8000488281</ele>
        <time>2023-07-16T07:17:21.000Z</time>
      </trkpt>
      <trkpt lat="42.51646" lon="2.46339">
        <ele>2646</ele>
        <time>2023-07-16T07:17:27.000Z</time>
      </trkpt>
      <trkpt lat="42.51646" lon="2.46339">
        <ele>2645.6000976562</ele>
        <time>2023-07-16T07:17:28.000Z</time>
      </trkpt>
      <trkpt lat="42.51644" lon="2.46338">
        <ele>2644.6000976562</ele>
        <time>2023-07-16T07:17:34.000Z</time>
      </trkpt>
      <trkpt lat="42.5164" lon="2.46335">
        <ele>2643.8000488281</ele>
        <time>2023-07-16T07:17:42.000Z</time>
      </trkpt>
      <trkpt lat="42.51632" lon="2.46331">
        <ele>2643.8000488281</ele>
        <time>2023-07-16T07:17:52.000Z</time>
      </trkpt>
      <trkpt lat="42.5163" lon="2.46331">
        <ele>2643.6000976562</ele>
        <time>2023-07-16T07:17:55.000Z</time>
      </trkpt>
      <trkpt lat="42.51629" lon="2.4633">
        <ele>2642.8000488281</ele>
        <time>2023-07-16T07:18:00.000Z</time>
      </trkpt>
      <trkpt lat="42.51625" lon="2.46325">
        <ele>2642.8000488281</ele>
        <time>2023-07-16T07:18:06.000Z</time>
      </trkpt>
      <trkpt lat="42.51624" lon="2.46324">
        <ele>2642.6000976562</ele>
        <time>2023-07-16T07:18:08.000Z</time>
      </trkpt>
      <trkpt lat="42.51622" lon="2.46323">
        <ele>2641.1999511719</ele>
        <time>2023-07-16T07:18:10.000Z</time>
      </trkpt>
      <trkpt lat="42.5162" lon="2.46322">
        <ele>2640.8000488281</ele>
        <time>2023-07-16T07:18:13.000Z</time>
      </trkpt>
      <trkpt lat="42.51617" lon="2.46322">
        <ele>2640.1999511719</ele>
        <time>2023-07-16T07:18:17.000Z</time>
      </trkpt>
      <trkpt lat="42.51615" lon="2.46321">
        <ele>2639</ele>
        <time>2023-07-16T07:18:19.000Z</time>
      </trkpt>
      <trkpt lat="42.51614" lon="2.46316">
        <ele>2638.8000488281</ele>
        <time>2023-07-16T07:18:26.000Z</time>
      </trkpt>
      <trkpt lat="42.51609" lon="2.46312">
        <ele>2638.3999023438</ele>
        <time>2023-07-16T07:18:33.000Z</time>
      </trkpt>
      <trkpt lat="42.51606" lon="2.46312">
        <ele>2637.6000976562</ele>
        <time>2023-07-16T07:18:39.000Z</time>
      </trkpt>
      <trkpt lat="42.51606" lon="2.46312">
        <ele>2637.3999023438</ele>
        <time>2023-07-16T07:18:40.000Z</time>
      </trkpt>
      <trkpt lat="42.51604" lon="2.4631">
        <ele>2636.3999023438</ele>
        <time>2023-07-16T07:18:44.000Z</time>
      </trkpt>
      <trkpt lat="42.51601" lon="2.46309">
        <ele>2636.1999511719</ele>
        <time>2023-07-16T07:18:47.000Z</time>
      </trkpt>
      <trkpt lat="42.51594" lon="2.46306">
        <ele>2636.1999511719</ele>
        <time>2023-07-16T07:18:54.000Z</time>
      </trkpt>
      <trkpt lat="42.51591" lon="2.46305">
        <ele>2635.1999511719</ele>
        <time>2023-07-16T07:18:58.000Z</time>
      </trkpt>
      <trkpt lat="42.51588" lon="2.46305">
        <ele>2634.1999511719</ele>
        <time>2023-07-16T07:19:01.000Z</time>
      </trkpt>
      <trkpt lat="42.51585" lon="2.46302">
        <ele>2634.1999511719</ele>
        <time>2023-07-16T07:19:09.000Z</time>
      </trkpt>
      <trkpt lat="42.5158" lon="2.46298">
        <ele>2634</ele>
        <time>2023-07-16T07:19:17.000Z</time>
      </trkpt>
      <trkpt lat="42.51579" lon="2.4629">
        <ele>2632.6000976562</ele>
        <time>2023-07-16T07:19:23.000Z</time>
      </trkpt>
      <trkpt lat="42.51578" lon="2.4629">
        <ele>2632.6000976562</ele>
        <time>2023-07-16T07:19:24.000Z</time>
      </trkpt>
      <trkpt lat="42.51573" lon="2.46287">
        <ele>2632.3999023438</ele>
        <time>2023-07-16T07:19:31.000Z</time>
      </trkpt>
      <trkpt lat="42.5157" lon="2.46286">
        <ele>2633.8000488281</ele>
        <time>2023-07-16T07:19:34.000Z</time>
      </trkpt>
      <trkpt lat="42.51567" lon="2.46285">
        <ele>2633.8000488281</ele>
        <time>2023-07-16T07:19:39.000Z</time>
      </trkpt>
      <trkpt lat="42.51564" lon="2.46284">
        <ele>2632.8000488281</ele>
        <time>2023-07-16T07:19:44.000Z</time>
      </trkpt>
      <trkpt lat="42.51562" lon="2.46284">
        <ele>2632.1999511719</ele>
        <time>2023-07-16T07:19:46.000Z</time>
      </trkpt>
      <trkpt lat="42.51558" lon="2.46281">
        <ele>2631.3999023438</ele>
        <time>2023-07-16T07:19:51.000Z</time>
      </trkpt>
      <trkpt lat="42.51557" lon="2.4628">
        <ele>2631.1999511719</ele>
        <time>2023-07-16T07:19:52.000Z</time>
      </trkpt>
      <trkpt lat="42.51554" lon="2.46275">
        <ele>2631</ele>
        <time>2023-07-16T07:19:58.000Z</time>
      </trkpt>
      <trkpt lat="42.51552" lon="2.46274">
        <ele>2630</ele>
        <time>2023-07-16T07:20:00.000Z</time>
      </trkpt>
      <trkpt lat="42.5155" lon="2.46272">
        <ele>2629</ele>
        <time>2023-07-16T07:20:04.000Z</time>
      </trkpt>
      <trkpt lat="42.51549" lon="2.4627">
        <ele>2628.6000976562</ele>
        <time>2023-07-16T07:20:07.000Z</time>
      </trkpt>
      <trkpt lat="42.51541" lon="2.46265">
        <ele>2628.1999511719</ele>
        <time>2023-07-16T07:20:15.000Z</time>
      </trkpt>
      <trkpt lat="42.51541" lon="2.46264">
        <ele>2627.8000488281</ele>
        <time>2023-07-16T07:20:16.000Z</time>
      </trkpt>
      <trkpt lat="42.5154" lon="2.46263">
        <ele>2626.8000488281</ele>
        <time>2023-07-16T07:20:19.000Z</time>
      </trkpt>
      <trkpt lat="42.51538" lon="2.46261">
        <ele>2625.6000976562</ele>
        <time>2023-07-16T07:20:23.000Z</time>
      </trkpt>
      <trkpt lat="42.51537" lon="2.46261">
        <ele>2625.1999511719</ele>
        <time>2023-07-16T07:20:24.000Z</time>
      </trkpt>
      <trkpt lat="42.51535" lon="2.4626">
        <ele>2624.3999023438</ele>
        <time>2023-07-16T07:20:27.000Z</time>
      </trkpt>
      <trkpt lat="42.51531" lon="2.46256">
        <ele>2623.8000488281</ele>
        <time>2023-07-16T07:20:31.000Z</time>
      </trkpt>
      <trkpt lat="42.51529" lon="2.46253">
        <ele>2623.3999023438</ele>
        <time>2023-07-16T07:20:33.000Z</time>
      </trkpt>
      <trkpt lat="42.51523" lon="2.46246">
        <ele>2622.8000488281</ele>
        <time>2023-07-16T07:20:40.000Z</time>
      </trkpt>
      <trkpt lat="42.51518" lon="2.46243">
        <ele>2623</ele>
        <time>2023-07-16T07:20:46.000Z</time>
      </trkpt>
      <trkpt lat="42.51511" lon="2.46243">
        <ele>2622.1999511719</ele>
        <time>2023-07-16T07:20:54.000Z</time>
      </trkpt>
      <trkpt lat="42.51508" lon="2.46242">
        <ele>2621</ele>
        <time>2023-07-16T07:20:58.000Z</time>
      </trkpt>
      <trkpt lat="42.51505" lon="2.46241">
        <ele>2619.8000488281</ele>
        <time>2023-07-16T07:21:02.000Z</time>
      </trkpt>
      <trkpt lat="42.51505" lon="2.46241">
        <ele>2619.1999511719</ele>
        <time>2023-07-16T07:21:03.000Z</time>
      </trkpt>
      <trkpt lat="42.51497" lon="2.46238">
        <ele>2618.8000488281</ele>
        <time>2023-07-16T07:21:13.000Z</time>
      </trkpt>
      <trkpt lat="42.51491" lon="2.46235">
        <ele>2617.6000976562</ele>
        <time>2023-07-16T07:21:20.000Z</time>
      </trkpt>
      <trkpt lat="42.5149" lon="2.46235">
        <ele>2617.6000976562</ele>
        <time>2023-07-16T07:21:22.000Z</time>
      </trkpt>
      <trkpt lat="42.51487" lon="2.46235">
        <ele>2615.8000488281</ele>
        <time>2023-07-16T07:21:25.000Z</time>
      </trkpt>
      <trkpt lat="42.51483" lon="2.46232">
        <ele>2614.1999511719</ele>
        <time>2023-07-16T07:21:30.000Z</time>
      </trkpt>
      <trkpt lat="42.51481" lon="2.46229">
        <ele>2613</ele>
        <time>2023-07-16T07:21:33.000Z</time>
      </trkpt>
      <trkpt lat="42.51477" lon="2.46226">
        <ele>2612.3999023438</ele>
        <time>2023-07-16T07:21:38.000Z</time>
      </trkpt>
      <trkpt lat="42.51471" lon="2.46221">
        <ele>2612.1999511719</ele>
        <time>2023-07-16T07:21:46.000Z</time>
      </trkpt>
      <trkpt lat="42.51464" lon="2.46219">
        <ele>2612.1999511719</ele>
        <time>2023-07-16T07:21:53.000Z</time>
      </trkpt>
      <trkpt lat="42.5146" lon="2.46215">
        <ele>2613.1999511719</ele>
        <time>2023-07-16T07:22:00.000Z</time>
      </trkpt>
      <trkpt lat="42.51458" lon="2.46213">
        <ele>2611.8000488281</ele>
        <time>2023-07-16T07:22:04.000Z</time>
      </trkpt>
      <trkpt lat="42.51457" lon="2.46211">
        <ele>2610.3999023438</ele>
        <time>2023-07-16T07:22:07.000Z</time>
      </trkpt>
      <trkpt lat="42.5145" lon="2.46204">
        <ele>2609.6000976562</ele>
        <time>2023-07-16T07:22:15.000Z</time>
      </trkpt>
      <trkpt lat="42.51449" lon="2.46204">
        <ele>2609.3999023438</ele>
        <time>2023-07-16T07:22:16.000Z</time>
      </trkpt>
      <trkpt lat="42.51447" lon="2.46203">
        <ele>2608.1999511719</ele>
        <time>2023-07-16T07:22:21.000Z</time>
      </trkpt>
      <trkpt lat="42.51447" lon="2.46202">
        <ele>2608.1999511719</ele>
        <time>2023-07-16T07:22:22.000Z</time>
      </trkpt>
      <trkpt lat="42.51441" lon="2.462">
        <ele>2607.8000488281</ele>
        <time>2023-07-16T07:22:30.000Z</time>
      </trkpt>
      <trkpt lat="42.51439" lon="2.46197">
        <ele>2606.8000488281</ele>
        <time>2023-07-16T07:22:35.000Z</time>
      </trkpt>
      <trkpt lat="42.51439" lon="2.46197">
        <ele>2606.3999023438</ele>
        <time>2023-07-16T07:22:36.000Z</time>
      </trkpt>
      <trkpt lat="42.51435" lon="2.46192">
        <ele>2607.3999023438</ele>
        <time>2023-07-16T07:22:44.000Z</time>
      </trkpt>
      <trkpt lat="42.51432" lon="2.46187">
        <ele>2608</ele>
        <time>2023-07-16T07:22:49.000Z</time>
      </trkpt>
      <trkpt lat="42.51431" lon="2.46186">
        <ele>2608.1999511719</ele>
        <time>2023-07-16T07:22:51.000Z</time>
      </trkpt>
      <trkpt lat="42.51427" lon="2.4618">
        <ele>2606.8000488281</ele>
        <time>2023-07-16T07:22:58.000Z</time>
      </trkpt>
      <trkpt lat="42.51427" lon="2.46179">
        <ele>2605.3999023438</ele>
        <time>2023-07-16T07:22:59.000Z</time>
      </trkpt>
      <trkpt lat="42.51427" lon="2.46178">
        <ele>2604.8000488281</ele>
        <time>2023-07-16T07:23:01.000Z</time>
      </trkpt>
      <trkpt lat="42.51423" lon="2.46171">
        <ele>2605.8000488281</ele>
        <time>2023-07-16T07:23:09.000Z</time>
      </trkpt>
      <trkpt lat="42.51423" lon="2.46171">
        <ele>2603.3999023438</ele>
        <time>2023-07-16T07:23:12.000Z</time>
      </trkpt>
      <trkpt lat="42.51424" lon="2.46171">
        <ele>2601.8000488281</ele>
        <time>2023-07-16T07:23:14.000Z</time>
      </trkpt>
      <trkpt lat="42.51424" lon="2.46172">
        <ele>2599.8000488281</ele>
        <time>2023-07-16T07:23:15.000Z</time>
      </trkpt>
      <trkpt lat="42.51424" lon="2.46171">
        <ele>2599.8000488281</ele>
        <time>2023-07-16T07:23:18.000Z</time>
      </trkpt>
      <trkpt lat="42.51424" lon="2.46171">
        <ele>2601.8000488281</ele>
        <time>2023-07-16T07:23:19.000Z</time>
      </trkpt>
      <trkpt lat="42.51424" lon="2.46171">
        <ele>2603.3999023438</ele>
        <time>2023-07-16T07:23:20.000Z</time>
      </trkpt>
      <trkpt lat="42.51425" lon="2.46173">
        <ele>2604.3999023438</ele>
        <time>2023-07-16T07:23:23.000Z</time>
      </trkpt>
      <trkpt lat="42.51424" lon="2.46174">
        <ele>2604.8000488281</ele>
        <time>2023-07-16T07:23:25.000Z</time>
      </trkpt>
      <trkpt lat="42.51423" lon="2.46175">
        <ele>2603</ele>
        <time>2023-07-16T07:23:28.000Z</time>
      </trkpt>
      <trkpt lat="42.51424" lon="2.46173">
        <ele>2601.6000976562</ele>
        <time>2023-07-16T07:23:30.000Z</time>
      </trkpt>
      <trkpt lat="42.51424" lon="2.46172">
        <ele>2601.6000976562</ele>
        <time>2023-07-16T07:23:33.000Z</time>
      </trkpt>
      <trkpt lat="42.51423" lon="2.46172">
        <ele>2602.6000976562</ele>
        <time>2023-07-16T07:23:41.000Z</time>
      </trkpt>
      <trkpt lat="42.51423" lon="2.46174">
        <ele>2604.3999023438</ele>
        <time>2023-07-16T07:23:42.000Z</time>
      </trkpt>
      <trkpt lat="42.51421" lon="2.46186">
        <ele>2602.8000488281</ele>
        <time>2023-07-16T07:23:50.000Z</time>
      </trkpt>
      <trkpt lat="42.51419" lon="2.46189">
        <ele>2601</ele>
        <time>2023-07-16T07:23:52.000Z</time>
      </trkpt>
      <trkpt lat="42.51417" lon="2.46194">
        <ele>2600.1999511719</ele>
        <time>2023-07-16T07:23:57.000Z</time>
      </trkpt>
      <trkpt lat="42.51417" lon="2.46196">
        <ele>2599.6000976562</ele>
        <time>2023-07-16T07:23:58.000Z</time>
      </trkpt>
      <trkpt lat="42.51415" lon="2.46199">
        <ele>2598.6000976562</ele>
        <time>2023-07-16T07:24:02.000Z</time>
      </trkpt>
      <trkpt lat="42.51414" lon="2.462">
        <ele>2598.1999511719</ele>
        <time>2023-07-16T07:24:03.000Z</time>
      </trkpt>
      <trkpt lat="42.51413" lon="2.46203">
        <ele>2597.3999023438</ele>
        <time>2023-07-16T07:24:06.000Z</time>
      </trkpt>
      <trkpt lat="42.51411" lon="2.46205">
        <ele>2596</ele>
        <time>2023-07-16T07:24:09.000Z</time>
      </trkpt>
      <trkpt lat="42.51411" lon="2.46206">
        <ele>2595.1999511719</ele>
        <time>2023-07-16T07:24:10.000Z</time>
      </trkpt>
      <trkpt lat="42.5141" lon="2.46207">
        <ele>2594.8000488281</ele>
        <time>2023-07-16T07:24:11.000Z</time>
      </trkpt>
      <trkpt lat="42.51406" lon="2.4621">
        <ele>2593.8000488281</ele>
        <time>2023-07-16T07:24:16.000Z</time>
      </trkpt>
      <trkpt lat="42.51405" lon="2.4621">
        <ele>2593.1999511719</ele>
        <time>2023-07-16T07:24:18.000Z</time>
      </trkpt>
      <trkpt lat="42.51404" lon="2.46211">
        <ele>2592.8000488281</ele>
        <time>2023-07-16T07:24:20.000Z</time>
      </trkpt>
      <trkpt lat="42.514" lon="2.46212">
        <ele>2592.3999023438</ele>
        <time>2023-07-16T07:24:24.000Z</time>
      </trkpt>
      <trkpt lat="42.51398" lon="2.46213">
        <ele>2591.6000976562</ele>
        <time>2023-07-16T07:24:26.000Z</time>
      </trkpt>
      <trkpt lat="42.51395" lon="2.46211">
        <ele>2590.6000976562</ele>
        <time>2023-07-16T07:24:30.000Z</time>
      </trkpt>
      <trkpt lat="42.51395" lon="2.4621">
        <ele>2590.1999511719</ele>
        <time>2023-07-16T07:24:31.000Z</time>
      </trkpt>
      <trkpt lat="42.51394" lon="2.46206">
        <ele>2589</ele>
        <time>2023-07-16T07:24:34.000Z</time>
      </trkpt>
      <trkpt lat="42.51393" lon="2.46203">
        <ele>2589</ele>
        <time>2023-07-16T07:24:37.000Z</time>
      </trkpt>
      <trkpt lat="42.51392" lon="2.46198">
        <ele>2589.6000976562</ele>
        <time>2023-07-16T07:24:43.000Z</time>
      </trkpt>
      <trkpt lat="42.51391" lon="2.4619">
        <ele>2587.6000976562</ele>
        <time>2023-07-16T07:24:51.000Z</time>
      </trkpt>
      <trkpt lat="42.51391" lon="2.46189">
        <ele>2587.3999023438</ele>
        <time>2023-07-16T07:24:52.000Z</time>
      </trkpt>
      <trkpt lat="42.51391" lon="2.46186">
        <ele>2589.1999511719</ele>
        <time>2023-07-16T07:24:57.000Z</time>
      </trkpt>
      <trkpt lat="42.51389" lon="2.46187">
        <ele>2590.3999023438</ele>
        <time>2023-07-16T07:24:59.000Z</time>
      </trkpt>
      <trkpt lat="42.51387" lon="2.46187">
        <ele>2590.3999023438</ele>
        <time>2023-07-16T07:25:01.000Z</time>
      </trkpt>
      <trkpt lat="42.51385" lon="2.46189">
        <ele>2589</ele>
        <time>2023-07-16T07:25:04.000Z</time>
      </trkpt>
      <trkpt lat="42.51384" lon="2.46191">
        <ele>2588</ele>
        <time>2023-07-16T07:25:06.000Z</time>
      </trkpt>
      <trkpt lat="42.51382" lon="2.46194">
        <ele>2587.1999511719</ele>
        <time>2023-07-16T07:25:09.000Z</time>
      </trkpt>
      <trkpt lat="42.51379" lon="2.46195">
        <ele>2586</ele>
        <time>2023-07-16T07:25:12.000Z</time>
      </trkpt>
      <trkpt lat="42.51379" lon="2.46194">
        <ele>2584.8000488281</ele>
        <time>2023-07-16T07:25:14.000Z</time>
      </trkpt>
      <trkpt lat="42.51379" lon="2.46194">
        <ele>2583.6000976562</ele>
        <time>2023-07-16T07:25:16.000Z</time>
      </trkpt>
      <trkpt lat="42.51379" lon="2.46195">
        <ele>2585</ele>
        <time>2023-07-16T07:25:21.000Z</time>
      </trkpt>
      <trkpt lat="42.51378" lon="2.46195">
        <ele>2585.1999511719</ele>
        <time>2023-07-16T07:25:24.000Z</time>
      </trkpt>
      <trkpt lat="42.51377" lon="2.46195">
        <ele>2584.6000976562</ele>
        <time>2023-07-16T07:25:32.000Z</time>
      </trkpt>
      <trkpt lat="42.51378" lon="2.46195">
        <ele>2583.6000976562</ele>
        <time>2023-07-16T07:25:35.000Z</time>
      </trkpt>
      <trkpt lat="42.51378" lon="2.46195">
        <ele>2582.3999023438</ele>
        <time>2023-07-16T07:25:36.000Z</time>
      </trkpt>
      <trkpt lat="42.51378" lon="2.46194">
        <ele>2581</ele>
        <time>2023-07-16T07:25:39.000Z</time>
      </trkpt>
      <trkpt lat="42.51378" lon="2.46194">
        <ele>2580.6000976562</ele>
        <time>2023-07-16T07:25:40.000Z</time>
      </trkpt>
      <trkpt lat="42.51379" lon="2.46198">
        <ele>2580</ele>
        <time>2023-07-16T07:25:47.000Z</time>
      </trkpt>
      <trkpt lat="42.51379" lon="2.46195">
        <ele>2582.8000488281</ele>
        <time>2023-07-16T07:25:52.000Z</time>
      </trkpt>
      <trkpt lat="42.5138" lon="2.46193">
        <ele>2583.1999511719</ele>
        <time>2023-07-16T07:25:55.000Z</time>
      </trkpt>
      <trkpt lat="42.51379" lon="2.46192">
        <ele>2583.1999511719</ele>
        <time>2023-07-16T07:26:02.000Z</time>
      </trkpt>
      <trkpt lat="42.51379" lon="2.46194">
        <ele>2581.8000488281</ele>
        <time>2023-07-16T07:26:10.000Z</time>
      </trkpt>
      <trkpt lat="42.51381" lon="2.46195">
        <ele>2582.6000976562</ele>
        <time>2023-07-16T07:26:19.000Z</time>
      </trkpt>
      <trkpt lat="42.5138" lon="2.46193">
        <ele>2582.1999511719</ele>
        <time>2023-07-16T07:26:25.000Z</time>
      </trkpt>
      <trkpt lat="42.51379" lon="2.46195">
        <ele>2583.3999023438</ele>
        <time>2023-07-16T07:26:34.000Z</time>
      </trkpt>
      <trkpt lat="42.51381" lon="2.4619">
        <ele>2580.8000488281</ele>
        <time>2023-07-16T07:26:40.000Z</time>
      </trkpt>
      <trkpt lat="42.51382" lon="2.46182">
        <ele>2580.1999511719</ele>
        <time>2023-07-16T07:26:47.000Z</time>
      </trkpt>
      <trkpt lat="42.51377" lon="2.46184">
        <ele>2580</ele>
        <time>2023-07-16T07:26:54.000Z</time>
      </trkpt>
      <trkpt lat="42.51377" lon="2.46184">
        <ele>2579.3999023438</ele>
        <time>2023-07-16T07:26:55.000Z</time>
      </trkpt>
      <trkpt lat="42.51374" lon="2.46187">
        <ele>2578.1999511719</ele>
        <time>2023-07-16T07:27:01.000Z</time>
      </trkpt>
      <trkpt lat="42.51373" lon="2.46188">
        <ele>2577</ele>
        <time>2023-07-16T07:27:04.000Z</time>
      </trkpt>
      <trkpt lat="42.51368" lon="2.46189">
        <ele>2576</ele>
        <time>2023-07-16T07:27:09.000Z</time>
      </trkpt>
      <trkpt lat="42.51367" lon="2.46189">
        <ele>2575.3999023438</ele>
        <time>2023-07-16T07:27:11.000Z</time>
      </trkpt>
      <trkpt lat="42.51362" lon="2.4619">
        <ele>2575.1999511719</ele>
        <time>2023-07-16T07:27:18.000Z</time>
      </trkpt>
      <trkpt lat="42.51362" lon="2.4619">
        <ele>2574.6000976562</ele>
        <time>2023-07-16T07:27:19.000Z</time>
      </trkpt>
      <trkpt lat="42.51362" lon="2.46191">
        <ele>2573.8000488281</ele>
        <time>2023-07-16T07:27:20.000Z</time>
      </trkpt>
      <trkpt lat="42.51362" lon="2.4619">
        <ele>2573.6000976562</ele>
        <time>2023-07-16T07:27:21.000Z</time>
      </trkpt>
      <trkpt lat="42.51363" lon="2.46189">
        <ele>2571.6000976562</ele>
        <time>2023-07-16T07:27:24.000Z</time>
      </trkpt>
      <trkpt lat="42.51364" lon="2.46189">
        <ele>2570.6000976562</ele>
        <time>2023-07-16T07:27:25.000Z</time>
      </trkpt>
      <trkpt lat="42.51364" lon="2.46188">
        <ele>2570.1999511719</ele>
        <time>2023-07-16T07:27:26.000Z</time>
      </trkpt>
      <trkpt lat="42.51365" lon="2.46187">
        <ele>2569</ele>
        <time>2023-07-16T07:27:30.000Z</time>
      </trkpt>
      <trkpt lat="42.51367" lon="2.46186">
        <ele>2567.3999023438</ele>
        <time>2023-07-16T07:27:33.000Z</time>
      </trkpt>
      <trkpt lat="42.51368" lon="2.46185">
        <ele>2567.3999023438</ele>
        <time>2023-07-16T07:27:35.000Z</time>
      </trkpt>
      <trkpt lat="42.5137" lon="2.46181">
        <ele>2566</ele>
        <time>2023-07-16T07:27:40.000Z</time>
      </trkpt>
      <trkpt lat="42.51371" lon="2.46179">
        <ele>2565.3999023438</ele>
        <time>2023-07-16T07:27:42.000Z</time>
      </trkpt>
      <trkpt lat="42.51371" lon="2.46171">
        <ele>2565.8000488281</ele>
        <time>2023-07-16T07:27:51.000Z</time>
      </trkpt>
      <trkpt lat="42.51372" lon="2.46164">
        <ele>2565.1999511719</ele>
        <time>2023-07-16T07:27:57.000Z</time>
      </trkpt>
      <trkpt lat="42.51372" lon="2.46162">
        <ele>2564.6000976562</ele>
        <time>2023-07-16T07:27:59.000Z</time>
      </trkpt>
      <trkpt lat="42.51371" lon="2.46157">
        <ele>2563.6000976562</ele>
        <time>2023-07-16T07:28:04.000Z</time>
      </trkpt>
      <trkpt lat="42.51369" lon="2.46145">
        <ele>2563.1999511719</ele>
        <time>2023-07-16T07:28:13.000Z</time>
      </trkpt>
      <trkpt lat="42.51368" lon="2.46139">
        <ele>2562.8000488281</ele>
        <time>2023-07-16T07:28:21.000Z</time>
      </trkpt>
      <trkpt lat="42.51368" lon="2.4614">
        <ele>2563</ele>
        <time>2023-07-16T07:28:22.000Z</time>
      </trkpt>
      <trkpt lat="42.51367" lon="2.46143">
        <ele>2562.3999023438</ele>
        <time>2023-07-16T07:28:26.000Z</time>
      </trkpt>
      <trkpt lat="42.51366" lon="2.46144">
        <ele>2561.6000976562</ele>
        <time>2023-07-16T07:28:27.000Z</time>
      </trkpt>
      <trkpt lat="42.51364" lon="2.46151">
        <ele>2560.8000488281</ele>
        <time>2023-07-16T07:28:34.000Z</time>
      </trkpt>
      <trkpt lat="42.51363" lon="2.46152">
        <ele>2560.6000976562</ele>
        <time>2023-07-16T07:28:40.000Z</time>
      </trkpt>
      <trkpt lat="42.51362" lon="2.46154">
        <ele>2560</ele>
        <time>2023-07-16T07:28:42.000Z</time>
      </trkpt>
      <trkpt lat="42.51361" lon="2.46155">
        <ele>2559.6000976562</ele>
        <time>2023-07-16T07:28:45.000Z</time>
      </trkpt>
      <trkpt lat="42.51358" lon="2.46158">
        <ele>2558.3999023438</ele>
        <time>2023-07-16T07:28:49.000Z</time>
      </trkpt>
      <trkpt lat="42.51353" lon="2.46157">
        <ele>2557.3999023438</ele>
        <time>2023-07-16T07:28:58.000Z</time>
      </trkpt>
      <trkpt lat="42.51348" lon="2.4616">
        <ele>2556.1999511719</ele>
        <time>2023-07-16T07:29:04.000Z</time>
      </trkpt>
      <trkpt lat="42.51348" lon="2.46161">
        <ele>2556</ele>
        <time>2023-07-16T07:29:05.000Z</time>
      </trkpt>
      <trkpt lat="42.51345" lon="2.46162">
        <ele>2555.1999511719</ele>
        <time>2023-07-16T07:29:08.000Z</time>
      </trkpt>
      <trkpt lat="42.51342" lon="2.46164">
        <ele>2554</ele>
        <time>2023-07-16T07:29:12.000Z</time>
      </trkpt>
      <trkpt lat="42.51342" lon="2.46166">
        <ele>2554</ele>
        <time>2023-07-16T07:29:14.000Z</time>
      </trkpt>
      <trkpt lat="42.51343" lon="2.46167">
        <ele>2553</ele>
        <time>2023-07-16T07:29:17.000Z</time>
      </trkpt>
      <trkpt lat="42.51343" lon="2.46168">
        <ele>2551.8000488281</ele>
        <time>2023-07-16T07:29:18.000Z</time>
      </trkpt>
      <trkpt lat="42.51345" lon="2.46171">
        <ele>2551</ele>
        <time>2023-07-16T07:29:22.000Z</time>
      </trkpt>
      <trkpt lat="42.51345" lon="2.46171">
        <ele>2550.8000488281</ele>
        <time>2023-07-16T07:29:26.000Z</time>
      </trkpt>
      <trkpt lat="42.51344" lon="2.46168">
        <ele>2551.1999511719</ele>
        <time>2023-07-16T07:29:32.000Z</time>
      </trkpt>
      <trkpt lat="42.51343" lon="2.46167">
        <ele>2551.8000488281</ele>
        <time>2023-07-16T07:29:34.000Z</time>
      </trkpt>
      <trkpt lat="42.5134" lon="2.46164">
        <ele>2552.8000488281</ele>
        <time>2023-07-16T07:29:38.000Z</time>
      </trkpt>
      <trkpt lat="42.51339" lon="2.46164">
        <ele>2552.8000488281</ele>
        <time>2023-07-16T07:29:39.000Z</time>
      </trkpt>
      <trkpt lat="42.51333" lon="2.46168">
        <ele>2551.8000488281</ele>
        <time>2023-07-16T07:29:46.000Z</time>
      </trkpt>
      <trkpt lat="42.51332" lon="2.46169">
        <ele>2551.6000976562</ele>
        <time>2023-07-16T07:29:47.000Z</time>
      </trkpt>
      <trkpt lat="42.51329" lon="2.4617">
        <ele>2550.3999023438</ele>
        <time>2023-07-16T07:29:50.000Z</time>
      </trkpt>
      <trkpt lat="42.51327" lon="2.46171">
        <ele>2550.6000976562</ele>
        <time>2023-07-16T07:29:54.000Z</time>
      </trkpt>
      <trkpt lat="42.51326" lon="2.46174">
        <ele>2548.6000976562</ele>
        <time>2023-07-16T07:30:01.000Z</time>
      </trkpt>
      <trkpt lat="42.51327" lon="2.46173">
        <ele>2547.3999023438</ele>
        <time>2023-07-16T07:30:04.000Z</time>
      </trkpt>
      <trkpt lat="42.51328" lon="2.46174">
        <ele>2548.1999511719</ele>
        <time>2023-07-16T07:30:09.000Z</time>
      </trkpt>
      <trkpt lat="42.51326" lon="2.46174">
        <ele>2548.6000976562</ele>
        <time>2023-07-16T07:30:15.000Z</time>
      </trkpt>
      <trkpt lat="42.51326" lon="2.46174">
        <ele>2549</ele>
        <time>2023-07-16T07:30:17.000Z</time>
      </trkpt>
      <trkpt lat="42.51326" lon="2.46173">
        <ele>2547.8000488281</ele>
        <time>2023-07-16T07:30:26.000Z</time>
      </trkpt>
      <trkpt lat="42.5132" lon="2.46175">
        <ele>2548.6000976562</ele>
        <time>2023-07-16T07:30:33.000Z</time>
      </trkpt>
      <trkpt lat="42.51314" lon="2.46178">
        <ele>2547.3999023438</ele>
        <time>2023-07-16T07:30:39.000Z</time>
      </trkpt>
      <trkpt lat="42.51313" lon="2.46178">
        <ele>2547.1999511719</ele>
        <time>2023-07-16T07:30:40.000Z</time>
      </trkpt>
      <trkpt lat="42.51308" lon="2.46178">
        <ele>2546.1999511719</ele>
        <time>2023-07-16T07:30:47.000Z</time>
      </trkpt>
      <trkpt lat="42.51308" lon="2.46178">
        <ele>2546.1999511719</ele>
        <time>2023-07-16T07:30:48.000Z</time>
      </trkpt>
      <trkpt lat="42.51304" lon="2.46178">
        <ele>2545.3999023438</ele>
        <time>2023-07-16T07:30:53.000Z</time>
      </trkpt>
      <trkpt lat="42.51303" lon="2.46179">
        <ele>2545</ele>
        <time>2023-07-16T07:30:55.000Z</time>
      </trkpt>
      <trkpt lat="42.51303" lon="2.46177">
        <ele>2545</ele>
        <time>2023-07-16T07:30:59.000Z</time>
      </trkpt>
      <trkpt lat="42.51297" lon="2.46177">
        <ele>2544.8000488281</ele>
        <time>2023-07-16T07:31:06.000Z</time>
      </trkpt>
      <trkpt lat="42.51295" lon="2.46177">
        <ele>2544</ele>
        <time>2023-07-16T07:31:08.000Z</time>
      </trkpt>
      <trkpt lat="42.51291" lon="2.46179">
        <ele>2542.8000488281</ele>
        <time>2023-07-16T07:31:13.000Z</time>
      </trkpt>
      <trkpt lat="42.51288" lon="2.46181">
        <ele>2542.3999023438</ele>
        <time>2023-07-16T07:31:16.000Z</time>
      </trkpt>
      <trkpt lat="42.51284" lon="2.46182">
        <ele>2541.6000976562</ele>
        <time>2023-07-16T07:31:22.000Z</time>
      </trkpt>
      <trkpt lat="42.51282" lon="2.46183">
        <ele>2541.1999511719</ele>
        <time>2023-07-16T07:31:24.000Z</time>
      </trkpt>
      <trkpt lat="42.51279" lon="2.46184">
        <ele>2540.1999511719</ele>
        <time>2023-07-16T07:31:30.000Z</time>
      </trkpt>
      <trkpt lat="42.51279" lon="2.46184">
        <ele>2540</ele>
        <time>2023-07-16T07:31:31.000Z</time>
      </trkpt>
      <trkpt lat="42.51272" lon="2.46184">
        <ele>2539.3999023438</ele>
        <time>2023-07-16T07:31:39.000Z</time>
      </trkpt>
      <trkpt lat="42.5127" lon="2.46185">
        <ele>2539</ele>
        <time>2023-07-16T07:31:41.000Z</time>
      </trkpt>
      <trkpt lat="42.51267" lon="2.46187">
        <ele>2537.8000488281</ele>
        <time>2023-07-16T07:31:45.000Z</time>
      </trkpt>
      <trkpt lat="42.51263" lon="2.46189">
        <ele>2537</ele>
        <time>2023-07-16T07:31:48.000Z</time>
      </trkpt>
      <trkpt lat="42.51262" lon="2.46189">
        <ele>2536.8000488281</ele>
        <time>2023-07-16T07:31:50.000Z</time>
      </trkpt>
      <trkpt lat="42.51258" lon="2.4619">
        <ele>2536.1999511719</ele>
        <time>2023-07-16T07:31:55.000Z</time>
      </trkpt>
      <trkpt lat="42.51256" lon="2.46189">
        <ele>2535.8000488281</ele>
        <time>2023-07-16T07:31:59.000Z</time>
      </trkpt>
      <trkpt lat="42.51253" lon="2.46189">
        <ele>2535.6000976562</ele>
        <time>2023-07-16T07:32:02.000Z</time>
      </trkpt>
      <trkpt lat="42.5125" lon="2.4619">
        <ele>2534.8000488281</ele>
        <time>2023-07-16T07:32:05.000Z</time>
      </trkpt>
      <trkpt lat="42.51247" lon="2.4619">
        <ele>2533.6000976562</ele>
        <time>2023-07-16T07:32:10.000Z</time>
      </trkpt>
      <trkpt lat="42.51243" lon="2.46192">
        <ele>2532.6000976562</ele>
        <time>2023-07-16T07:32:16.000Z</time>
      </trkpt>
      <trkpt lat="42.51242" lon="2.46194">
        <ele>2532.3999023438</ele>
        <time>2023-07-16T07:32:18.000Z</time>
      </trkpt>
      <trkpt lat="42.51239" lon="2.46194">
        <ele>2531.3999023438</ele>
        <time>2023-07-16T07:32:22.000Z</time>
      </trkpt>
      <trkpt lat="42.51235" lon="2.46193">
        <ele>2530.3999023438</ele>
        <time>2023-07-16T07:32:27.000Z</time>
      </trkpt>
      <trkpt lat="42.51233" lon="2.46194">
        <ele>2530.8000488281</ele>
        <time>2023-07-16T07:32:34.000Z</time>
      </trkpt>
      <trkpt lat="42.51233" lon="2.46195">
        <ele>2529.1999511719</ele>
        <time>2023-07-16T07:32:39.000Z</time>
      </trkpt>
      <trkpt lat="42.51233" lon="2.46195">
        <ele>2529.1999511719</ele>
        <time>2023-07-16T07:32:40.000Z</time>
      </trkpt>
      <trkpt lat="42.51233" lon="2.46196">
        <ele>2528.6000976562</ele>
        <time>2023-07-16T07:32:46.000Z</time>
      </trkpt>
      <trkpt lat="42.51232" lon="2.46194">
        <ele>2529.8000488281</ele>
        <time>2023-07-16T07:32:55.000Z</time>
      </trkpt>
      <trkpt lat="42.51233" lon="2.46192">
        <ele>2530</ele>
        <time>2023-07-16T07:33:03.000Z</time>
      </trkpt>
      <trkpt lat="42.51234" lon="2.46193">
        <ele>2530</ele>
        <time>2023-07-16T07:33:14.000Z</time>
      </trkpt>
      <trkpt lat="42.51235" lon="2.46193">
        <ele>2530</ele>
        <time>2023-07-16T07:33:21.000Z</time>
      </trkpt>
      <trkpt lat="42.51233" lon="2.46191">
        <ele>2530.3999023438</ele>
        <time>2023-07-16T07:33:26.000Z</time>
      </trkpt>
      <trkpt lat="42.51231" lon="2.4619">
        <ele>2530.6000976562</ele>
        <time>2023-07-16T07:33:29.000Z</time>
      </trkpt>
      <trkpt lat="42.51228" lon="2.46192">
        <ele>2530.6000976562</ele>
        <time>2023-07-16T07:33:37.000Z</time>
      </trkpt>
      <trkpt lat="42.51226" lon="2.46191">
        <ele>2529.3999023438</ele>
        <time>2023-07-16T07:33:43.000Z</time>
      </trkpt>
      <trkpt lat="42.51225" lon="2.46191">
        <ele>2529</ele>
        <time>2023-07-16T07:33:44.000Z</time>
      </trkpt>
      <trkpt lat="42.5122" lon="2.46192">
        <ele>2528.3999023438</ele>
        <time>2023-07-16T07:33:51.000Z</time>
      </trkpt>
      <trkpt lat="42.51219" lon="2.46192">
        <ele>2528</ele>
        <time>2023-07-16T07:33:53.000Z</time>
      </trkpt>
      <trkpt lat="42.51217" lon="2.46191">
        <ele>2527.3999023438</ele>
        <time>2023-07-16T07:33:57.000Z</time>
      </trkpt>
      <trkpt lat="42.51212" lon="2.4619">
        <ele>2527</ele>
        <time>2023-07-16T07:34:04.000Z</time>
      </trkpt>
      <trkpt lat="42.51212" lon="2.4619">
        <ele>2526.8000488281</ele>
        <time>2023-07-16T07:34:05.000Z</time>
      </trkpt>
      <trkpt lat="42.51207" lon="2.46189">
        <ele>2525.6000976562</ele>
        <time>2023-07-16T07:34:13.000Z</time>
      </trkpt>
      <trkpt lat="42.51203" lon="2.4619">
        <ele>2524.3999023438</ele>
        <time>2023-07-16T07:34:18.000Z</time>
      </trkpt>
      <trkpt lat="42.51202" lon="2.4619">
        <ele>2524</ele>
        <time>2023-07-16T07:34:19.000Z</time>
      </trkpt>
      <trkpt lat="42.51194" lon="2.46192">
        <ele>2523.3999023438</ele>
        <time>2023-07-16T07:34:27.000Z</time>
      </trkpt>
      <trkpt lat="42.51196" lon="2.46192">
        <ele>2523</ele>
        <time>2023-07-16T07:34:29.000Z</time>
      </trkpt>
      <trkpt lat="42.51197" lon="2.46192">
        <ele>2522.1999511719</ele>
        <time>2023-07-16T07:34:31.000Z</time>
      </trkpt>
      <trkpt lat="42.51198" lon="2.46191">
        <ele>2522.1999511719</ele>
        <time>2023-07-16T07:34:32.000Z</time>
      </trkpt>
      <trkpt lat="42.51203" lon="2.46188">
        <ele>2520.6000976562</ele>
        <time>2023-07-16T07:34:38.000Z</time>
      </trkpt>
      <trkpt lat="42.51204" lon="2.46188">
        <ele>2520.6000976562</ele>
        <time>2023-07-16T07:34:39.000Z</time>
      </trkpt>
      <trkpt lat="42.51208" lon="2.46187">
        <ele>2519.3999023438</ele>
        <time>2023-07-16T07:34:43.000Z</time>
      </trkpt>
      <trkpt lat="42.5121" lon="2.46187">
        <ele>2518.8000488281</ele>
        <time>2023-07-16T07:34:46.000Z</time>
      </trkpt>
      <trkpt lat="42.51211" lon="2.46187">
        <ele>2518.3999023438</ele>
        <time>2023-07-16T07:34:47.000Z</time>
      </trkpt>
      <trkpt lat="42.51213" lon="2.46186">
        <ele>2517.1999511719</ele>
        <time>2023-07-16T07:34:49.000Z</time>
      </trkpt>
      <trkpt lat="42.51215" lon="2.46185">
        <ele>2516</ele>
        <time>2023-07-16T07:34:52.000Z</time>
      </trkpt>
      <trkpt lat="42.51218" lon="2.46184">
        <ele>2514.8000488281</ele>
        <time>2023-07-16T07:34:54.000Z</time>
      </trkpt>
      <trkpt lat="42.51221" lon="2.46182">
        <ele>2514.6000976562</ele>
        <time>2023-07-16T07:34:59.000Z</time>
      </trkpt>
      <trkpt lat="42.5123" lon="2.46175">
        <ele>2514.1999511719</ele>
        <time>2023-07-16T07:35:07.000Z</time>
      </trkpt>
      <trkpt lat="42.51233" lon="2.46174">
        <ele>2513.8000488281</ele>
        <time>2023-07-16T07:35:12.000Z</time>
      </trkpt>
      <trkpt lat="42.51235" lon="2.46173">
        <ele>2513.3999023438</ele>
        <time>2023-07-16T07:35:14.000Z</time>
      </trkpt>
      <trkpt lat="42.51239" lon="2.46173">
        <ele>2512.6000976562</ele>
        <time>2023-07-16T07:35:19.000Z</time>
      </trkpt>
      <trkpt lat="42.5124" lon="2.46173">
        <ele>2512.1999511719</ele>
        <time>2023-07-16T07:35:21.000Z</time>
      </trkpt>
      <trkpt lat="42.51246" lon="2.4617">
        <ele>2512.8000488281</ele>
        <time>2023-07-16T07:35:29.000Z</time>
      </trkpt>
      <trkpt lat="42.5125" lon="2.46163">
        <ele>2511.1999511719</ele>
        <time>2023-07-16T07:35:36.000Z</time>
      </trkpt>
      <trkpt lat="42.51252" lon="2.46162">
        <ele>2511</ele>
        <time>2023-07-16T07:35:37.000Z</time>
      </trkpt>
      <trkpt lat="42.51258" lon="2.46157">
        <ele>2510.1999511719</ele>
        <time>2023-07-16T07:35:43.000Z</time>
      </trkpt>
      <trkpt lat="42.51259" lon="2.46157">
        <ele>2510.1999511719</ele>
        <time>2023-07-16T07:35:44.000Z</time>
      </trkpt>
      <trkpt lat="42.51262" lon="2.46155">
        <ele>2509</ele>
        <time>2023-07-16T07:35:48.000Z</time>
      </trkpt>
      <trkpt lat="42.51265" lon="2.46153">
        <ele>2509</ele>
        <time>2023-07-16T07:35:52.000Z</time>
      </trkpt>
      <trkpt lat="42.51269" lon="2.46148">
        <ele>2509</ele>
        <time>2023-07-16T07:36:00.000Z</time>
      </trkpt>
      <trkpt lat="42.5127" lon="2.46146">
        <ele>2507.8000488281</ele>
        <time>2023-07-16T07:36:03.000Z</time>
      </trkpt>
      <trkpt lat="42.51271" lon="2.46145">
        <ele>2506.6000976562</ele>
        <time>2023-07-16T07:36:08.000Z</time>
      </trkpt>
      <trkpt lat="42.5127" lon="2.46144">
        <ele>2506.1999511719</ele>
        <time>2023-07-16T07:36:11.000Z</time>
      </trkpt>
      <trkpt lat="42.51272" lon="2.4614">
        <ele>2507.3999023438</ele>
        <time>2023-07-16T07:36:17.000Z</time>
      </trkpt>
      <trkpt lat="42.51272" lon="2.46134">
        <ele>2505.1999511719</ele>
        <time>2023-07-16T07:36:23.000Z</time>
      </trkpt>
      <trkpt lat="42.51275" lon="2.4613">
        <ele>2504.8000488281</ele>
        <time>2023-07-16T07:36:30.000Z</time>
      </trkpt>
      <trkpt lat="42.51276" lon="2.46129">
        <ele>2504.1999511719</ele>
        <time>2023-07-16T07:36:33.000Z</time>
      </trkpt>
      <trkpt lat="42.51277" lon="2.46128">
        <ele>2503.1999511719</ele>
        <time>2023-07-16T07:36:39.000Z</time>
      </trkpt>
      <trkpt lat="42.51276" lon="2.46128">
        <ele>2502.8000488281</ele>
        <time>2023-07-16T07:36:40.000Z</time>
      </trkpt>
      <trkpt lat="42.5128" lon="2.46126">
        <ele>2502.1999511719</ele>
        <time>2023-07-16T07:36:50.000Z</time>
      </trkpt>
      <trkpt lat="42.51282" lon="2.46124">
        <ele>2501</ele>
        <time>2023-07-16T07:36:53.000Z</time>
      </trkpt>
      <trkpt lat="42.51284" lon="2.46121">
        <ele>2499.8000488281</ele>
        <time>2023-07-16T07:36:56.000Z</time>
      </trkpt>
      <trkpt lat="42.51285" lon="2.46116">
        <ele>2499.3999023438</ele>
        <time>2023-07-16T07:36:59.000Z</time>
      </trkpt>
      <trkpt lat="42.51281" lon="2.46112">
        <ele>2499.8000488281</ele>
        <time>2023-07-16T07:37:05.000Z</time>
      </trkpt>
      <trkpt lat="42.51278" lon="2.46111">
        <ele>2498.6000976562</ele>
        <time>2023-07-16T07:37:12.000Z</time>
      </trkpt>
      <trkpt lat="42.51276" lon="2.46111">
        <ele>2497.3999023438</ele>
        <time>2023-07-16T07:37:16.000Z</time>
      </trkpt>
      <trkpt lat="42.51275" lon="2.4611">
        <ele>2497.1999511719</ele>
        <time>2023-07-16T07:37:19.000Z</time>
      </trkpt>
      <trkpt lat="42.51272" lon="2.46109">
        <ele>2497.6000976562</ele>
        <time>2023-07-16T07:37:26.000Z</time>
      </trkpt>
      <trkpt lat="42.51269" lon="2.46107">
        <ele>2496.3999023438</ele>
        <time>2023-07-16T07:37:32.000Z</time>
      </trkpt>
      <trkpt lat="42.51268" lon="2.46108">
        <ele>2495.8000488281</ele>
        <time>2023-07-16T07:37:35.000Z</time>
      </trkpt>
      <trkpt lat="42.51269" lon="2.46109">
        <ele>2495.1999511719</ele>
        <time>2023-07-16T07:37:37.000Z</time>
      </trkpt>
      <trkpt lat="42.51267" lon="2.46113">
        <ele>2494.1999511719</ele>
        <time>2023-07-16T07:37:41.000Z</time>
      </trkpt>
      <trkpt lat="42.51264" lon="2.46113">
        <ele>2493.8000488281</ele>
        <time>2023-07-16T07:37:47.000Z</time>
      </trkpt>
      <trkpt lat="42.51264" lon="2.46112">
        <ele>2492.8000488281</ele>
        <time>2023-07-16T07:37:48.000Z</time>
      </trkpt>
      <trkpt lat="42.51264" lon="2.4611">
        <ele>2491.8000488281</ele>
        <time>2023-07-16T07:37:50.000Z</time>
      </trkpt>
      <trkpt lat="42.51264" lon="2.46105">
        <ele>2491.1999511719</ele>
        <time>2023-07-16T07:37:54.000Z</time>
      </trkpt>
      <trkpt lat="42.5126" lon="2.46106">
        <ele>2491.1999511719</ele>
        <time>2023-07-16T07:38:01.000Z</time>
      </trkpt>
      <trkpt lat="42.51256" lon="2.4611">
        <ele>2490.3999023438</ele>
        <time>2023-07-16T07:38:08.000Z</time>
      </trkpt>
      <trkpt lat="42.51255" lon="2.46111">
        <ele>2489</ele>
        <time>2023-07-16T07:38:11.000Z</time>
      </trkpt>
      <trkpt lat="42.51252" lon="2.46112">
        <ele>2488</ele>
        <time>2023-07-16T07:38:17.000Z</time>
      </trkpt>
      <trkpt lat="42.51251" lon="2.46111">
        <ele>2487.6000976562</ele>
        <time>2023-07-16T07:38:21.000Z</time>
      </trkpt>
      <trkpt lat="42.51247" lon="2.46112">
        <ele>2487.1999511719</ele>
        <time>2023-07-16T07:38:25.000Z</time>
      </trkpt>
      <trkpt lat="42.51247" lon="2.46112">
        <ele>2486.6000976562</ele>
        <time>2023-07-16T07:38:26.000Z</time>
      </trkpt>
      <trkpt lat="42.51244" lon="2.46113">
        <ele>2485.6000976562</ele>
        <time>2023-07-16T07:38:31.000Z</time>
      </trkpt>
      <trkpt lat="42.51243" lon="2.46112">
        <ele>2485.3999023438</ele>
        <time>2023-07-16T07:38:32.000Z</time>
      </trkpt>
      <trkpt lat="42.51239" lon="2.46112">
        <ele>2484.8000488281</ele>
        <time>2023-07-16T07:38:38.000Z</time>
      </trkpt>
      <trkpt lat="42.51239" lon="2.46113">
        <ele>2484.6000976562</ele>
        <time>2023-07-16T07:38:39.000Z</time>
      </trkpt>
      <trkpt lat="42.51236" lon="2.46117">
        <ele>2483.3999023438</ele>
        <time>2023-07-16T07:38:44.000Z</time>
      </trkpt>
      <trkpt lat="42.51236" lon="2.46117">
        <ele>2483.1999511719</ele>
        <time>2023-07-16T07:38:45.000Z</time>
      </trkpt>
      <trkpt lat="42.51237" lon="2.46116">
        <ele>2482.3999023438</ele>
        <time>2023-07-16T07:38:48.000Z</time>
      </trkpt>
      <trkpt lat="42.51239" lon="2.46114">
        <ele>2481.3999023438</ele>
        <time>2023-07-16T07:38:51.000Z</time>
      </trkpt>
      <trkpt lat="42.51241" lon="2.46113">
        <ele>2480.1999511719</ele>
        <time>2023-07-16T07:38:55.000Z</time>
      </trkpt>
      <trkpt lat="42.51242" lon="2.46111">
        <ele>2480</ele>
        <time>2023-07-16T07:38:58.000Z</time>
      </trkpt>
      <trkpt lat="42.51244" lon="2.46108">
        <ele>2479</ele>
        <time>2023-07-16T07:39:03.000Z</time>
      </trkpt>
      <trkpt lat="42.51245" lon="2.46105">
        <ele>2478.3999023438</ele>
        <time>2023-07-16T07:39:05.000Z</time>
      </trkpt>
      <trkpt lat="42.51252" lon="2.46102">
        <ele>2479.3999023438</ele>
        <time>2023-07-16T07:39:13.000Z</time>
      </trkpt>
      <trkpt lat="42.51257" lon="2.46096">
        <ele>2479.6000976562</ele>
        <time>2023-07-16T07:39:21.000Z</time>
      </trkpt>
      <trkpt lat="42.51262" lon="2.46093">
        <ele>2478.1999511719</ele>
        <time>2023-07-16T07:39:29.000Z</time>
      </trkpt>
      <trkpt lat="42.51263" lon="2.46093">
        <ele>2478</ele>
        <time>2023-07-16T07:39:30.000Z</time>
      </trkpt>
      <trkpt lat="42.51266" lon="2.46091">
        <ele>2477.1999511719</ele>
        <time>2023-07-16T07:39:36.000Z</time>
      </trkpt>
      <trkpt lat="42.51266" lon="2.4609">
        <ele>2477</ele>
        <time>2023-07-16T07:39:37.000Z</time>
      </trkpt>
      <trkpt lat="42.51265" lon="2.46088">
        <ele>2477</ele>
        <time>2023-07-16T07:39:39.000Z</time>
      </trkpt>
      <trkpt lat="42.51264" lon="2.46087">
        <ele>2477</ele>
        <time>2023-07-16T07:39:42.000Z</time>
      </trkpt>
      <trkpt lat="42.51264" lon="2.46086">
        <ele>2477</ele>
        <time>2023-07-16T07:39:43.000Z</time>
      </trkpt>
      <trkpt lat="42.51266" lon="2.46082">
        <ele>2476.8000488281</ele>
        <time>2023-07-16T07:39:48.000Z</time>
      </trkpt>
      <trkpt lat="42.51266" lon="2.46081">
        <ele>2476.6000976562</ele>
        <time>2023-07-16T07:39:49.000Z</time>
      </trkpt>
      <trkpt lat="42.51267" lon="2.46082">
        <ele>2475.8000488281</ele>
        <time>2023-07-16T07:39:50.000Z</time>
      </trkpt>
      <trkpt lat="42.51267" lon="2.46082">
        <ele>2475.3999023438</ele>
        <time>2023-07-16T07:39:51.000Z</time>
      </trkpt>
      <trkpt lat="42.51268" lon="2.46082">
        <ele>2475.8000488281</ele>
        <time>2023-07-16T07:39:55.000Z</time>
      </trkpt>
      <trkpt lat="42.5127" lon="2.46078">
        <ele>2476</ele>
        <time>2023-07-16T07:40:01.000Z</time>
      </trkpt>
      <trkpt lat="42.5127" lon="2.46076">
        <ele>2476</ele>
        <time>2023-07-16T07:40:04.000Z</time>
      </trkpt>
      <trkpt lat="42.51272" lon="2.46076">
        <ele>2476.1999511719</ele>
        <time>2023-07-16T07:40:09.000Z</time>
      </trkpt>
      <trkpt lat="42.51271" lon="2.46077">
        <ele>2476.3999023438</ele>
        <time>2023-07-16T07:40:15.000Z</time>
      </trkpt>
      <trkpt lat="42.51273" lon="2.46074">
        <ele>2474.8000488281</ele>
        <time>2023-07-16T07:40:23.000Z</time>
      </trkpt>
      <trkpt lat="42.51277" lon="2.46072">
        <ele>2474.8000488281</ele>
        <time>2023-07-16T07:40:30.000Z</time>
      </trkpt>
      <trkpt lat="42.51278" lon="2.4607">
        <ele>2474.1999511719</ele>
        <time>2023-07-16T07:40:38.000Z</time>
      </trkpt>
      <trkpt lat="42.51275" lon="2.46066">
        <ele>2473.6000976562</ele>
        <time>2023-07-16T07:40:46.000Z</time>
      </trkpt>
      <trkpt lat="42.51275" lon="2.46067">
        <ele>2473.3999023438</ele>
        <time>2023-07-16T07:40:47.000Z</time>
      </trkpt>
      <trkpt lat="42.51276" lon="2.46065">
        <ele>2472.8000488281</ele>
        <time>2023-07-16T07:40:53.000Z</time>
      </trkpt>
      <trkpt lat="42.51277" lon="2.46065">
        <ele>2472.6000976562</ele>
        <time>2023-07-16T07:40:54.000Z</time>
      </trkpt>
      <trkpt lat="42.51278" lon="2.46063">
        <ele>2471.3999023438</ele>
        <time>2023-07-16T07:40:58.000Z</time>
      </trkpt>
      <trkpt lat="42.51278" lon="2.46062">
        <ele>2471.1999511719</ele>
        <time>2023-07-16T07:41:00.000Z</time>
      </trkpt>
      <trkpt lat="42.51279" lon="2.46061">
        <ele>2470.3999023438</ele>
        <time>2023-07-16T07:41:02.000Z</time>
      </trkpt>
      <trkpt lat="42.5128" lon="2.46062">
        <ele>2469</ele>
        <time>2023-07-16T07:41:05.000Z</time>
      </trkpt>
      <trkpt lat="42.51283" lon="2.46061">
        <ele>2469.1999511719</ele>
        <time>2023-07-16T07:41:07.000Z</time>
      </trkpt>
      <trkpt lat="42.51287" lon="2.46057">
        <ele>2469.3999023438</ele>
        <time>2023-07-16T07:41:19.000Z</time>
      </trkpt>
      <trkpt lat="42.51288" lon="2.46056">
        <ele>2467.8000488281</ele>
        <time>2023-07-16T07:41:23.000Z</time>
      </trkpt>
      <trkpt lat="42.51288" lon="2.46054">
        <ele>2467.6000976562</ele>
        <time>2023-07-16T07:41:26.000Z</time>
      </trkpt>
      <trkpt lat="42.51288" lon="2.46052">
        <ele>2466.6000976562</ele>
        <time>2023-07-16T07:41:30.000Z</time>
      </trkpt>
      <trkpt lat="42.51289" lon="2.4605">
        <ele>2466.1999511719</ele>
        <time>2023-07-16T07:41:32.000Z</time>
      </trkpt>
      <trkpt lat="42.51294" lon="2.46047">
        <ele>2465.6000976562</ele>
        <time>2023-07-16T07:41:38.000Z</time>
      </trkpt>
      <trkpt lat="42.51297" lon="2.46045">
        <ele>2465.3999023438</ele>
        <time>2023-07-16T07:41:41.000Z</time>
      </trkpt>
      <trkpt lat="42.51303" lon="2.4604">
        <ele>2464.3999023438</ele>
        <time>2023-07-16T07:41:48.000Z</time>
      </trkpt>
      <trkpt lat="42.51306" lon="2.46036">
        <ele>2463.3999023438</ele>
        <time>2023-07-16T07:41:53.000Z</time>
      </trkpt>
      <trkpt lat="42.5131" lon="2.4603">
        <ele>2462.3999023438</ele>
        <time>2023-07-16T07:41:57.000Z</time>
      </trkpt>
      <trkpt lat="42.51311" lon="2.46027">
        <ele>2462</ele>
        <time>2023-07-16T07:41:59.000Z</time>
      </trkpt>
      <trkpt lat="42.51312" lon="2.46024">
        <ele>2461.6000976562</ele>
        <time>2023-07-16T07:42:04.000Z</time>
      </trkpt>
      <trkpt lat="42.51312" lon="2.46019">
        <ele>2461.3999023438</ele>
        <time>2023-07-16T07:42:11.000Z</time>
      </trkpt>
      <trkpt lat="42.51312" lon="2.46018">
        <ele>2461.3999023438</ele>
        <time>2023-07-16T07:42:12.000Z</time>
      </trkpt>
      <trkpt lat="42.51314" lon="2.46012">
        <ele>2461.6000976562</ele>
        <time>2023-07-16T07:42:17.000Z</time>
      </trkpt>
      <trkpt lat="42.51313" lon="2.46012">
        <ele>2461.3999023438</ele>
        <time>2023-07-16T07:42:20.000Z</time>
      </trkpt>
      <trkpt lat="42.51312" lon="2.46011">
        <ele>2461</ele>
        <time>2023-07-16T07:42:24.000Z</time>
      </trkpt>
      <trkpt lat="42.51311" lon="2.46011">
        <ele>2460.8000488281</ele>
        <time>2023-07-16T07:42:25.000Z</time>
      </trkpt>
      <trkpt lat="42.51309" lon="2.46015">
        <ele>2459.3999023438</ele>
        <time>2023-07-16T07:42:34.000Z</time>
      </trkpt>
      <trkpt lat="42.51308" lon="2.46013">
        <ele>2459.1999511719</ele>
        <time>2023-07-16T07:42:40.000Z</time>
      </trkpt>
      <trkpt lat="42.51308" lon="2.46012">
        <ele>2459.8000488281</ele>
        <time>2023-07-16T07:42:48.000Z</time>
      </trkpt>
      <trkpt lat="42.51307" lon="2.46015">
        <ele>2459.8000488281</ele>
        <time>2023-07-16T07:42:55.000Z</time>
      </trkpt>
      <trkpt lat="42.51305" lon="2.46012">
        <ele>2459</ele>
        <time>2023-07-16T07:43:07.000Z</time>
      </trkpt>
      <trkpt lat="42.51304" lon="2.46011">
        <ele>2458.6000976562</ele>
        <time>2023-07-16T07:43:08.000Z</time>
      </trkpt>
      <trkpt lat="42.51297" lon="2.46013">
        <ele>2458</ele>
        <time>2023-07-16T07:43:17.000Z</time>
      </trkpt>
      <trkpt lat="42.51296" lon="2.46014">
        <ele>2457.3999023438</ele>
        <time>2023-07-16T07:43:20.000Z</time>
      </trkpt>
      <trkpt lat="42.51292" lon="2.46018">
        <ele>2455.8000488281</ele>
        <time>2023-07-16T07:43:27.000Z</time>
      </trkpt>
      <trkpt lat="42.51292" lon="2.46018">
        <ele>2455.3999023438</ele>
        <time>2023-07-16T07:43:29.000Z</time>
      </trkpt>
      <trkpt lat="42.5129" lon="2.46019">
        <ele>2455</ele>
        <time>2023-07-16T07:43:34.000Z</time>
      </trkpt>
      <trkpt lat="42.51285" lon="2.46018">
        <ele>2454.6000976562</ele>
        <time>2023-07-16T07:43:40.000Z</time>
      </trkpt>
      <trkpt lat="42.51285" lon="2.46017">
        <ele>2454.1999511719</ele>
        <time>2023-07-16T07:43:42.000Z</time>
      </trkpt>
      <trkpt lat="42.51281" lon="2.46016">
        <ele>2453.6000976562</ele>
        <time>2023-07-16T07:43:46.000Z</time>
      </trkpt>
      <trkpt lat="42.51279" lon="2.46017">
        <ele>2453.1999511719</ele>
        <time>2023-07-16T07:43:48.000Z</time>
      </trkpt>
      <trkpt lat="42.51276" lon="2.4602">
        <ele>2452.6000976562</ele>
        <time>2023-07-16T07:43:53.000Z</time>
      </trkpt>
      <trkpt lat="42.51274" lon="2.46021">
        <ele>2452.1999511719</ele>
        <time>2023-07-16T07:43:57.000Z</time>
      </trkpt>
      <trkpt lat="42.51272" lon="2.46022">
        <ele>2451.6000976562</ele>
        <time>2023-07-16T07:43:59.000Z</time>
      </trkpt>
      <trkpt lat="42.51271" lon="2.46022">
        <ele>2451.1999511719</ele>
        <time>2023-07-16T07:44:00.000Z</time>
      </trkpt>
      <trkpt lat="42.5127" lon="2.46022">
        <ele>2451</ele>
        <time>2023-07-16T07:44:01.000Z</time>
      </trkpt>
      <trkpt lat="42.51267" lon="2.46022">
        <ele>2449.8000488281</ele>
        <time>2023-07-16T07:44:05.000Z</time>
      </trkpt>
      <trkpt lat="42.51265" lon="2.46021">
        <ele>2448.8000488281</ele>
        <time>2023-07-16T07:44:09.000Z</time>
      </trkpt>
      <trkpt lat="42.51265" lon="2.46021">
        <ele>2448.8000488281</ele>
        <time>2023-07-16T07:44:10.000Z</time>
      </trkpt>
      <trkpt lat="42.51264" lon="2.46022">
        <ele>2448.6000976562</ele>
        <time>2023-07-16T07:44:13.000Z</time>
      </trkpt>
      <trkpt lat="42.51264" lon="2.46025">
        <ele>2448.3999023438</ele>
        <time>2023-07-16T07:44:16.000Z</time>
      </trkpt>
      <trkpt lat="42.51264" lon="2.46026">
        <ele>2447.8000488281</ele>
        <time>2023-07-16T07:44:18.000Z</time>
      </trkpt>
      <trkpt lat="42.51264" lon="2.46025">
        <ele>2447.1999511719</ele>
        <time>2023-07-16T07:44:23.000Z</time>
      </trkpt>
      <trkpt lat="42.51263" lon="2.4602">
        <ele>2446.6000976562</ele>
        <time>2023-07-16T07:44:27.000Z</time>
      </trkpt>
      <trkpt lat="42.5126" lon="2.46017">
        <ele>2446.3999023438</ele>
        <time>2023-07-16T07:44:30.000Z</time>
      </trkpt>
      <trkpt lat="42.51259" lon="2.46017">
        <ele>2445.3999023438</ele>
        <time>2023-07-16T07:44:36.000Z</time>
      </trkpt>
      <trkpt lat="42.5126" lon="2.46016">
        <ele>2444.1999511719</ele>
        <time>2023-07-16T07:44:41.000Z</time>
      </trkpt>
      <trkpt lat="42.51261" lon="2.46015">
        <ele>2443.3999023438</ele>
        <time>2023-07-16T07:44:44.000Z</time>
      </trkpt>
      <trkpt lat="42.51267" lon="2.46009">
        <ele>2443.1999511719</ele>
        <time>2023-07-16T07:44:53.000Z</time>
      </trkpt>
      <trkpt lat="42.5127" lon="2.46006">
        <ele>2443</ele>
        <time>2023-07-16T07:44:56.000Z</time>
      </trkpt>
      <trkpt lat="42.51271" lon="2.46005">
        <ele>2442.8000488281</ele>
        <time>2023-07-16T07:44:59.000Z</time>
      </trkpt>
      <trkpt lat="42.51276" lon="2.46001">
        <ele>2442.3999023438</ele>
        <time>2023-07-16T07:45:06.000Z</time>
      </trkpt>
      <trkpt lat="42.51277" lon="2.46">
        <ele>2442</ele>
        <time>2023-07-16T07:45:08.000Z</time>
      </trkpt>
      <trkpt lat="42.51283" lon="2.45996">
        <ele>2441.3999023438</ele>
        <time>2023-07-16T07:45:13.000Z</time>
      </trkpt>
      <trkpt lat="42.51283" lon="2.45991">
        <ele>2441.1999511719</ele>
        <time>2023-07-16T07:45:17.000Z</time>
      </trkpt>
      <trkpt lat="42.51281" lon="2.45989">
        <ele>2441.1999511719</ele>
        <time>2023-07-16T07:45:19.000Z</time>
      </trkpt>
      <trkpt lat="42.51275" lon="2.45988">
        <ele>2441</ele>
        <time>2023-07-16T07:45:25.000Z</time>
      </trkpt>
      <trkpt lat="42.5127" lon="2.45989">
        <ele>2439.8000488281</ele>
        <time>2023-07-16T07:45:31.000Z</time>
      </trkpt>
      <trkpt lat="42.51269" lon="2.45989">
        <ele>2439.3999023438</ele>
        <time>2023-07-16T07:45:33.000Z</time>
      </trkpt>
      <trkpt lat="42.51266" lon="2.45989">
        <ele>2438.6000976562</ele>
        <time>2023-07-16T07:45:37.000Z</time>
      </trkpt>
      <trkpt lat="42.51263" lon="2.4599">
        <ele>2438.1999511719</ele>
        <time>2023-07-16T07:45:40.000Z</time>
      </trkpt>
      <trkpt lat="42.51262" lon="2.45991">
        <ele>2437.3999023438</ele>
        <time>2023-07-16T07:45:43.000Z</time>
      </trkpt>
      <trkpt lat="42.5126" lon="2.45991">
        <ele>2436.6000976562</ele>
        <time>2023-07-16T07:45:47.000Z</time>
      </trkpt>
      <trkpt lat="42.51258" lon="2.45991">
        <ele>2436.3999023438</ele>
        <time>2023-07-16T07:45:48.000Z</time>
      </trkpt>
      <trkpt lat="42.51255" lon="2.45992">
        <ele>2436.1999511719</ele>
        <time>2023-07-16T07:45:53.000Z</time>
      </trkpt>
      <trkpt lat="42.51252" lon="2.45993">
        <ele>2435.3999023438</ele>
        <time>2023-07-16T07:45:58.000Z</time>
      </trkpt>
      <trkpt lat="42.51251" lon="2.45994">
        <ele>2434.8000488281</ele>
        <time>2023-07-16T07:46:00.000Z</time>
      </trkpt>
      <trkpt lat="42.5125" lon="2.45995">
        <ele>2434.1999511719</ele>
        <time>2023-07-16T07:46:03.000Z</time>
      </trkpt>
      <trkpt lat="42.51248" lon="2.45996">
        <ele>2433.8000488281</ele>
        <time>2023-07-16T07:46:07.000Z</time>
      </trkpt>
      <trkpt lat="42.51248" lon="2.45996">
        <ele>2433.1999511719</ele>
        <time>2023-07-16T07:46:10.000Z</time>
      </trkpt>
      <trkpt lat="42.51246" lon="2.45995">
        <ele>2432.6000976562</ele>
        <time>2023-07-16T07:46:14.000Z</time>
      </trkpt>
      <trkpt lat="42.51246" lon="2.45995">
        <ele>2432.6000976562</ele>
        <time>2023-07-16T07:46:15.000Z</time>
      </trkpt>
      <trkpt lat="42.51244" lon="2.45997">
        <ele>2432.1999511719</ele>
        <time>2023-07-16T07:46:18.000Z</time>
      </trkpt>
      <trkpt lat="42.51239" lon="2.45999">
        <ele>2431</ele>
        <time>2023-07-16T07:46:23.000Z</time>
      </trkpt>
      <trkpt lat="42.51236" lon="2.46002">
        <ele>2429.8000488281</ele>
        <time>2023-07-16T07:46:28.000Z</time>
      </trkpt>
      <trkpt lat="42.51235" lon="2.46004">
        <ele>2429</ele>
        <time>2023-07-16T07:46:31.000Z</time>
      </trkpt>
      <trkpt lat="42.51234" lon="2.46005">
        <ele>2428.6000976562</ele>
        <time>2023-07-16T07:46:33.000Z</time>
      </trkpt>
      <trkpt lat="42.5123" lon="2.46006">
        <ele>2428.3999023438</ele>
        <time>2023-07-16T07:46:39.000Z</time>
      </trkpt>
      <trkpt lat="42.51224" lon="2.46009">
        <ele>2427.8000488281</ele>
        <time>2023-07-16T07:46:47.000Z</time>
      </trkpt>
      <trkpt lat="42.51221" lon="2.4601">
        <ele>2427.8000488281</ele>
        <time>2023-07-16T07:46:54.000Z</time>
      </trkpt>
      <trkpt lat="42.51219" lon="2.46013">
        <ele>2427.8000488281</ele>
        <time>2023-07-16T07:47:03.000Z</time>
      </trkpt>
      <trkpt lat="42.51218" lon="2.46014">
        <ele>2427.6000976562</ele>
        <time>2023-07-16T07:47:04.000Z</time>
      </trkpt>
      <trkpt lat="42.51216" lon="2.46014">
        <ele>2427</ele>
        <time>2023-07-16T07:47:09.000Z</time>
      </trkpt>
      <trkpt lat="42.51211" lon="2.46017">
        <ele>2427.1999511719</ele>
        <time>2023-07-16T07:47:16.000Z</time>
      </trkpt>
      <trkpt lat="42.5121" lon="2.46017">
        <ele>2427.3999023438</ele>
        <time>2023-07-16T07:47:24.000Z</time>
      </trkpt>
      <trkpt lat="42.51205" lon="2.46017">
        <ele>2426.8000488281</ele>
        <time>2023-07-16T07:47:31.000Z</time>
      </trkpt>
      <trkpt lat="42.51204" lon="2.46016">
        <ele>2426.3999023438</ele>
        <time>2023-07-16T07:47:34.000Z</time>
      </trkpt>
      <trkpt lat="42.512" lon="2.46014">
        <ele>2425.1999511719</ele>
        <time>2023-07-16T07:47:40.000Z</time>
      </trkpt>
      <trkpt lat="42.51196" lon="2.46018">
        <ele>2425</ele>
        <time>2023-07-16T07:47:46.000Z</time>
      </trkpt>
      <trkpt lat="42.51192" lon="2.46027">
        <ele>2424.8000488281</ele>
        <time>2023-07-16T07:47:54.000Z</time>
      </trkpt>
      <trkpt lat="42.51188" lon="2.4603">
        <ele>2424.1999511719</ele>
        <time>2023-07-16T07:48:01.000Z</time>
      </trkpt>
      <trkpt lat="42.51188" lon="2.4603">
        <ele>2424.1999511719</ele>
        <time>2023-07-16T07:48:02.000Z</time>
      </trkpt>
      <trkpt lat="42.51184" lon="2.46035">
        <ele>2424</ele>
        <time>2023-07-16T07:48:09.000Z</time>
      </trkpt>
      <trkpt lat="42.51181" lon="2.46035">
        <ele>2423.1999511719</ele>
        <time>2023-07-16T07:48:15.000Z</time>
      </trkpt>
      <trkpt lat="42.5118" lon="2.46035">
        <ele>2423</ele>
        <time>2023-07-16T07:48:16.000Z</time>
      </trkpt>
      <trkpt lat="42.51176" lon="2.46038">
        <ele>2422.3999023438</ele>
        <time>2023-07-16T07:48:22.000Z</time>
      </trkpt>
      <trkpt lat="42.51174" lon="2.4604">
        <ele>2422</ele>
        <time>2023-07-16T07:48:25.000Z</time>
      </trkpt>
      <trkpt lat="42.51173" lon="2.46042">
        <ele>2421.8000488281</ele>
        <time>2023-07-16T07:48:29.000Z</time>
      </trkpt>
      <trkpt lat="42.51168" lon="2.46045">
        <ele>2421.1999511719</ele>
        <time>2023-07-16T07:48:36.000Z</time>
      </trkpt>
      <trkpt lat="42.51166" lon="2.46044">
        <ele>2421</ele>
        <time>2023-07-16T07:48:39.000Z</time>
      </trkpt>
      <trkpt lat="42.51164" lon="2.46044">
        <ele>2420.6000976562</ele>
        <time>2023-07-16T07:48:44.000Z</time>
      </trkpt>
      <trkpt lat="42.51164" lon="2.46045">
        <ele>2420.8000488281</ele>
        <time>2023-07-16T07:48:52.000Z</time>
      </trkpt>
      <trkpt lat="42.51165" lon="2.4605">
        <ele>2420</ele>
        <time>2023-07-16T07:48:56.000Z</time>
      </trkpt>
      <trkpt lat="42.51165" lon="2.46051">
        <ele>2420</ele>
        <time>2023-07-16T07:48:58.000Z</time>
      </trkpt>
      <trkpt lat="42.51167" lon="2.46047">
        <ele>2419.6000976562</ele>
        <time>2023-07-16T07:49:03.000Z</time>
      </trkpt>
      <trkpt lat="42.51167" lon="2.46047">
        <ele>2419.3999023438</ele>
        <time>2023-07-16T07:49:06.000Z</time>
      </trkpt>
      <trkpt lat="42.51168" lon="2.46051">
        <ele>2419.3999023438</ele>
        <time>2023-07-16T07:49:13.000Z</time>
      </trkpt>
      <trkpt lat="42.51167" lon="2.46049">
        <ele>2418.6000976562</ele>
        <time>2023-07-16T07:49:23.000Z</time>
      </trkpt>
      <trkpt lat="42.51161" lon="2.46051">
        <ele>2418.8000488281</ele>
        <time>2023-07-16T07:49:31.000Z</time>
      </trkpt>
      <trkpt lat="42.51162" lon="2.46051">
        <ele>2419.8000488281</ele>
        <time>2023-07-16T07:49:38.000Z</time>
      </trkpt>
      <trkpt lat="42.51162" lon="2.46048">
        <ele>2419.3999023438</ele>
        <time>2023-07-16T07:49:46.000Z</time>
      </trkpt>
      <trkpt lat="42.51166" lon="2.46046">
        <ele>2420</ele>
        <time>2023-07-16T07:49:51.000Z</time>
      </trkpt>
      <trkpt lat="42.51167" lon="2.46046">
        <ele>2420.1999511719</ele>
        <time>2023-07-16T07:49:52.000Z</time>
      </trkpt>
      <trkpt lat="42.5117" lon="2.46054">
        <ele>2420.8000488281</ele>
        <time>2023-07-16T07:50:02.000Z</time>
      </trkpt>
      <trkpt lat="42.5117" lon="2.46056">
        <ele>2421</ele>
        <time>2023-07-16T07:50:04.000Z</time>
      </trkpt>
      <trkpt lat="42.51172" lon="2.46058">
        <ele>2421.1999511719</ele>
        <time>2023-07-16T07:50:10.000Z</time>
      </trkpt>
      <trkpt lat="42.51164" lon="2.4605">
        <ele>2421.6000976562</ele>
        <time>2023-07-16T07:50:32.000Z</time>
      </trkpt>
      <trkpt lat="42.51162" lon="2.46049">
        <ele>2420.8000488281</ele>
        <time>2023-07-16T07:50:41.000Z</time>
      </trkpt>
      <trkpt lat="42.51165" lon="2.4605">
        <ele>2420</ele>
        <time>2023-07-16T07:50:47.000Z</time>
      </trkpt>
      <trkpt lat="42.51166" lon="2.46049">
        <ele>2419.3999023438</ele>
        <time>2023-07-16T07:50:54.000Z</time>
      </trkpt>
      <trkpt lat="42.51164" lon="2.46045">
        <ele>2420</ele>
        <time>2023-07-16T07:51:04.000Z</time>
      </trkpt>
      <trkpt lat="42.51165" lon="2.46046">
        <ele>2420.1999511719</ele>
        <time>2023-07-16T07:51:12.000Z</time>
      </trkpt>
      <trkpt lat="42.51163" lon="2.46043">
        <ele>2420.1999511719</ele>
        <time>2023-07-16T07:51:18.000Z</time>
      </trkpt>
      <trkpt lat="42.51161" lon="2.46043">
        <ele>2420.8000488281</ele>
        <time>2023-07-16T07:51:27.000Z</time>
      </trkpt>
      <trkpt lat="42.51162" lon="2.46044">
        <ele>2420.8000488281</ele>
        <time>2023-07-16T07:51:35.000Z</time>
      </trkpt>
      <trkpt lat="42.51164" lon="2.46048">
        <ele>2420</ele>
        <time>2023-07-16T07:51:43.000Z</time>
      </trkpt>
      <trkpt lat="42.5116" lon="2.46049">
        <ele>2419.6000976562</ele>
        <time>2023-07-16T07:51:52.000Z</time>
      </trkpt>
      <trkpt lat="42.51167" lon="2.46052">
        <ele>2420.8000488281</ele>
        <time>2023-07-16T07:52:33.000Z</time>
      </trkpt>
      <trkpt lat="42.51167" lon="2.46051">
        <ele>2421</ele>
        <time>2023-07-16T07:52:34.000Z</time>
      </trkpt>
      <trkpt lat="42.51168" lon="2.46052">
        <ele>2421.3999023438</ele>
        <time>2023-07-16T07:52:41.000Z</time>
      </trkpt>
      <trkpt lat="42.51165" lon="2.46058">
        <ele>2421.3999023438</ele>
        <time>2023-07-16T07:52:53.000Z</time>
      </trkpt>
      <trkpt lat="42.51165" lon="2.46051">
        <ele>2421.3999023438</ele>
        <time>2023-07-16T07:53:01.000Z</time>
      </trkpt>
      <trkpt lat="42.51163" lon="2.46051">
        <ele>2421.1999511719</ele>
        <time>2023-07-16T07:53:07.000Z</time>
      </trkpt>
      <trkpt lat="42.51162" lon="2.46044">
        <ele>2420.3999023438</ele>
        <time>2023-07-16T07:53:15.000Z</time>
      </trkpt>
      <trkpt lat="42.51165" lon="2.46046">
        <ele>2420</ele>
        <time>2023-07-16T07:53:30.000Z</time>
      </trkpt>
      <trkpt lat="42.51161" lon="2.46047">
        <ele>2419.8000488281</ele>
        <time>2023-07-16T07:53:37.000Z</time>
      </trkpt>
      <trkpt lat="42.5116" lon="2.46044">
        <ele>2420</ele>
        <time>2023-07-16T07:53:48.000Z</time>
      </trkpt>
      <trkpt lat="42.5116" lon="2.4605">
        <ele>2421</ele>
        <time>2023-07-16T07:54:03.000Z</time>
      </trkpt>
      <trkpt lat="42.5117" lon="2.46049">
        <ele>2421</ele>
        <time>2023-07-16T07:54:15.000Z</time>
      </trkpt>
      <trkpt lat="42.51173" lon="2.46045">
        <ele>2420</ele>
        <time>2023-07-16T07:54:22.000Z</time>
      </trkpt>
      <trkpt lat="42.51176" lon="2.46038">
        <ele>2419.3999023438</ele>
        <time>2023-07-16T07:54:29.000Z</time>
      </trkpt>
      <trkpt lat="42.51179" lon="2.4603">
        <ele>2419.1999511719</ele>
        <time>2023-07-16T07:54:35.000Z</time>
      </trkpt>
      <trkpt lat="42.51178" lon="2.46027">
        <ele>2419</ele>
        <time>2023-07-16T07:54:38.000Z</time>
      </trkpt>
      <trkpt lat="42.51177" lon="2.46024">
        <ele>2418.6000976562</ele>
        <time>2023-07-16T07:54:42.000Z</time>
      </trkpt>
      <trkpt lat="42.51177" lon="2.46021">
        <ele>2417.8000488281</ele>
        <time>2023-07-16T07:54:46.000Z</time>
      </trkpt>
      <trkpt lat="42.51177" lon="2.46018">
        <ele>2417.6000976562</ele>
        <time>2023-07-16T07:54:49.000Z</time>
      </trkpt>
      <trkpt lat="42.51179" lon="2.46014">
        <ele>2416.6000976562</ele>
        <time>2023-07-16T07:54:53.000Z</time>
      </trkpt>
      <trkpt lat="42.51179" lon="2.46011">
        <ele>2416.3999023438</ele>
        <time>2023-07-16T07:54:55.000Z</time>
      </trkpt>
      <trkpt lat="42.51182" lon="2.46009">
        <ele>2416.8000488281</ele>
        <time>2023-07-16T07:55:03.000Z</time>
      </trkpt>
      <trkpt lat="42.51187" lon="2.46005">
        <ele>2416.3999023438</ele>
        <time>2023-07-16T07:55:09.000Z</time>
      </trkpt>
      <trkpt lat="42.5119" lon="2.46">
        <ele>2415.8000488281</ele>
        <time>2023-07-16T07:55:16.000Z</time>
      </trkpt>
      <trkpt lat="42.5119" lon="2.45998">
        <ele>2415.3999023438</ele>
        <time>2023-07-16T07:55:18.000Z</time>
      </trkpt>
      <trkpt lat="42.51191" lon="2.45995">
        <ele>2415</ele>
        <time>2023-07-16T07:55:22.000Z</time>
      </trkpt>
      <trkpt lat="42.51193" lon="2.4599">
        <ele>2414.8000488281</ele>
        <time>2023-07-16T07:55:28.000Z</time>
      </trkpt>
      <trkpt lat="42.51192" lon="2.4598">
        <ele>2414.3999023438</ele>
        <time>2023-07-16T07:55:38.000Z</time>
      </trkpt>
      <trkpt lat="42.51197" lon="2.45977">
        <ele>2413.6000976562</ele>
        <time>2023-07-16T07:55:45.000Z</time>
      </trkpt>
      <trkpt lat="42.51203" lon="2.45973">
        <ele>2413.1999511719</ele>
        <time>2023-07-16T07:55:52.000Z</time>
      </trkpt>
      <trkpt lat="42.51207" lon="2.45966">
        <ele>2412.1999511719</ele>
        <time>2023-07-16T07:55:59.000Z</time>
      </trkpt>
      <trkpt lat="42.51211" lon="2.45962">
        <ele>2411</ele>
        <time>2023-07-16T07:56:05.000Z</time>
      </trkpt>
      <trkpt lat="42.51211" lon="2.45962">
        <ele>2411</ele>
        <time>2023-07-16T07:56:06.000Z</time>
      </trkpt>
      <trkpt lat="42.5121" lon="2.4596">
        <ele>2410</ele>
        <time>2023-07-16T07:56:12.000Z</time>
      </trkpt>
      <trkpt lat="42.51211" lon="2.4596">
        <ele>2410</ele>
        <time>2023-07-16T07:56:13.000Z</time>
      </trkpt>
      <trkpt lat="42.51211" lon="2.45957">
        <ele>2408.8000488281</ele>
        <time>2023-07-16T07:56:16.000Z</time>
      </trkpt>
      <trkpt lat="42.51212" lon="2.45954">
        <ele>2408.6000976562</ele>
        <time>2023-07-16T07:56:19.000Z</time>
      </trkpt>
      <trkpt lat="42.51213" lon="2.45944">
        <ele>2408.1999511719</ele>
        <time>2023-07-16T07:56:25.000Z</time>
      </trkpt>
      <trkpt lat="42.51213" lon="2.45943">
        <ele>2407.8000488281</ele>
        <time>2023-07-16T07:56:27.000Z</time>
      </trkpt>
      <trkpt lat="42.51212" lon="2.45939">
        <ele>2407.8000488281</ele>
        <time>2023-07-16T07:56:33.000Z</time>
      </trkpt>
      <trkpt lat="42.51213" lon="2.45936">
        <ele>2406.8000488281</ele>
        <time>2023-07-16T07:56:39.000Z</time>
      </trkpt>
      <trkpt lat="42.51215" lon="2.45934">
        <ele>2406.1999511719</ele>
        <time>2023-07-16T07:56:41.000Z</time>
      </trkpt>
      <trkpt lat="42.51218" lon="2.45929">
        <ele>2405.6000976562</ele>
        <time>2023-07-16T07:56:47.000Z</time>
      </trkpt>
      <trkpt lat="42.51223" lon="2.45926">
        <ele>2405.6000976562</ele>
        <time>2023-07-16T07:56:51.000Z</time>
      </trkpt>
      <trkpt lat="42.51232" lon="2.45917">
        <ele>2405.3999023438</ele>
        <time>2023-07-16T07:57:00.000Z</time>
      </trkpt>
      <trkpt lat="42.51236" lon="2.4591">
        <ele>2404.6000976562</ele>
        <time>2023-07-16T07:57:07.000Z</time>
      </trkpt>
      <trkpt lat="42.51236" lon="2.45908">
        <ele>2404.3999023438</ele>
        <time>2023-07-16T07:57:09.000Z</time>
      </trkpt>
      <trkpt lat="42.5124" lon="2.45898">
        <ele>2403.6000976562</ele>
        <time>2023-07-16T07:57:17.000Z</time>
      </trkpt>
      <trkpt lat="42.51242" lon="2.45894">
        <ele>2403.3999023438</ele>
        <time>2023-07-16T07:57:20.000Z</time>
      </trkpt>
      <trkpt lat="42.51243" lon="2.45889">
        <ele>2403.1999511719</ele>
        <time>2023-07-16T07:57:27.000Z</time>
      </trkpt>
      <trkpt lat="42.51245" lon="2.45881">
        <ele>2402.8000488281</ele>
        <time>2023-07-16T07:57:33.000Z</time>
      </trkpt>
      <trkpt lat="42.51246" lon="2.45874">
        <ele>2402.6000976562</ele>
        <time>2023-07-16T07:57:40.000Z</time>
      </trkpt>
      <trkpt lat="42.51246" lon="2.45873">
        <ele>2402.3999023438</ele>
        <time>2023-07-16T07:57:42.000Z</time>
      </trkpt>
      <trkpt lat="42.51245" lon="2.45871">
        <ele>2401.3999023438</ele>
        <time>2023-07-16T07:57:48.000Z</time>
      </trkpt>
      <trkpt lat="42.51243" lon="2.4587">
        <ele>2401.3999023438</ele>
        <time>2023-07-16T07:57:53.000Z</time>
      </trkpt>
      <trkpt lat="42.51242" lon="2.4587">
        <ele>2401.1999511719</ele>
        <time>2023-07-16T07:57:54.000Z</time>
      </trkpt>
      <trkpt lat="42.51239" lon="2.45874">
        <ele>2400.3999023438</ele>
        <time>2023-07-16T07:58:00.000Z</time>
      </trkpt>
      <trkpt lat="42.51236" lon="2.45879">
        <ele>2399.1999511719</ele>
        <time>2023-07-16T07:58:07.000Z</time>
      </trkpt>
      <trkpt lat="42.51236" lon="2.4588">
        <ele>2399</ele>
        <time>2023-07-16T07:58:08.000Z</time>
      </trkpt>
      <trkpt lat="42.51234" lon="2.45881">
        <ele>2398</ele>
        <time>2023-07-16T07:58:11.000Z</time>
      </trkpt>
      <trkpt lat="42.51231" lon="2.45882">
        <ele>2397.6000976562</ele>
        <time>2023-07-16T07:58:15.000Z</time>
      </trkpt>
      <trkpt lat="42.51229" lon="2.45884">
        <ele>2397</ele>
        <time>2023-07-16T07:58:18.000Z</time>
      </trkpt>
      <trkpt lat="42.51226" lon="2.45887">
        <ele>2396</ele>
        <time>2023-07-16T07:58:21.000Z</time>
      </trkpt>
      <trkpt lat="42.51225" lon="2.45888">
        <ele>2395.8000488281</ele>
        <time>2023-07-16T07:58:24.000Z</time>
      </trkpt>
      <trkpt lat="42.51221" lon="2.4589">
        <ele>2395.6000976562</ele>
        <time>2023-07-16T07:58:28.000Z</time>
      </trkpt>
      <trkpt lat="42.5122" lon="2.4589">
        <ele>2394.6000976562</ele>
        <time>2023-07-16T07:58:31.000Z</time>
      </trkpt>
      <trkpt lat="42.51217" lon="2.4589">
        <ele>2394.1999511719</ele>
        <time>2023-07-16T07:58:34.000Z</time>
      </trkpt>
      <trkpt lat="42.51212" lon="2.45893">
        <ele>2393.8000488281</ele>
        <time>2023-07-16T07:58:40.000Z</time>
      </trkpt>
      <trkpt lat="42.51212" lon="2.45893">
        <ele>2393.6000976562</ele>
        <time>2023-07-16T07:58:41.000Z</time>
      </trkpt>
      <trkpt lat="42.51207" lon="2.45895">
        <ele>2393.3999023438</ele>
        <time>2023-07-16T07:58:47.000Z</time>
      </trkpt>
      <trkpt lat="42.51202" lon="2.45896">
        <ele>2392.3999023438</ele>
        <time>2023-07-16T07:58:54.000Z</time>
      </trkpt>
      <trkpt lat="42.51199" lon="2.45893">
        <ele>2391.3999023438</ele>
        <time>2023-07-16T07:59:00.000Z</time>
      </trkpt>
      <trkpt lat="42.51193" lon="2.4589">
        <ele>2391.6000976562</ele>
        <time>2023-07-16T07:59:07.000Z</time>
      </trkpt>
      <trkpt lat="42.51187" lon="2.45889">
        <ele>2390.8000488281</ele>
        <time>2023-07-16T07:59:15.000Z</time>
      </trkpt>
      <trkpt lat="42.51183" lon="2.45887">
        <ele>2390.3999023438</ele>
        <time>2023-07-16T07:59:19.000Z</time>
      </trkpt>
      <trkpt lat="42.51179" lon="2.45884">
        <ele>2389.8000488281</ele>
        <time>2023-07-16T07:59:25.000Z</time>
      </trkpt>
      <trkpt lat="42.51178" lon="2.45883">
        <ele>2389.3999023438</ele>
        <time>2023-07-16T07:59:29.000Z</time>
      </trkpt>
      <trkpt lat="42.51176" lon="2.4588">
        <ele>2388.8000488281</ele>
        <time>2023-07-16T07:59:33.000Z</time>
      </trkpt>
      <trkpt lat="42.51175" lon="2.4588">
        <ele>2388.1999511719</ele>
        <time>2023-07-16T07:59:35.000Z</time>
      </trkpt>
      <trkpt lat="42.51173" lon="2.4588">
        <ele>2388</ele>
        <time>2023-07-16T07:59:39.000Z</time>
      </trkpt>
      <trkpt lat="42.51173" lon="2.45879">
        <ele>2387.1999511719</ele>
        <time>2023-07-16T07:59:43.000Z</time>
      </trkpt>
      <trkpt lat="42.51172" lon="2.45877">
        <ele>2386.3999023438</ele>
        <time>2023-07-16T07:59:46.000Z</time>
      </trkpt>
      <trkpt lat="42.5117" lon="2.45874">
        <ele>2386</ele>
        <time>2023-07-16T07:59:49.000Z</time>
      </trkpt>
      <trkpt lat="42.51167" lon="2.45871">
        <ele>2385.6000976562</ele>
        <time>2023-07-16T07:59:53.000Z</time>
      </trkpt>
      <trkpt lat="42.51163" lon="2.45865">
        <ele>2385.3999023438</ele>
        <time>2023-07-16T08:00:01.000Z</time>
      </trkpt>
      <trkpt lat="42.51161" lon="2.45862">
        <ele>2384.8000488281</ele>
        <time>2023-07-16T08:00:04.000Z</time>
      </trkpt>
      <trkpt lat="42.51159" lon="2.45861">
        <ele>2384.3999023438</ele>
        <time>2023-07-16T08:00:07.000Z</time>
      </trkpt>
      <trkpt lat="42.51153" lon="2.45858">
        <ele>2384.1999511719</ele>
        <time>2023-07-16T08:00:14.000Z</time>
      </trkpt>
      <trkpt lat="42.51149" lon="2.45856">
        <ele>2383.8000488281</ele>
        <time>2023-07-16T08:00:20.000Z</time>
      </trkpt>
      <trkpt lat="42.51143" lon="2.45856">
        <ele>2383</ele>
        <time>2023-07-16T08:00:27.000Z</time>
      </trkpt>
      <trkpt lat="42.51142" lon="2.45856">
        <ele>2382.3999023438</ele>
        <time>2023-07-16T08:00:28.000Z</time>
      </trkpt>
      <trkpt lat="42.51139" lon="2.45856">
        <ele>2381.1999511719</ele>
        <time>2023-07-16T08:00:32.000Z</time>
      </trkpt>
      <trkpt lat="42.51137" lon="2.45856">
        <ele>2381</ele>
        <time>2023-07-16T08:00:34.000Z</time>
      </trkpt>
      <trkpt lat="42.51133" lon="2.45857">
        <ele>2380.1999511719</ele>
        <time>2023-07-16T08:00:40.000Z</time>
      </trkpt>
      <trkpt lat="42.51132" lon="2.45858">
        <ele>2380</ele>
        <time>2023-07-16T08:00:41.000Z</time>
      </trkpt>
      <trkpt lat="42.51128" lon="2.4586">
        <ele>2379.1999511719</ele>
        <time>2023-07-16T08:00:47.000Z</time>
      </trkpt>
      <trkpt lat="42.51126" lon="2.45861">
        <ele>2379</ele>
        <time>2023-07-16T08:00:48.000Z</time>
      </trkpt>
      <trkpt lat="42.51121" lon="2.45865">
        <ele>2378.3999023438</ele>
        <time>2023-07-16T08:00:54.000Z</time>
      </trkpt>
      <trkpt lat="42.51119" lon="2.45871">
        <ele>2378.1999511719</ele>
        <time>2023-07-16T08:00:58.000Z</time>
      </trkpt>
      <trkpt lat="42.51118" lon="2.45878">
        <ele>2377.6000976562</ele>
        <time>2023-07-16T08:01:02.000Z</time>
      </trkpt>
      <trkpt lat="42.51118" lon="2.45883">
        <ele>2377</ele>
        <time>2023-07-16T08:01:05.000Z</time>
      </trkpt>
      <trkpt lat="42.51118" lon="2.45888">
        <ele>2375.6000976562</ele>
        <time>2023-07-16T08:01:09.000Z</time>
      </trkpt>
      <trkpt lat="42.51118" lon="2.4589">
        <ele>2374.8000488281</ele>
        <time>2023-07-16T08:01:12.000Z</time>
      </trkpt>
      <trkpt lat="42.51117" lon="2.45894">
        <ele>2374.6000976562</ele>
        <time>2023-07-16T08:01:14.000Z</time>
      </trkpt>
      <trkpt lat="42.51117" lon="2.45899">
        <ele>2373.6000976562</ele>
        <time>2023-07-16T08:01:18.000Z</time>
      </trkpt>
      <trkpt lat="42.51116" lon="2.459">
        <ele>2373.6000976562</ele>
        <time>2023-07-16T08:01:19.000Z</time>
      </trkpt>
      <trkpt lat="42.51114" lon="2.45903">
        <ele>2372.6000976562</ele>
        <time>2023-07-16T08:01:26.000Z</time>
      </trkpt>
      <trkpt lat="42.51111" lon="2.45903">
        <ele>2372.6000976562</ele>
        <time>2023-07-16T08:01:29.000Z</time>
      </trkpt>
      <trkpt lat="42.51107" lon="2.45906">
        <ele>2373</ele>
        <time>2023-07-16T08:01:33.000Z</time>
      </trkpt>
      <trkpt lat="42.51107" lon="2.45907">
        <ele>2373.1999511719</ele>
        <time>2023-07-16T08:01:34.000Z</time>
      </trkpt>
      <trkpt lat="42.51105" lon="2.45908">
        <ele>2373.3999023438</ele>
        <time>2023-07-16T08:01:41.000Z</time>
      </trkpt>
      <trkpt lat="42.51101" lon="2.45912">
        <ele>2373.3999023438</ele>
        <time>2023-07-16T08:01:50.000Z</time>
      </trkpt>
      <trkpt lat="42.51098" lon="2.45914">
        <ele>2372.6000976562</ele>
        <time>2023-07-16T08:01:54.000Z</time>
      </trkpt>
      <trkpt lat="42.51095" lon="2.45913">
        <ele>2371.3999023438</ele>
        <time>2023-07-16T08:01:58.000Z</time>
      </trkpt>
      <trkpt lat="42.51095" lon="2.45912">
        <ele>2371.3999023438</ele>
        <time>2023-07-16T08:01:59.000Z</time>
      </trkpt>
      <trkpt lat="42.5109" lon="2.45905">
        <ele>2371.1999511719</ele>
        <time>2023-07-16T08:02:07.000Z</time>
      </trkpt>
      <trkpt lat="42.51083" lon="2.45899">
        <ele>2370.3999023438</ele>
        <time>2023-07-16T08:02:16.000Z</time>
      </trkpt>
      <trkpt lat="42.51082" lon="2.45899">
        <ele>2370.3999023438</ele>
        <time>2023-07-16T08:02:17.000Z</time>
      </trkpt>
      <trkpt lat="42.51076" lon="2.45893">
        <ele>2370</ele>
        <time>2023-07-16T08:02:25.000Z</time>
      </trkpt>
      <trkpt lat="42.51071" lon="2.45898">
        <ele>2369.3999023438</ele>
        <time>2023-07-16T08:02:32.000Z</time>
      </trkpt>
      <trkpt lat="42.5107" lon="2.45899">
        <ele>2369.1999511719</ele>
        <time>2023-07-16T08:02:33.000Z</time>
      </trkpt>
      <trkpt lat="42.51066" lon="2.459">
        <ele>2368.8000488281</ele>
        <time>2023-07-16T08:02:38.000Z</time>
      </trkpt>
      <trkpt lat="42.5106" lon="2.45899">
        <ele>2368.8000488281</ele>
        <time>2023-07-16T08:02:43.000Z</time>
      </trkpt>
      <trkpt lat="42.51053" lon="2.45897">
        <ele>2368.1999511719</ele>
        <time>2023-07-16T08:02:49.000Z</time>
      </trkpt>
      <trkpt lat="42.5105" lon="2.45896">
        <ele>2367.8000488281</ele>
        <time>2023-07-16T08:02:51.000Z</time>
      </trkpt>
      <trkpt lat="42.51045" lon="2.45896">
        <ele>2366.8000488281</ele>
        <time>2023-07-16T08:02:57.000Z</time>
      </trkpt>
      <trkpt lat="42.5104" lon="2.45895">
        <ele>2365.8000488281</ele>
        <time>2023-07-16T08:03:04.000Z</time>
      </trkpt>
      <trkpt lat="42.51042" lon="2.45895">
        <ele>2365.6000976562</ele>
        <time>2023-07-16T08:03:08.000Z</time>
      </trkpt>
      <trkpt lat="42.51041" lon="2.45897">
        <ele>2365.8000488281</ele>
        <time>2023-07-16T08:03:11.000Z</time>
      </trkpt>
      <trkpt lat="42.51041" lon="2.45896">
        <ele>2365.8000488281</ele>
        <time>2023-07-16T08:03:12.000Z</time>
      </trkpt>
      <trkpt lat="42.51042" lon="2.45895">
        <ele>2365.8000488281</ele>
        <time>2023-07-16T08:03:13.000Z</time>
      </trkpt>
      <trkpt lat="42.51041" lon="2.45896">
        <ele>2365.6000976562</ele>
        <time>2023-07-16T08:03:17.000Z</time>
      </trkpt>
      <trkpt lat="42.5104" lon="2.45899">
        <ele>2365.3999023438</ele>
        <time>2023-07-16T08:03:24.000Z</time>
      </trkpt>
      <trkpt lat="42.5104" lon="2.45899">
        <ele>2366.1999511719</ele>
        <time>2023-07-16T08:03:32.000Z</time>
      </trkpt>
      <trkpt lat="42.51041" lon="2.45896">
        <ele>2365.6000976562</ele>
        <time>2023-07-16T08:03:40.000Z</time>
      </trkpt>
      <trkpt lat="42.5104" lon="2.45895">
        <ele>2365.8000488281</ele>
        <time>2023-07-16T08:03:48.000Z</time>
      </trkpt>
      <trkpt lat="42.5104" lon="2.45896">
        <ele>2366.3999023438</ele>
        <time>2023-07-16T08:03:56.000Z</time>
      </trkpt>
      <trkpt lat="42.5104" lon="2.45894">
        <ele>2366.3999023438</ele>
        <time>2023-07-16T08:04:04.000Z</time>
      </trkpt>
      <trkpt lat="42.51037" lon="2.45895">
        <ele>2366.8000488281</ele>
        <time>2023-07-16T08:04:13.000Z</time>
      </trkpt>
      <trkpt lat="42.5103" lon="2.45894">
        <ele>2365</ele>
        <time>2023-07-16T08:04:19.000Z</time>
      </trkpt>
      <trkpt lat="42.51026" lon="2.4589">
        <ele>2365.8000488281</ele>
        <time>2023-07-16T08:04:26.000Z</time>
      </trkpt>
      <trkpt lat="42.51019" lon="2.45882">
        <ele>2365.1999511719</ele>
        <time>2023-07-16T08:04:34.000Z</time>
      </trkpt>
      <trkpt lat="42.51013" lon="2.45877">
        <ele>2364.8000488281</ele>
        <time>2023-07-16T08:04:38.000Z</time>
      </trkpt>
      <trkpt lat="42.51011" lon="2.45876">
        <ele>2364.6000976562</ele>
        <time>2023-07-16T08:04:40.000Z</time>
      </trkpt>
      <trkpt lat="42.51004" lon="2.45871">
        <ele>2363.3999023438</ele>
        <time>2023-07-16T08:04:48.000Z</time>
      </trkpt>
      <trkpt lat="42.51001" lon="2.45869">
        <ele>2362.1999511719</ele>
        <time>2023-07-16T08:04:53.000Z</time>
      </trkpt>
      <trkpt lat="42.50998" lon="2.45864">
        <ele>2362</ele>
        <time>2023-07-16T08:04:56.000Z</time>
      </trkpt>
      <trkpt lat="42.50996" lon="2.45862">
        <ele>2360.8000488281</ele>
        <time>2023-07-16T08:04:59.000Z</time>
      </trkpt>
      <trkpt lat="42.50993" lon="2.45859">
        <ele>2360.3999023438</ele>
        <time>2023-07-16T08:05:03.000Z</time>
      </trkpt>
      <trkpt lat="42.5099" lon="2.45852">
        <ele>2359.8000488281</ele>
        <time>2023-07-16T08:05:09.000Z</time>
      </trkpt>
      <trkpt lat="42.50989" lon="2.45851">
        <ele>2358.6000976562</ele>
        <time>2023-07-16T08:05:10.000Z</time>
      </trkpt>
      <trkpt lat="42.50989" lon="2.4585">
        <ele>2358.1999511719</ele>
        <time>2023-07-16T08:05:11.000Z</time>
      </trkpt>
      <trkpt lat="42.50984" lon="2.45843">
        <ele>2357.3999023438</ele>
        <time>2023-07-16T08:05:17.000Z</time>
      </trkpt>
      <trkpt lat="42.50982" lon="2.4584">
        <ele>2356.8000488281</ele>
        <time>2023-07-16T08:05:23.000Z</time>
      </trkpt>
      <trkpt lat="42.50982" lon="2.4584">
        <ele>2356.1999511719</ele>
        <time>2023-07-16T08:05:25.000Z</time>
      </trkpt>
      <trkpt lat="42.5098" lon="2.45836">
        <ele>2355</ele>
        <time>2023-07-16T08:05:29.000Z</time>
      </trkpt>
      <trkpt lat="42.50978" lon="2.45831">
        <ele>2353.8000488281</ele>
        <time>2023-07-16T08:05:34.000Z</time>
      </trkpt>
      <trkpt lat="42.50976" lon="2.45829">
        <ele>2353.8000488281</ele>
        <time>2023-07-16T08:05:35.000Z</time>
      </trkpt>
      <trkpt lat="42.50969" lon="2.45821">
        <ele>2353.1999511719</ele>
        <time>2023-07-16T08:05:42.000Z</time>
      </trkpt>
      <trkpt lat="42.50961" lon="2.45823">
        <ele>2354</ele>
        <time>2023-07-16T08:05:48.000Z</time>
      </trkpt>
      <trkpt lat="42.50956" lon="2.45828">
        <ele>2353</ele>
        <time>2023-07-16T08:05:55.000Z</time>
      </trkpt>
      <trkpt lat="42.50955" lon="2.45827">
        <ele>2352.8000488281</ele>
        <time>2023-07-16T08:05:57.000Z</time>
      </trkpt>
      <trkpt lat="42.50952" lon="2.45827">
        <ele>2352.6000976562</ele>
        <time>2023-07-16T08:06:01.000Z</time>
      </trkpt>
      <trkpt lat="42.50944" lon="2.4583">
        <ele>2352.3999023438</ele>
        <time>2023-07-16T08:06:08.000Z</time>
      </trkpt>
      <trkpt lat="42.50941" lon="2.45829">
        <ele>2352.6000976562</ele>
        <time>2023-07-16T08:06:16.000Z</time>
      </trkpt>
      <trkpt lat="42.50941" lon="2.45829">
        <ele>2352.8000488281</ele>
        <time>2023-07-16T08:06:17.000Z</time>
      </trkpt>
      <trkpt lat="42.50943" lon="2.45829">
        <ele>2352.6000976562</ele>
        <time>2023-07-16T08:06:20.000Z</time>
      </trkpt>
      <trkpt lat="42.50943" lon="2.45829">
        <ele>2352.3999023438</ele>
        <time>2023-07-16T08:06:23.000Z</time>
      </trkpt>
      <trkpt lat="42.50943" lon="2.4583">
        <ele>2352.1999511719</ele>
        <time>2023-07-16T08:06:30.000Z</time>
      </trkpt>
      <trkpt lat="42.50943" lon="2.4583">
        <ele>2352</ele>
        <time>2023-07-16T08:06:38.000Z</time>
      </trkpt>
      <trkpt lat="42.50942" lon="2.45831">
        <ele>2351.8000488281</ele>
        <time>2023-07-16T08:06:40.000Z</time>
      </trkpt>
      <trkpt lat="42.50943" lon="2.45832">
        <ele>2350.8000488281</ele>
        <time>2023-07-16T08:06:46.000Z</time>
      </trkpt>
      <trkpt lat="42.50943" lon="2.45831">
        <ele>2350.6000976562</ele>
        <time>2023-07-16T08:06:47.000Z</time>
      </trkpt>
      <trkpt lat="42.50941" lon="2.45834">
        <ele>2350.6000976562</ele>
        <time>2023-07-16T08:06:55.000Z</time>
      </trkpt>
      <trkpt lat="42.50939" lon="2.45834">
        <ele>2351.1999511719</ele>
        <time>2023-07-16T08:07:01.000Z</time>
      </trkpt>
      <trkpt lat="42.50941" lon="2.4583">
        <ele>2350.8000488281</ele>
        <time>2023-07-16T08:07:09.000Z</time>
      </trkpt>
      <trkpt lat="42.50941" lon="2.45829">
        <ele>2350.3999023438</ele>
        <time>2023-07-16T08:07:16.000Z</time>
      </trkpt>
      <trkpt lat="42.50942" lon="2.4583">
        <ele>2350.3999023438</ele>
        <time>2023-07-16T08:07:24.000Z</time>
      </trkpt>
      <trkpt lat="42.50944" lon="2.45834">
        <ele>2350.3999023438</ele>
        <time>2023-07-16T08:07:33.000Z</time>
      </trkpt>
      <trkpt lat="42.50941" lon="2.45836">
        <ele>2350.1999511719</ele>
        <time>2023-07-16T08:07:40.000Z</time>
      </trkpt>
      <trkpt lat="42.50941" lon="2.45833">
        <ele>2349.8000488281</ele>
        <time>2023-07-16T08:07:47.000Z</time>
      </trkpt>
      <trkpt lat="42.50942" lon="2.45831">
        <ele>2349.6000976562</ele>
        <time>2023-07-16T08:07:56.000Z</time>
      </trkpt>
      <trkpt lat="42.5094" lon="2.45824">
        <ele>2349.6000976562</ele>
        <time>2023-07-16T08:08:02.000Z</time>
      </trkpt>
      <trkpt lat="42.5094" lon="2.45816">
        <ele>2349</ele>
        <time>2023-07-16T08:08:09.000Z</time>
      </trkpt>
      <trkpt lat="42.50939" lon="2.45812">
        <ele>2348.3999023438</ele>
        <time>2023-07-16T08:08:11.000Z</time>
      </trkpt>
      <trkpt lat="42.50937" lon="2.45806">
        <ele>2347</ele>
        <time>2023-07-16T08:08:14.000Z</time>
      </trkpt>
      <trkpt lat="42.50934" lon="2.45804">
        <ele>2347</ele>
        <time>2023-07-16T08:08:17.000Z</time>
      </trkpt>
      <trkpt lat="42.50929" lon="2.45801">
        <ele>2346.1999511719</ele>
        <time>2023-07-16T08:08:25.000Z</time>
      </trkpt>
      <trkpt lat="42.50929" lon="2.45799">
        <ele>2346</ele>
        <time>2023-07-16T08:08:26.000Z</time>
      </trkpt>
      <trkpt lat="42.50926" lon="2.45787">
        <ele>2345.1999511719</ele>
        <time>2023-07-16T08:08:33.000Z</time>
      </trkpt>
      <trkpt lat="42.50925" lon="2.45785">
        <ele>2345</ele>
        <time>2023-07-16T08:08:34.000Z</time>
      </trkpt>
      <trkpt lat="42.50922" lon="2.45784">
        <ele>2346</ele>
        <time>2023-07-16T08:08:38.000Z</time>
      </trkpt>
      <trkpt lat="42.50921" lon="2.45785">
        <ele>2346.3999023438</ele>
        <time>2023-07-16T08:08:39.000Z</time>
      </trkpt>
      <trkpt lat="42.5092" lon="2.45785">
        <ele>2347</ele>
        <time>2023-07-16T08:08:40.000Z</time>
      </trkpt>
      <trkpt lat="42.50913" lon="2.45789">
        <ele>2346.1999511719</ele>
        <time>2023-07-16T08:08:47.000Z</time>
      </trkpt>
      <trkpt lat="42.50911" lon="2.45792">
        <ele>2345.8000488281</ele>
        <time>2023-07-16T08:08:49.000Z</time>
      </trkpt>
      <trkpt lat="42.50905" lon="2.45802">
        <ele>2344.8000488281</ele>
        <time>2023-07-16T08:08:54.000Z</time>
      </trkpt>
      <trkpt lat="42.50905" lon="2.45801">
        <ele>2343.1999511719</ele>
        <time>2023-07-16T08:08:57.000Z</time>
      </trkpt>
      <trkpt lat="42.50905" lon="2.458">
        <ele>2342</ele>
        <time>2023-07-16T08:08:58.000Z</time>
      </trkpt>
      <trkpt lat="42.50905" lon="2.45798">
        <ele>2341</ele>
        <time>2023-07-16T08:08:59.000Z</time>
      </trkpt>
      <trkpt lat="42.50906" lon="2.45789">
        <ele>2340.3999023438</ele>
        <time>2023-07-16T08:09:04.000Z</time>
      </trkpt>
      <trkpt lat="42.50906" lon="2.45788">
        <ele>2339.8000488281</ele>
        <time>2023-07-16T08:09:05.000Z</time>
      </trkpt>
      <trkpt lat="42.50907" lon="2.45782">
        <ele>2339.8000488281</ele>
        <time>2023-07-16T08:09:11.000Z</time>
      </trkpt>
      <trkpt lat="42.50908" lon="2.45776">
        <ele>2338.1999511719</ele>
        <time>2023-07-16T08:09:15.000Z</time>
      </trkpt>
      <trkpt lat="42.50908" lon="2.45771">
        <ele>2337.8000488281</ele>
        <time>2023-07-16T08:09:18.000Z</time>
      </trkpt>
      <trkpt lat="42.50904" lon="2.45763">
        <ele>2336.8000488281</ele>
        <time>2023-07-16T08:09:24.000Z</time>
      </trkpt>
      <trkpt lat="42.50904" lon="2.45762">
        <ele>2336.3999023438</ele>
        <time>2023-07-16T08:09:25.000Z</time>
      </trkpt>
      <trkpt lat="42.50903" lon="2.4576">
        <ele>2335.3999023438</ele>
        <time>2023-07-16T08:09:27.000Z</time>
      </trkpt>
      <trkpt lat="42.50902" lon="2.45756">
        <ele>2334.1999511719</ele>
        <time>2023-07-16T08:09:31.000Z</time>
      </trkpt>
      <trkpt lat="42.50901" lon="2.45755">
        <ele>2333.1999511719</ele>
        <time>2023-07-16T08:09:32.000Z</time>
      </trkpt>
      <trkpt lat="42.50901" lon="2.45754">
        <ele>2333</ele>
        <time>2023-07-16T08:09:33.000Z</time>
      </trkpt>
      <trkpt lat="42.50897" lon="2.45746">
        <ele>2332</ele>
        <time>2023-07-16T08:09:41.000Z</time>
      </trkpt>
      <trkpt lat="42.50896" lon="2.45745">
        <ele>2331.6000976562</ele>
        <time>2023-07-16T08:09:43.000Z</time>
      </trkpt>
      <trkpt lat="42.50893" lon="2.45741">
        <ele>2331</ele>
        <time>2023-07-16T08:09:47.000Z</time>
      </trkpt>
      <trkpt lat="42.50891" lon="2.45737">
        <ele>2330</ele>
        <time>2023-07-16T08:09:50.000Z</time>
      </trkpt>
      <trkpt lat="42.5089" lon="2.45736">
        <ele>2329.8000488281</ele>
        <time>2023-07-16T08:09:51.000Z</time>
      </trkpt>
      <trkpt lat="42.50887" lon="2.45731">
        <ele>2328.3999023438</ele>
        <time>2023-07-16T08:09:55.000Z</time>
      </trkpt>
      <trkpt lat="42.50885" lon="2.4573">
        <ele>2327.6000976562</ele>
        <time>2023-07-16T08:09:58.000Z</time>
      </trkpt>
      <trkpt lat="42.50884" lon="2.45728">
        <ele>2327.3999023438</ele>
        <time>2023-07-16T08:10:00.000Z</time>
      </trkpt>
      <trkpt lat="42.50881" lon="2.45725">
        <ele>2326.1999511719</ele>
        <time>2023-07-16T08:10:04.000Z</time>
      </trkpt>
      <trkpt lat="42.5088" lon="2.45723">
        <ele>2325.3999023438</ele>
        <time>2023-07-16T08:10:07.000Z</time>
      </trkpt>
      <trkpt lat="42.50879" lon="2.4572">
        <ele>2325.1999511719</ele>
        <time>2023-07-16T08:10:11.000Z</time>
      </trkpt>
      <trkpt lat="42.50877" lon="2.45716">
        <ele>2324.1999511719</ele>
        <time>2023-07-16T08:10:15.000Z</time>
      </trkpt>
      <trkpt lat="42.50872" lon="2.4571">
        <ele>2323</ele>
        <time>2023-07-16T08:10:22.000Z</time>
      </trkpt>
      <trkpt lat="42.50867" lon="2.45706">
        <ele>2322</ele>
        <time>2023-07-16T08:10:27.000Z</time>
      </trkpt>
      <trkpt lat="42.50861" lon="2.45701">
        <ele>2321.1999511719</ele>
        <time>2023-07-16T08:10:33.000Z</time>
      </trkpt>
      <trkpt lat="42.5086" lon="2.45701">
        <ele>2320.8000488281</ele>
        <time>2023-07-16T08:10:34.000Z</time>
      </trkpt>
      <trkpt lat="42.50854" lon="2.45698">
        <ele>2319.6000976562</ele>
        <time>2023-07-16T08:10:39.000Z</time>
      </trkpt>
      <trkpt lat="42.50853" lon="2.45697">
        <ele>2319.6000976562</ele>
        <time>2023-07-16T08:10:41.000Z</time>
      </trkpt>
      <trkpt lat="42.50845" lon="2.4569">
        <ele>2319.3999023438</ele>
        <time>2023-07-16T08:10:48.000Z</time>
      </trkpt>
      <trkpt lat="42.50839" lon="2.45679">
        <ele>2318.8000488281</ele>
        <time>2023-07-16T08:10:56.000Z</time>
      </trkpt>
      <trkpt lat="42.50836" lon="2.45669">
        <ele>2319</ele>
        <time>2023-07-16T08:11:03.000Z</time>
      </trkpt>
      <trkpt lat="42.5083" lon="2.45662">
        <ele>2318.6000976562</ele>
        <time>2023-07-16T08:11:09.000Z</time>
      </trkpt>
      <trkpt lat="42.50826" lon="2.4566">
        <ele>2318.3999023438</ele>
        <time>2023-07-16T08:11:12.000Z</time>
      </trkpt>
      <trkpt lat="42.50822" lon="2.45657">
        <ele>2317.6000976562</ele>
        <time>2023-07-16T08:11:18.000Z</time>
      </trkpt>
      <trkpt lat="42.5082" lon="2.45655">
        <ele>2317.6000976562</ele>
        <time>2023-07-16T08:11:19.000Z</time>
      </trkpt>
      <trkpt lat="42.50817" lon="2.45653">
        <ele>2316.3999023438</ele>
        <time>2023-07-16T08:11:22.000Z</time>
      </trkpt>
      <trkpt lat="42.50815" lon="2.45652">
        <ele>2316</ele>
        <time>2023-07-16T08:11:24.000Z</time>
      </trkpt>
      <trkpt lat="42.50811" lon="2.45649">
        <ele>2315.1999511719</ele>
        <time>2023-07-16T08:11:27.000Z</time>
      </trkpt>
      <trkpt lat="42.50805" lon="2.45648">
        <ele>2315</ele>
        <time>2023-07-16T08:11:32.000Z</time>
      </trkpt>
      <trkpt lat="42.50799" lon="2.45646">
        <ele>2314.3999023438</ele>
        <time>2023-07-16T08:11:37.000Z</time>
      </trkpt>
      <trkpt lat="42.50796" lon="2.45646">
        <ele>2314</ele>
        <time>2023-07-16T08:11:41.000Z</time>
      </trkpt>
      <trkpt lat="42.50795" lon="2.45646">
        <ele>2314</ele>
        <time>2023-07-16T08:11:42.000Z</time>
      </trkpt>
      <trkpt lat="42.50784" lon="2.45648">
        <ele>2313.3999023438</ele>
        <time>2023-07-16T08:11:50.000Z</time>
      </trkpt>
      <trkpt lat="42.50783" lon="2.45649">
        <ele>2313</ele>
        <time>2023-07-16T08:11:51.000Z</time>
      </trkpt>
      <trkpt lat="42.50776" lon="2.45655">
        <ele>2312.3999023438</ele>
        <time>2023-07-16T08:11:58.000Z</time>
      </trkpt>
      <trkpt lat="42.50769" lon="2.45665">
        <ele>2311.8000488281</ele>
        <time>2023-07-16T08:12:04.000Z</time>
      </trkpt>
      <trkpt lat="42.50767" lon="2.45668">
        <ele>2310.8000488281</ele>
        <time>2023-07-16T08:12:07.000Z</time>
      </trkpt>
      <trkpt lat="42.50767" lon="2.45669">
        <ele>2310.8000488281</ele>
        <time>2023-07-16T08:12:08.000Z</time>
      </trkpt>
      <trkpt lat="42.50761" lon="2.45677">
        <ele>2310.8000488281</ele>
        <time>2023-07-16T08:12:14.000Z</time>
      </trkpt>
      <trkpt lat="42.50757" lon="2.45687">
        <ele>2310.3999023438</ele>
        <time>2023-07-16T08:12:21.000Z</time>
      </trkpt>
      <trkpt lat="42.50754" lon="2.4569">
        <ele>2310</ele>
        <time>2023-07-16T08:12:28.000Z</time>
      </trkpt>
      <trkpt lat="42.50754" lon="2.4569">
        <ele>2309.8000488281</ele>
        <time>2023-07-16T08:12:29.000Z</time>
      </trkpt>
      <trkpt lat="42.50754" lon="2.4569">
        <ele>2309.8000488281</ele>
        <time>2023-07-16T08:12:30.000Z</time>
      </trkpt>
      <trkpt lat="42.50755" lon="2.45689">
        <ele>2309.6000976562</ele>
        <time>2023-07-16T08:12:34.000Z</time>
      </trkpt>
      <trkpt lat="42.50755" lon="2.45691">
        <ele>2309.8000488281</ele>
        <time>2023-07-16T08:12:38.000Z</time>
      </trkpt>
      <trkpt lat="42.50755" lon="2.45692">
        <ele>2309.8000488281</ele>
        <time>2023-07-16T08:12:41.000Z</time>
      </trkpt>
      <trkpt lat="42.50756" lon="2.45693">
        <ele>2309.8000488281</ele>
        <time>2023-07-16T08:12:43.000Z</time>
      </trkpt>
      <trkpt lat="42.50756" lon="2.4569">
        <ele>2309.1999511719</ele>
        <time>2023-07-16T08:12:47.000Z</time>
      </trkpt>
      <trkpt lat="42.50755" lon="2.45684">
        <ele>2308.8000488281</ele>
        <time>2023-07-16T08:12:52.000Z</time>
      </trkpt>
      <trkpt lat="42.50754" lon="2.45679">
        <ele>2308.1999511719</ele>
        <time>2023-07-16T08:12:56.000Z</time>
      </trkpt>
      <trkpt lat="42.50754" lon="2.45675">
        <ele>2307.3999023438</ele>
        <time>2023-07-16T08:12:59.000Z</time>
      </trkpt>
      <trkpt lat="42.50754" lon="2.45671">
        <ele>2306.6000976562</ele>
        <time>2023-07-16T08:13:02.000Z</time>
      </trkpt>
      <trkpt lat="42.50754" lon="2.45669">
        <ele>2306.3999023438</ele>
        <time>2023-07-16T08:13:03.000Z</time>
      </trkpt>
      <trkpt lat="42.50753" lon="2.45658">
        <ele>2306.1999511719</ele>
        <time>2023-07-16T08:13:11.000Z</time>
      </trkpt>
      <trkpt lat="42.50753" lon="2.4565">
        <ele>2305.6000976562</ele>
        <time>2023-07-16T08:13:17.000Z</time>
      </trkpt>
      <trkpt lat="42.50753" lon="2.45648">
        <ele>2305.3999023438</ele>
        <time>2023-07-16T08:13:18.000Z</time>
      </trkpt>
      <trkpt lat="42.50754" lon="2.45638">
        <ele>2304.1999511719</ele>
        <time>2023-07-16T08:13:25.000Z</time>
      </trkpt>
      <trkpt lat="42.50752" lon="2.4563">
        <ele>2303.3999023438</ele>
        <time>2023-07-16T08:13:32.000Z</time>
      </trkpt>
      <trkpt lat="42.50752" lon="2.45627">
        <ele>2303.1999511719</ele>
        <time>2023-07-16T08:13:35.000Z</time>
      </trkpt>
      <trkpt lat="42.50752" lon="2.45622">
        <ele>2302</ele>
        <time>2023-07-16T08:13:39.000Z</time>
      </trkpt>
      <trkpt lat="42.50751" lon="2.45611">
        <ele>2301.1999511719</ele>
        <time>2023-07-16T08:13:46.000Z</time>
      </trkpt>
      <trkpt lat="42.5075" lon="2.45607">
        <ele>2301</ele>
        <time>2023-07-16T08:13:49.000Z</time>
      </trkpt>
      <trkpt lat="42.50749" lon="2.45599">
        <ele>2300</ele>
        <time>2023-07-16T08:13:54.000Z</time>
      </trkpt>
      <trkpt lat="42.50747" lon="2.45592">
        <ele>2298.8000488281</ele>
        <time>2023-07-16T08:14:01.000Z</time>
      </trkpt>
      <trkpt lat="42.50747" lon="2.45588">
        <ele>2298.3999023438</ele>
        <time>2023-07-16T08:14:04.000Z</time>
      </trkpt>
      <trkpt lat="42.50747" lon="2.45585">
        <ele>2297.6000976562</ele>
        <time>2023-07-16T08:14:07.000Z</time>
      </trkpt>
      <trkpt lat="42.50747" lon="2.45582">
        <ele>2297.3999023438</ele>
        <time>2023-07-16T08:14:09.000Z</time>
      </trkpt>
      <trkpt lat="42.50745" lon="2.45574">
        <ele>2296.1999511719</ele>
        <time>2023-07-16T08:14:14.000Z</time>
      </trkpt>
      <trkpt lat="42.50744" lon="2.4557">
        <ele>2295.8000488281</ele>
        <time>2023-07-16T08:14:17.000Z</time>
      </trkpt>
      <trkpt lat="42.5074" lon="2.45566">
        <ele>2295.1999511719</ele>
        <time>2023-07-16T08:14:23.000Z</time>
      </trkpt>
      <trkpt lat="42.50739" lon="2.45564">
        <ele>2295.1999511719</ele>
        <time>2023-07-16T08:14:24.000Z</time>
      </trkpt>
      <trkpt lat="42.50736" lon="2.45554">
        <ele>2294.6000976562</ele>
        <time>2023-07-16T08:14:30.000Z</time>
      </trkpt>
      <trkpt lat="42.50736" lon="2.45548">
        <ele>2294.1999511719</ele>
        <time>2023-07-16T08:14:34.000Z</time>
      </trkpt>
      <trkpt lat="42.50737" lon="2.45545">
        <ele>2294</ele>
        <time>2023-07-16T08:14:36.000Z</time>
      </trkpt>
      <trkpt lat="42.50739" lon="2.45538">
        <ele>2293</ele>
        <time>2023-07-16T08:14:41.000Z</time>
      </trkpt>
      <trkpt lat="42.5074" lon="2.45537">
        <ele>2292.8000488281</ele>
        <time>2023-07-16T08:14:42.000Z</time>
      </trkpt>
      <trkpt lat="42.50744" lon="2.45529">
        <ele>2291.8000488281</ele>
        <time>2023-07-16T08:14:48.000Z</time>
      </trkpt>
      <trkpt lat="42.50746" lon="2.45525">
        <ele>2291</ele>
        <time>2023-07-16T08:14:51.000Z</time>
      </trkpt>
      <trkpt lat="42.50751" lon="2.45521">
        <ele>2290.8000488281</ele>
        <time>2023-07-16T08:14:55.000Z</time>
      </trkpt>
      <trkpt lat="42.50753" lon="2.45519">
        <ele>2291.1999511719</ele>
        <time>2023-07-16T08:14:58.000Z</time>
      </trkpt>
      <trkpt lat="42.5076" lon="2.45513">
        <ele>2291.1999511719</ele>
        <time>2023-07-16T08:15:06.000Z</time>
      </trkpt>
      <trkpt lat="42.50763" lon="2.45508">
        <ele>2289</ele>
        <time>2023-07-16T08:15:10.000Z</time>
      </trkpt>
      <trkpt lat="42.50765" lon="2.45506">
        <ele>2287.8000488281</ele>
        <time>2023-07-16T08:15:12.000Z</time>
      </trkpt>
      <trkpt lat="42.50765" lon="2.45505">
        <ele>2287.1999511719</ele>
        <time>2023-07-16T08:15:13.000Z</time>
      </trkpt>
      <trkpt lat="42.50768" lon="2.45497">
        <ele>2286.8000488281</ele>
        <time>2023-07-16T08:15:20.000Z</time>
      </trkpt>
      <trkpt lat="42.50769" lon="2.45494">
        <ele>2286.6000976562</ele>
        <time>2023-07-16T08:15:22.000Z</time>
      </trkpt>
      <trkpt lat="42.50769" lon="2.45487">
        <ele>2285.6000976562</ele>
        <time>2023-07-16T08:15:28.000Z</time>
      </trkpt>
      <trkpt lat="42.5077" lon="2.45485">
        <ele>2285.6000976562</ele>
        <time>2023-07-16T08:15:29.000Z</time>
      </trkpt>
      <trkpt lat="42.50772" lon="2.45473">
        <ele>2285.1999511719</ele>
        <time>2023-07-16T08:15:37.000Z</time>
      </trkpt>
      <trkpt lat="42.50772" lon="2.45469">
        <ele>2284.6000976562</ele>
        <time>2023-07-16T08:15:40.000Z</time>
      </trkpt>
      <trkpt lat="42.50774" lon="2.45463">
        <ele>2284.6000976562</ele>
        <time>2023-07-16T08:15:44.000Z</time>
      </trkpt>
      <trkpt lat="42.50777" lon="2.45454">
        <ele>2284.8000488281</ele>
        <time>2023-07-16T08:15:52.000Z</time>
      </trkpt>
      <trkpt lat="42.50781" lon="2.45449">
        <ele>2284.6000976562</ele>
        <time>2023-07-16T08:15:58.000Z</time>
      </trkpt>
      <trkpt lat="42.50785" lon="2.45441">
        <ele>2284.3999023438</ele>
        <time>2023-07-16T08:16:04.000Z</time>
      </trkpt>
      <trkpt lat="42.50788" lon="2.45429">
        <ele>2283.8000488281</ele>
        <time>2023-07-16T08:16:12.000Z</time>
      </trkpt>
      <trkpt lat="42.50789" lon="2.45426">
        <ele>2283.3999023438</ele>
        <time>2023-07-16T08:16:14.000Z</time>
      </trkpt>
      <trkpt lat="42.5079" lon="2.45421">
        <ele>2282.6000976562</ele>
        <time>2023-07-16T08:16:20.000Z</time>
      </trkpt>
      <trkpt lat="42.50791" lon="2.45419">
        <ele>2282.3999023438</ele>
        <time>2023-07-16T08:16:21.000Z</time>
      </trkpt>
      <trkpt lat="42.50794" lon="2.45413">
        <ele>2282</ele>
        <time>2023-07-16T08:16:28.000Z</time>
      </trkpt>
      <trkpt lat="42.50798" lon="2.45405">
        <ele>2281.1999511719</ele>
        <time>2023-07-16T08:16:35.000Z</time>
      </trkpt>
      <trkpt lat="42.50798" lon="2.45404">
        <ele>2281</ele>
        <time>2023-07-16T08:16:36.000Z</time>
      </trkpt>
      <trkpt lat="42.508" lon="2.45399">
        <ele>2280</ele>
        <time>2023-07-16T08:16:42.000Z</time>
      </trkpt>
      <trkpt lat="42.50805" lon="2.45393">
        <ele>2280.1999511719</ele>
        <time>2023-07-16T08:16:50.000Z</time>
      </trkpt>
      <trkpt lat="42.50809" lon="2.45394">
        <ele>2279.1999511719</ele>
        <time>2023-07-16T08:16:58.000Z</time>
      </trkpt>
      <trkpt lat="42.50812" lon="2.45397">
        <ele>2279</ele>
        <time>2023-07-16T08:17:00.000Z</time>
      </trkpt>
      <trkpt lat="42.50816" lon="2.45399">
        <ele>2278.8000488281</ele>
        <time>2023-07-16T08:17:04.000Z</time>
      </trkpt>
      <trkpt lat="42.50824" lon="2.45403">
        <ele>2279</ele>
        <time>2023-07-16T08:17:12.000Z</time>
      </trkpt>
      <trkpt lat="42.50831" lon="2.45403">
        <ele>2279</ele>
        <time>2023-07-16T08:17:18.000Z</time>
      </trkpt>
      <trkpt lat="42.50834" lon="2.45402">
        <ele>2279.6000976562</ele>
        <time>2023-07-16T08:17:26.000Z</time>
      </trkpt>
      <trkpt lat="42.50834" lon="2.454">
        <ele>2278.3999023438</ele>
        <time>2023-07-16T08:17:32.000Z</time>
      </trkpt>
      <trkpt lat="42.50833" lon="2.45395">
        <ele>2278.6000976562</ele>
        <time>2023-07-16T08:17:38.000Z</time>
      </trkpt>
      <trkpt lat="42.50831" lon="2.45393">
        <ele>2278.1999511719</ele>
        <time>2023-07-16T08:17:44.000Z</time>
      </trkpt>
      <trkpt lat="42.50828" lon="2.45388">
        <ele>2278</ele>
        <time>2023-07-16T08:17:47.000Z</time>
      </trkpt>
      <trkpt lat="42.50827" lon="2.45387">
        <ele>2278</ele>
        <time>2023-07-16T08:17:49.000Z</time>
      </trkpt>
      <trkpt lat="42.50826" lon="2.45381">
        <ele>2278.3999023438</ele>
        <time>2023-07-16T08:17:57.000Z</time>
      </trkpt>
      <trkpt lat="42.50822" lon="2.45372">
        <ele>2277</ele>
        <time>2023-07-16T08:18:07.000Z</time>
      </trkpt>
      <trkpt lat="42.50822" lon="2.45371">
        <ele>2276.8000488281</ele>
        <time>2023-07-16T08:18:08.000Z</time>
      </trkpt>
      <trkpt lat="42.50818" lon="2.45364">
        <ele>2276.6000976562</ele>
        <time>2023-07-16T08:18:13.000Z</time>
      </trkpt>
      <trkpt lat="42.50813" lon="2.45357">
        <ele>2275.6000976562</ele>
        <time>2023-07-16T08:18:20.000Z</time>
      </trkpt>
      <trkpt lat="42.5081" lon="2.45351">
        <ele>2275.6000976562</ele>
        <time>2023-07-16T08:18:26.000Z</time>
      </trkpt>
      <trkpt lat="42.50807" lon="2.45343">
        <ele>2274.8000488281</ele>
        <time>2023-07-16T08:18:33.000Z</time>
      </trkpt>
      <trkpt lat="42.50806" lon="2.45342">
        <ele>2274.6000976562</ele>
        <time>2023-07-16T08:18:37.000Z</time>
      </trkpt>
      <trkpt lat="42.50807" lon="2.45342">
        <ele>2274.6000976562</ele>
        <time>2023-07-16T08:18:40.000Z</time>
      </trkpt>
      <trkpt lat="42.50803" lon="2.45336">
        <ele>2274.1999511719</ele>
        <time>2023-07-16T08:18:46.000Z</time>
      </trkpt>
      <trkpt lat="42.50798" lon="2.45331">
        <ele>2274</ele>
        <time>2023-07-16T08:18:54.000Z</time>
      </trkpt>
      <trkpt lat="42.50794" lon="2.45325">
        <ele>2273.6000976562</ele>
        <time>2023-07-16T08:19:01.000Z</time>
      </trkpt>
      <trkpt lat="42.50793" lon="2.45324">
        <ele>2273.6000976562</ele>
        <time>2023-07-16T08:19:02.000Z</time>
      </trkpt>
      <trkpt lat="42.50791" lon="2.45319">
        <ele>2272.6000976562</ele>
        <time>2023-07-16T08:19:07.000Z</time>
      </trkpt>
      <trkpt lat="42.50788" lon="2.45315">
        <ele>2272.3999023438</ele>
        <time>2023-07-16T08:19:10.000Z</time>
      </trkpt>
      <trkpt lat="42.50782" lon="2.45313">
        <ele>2272.1999511719</ele>
        <time>2023-07-16T08:19:17.000Z</time>
      </trkpt>
      <trkpt lat="42.50776" lon="2.4531">
        <ele>2272</ele>
        <time>2023-07-16T08:19:24.000Z</time>
      </trkpt>
      <trkpt lat="42.50774" lon="2.45307">
        <ele>2271.3999023438</ele>
        <time>2023-07-16T08:19:28.000Z</time>
      </trkpt>
      <trkpt lat="42.50773" lon="2.45307">
        <ele>2270.6000976562</ele>
        <time>2023-07-16T08:19:31.000Z</time>
      </trkpt>
      <trkpt lat="42.50772" lon="2.45306">
        <ele>2270.3999023438</ele>
        <time>2023-07-16T08:19:33.000Z</time>
      </trkpt>
      <trkpt lat="42.5077" lon="2.45304">
        <ele>2269.1999511719</ele>
        <time>2023-07-16T08:19:36.000Z</time>
      </trkpt>
      <trkpt lat="42.5077" lon="2.45303">
        <ele>2269</ele>
        <time>2023-07-16T08:19:37.000Z</time>
      </trkpt>
      <trkpt lat="42.50768" lon="2.45301">
        <ele>2267.8000488281</ele>
        <time>2023-07-16T08:19:39.000Z</time>
      </trkpt>
      <trkpt lat="42.50765" lon="2.45299">
        <ele>2267.8000488281</ele>
        <time>2023-07-16T08:19:44.000Z</time>
      </trkpt>
      <trkpt lat="42.50761" lon="2.45289">
        <ele>2267.6000976562</ele>
        <time>2023-07-16T08:19:54.000Z</time>
      </trkpt>
      <trkpt lat="42.5076" lon="2.45278">
        <ele>2266.8000488281</ele>
        <time>2023-07-16T08:20:03.000Z</time>
      </trkpt>
      <trkpt lat="42.50761" lon="2.45276">
        <ele>2266.1999511719</ele>
        <time>2023-07-16T08:20:04.000Z</time>
      </trkpt>
      <trkpt lat="42.50762" lon="2.45269">
        <ele>2266.3999023438</ele>
        <time>2023-07-16T08:20:11.000Z</time>
      </trkpt>
      <trkpt lat="42.50762" lon="2.45264">
        <ele>2267.3999023438</ele>
        <time>2023-07-16T08:20:16.000Z</time>
      </trkpt>
      <trkpt lat="42.50761" lon="2.45263">
        <ele>2267.6000976562</ele>
        <time>2023-07-16T08:20:18.000Z</time>
      </trkpt>
      <trkpt lat="42.50758" lon="2.45258">
        <ele>2267.3999023438</ele>
        <time>2023-07-16T08:20:23.000Z</time>
      </trkpt>
      <trkpt lat="42.50758" lon="2.45253">
        <ele>2266.6000976562</ele>
        <time>2023-07-16T08:20:31.000Z</time>
      </trkpt>
      <trkpt lat="42.5076" lon="2.45254">
        <ele>2266.6000976562</ele>
        <time>2023-07-16T08:20:33.000Z</time>
      </trkpt>
      <trkpt lat="42.50761" lon="2.45253">
        <ele>2266.3999023438</ele>
        <time>2023-07-16T08:20:36.000Z</time>
      </trkpt>
      <trkpt lat="42.50761" lon="2.45253">
        <ele>2266.3999023438</ele>
        <time>2023-07-16T08:20:37.000Z</time>
      </trkpt>
      <trkpt lat="42.50761" lon="2.45253">
        <ele>2266.1999511719</ele>
        <time>2023-07-16T08:20:38.000Z</time>
      </trkpt>
      <trkpt lat="42.50759" lon="2.45251">
        <ele>2265.6000976562</ele>
        <time>2023-07-16T08:20:50.000Z</time>
      </trkpt>
      <trkpt lat="42.50751" lon="2.45248">
        <ele>2267</ele>
        <time>2023-07-16T08:21:01.000Z</time>
      </trkpt>
      <trkpt lat="42.50747" lon="2.45246">
        <ele>2266</ele>
        <time>2023-07-16T08:21:07.000Z</time>
      </trkpt>
      <trkpt lat="42.50747" lon="2.45245">
        <ele>2265.1999511719</ele>
        <time>2023-07-16T08:21:08.000Z</time>
      </trkpt>
      <trkpt lat="42.50747" lon="2.4524">
        <ele>2264.1999511719</ele>
        <time>2023-07-16T08:21:12.000Z</time>
      </trkpt>
      <trkpt lat="42.50745" lon="2.45238">
        <ele>2263.1999511719</ele>
        <time>2023-07-16T08:21:14.000Z</time>
      </trkpt>
      <trkpt lat="42.50745" lon="2.45238">
        <ele>2262.8000488281</ele>
        <time>2023-07-16T08:21:15.000Z</time>
      </trkpt>
      <trkpt lat="42.50741" lon="2.45235">
        <ele>2262.6000976562</ele>
        <time>2023-07-16T08:21:22.000Z</time>
      </trkpt>
      <trkpt lat="42.5074" lon="2.45235">
        <ele>2262</ele>
        <time>2023-07-16T08:21:24.000Z</time>
      </trkpt>
      <trkpt lat="42.5074" lon="2.45231">
        <ele>2260.8000488281</ele>
        <time>2023-07-16T08:21:30.000Z</time>
      </trkpt>
      <trkpt lat="42.50739" lon="2.45228">
        <ele>2259.8000488281</ele>
        <time>2023-07-16T08:21:33.000Z</time>
      </trkpt>
      <trkpt lat="42.50739" lon="2.45225">
        <ele>2259.3999023438</ele>
        <time>2023-07-16T08:21:36.000Z</time>
      </trkpt>
      <trkpt lat="42.50734" lon="2.45222">
        <ele>2258.8000488281</ele>
        <time>2023-07-16T08:21:44.000Z</time>
      </trkpt>
      <trkpt lat="42.5073" lon="2.45222">
        <ele>2258.6000976562</ele>
        <time>2023-07-16T08:21:48.000Z</time>
      </trkpt>
      <trkpt lat="42.50729" lon="2.45221">
        <ele>2258</ele>
        <time>2023-07-16T08:21:50.000Z</time>
      </trkpt>
      <trkpt lat="42.50729" lon="2.45219">
        <ele>2257.1999511719</ele>
        <time>2023-07-16T08:21:52.000Z</time>
      </trkpt>
      <trkpt lat="42.50728" lon="2.45214">
        <ele>2255.8000488281</ele>
        <time>2023-07-16T08:21:58.000Z</time>
      </trkpt>
      <trkpt lat="42.50726" lon="2.45208">
        <ele>2254.8000488281</ele>
        <time>2023-07-16T08:22:02.000Z</time>
      </trkpt>
      <trkpt lat="42.50724" lon="2.45206">
        <ele>2254.1999511719</ele>
        <time>2023-07-16T08:22:07.000Z</time>
      </trkpt>
      <trkpt lat="42.5072" lon="2.45203">
        <ele>2253.6000976562</ele>
        <time>2023-07-16T08:22:11.000Z</time>
      </trkpt>
      <trkpt lat="42.50718" lon="2.45202">
        <ele>2252.6000976562</ele>
        <time>2023-07-16T08:22:13.000Z</time>
      </trkpt>
      <trkpt lat="42.50717" lon="2.45202">
        <ele>2252.6000976562</ele>
        <time>2023-07-16T08:22:14.000Z</time>
      </trkpt>
      <trkpt lat="42.50716" lon="2.45202">
        <ele>2252.3999023438</ele>
        <time>2023-07-16T08:22:16.000Z</time>
      </trkpt>
      <trkpt lat="42.50715" lon="2.45201">
        <ele>2251.6000976562</ele>
        <time>2023-07-16T08:22:21.000Z</time>
      </trkpt>
      <trkpt lat="42.50713" lon="2.45198">
        <ele>2250.6000976562</ele>
        <time>2023-07-16T08:22:27.000Z</time>
      </trkpt>
      <trkpt lat="42.5071" lon="2.45193">
        <ele>2249.8000488281</ele>
        <time>2023-07-16T08:22:35.000Z</time>
      </trkpt>
      <trkpt lat="42.50709" lon="2.45192">
        <ele>2249.3999023438</ele>
        <time>2023-07-16T08:22:37.000Z</time>
      </trkpt>
      <trkpt lat="42.50708" lon="2.4519">
        <ele>2248.1999511719</ele>
        <time>2023-07-16T08:22:43.000Z</time>
      </trkpt>
      <trkpt lat="42.50708" lon="2.4519">
        <ele>2247.6000976562</ele>
        <time>2023-07-16T08:22:44.000Z</time>
      </trkpt>
      <trkpt lat="42.50707" lon="2.45189">
        <ele>2247.1999511719</ele>
        <time>2023-07-16T08:22:45.000Z</time>
      </trkpt>
      <trkpt lat="42.50705" lon="2.45186">
        <ele>2246.6000976562</ele>
        <time>2023-07-16T08:22:51.000Z</time>
      </trkpt>
      <trkpt lat="42.50704" lon="2.45186">
        <ele>2245</ele>
        <time>2023-07-16T08:22:54.000Z</time>
      </trkpt>
      <trkpt lat="42.50704" lon="2.45185">
        <ele>2244.3999023438</ele>
        <time>2023-07-16T08:22:59.000Z</time>
      </trkpt>
      <trkpt lat="42.50703" lon="2.45181">
        <ele>2244.6000976562</ele>
        <time>2023-07-16T08:23:06.000Z</time>
      </trkpt>
      <trkpt lat="42.507" lon="2.45177">
        <ele>2245.1999511719</ele>
        <time>2023-07-16T08:23:12.000Z</time>
      </trkpt>
      <trkpt lat="42.50698" lon="2.45166">
        <ele>2244.6000976562</ele>
        <time>2023-07-16T08:23:20.000Z</time>
      </trkpt>
      <trkpt lat="42.50696" lon="2.45165">
        <ele>2244</ele>
        <time>2023-07-16T08:23:22.000Z</time>
      </trkpt>
      <trkpt lat="42.50693" lon="2.45163">
        <ele>2243</ele>
        <time>2023-07-16T08:23:25.000Z</time>
      </trkpt>
      <trkpt lat="42.50691" lon="2.45162">
        <ele>2242.8000488281</ele>
        <time>2023-07-16T08:23:27.000Z</time>
      </trkpt>
      <trkpt lat="42.50688" lon="2.45159">
        <ele>2242</ele>
        <time>2023-07-16T08:23:33.000Z</time>
      </trkpt>
      <trkpt lat="42.50688" lon="2.45158">
        <ele>2241.8000488281</ele>
        <time>2023-07-16T08:23:35.000Z</time>
      </trkpt>
      <trkpt lat="42.50687" lon="2.45157">
        <ele>2240.1999511719</ele>
        <time>2023-07-16T08:23:37.000Z</time>
      </trkpt>
      <trkpt lat="42.50686" lon="2.45156">
        <ele>2239.8000488281</ele>
        <time>2023-07-16T08:23:40.000Z</time>
      </trkpt>
      <trkpt lat="42.50684" lon="2.45153">
        <ele>2239.1999511719</ele>
        <time>2023-07-16T08:23:46.000Z</time>
      </trkpt>
      <trkpt lat="42.50683" lon="2.45152">
        <ele>2239</ele>
        <time>2023-07-16T08:23:50.000Z</time>
      </trkpt>
      <trkpt lat="42.50683" lon="2.4515">
        <ele>2238</ele>
        <time>2023-07-16T08:23:53.000Z</time>
      </trkpt>
      <trkpt lat="42.50682" lon="2.45149">
        <ele>2238</ele>
        <time>2023-07-16T08:23:54.000Z</time>
      </trkpt>
      <trkpt lat="42.50681" lon="2.45147">
        <ele>2236.8000488281</ele>
        <time>2023-07-16T08:23:56.000Z</time>
      </trkpt>
      <trkpt lat="42.5068" lon="2.45145">
        <ele>2236.1999511719</ele>
        <time>2023-07-16T08:24:00.000Z</time>
      </trkpt>
      <trkpt lat="42.50678" lon="2.45143">
        <ele>2235.6000976562</ele>
        <time>2023-07-16T08:24:05.000Z</time>
      </trkpt>
      <trkpt lat="42.50675" lon="2.45144">
        <ele>2234.3999023438</ele>
        <time>2023-07-16T08:24:12.000Z</time>
      </trkpt>
      <trkpt lat="42.50673" lon="2.45138">
        <ele>2233.6000976562</ele>
        <time>2023-07-16T08:24:19.000Z</time>
      </trkpt>
      <trkpt lat="42.50673" lon="2.45136">
        <ele>2233.3999023438</ele>
        <time>2023-07-16T08:24:20.000Z</time>
      </trkpt>
      <trkpt lat="42.50671" lon="2.4513">
        <ele>2232.1999511719</ele>
        <time>2023-07-16T08:24:27.000Z</time>
      </trkpt>
      <trkpt lat="42.5067" lon="2.45128">
        <ele>2231</ele>
        <time>2023-07-16T08:24:30.000Z</time>
      </trkpt>
      <trkpt lat="42.5067" lon="2.45127">
        <ele>2230</ele>
        <time>2023-07-16T08:24:31.000Z</time>
      </trkpt>
      <trkpt lat="42.50668" lon="2.45126">
        <ele>2230</ele>
        <time>2023-07-16T08:24:33.000Z</time>
      </trkpt>
      <trkpt lat="42.50667" lon="2.45125">
        <ele>2230</ele>
        <time>2023-07-16T08:24:34.000Z</time>
      </trkpt>
      <trkpt lat="42.50667" lon="2.45125">
        <ele>2231.3999023438</ele>
        <time>2023-07-16T08:24:36.000Z</time>
      </trkpt>
      <trkpt lat="42.50666" lon="2.45122">
        <ele>2232.1999511719</ele>
        <time>2023-07-16T08:24:39.000Z</time>
      </trkpt>
      <trkpt lat="42.50664" lon="2.45117">
        <ele>2230.1999511719</ele>
        <time>2023-07-16T08:24:44.000Z</time>
      </trkpt>
      <trkpt lat="42.50664" lon="2.45117">
        <ele>2228.8000488281</ele>
        <time>2023-07-16T08:24:45.000Z</time>
      </trkpt>
      <trkpt lat="42.50662" lon="2.45116">
        <ele>2228</ele>
        <time>2023-07-16T08:24:47.000Z</time>
      </trkpt>
      <trkpt lat="42.50659" lon="2.45113">
        <ele>2227.3999023438</ele>
        <time>2023-07-16T08:24:53.000Z</time>
      </trkpt>
      <trkpt lat="42.50658" lon="2.45111">
        <ele>2226.3999023438</ele>
        <time>2023-07-16T08:24:55.000Z</time>
      </trkpt>
      <trkpt lat="42.50656" lon="2.45105">
        <ele>2225.8000488281</ele>
        <time>2023-07-16T08:25:01.000Z</time>
      </trkpt>
      <trkpt lat="42.50655" lon="2.451">
        <ele>2225.3999023438</ele>
        <time>2023-07-16T08:25:05.000Z</time>
      </trkpt>
      <trkpt lat="42.50653" lon="2.45097">
        <ele>2224.1999511719</ele>
        <time>2023-07-16T08:25:10.000Z</time>
      </trkpt>
      <trkpt lat="42.50649" lon="2.45094">
        <ele>2223.3999023438</ele>
        <time>2023-07-16T08:25:19.000Z</time>
      </trkpt>
      <trkpt lat="42.50647" lon="2.45092">
        <ele>2223.1999511719</ele>
        <time>2023-07-16T08:25:21.000Z</time>
      </trkpt>
      <trkpt lat="42.50646" lon="2.45089">
        <ele>2222</ele>
        <time>2023-07-16T08:25:25.000Z</time>
      </trkpt>
      <trkpt lat="42.50645" lon="2.45086">
        <ele>2221.8000488281</ele>
        <time>2023-07-16T08:25:27.000Z</time>
      </trkpt>
      <trkpt lat="42.50644" lon="2.45082">
        <ele>2221</ele>
        <time>2023-07-16T08:25:31.000Z</time>
      </trkpt>
      <trkpt lat="42.50642" lon="2.45076">
        <ele>2220.3999023438</ele>
        <time>2023-07-16T08:25:35.000Z</time>
      </trkpt>
      <trkpt lat="42.50639" lon="2.45073">
        <ele>2220</ele>
        <time>2023-07-16T08:25:39.000Z</time>
      </trkpt>
      <trkpt lat="42.50637" lon="2.45071">
        <ele>2219.3999023438</ele>
        <time>2023-07-16T08:25:42.000Z</time>
      </trkpt>
      <trkpt lat="42.50636" lon="2.4507">
        <ele>2218.8000488281</ele>
        <time>2023-07-16T08:25:44.000Z</time>
      </trkpt>
      <trkpt lat="42.50635" lon="2.45066">
        <ele>2217.8000488281</ele>
        <time>2023-07-16T08:25:48.000Z</time>
      </trkpt>
      <trkpt lat="42.50631" lon="2.4506">
        <ele>2216.6000976562</ele>
        <time>2023-07-16T08:25:55.000Z</time>
      </trkpt>
      <trkpt lat="42.50629" lon="2.45055">
        <ele>2215.6000976562</ele>
        <time>2023-07-16T08:26:00.000Z</time>
      </trkpt>
      <trkpt lat="42.50627" lon="2.45048">
        <ele>2214.8000488281</ele>
        <time>2023-07-16T08:26:06.000Z</time>
      </trkpt>
      <trkpt lat="42.50627" lon="2.45047">
        <ele>2214</ele>
        <time>2023-07-16T08:26:07.000Z</time>
      </trkpt>
      <trkpt lat="42.50625" lon="2.45044">
        <ele>2212.6000976562</ele>
        <time>2023-07-16T08:26:09.000Z</time>
      </trkpt>
      <trkpt lat="42.5062" lon="2.45035">
        <ele>2210.8000488281</ele>
        <time>2023-07-16T08:26:17.000Z</time>
      </trkpt>
      <trkpt lat="42.5062" lon="2.45032">
        <ele>2209.3999023438</ele>
        <time>2023-07-16T08:26:23.000Z</time>
      </trkpt>
      <trkpt lat="42.5062" lon="2.45029">
        <ele>2208.3999023438</ele>
        <time>2023-07-16T08:26:26.000Z</time>
      </trkpt>
      <trkpt lat="42.50618" lon="2.45023">
        <ele>2208</ele>
        <time>2023-07-16T08:26:34.000Z</time>
      </trkpt>
      <trkpt lat="42.50617" lon="2.4502">
        <ele>2207.1999511719</ele>
        <time>2023-07-16T08:26:40.000Z</time>
      </trkpt>
      <trkpt lat="42.50617" lon="2.45019">
        <ele>2206.6000976562</ele>
        <time>2023-07-16T08:26:41.000Z</time>
      </trkpt>
      <trkpt lat="42.50615" lon="2.45015">
        <ele>2206</ele>
        <time>2023-07-16T08:26:44.000Z</time>
      </trkpt>
      <trkpt lat="42.50612" lon="2.45012">
        <ele>2205.6000976562</ele>
        <time>2023-07-16T08:26:50.000Z</time>
      </trkpt>
      <trkpt lat="42.50612" lon="2.4501">
        <ele>2205</ele>
        <time>2023-07-16T08:26:53.000Z</time>
      </trkpt>
      <trkpt lat="42.50612" lon="2.4501">
        <ele>2203.8000488281</ele>
        <time>2023-07-16T08:26:55.000Z</time>
      </trkpt>
      <trkpt lat="42.50611" lon="2.45005">
        <ele>2202.8000488281</ele>
        <time>2023-07-16T08:26:58.000Z</time>
      </trkpt>
      <trkpt lat="42.50608" lon="2.45002">
        <ele>2203</ele>
        <time>2023-07-16T08:27:04.000Z</time>
      </trkpt>
      <trkpt lat="42.50603" lon="2.45003">
        <ele>2202.3999023438</ele>
        <time>2023-07-16T08:27:10.000Z</time>
      </trkpt>
      <trkpt lat="42.506" lon="2.45004">
        <ele>2201.8000488281</ele>
        <time>2023-07-16T08:27:13.000Z</time>
      </trkpt>
      <trkpt lat="42.50597" lon="2.45005">
        <ele>2201.1999511719</ele>
        <time>2023-07-16T08:27:18.000Z</time>
      </trkpt>
      <trkpt lat="42.50597" lon="2.45003">
        <ele>2200.6000976562</ele>
        <time>2023-07-16T08:27:22.000Z</time>
      </trkpt>
      <trkpt lat="42.50596" lon="2.44999">
        <ele>2199.6000976562</ele>
        <time>2023-07-16T08:27:27.000Z</time>
      </trkpt>
      <trkpt lat="42.50596" lon="2.44997">
        <ele>2198.6000976562</ele>
        <time>2023-07-16T08:27:29.000Z</time>
      </trkpt>
      <trkpt lat="42.50594" lon="2.44993">
        <ele>2198.3999023438</ele>
        <time>2023-07-16T08:27:36.000Z</time>
      </trkpt>
      <trkpt lat="42.50592" lon="2.4499">
        <ele>2197.3999023438</ele>
        <time>2023-07-16T08:27:40.000Z</time>
      </trkpt>
      <trkpt lat="42.5059" lon="2.44988">
        <ele>2196.8000488281</ele>
        <time>2023-07-16T08:27:42.000Z</time>
      </trkpt>
      <trkpt lat="42.50586" lon="2.44987">
        <ele>2196.6000976562</ele>
        <time>2023-07-16T08:27:50.000Z</time>
      </trkpt>
      <trkpt lat="42.50581" lon="2.44983">
        <ele>2196.1999511719</ele>
        <time>2023-07-16T08:27:55.000Z</time>
      </trkpt>
      <trkpt lat="42.5058" lon="2.44982">
        <ele>2195.6000976562</ele>
        <time>2023-07-16T08:27:57.000Z</time>
      </trkpt>
      <trkpt lat="42.50579" lon="2.44981">
        <ele>2195.1999511719</ele>
        <time>2023-07-16T08:27:58.000Z</time>
      </trkpt>
      <trkpt lat="42.50576" lon="2.44978">
        <ele>2194</ele>
        <time>2023-07-16T08:28:04.000Z</time>
      </trkpt>
      <trkpt lat="42.50575" lon="2.44977">
        <ele>2193.8000488281</ele>
        <time>2023-07-16T08:28:06.000Z</time>
      </trkpt>
      <trkpt lat="42.50572" lon="2.44973">
        <ele>2192.8000488281</ele>
        <time>2023-07-16T08:28:12.000Z</time>
      </trkpt>
      <trkpt lat="42.50571" lon="2.44973">
        <ele>2191.6000976562</ele>
        <time>2023-07-16T08:28:13.000Z</time>
      </trkpt>
      <trkpt lat="42.50571" lon="2.44972">
        <ele>2191.6000976562</ele>
        <time>2023-07-16T08:28:14.000Z</time>
      </trkpt>
      <trkpt lat="42.50568" lon="2.44969">
        <ele>2190.6000976562</ele>
        <time>2023-07-16T08:28:20.000Z</time>
      </trkpt>
      <trkpt lat="42.50568" lon="2.44967">
        <ele>2189.8000488281</ele>
        <time>2023-07-16T08:28:22.000Z</time>
      </trkpt>
      <trkpt lat="42.50568" lon="2.44966">
        <ele>2189.1999511719</ele>
        <time>2023-07-16T08:28:23.000Z</time>
      </trkpt>
      <trkpt lat="42.50568" lon="2.44964">
        <ele>2186.8000488281</ele>
        <time>2023-07-16T08:28:25.000Z</time>
      </trkpt>
      <trkpt lat="42.50568" lon="2.44958">
        <ele>2186.6000976562</ele>
        <time>2023-07-16T08:28:30.000Z</time>
      </trkpt>
      <trkpt lat="42.50565" lon="2.44944">
        <ele>2186</ele>
        <time>2023-07-16T08:28:39.000Z</time>
      </trkpt>
      <trkpt lat="42.50564" lon="2.44942">
        <ele>2185.8000488281</ele>
        <time>2023-07-16T08:28:41.000Z</time>
      </trkpt>
      <trkpt lat="42.50562" lon="2.44938">
        <ele>2183.6000976562</ele>
        <time>2023-07-16T08:28:45.000Z</time>
      </trkpt>
      <trkpt lat="42.5056" lon="2.44934">
        <ele>2183.1999511719</ele>
        <time>2023-07-16T08:28:48.000Z</time>
      </trkpt>
      <trkpt lat="42.50558" lon="2.44929">
        <ele>2182.6000976562</ele>
        <time>2023-07-16T08:28:52.000Z</time>
      </trkpt>
      <trkpt lat="42.50557" lon="2.44923">
        <ele>2181.3999023438</ele>
        <time>2023-07-16T08:28:56.000Z</time>
      </trkpt>
      <trkpt lat="42.50557" lon="2.4492">
        <ele>2180.1999511719</ele>
        <time>2023-07-16T08:28:58.000Z</time>
      </trkpt>
      <trkpt lat="42.50554" lon="2.4491">
        <ele>2178.8000488281</ele>
        <time>2023-07-16T08:29:05.000Z</time>
      </trkpt>
      <trkpt lat="42.50548" lon="2.44901">
        <ele>2179.3999023438</ele>
        <time>2023-07-16T08:29:12.000Z</time>
      </trkpt>
      <trkpt lat="42.50541" lon="2.44893">
        <ele>2177.6000976562</ele>
        <time>2023-07-16T08:29:19.000Z</time>
      </trkpt>
      <trkpt lat="42.50541" lon="2.44892">
        <ele>2177.6000976562</ele>
        <time>2023-07-16T08:29:20.000Z</time>
      </trkpt>
      <trkpt lat="42.5054" lon="2.44887">
        <ele>2176.3999023438</ele>
        <time>2023-07-16T08:29:25.000Z</time>
      </trkpt>
      <trkpt lat="42.50539" lon="2.44884">
        <ele>2175.1999511719</ele>
        <time>2023-07-16T08:29:27.000Z</time>
      </trkpt>
      <trkpt lat="42.50536" lon="2.44872">
        <ele>2175</ele>
        <time>2023-07-16T08:29:37.000Z</time>
      </trkpt>
      <trkpt lat="42.50534" lon="2.44868">
        <ele>2174.1999511719</ele>
        <time>2023-07-16T08:29:42.000Z</time>
      </trkpt>
      <trkpt lat="42.50533" lon="2.44866">
        <ele>2173.1999511719</ele>
        <time>2023-07-16T08:29:44.000Z</time>
      </trkpt>
      <trkpt lat="42.5053" lon="2.44861">
        <ele>2172.1999511719</ele>
        <time>2023-07-16T08:29:48.000Z</time>
      </trkpt>
      <trkpt lat="42.50527" lon="2.44858">
        <ele>2171.1999511719</ele>
        <time>2023-07-16T08:29:52.000Z</time>
      </trkpt>
      <trkpt lat="42.50527" lon="2.44857">
        <ele>2171.1999511719</ele>
        <time>2023-07-16T08:29:53.000Z</time>
      </trkpt>
      <trkpt lat="42.50526" lon="2.44852">
        <ele>2170</ele>
        <time>2023-07-16T08:30:00.000Z</time>
      </trkpt>
      <trkpt lat="42.50525" lon="2.44851">
        <ele>2169.8000488281</ele>
        <time>2023-07-16T08:30:01.000Z</time>
      </trkpt>
      <trkpt lat="42.50524" lon="2.44846">
        <ele>2168.8000488281</ele>
        <time>2023-07-16T08:30:06.000Z</time>
      </trkpt>
      <trkpt lat="42.50523" lon="2.44842">
        <ele>2167.8000488281</ele>
        <time>2023-07-16T08:30:09.000Z</time>
      </trkpt>
      <trkpt lat="42.50519" lon="2.44836">
        <ele>2166.8000488281</ele>
        <time>2023-07-16T08:30:16.000Z</time>
      </trkpt>
      <trkpt lat="42.50518" lon="2.44834">
        <ele>2166.3999023438</ele>
        <time>2023-07-16T08:30:17.000Z</time>
      </trkpt>
      <trkpt lat="42.50515" lon="2.44827">
        <ele>2165.6000976562</ele>
        <time>2023-07-16T08:30:22.000Z</time>
      </trkpt>
      <trkpt lat="42.50513" lon="2.44825">
        <ele>2165.3999023438</ele>
        <time>2023-07-16T08:30:24.000Z</time>
      </trkpt>
      <trkpt lat="42.50509" lon="2.44823">
        <ele>2164.3999023438</ele>
        <time>2023-07-16T08:30:28.000Z</time>
      </trkpt>
      <trkpt lat="42.50506" lon="2.44822">
        <ele>2164</ele>
        <time>2023-07-16T08:30:30.000Z</time>
      </trkpt>
      <trkpt lat="42.505" lon="2.4482">
        <ele>2163.1999511719</ele>
        <time>2023-07-16T08:30:36.000Z</time>
      </trkpt>
      <trkpt lat="42.50498" lon="2.44813">
        <ele>2162</ele>
        <time>2023-07-16T08:30:42.000Z</time>
      </trkpt>
      <trkpt lat="42.50496" lon="2.4481">
        <ele>2161.3999023438</ele>
        <time>2023-07-16T08:30:44.000Z</time>
      </trkpt>
      <trkpt lat="42.50492" lon="2.44804">
        <ele>2160.8000488281</ele>
        <time>2023-07-16T08:30:49.000Z</time>
      </trkpt>
      <trkpt lat="42.50486" lon="2.44797">
        <ele>2159.1999511719</ele>
        <time>2023-07-16T08:30:54.000Z</time>
      </trkpt>
      <trkpt lat="42.50482" lon="2.44789">
        <ele>2158.1999511719</ele>
        <time>2023-07-16T08:31:02.000Z</time>
      </trkpt>
      <trkpt lat="42.50481" lon="2.44788">
        <ele>2158</ele>
        <time>2023-07-16T08:31:03.000Z</time>
      </trkpt>
      <trkpt lat="42.50474" lon="2.44782">
        <ele>2157</ele>
        <time>2023-07-16T08:31:11.000Z</time>
      </trkpt>
      <trkpt lat="42.50471" lon="2.44776">
        <ele>2156</ele>
        <time>2023-07-16T08:31:15.000Z</time>
      </trkpt>
      <trkpt lat="42.50465" lon="2.44768">
        <ele>2155.3999023438</ele>
        <time>2023-07-16T08:31:21.000Z</time>
      </trkpt>
      <trkpt lat="42.50464" lon="2.44765">
        <ele>2155</ele>
        <time>2023-07-16T08:31:23.000Z</time>
      </trkpt>
      <trkpt lat="42.5046" lon="2.44757">
        <ele>2154</ele>
        <time>2023-07-16T08:31:29.000Z</time>
      </trkpt>
      <trkpt lat="42.50458" lon="2.44754">
        <ele>2152.6000976562</ele>
        <time>2023-07-16T08:31:32.000Z</time>
      </trkpt>
      <trkpt lat="42.50455" lon="2.44747">
        <ele>2152</ele>
        <time>2023-07-16T08:31:37.000Z</time>
      </trkpt>
      <trkpt lat="42.50454" lon="2.44745">
        <ele>2151.3999023438</ele>
        <time>2023-07-16T08:31:38.000Z</time>
      </trkpt>
      <trkpt lat="42.50452" lon="2.44737">
        <ele>2150.1999511719</ele>
        <time>2023-07-16T08:31:45.000Z</time>
      </trkpt>
      <trkpt lat="42.50451" lon="2.44729">
        <ele>2148.8000488281</ele>
        <time>2023-07-16T08:31:50.000Z</time>
      </trkpt>
      <trkpt lat="42.50449" lon="2.44724">
        <ele>2148.8000488281</ele>
        <time>2023-07-16T08:31:53.000Z</time>
      </trkpt>
      <trkpt lat="42.50446" lon="2.44713">
        <ele>2148.8000488281</ele>
        <time>2023-07-16T08:32:00.000Z</time>
      </trkpt>
      <trkpt lat="42.50446" lon="2.44711">
        <ele>2147.6000976562</ele>
        <time>2023-07-16T08:32:03.000Z</time>
      </trkpt>
      <trkpt lat="42.50446" lon="2.44711">
        <ele>2146.3999023438</ele>
        <time>2023-07-16T08:32:04.000Z</time>
      </trkpt>
      <trkpt lat="42.50446" lon="2.44711">
        <ele>2146</ele>
        <time>2023-07-16T08:32:05.000Z</time>
      </trkpt>
      <trkpt lat="42.50446" lon="2.4471">
        <ele>2146</ele>
        <time>2023-07-16T08:32:13.000Z</time>
      </trkpt>
      <trkpt lat="42.50448" lon="2.44711">
        <ele>2146</ele>
        <time>2023-07-16T08:32:22.000Z</time>
      </trkpt>
      <trkpt lat="42.50447" lon="2.44711">
        <ele>2145.8000488281</ele>
        <time>2023-07-16T08:32:32.000Z</time>
      </trkpt>
      <trkpt lat="42.50446" lon="2.4471">
        <ele>2145.8000488281</ele>
        <time>2023-07-16T08:32:42.000Z</time>
      </trkpt>
      <trkpt lat="42.50446" lon="2.44707">
        <ele>2145.1999511719</ele>
        <time>2023-07-16T08:32:45.000Z</time>
      </trkpt>
      <trkpt lat="42.50445" lon="2.44699">
        <ele>2144.1999511719</ele>
        <time>2023-07-16T08:32:49.000Z</time>
      </trkpt>
      <trkpt lat="42.50446" lon="2.44689">
        <ele>2144.6000976562</ele>
        <time>2023-07-16T08:32:55.000Z</time>
      </trkpt>
      <trkpt lat="42.50448" lon="2.4468">
        <ele>2144.8000488281</ele>
        <time>2023-07-16T08:33:02.000Z</time>
      </trkpt>
      <trkpt lat="42.50449" lon="2.44675">
        <ele>2143.8000488281</ele>
        <time>2023-07-16T08:33:06.000Z</time>
      </trkpt>
      <trkpt lat="42.50449" lon="2.44674">
        <ele>2143.6000976562</ele>
        <time>2023-07-16T08:33:08.000Z</time>
      </trkpt>
      <trkpt lat="42.50448" lon="2.44669">
        <ele>2144</ele>
        <time>2023-07-16T08:33:14.000Z</time>
      </trkpt>
      <trkpt lat="42.50444" lon="2.44658">
        <ele>2142.6000976562</ele>
        <time>2023-07-16T08:33:24.000Z</time>
      </trkpt>
      <trkpt lat="42.5044" lon="2.44652">
        <ele>2141.8000488281</ele>
        <time>2023-07-16T08:33:33.000Z</time>
      </trkpt>
      <trkpt lat="42.50439" lon="2.4465">
        <ele>2141.1999511719</ele>
        <time>2023-07-16T08:33:34.000Z</time>
      </trkpt>
      <trkpt lat="42.50435" lon="2.44645">
        <ele>2141</ele>
        <time>2023-07-16T08:33:40.000Z</time>
      </trkpt>
      <trkpt lat="42.50433" lon="2.4464">
        <ele>2140.3999023438</ele>
        <time>2023-07-16T08:33:47.000Z</time>
      </trkpt>
      <trkpt lat="42.50432" lon="2.44639">
        <ele>2140</ele>
        <time>2023-07-16T08:33:48.000Z</time>
      </trkpt>
      <trkpt lat="42.50429" lon="2.44635">
        <ele>2139</ele>
        <time>2023-07-16T08:33:56.000Z</time>
      </trkpt>
      <trkpt lat="42.50428" lon="2.44634">
        <ele>2139</ele>
        <time>2023-07-16T08:33:58.000Z</time>
      </trkpt>
      <trkpt lat="42.50424" lon="2.44629">
        <ele>2138.1999511719</ele>
        <time>2023-07-16T08:34:05.000Z</time>
      </trkpt>
      <trkpt lat="42.50421" lon="2.44626">
        <ele>2137.8000488281</ele>
        <time>2023-07-16T08:34:08.000Z</time>
      </trkpt>
      <trkpt lat="42.50419" lon="2.44625">
        <ele>2137.6000976562</ele>
        <time>2023-07-16T08:34:10.000Z</time>
      </trkpt>
      <trkpt lat="42.50417" lon="2.44623">
        <ele>2136.8000488281</ele>
        <time>2023-07-16T08:34:15.000Z</time>
      </trkpt>
      <trkpt lat="42.50417" lon="2.4462">
        <ele>2136.6000976562</ele>
        <time>2023-07-16T08:34:17.000Z</time>
      </trkpt>
      <trkpt lat="42.50413" lon="2.44613">
        <ele>2135.8000488281</ele>
        <time>2023-07-16T08:34:22.000Z</time>
      </trkpt>
      <trkpt lat="42.50413" lon="2.44612">
        <ele>2135.3999023438</ele>
        <time>2023-07-16T08:34:23.000Z</time>
      </trkpt>
      <trkpt lat="42.50411" lon="2.4461">
        <ele>2134.8000488281</ele>
        <time>2023-07-16T08:34:30.000Z</time>
      </trkpt>
      <trkpt lat="42.5041" lon="2.4461">
        <ele>2134.8000488281</ele>
        <time>2023-07-16T08:34:31.000Z</time>
      </trkpt>
      <trkpt lat="42.50406" lon="2.446">
        <ele>2133.3999023438</ele>
        <time>2023-07-16T08:34:38.000Z</time>
      </trkpt>
      <trkpt lat="42.50405" lon="2.44597">
        <ele>2132.6000976562</ele>
        <time>2023-07-16T08:34:40.000Z</time>
      </trkpt>
      <trkpt lat="42.50404" lon="2.44595">
        <ele>2132</ele>
        <time>2023-07-16T08:34:41.000Z</time>
      </trkpt>
      <trkpt lat="42.50406" lon="2.44583">
        <ele>2131.1999511719</ele>
        <time>2023-07-16T08:34:50.000Z</time>
      </trkpt>
      <trkpt lat="42.50406" lon="2.44572">
        <ele>2131.1999511719</ele>
        <time>2023-07-16T08:34:57.000Z</time>
      </trkpt>
      <trkpt lat="42.50406" lon="2.44571">
        <ele>2130.3999023438</ele>
        <time>2023-07-16T08:34:58.000Z</time>
      </trkpt>
      <trkpt lat="42.50404" lon="2.44565">
        <ele>2130.3999023438</ele>
        <time>2023-07-16T08:35:05.000Z</time>
      </trkpt>
      <trkpt lat="42.50403" lon="2.44556">
        <ele>2129.1999511719</ele>
        <time>2023-07-16T08:35:11.000Z</time>
      </trkpt>
      <trkpt lat="42.50402" lon="2.44553">
        <ele>2128.8000488281</ele>
        <time>2023-07-16T08:35:12.000Z</time>
      </trkpt>
      <trkpt lat="42.50399" lon="2.44547">
        <ele>2128.6000976562</ele>
        <time>2023-07-16T08:35:18.000Z</time>
      </trkpt>
      <trkpt lat="42.50396" lon="2.44542">
        <ele>2128.1999511719</ele>
        <time>2023-07-16T08:35:24.000Z</time>
      </trkpt>
      <trkpt lat="42.50395" lon="2.44538">
        <ele>2128</ele>
        <time>2023-07-16T08:35:27.000Z</time>
      </trkpt>
      <trkpt lat="42.50394" lon="2.44534">
        <ele>2127</ele>
        <time>2023-07-16T08:35:30.000Z</time>
      </trkpt>
      <trkpt lat="42.50392" lon="2.44529">
        <ele>2126.3999023438</ele>
        <time>2023-07-16T08:35:34.000Z</time>
      </trkpt>
      <trkpt lat="42.50386" lon="2.4452">
        <ele>2125.8000488281</ele>
        <time>2023-07-16T08:35:42.000Z</time>
      </trkpt>
      <trkpt lat="42.50386" lon="2.44516">
        <ele>2125.6000976562</ele>
        <time>2023-07-16T08:35:48.000Z</time>
      </trkpt>
      <trkpt lat="42.50387" lon="2.44515">
        <ele>2125.1999511719</ele>
        <time>2023-07-16T08:35:49.000Z</time>
      </trkpt>
      <trkpt lat="42.5039" lon="2.44513">
        <ele>2126.1999511719</ele>
        <time>2023-07-16T08:35:56.000Z</time>
      </trkpt>
      <trkpt lat="42.50385" lon="2.44516">
        <ele>2126.6000976562</ele>
        <time>2023-07-16T08:36:03.000Z</time>
      </trkpt>
      <trkpt lat="42.50383" lon="2.44513">
        <ele>2125.6000976562</ele>
        <time>2023-07-16T08:36:08.000Z</time>
      </trkpt>
      <trkpt lat="42.50383" lon="2.44513">
        <ele>2125.6000976562</ele>
        <time>2023-07-16T08:36:09.000Z</time>
      </trkpt>
      <trkpt lat="42.50384" lon="2.44515">
        <ele>2125.3999023438</ele>
        <time>2023-07-16T08:36:18.000Z</time>
      </trkpt>
      <trkpt lat="42.50384" lon="2.44516">
        <ele>2125.1999511719</ele>
        <time>2023-07-16T08:36:27.000Z</time>
      </trkpt>
      <trkpt lat="42.50387" lon="2.44509">
        <ele>2125.6000976562</ele>
        <time>2023-07-16T08:36:34.000Z</time>
      </trkpt>
      <trkpt lat="42.50388" lon="2.44511">
        <ele>2125.6000976562</ele>
        <time>2023-07-16T08:36:42.000Z</time>
      </trkpt>
      <trkpt lat="42.50385" lon="2.44514">
        <ele>2125.1999511719</ele>
        <time>2023-07-16T08:36:53.000Z</time>
      </trkpt>
      <trkpt lat="42.50385" lon="2.44514">
        <ele>2124.8000488281</ele>
        <time>2023-07-16T08:36:58.000Z</time>
      </trkpt>
      <trkpt lat="42.50386" lon="2.44514">
        <ele>2124.8000488281</ele>
        <time>2023-07-16T08:37:01.000Z</time>
      </trkpt>
      <trkpt lat="42.50384" lon="2.4451">
        <ele>2124.6000976562</ele>
        <time>2023-07-16T08:37:08.000Z</time>
      </trkpt>
      <trkpt lat="42.5038" lon="2.44502">
        <ele>2124.3999023438</ele>
        <time>2023-07-16T08:37:15.000Z</time>
      </trkpt>
      <trkpt lat="42.5038" lon="2.44489">
        <ele>2123.6000976562</ele>
        <time>2023-07-16T08:37:24.000Z</time>
      </trkpt>
      <trkpt lat="42.50381" lon="2.44484">
        <ele>2122.6000976562</ele>
        <time>2023-07-16T08:37:29.000Z</time>
      </trkpt>
      <trkpt lat="42.50381" lon="2.44483">
        <ele>2122.3999023438</ele>
        <time>2023-07-16T08:37:30.000Z</time>
      </trkpt>
      <trkpt lat="42.50376" lon="2.44475">
        <ele>2122.3999023438</ele>
        <time>2023-07-16T08:37:36.000Z</time>
      </trkpt>
      <trkpt lat="42.50371" lon="2.44473">
        <ele>2122.3999023438</ele>
        <time>2023-07-16T08:37:42.000Z</time>
      </trkpt>
      <trkpt lat="42.50368" lon="2.44467">
        <ele>2121.3999023438</ele>
        <time>2023-07-16T08:37:48.000Z</time>
      </trkpt>
      <trkpt lat="42.50368" lon="2.44466">
        <ele>2121.3999023438</ele>
        <time>2023-07-16T08:37:49.000Z</time>
      </trkpt>
      <trkpt lat="42.50362" lon="2.4446">
        <ele>2121</ele>
        <time>2023-07-16T08:37:56.000Z</time>
      </trkpt>
      <trkpt lat="42.50356" lon="2.44449">
        <ele>2120.6000976562</ele>
        <time>2023-07-16T08:38:05.000Z</time>
      </trkpt>
      <trkpt lat="42.50356" lon="2.44447">
        <ele>2120.3999023438</ele>
        <time>2023-07-16T08:38:07.000Z</time>
      </trkpt>
      <trkpt lat="42.50352" lon="2.44441">
        <ele>2119.6000976562</ele>
        <time>2023-07-16T08:38:13.000Z</time>
      </trkpt>
      <trkpt lat="42.5035" lon="2.44437">
        <ele>2119.3999023438</ele>
        <time>2023-07-16T08:38:16.000Z</time>
      </trkpt>
      <trkpt lat="42.50348" lon="2.44431">
        <ele>2118.8000488281</ele>
        <time>2023-07-16T08:38:20.000Z</time>
      </trkpt>
      <trkpt lat="42.50346" lon="2.44423">
        <ele>2118.1999511719</ele>
        <time>2023-07-16T08:38:25.000Z</time>
      </trkpt>
      <trkpt lat="42.50344" lon="2.44417">
        <ele>2117.6000976562</ele>
        <time>2023-07-16T08:38:29.000Z</time>
      </trkpt>
      <trkpt lat="42.50338" lon="2.44407">
        <ele>2117</ele>
        <time>2023-07-16T08:38:37.000Z</time>
      </trkpt>
      <trkpt lat="42.50336" lon="2.44407">
        <ele>2116.6000976562</ele>
        <time>2023-07-16T08:38:39.000Z</time>
      </trkpt>
      <trkpt lat="42.50335" lon="2.44405">
        <ele>2116</ele>
        <time>2023-07-16T08:38:43.000Z</time>
      </trkpt>
      <trkpt lat="42.50334" lon="2.44403">
        <ele>2115.1999511719</ele>
        <time>2023-07-16T08:38:45.000Z</time>
      </trkpt>
      <trkpt lat="42.50333" lon="2.444">
        <ele>2114.8000488281</ele>
        <time>2023-07-16T08:38:47.000Z</time>
      </trkpt>
      <trkpt lat="42.50331" lon="2.44394">
        <ele>2114.8000488281</ele>
        <time>2023-07-16T08:38:52.000Z</time>
      </trkpt>
      <trkpt lat="42.50327" lon="2.44388">
        <ele>2113.6000976562</ele>
        <time>2023-07-16T08:38:58.000Z</time>
      </trkpt>
      <trkpt lat="42.50325" lon="2.44387">
        <ele>2113.3999023438</ele>
        <time>2023-07-16T08:39:00.000Z</time>
      </trkpt>
      <trkpt lat="42.50317" lon="2.44382">
        <ele>2112.6000976562</ele>
        <time>2023-07-16T08:39:07.000Z</time>
      </trkpt>
      <trkpt lat="42.50313" lon="2.44375">
        <ele>2111.8000488281</ele>
        <time>2023-07-16T08:39:13.000Z</time>
      </trkpt>
      <trkpt lat="42.5031" lon="2.44371">
        <ele>2111.3999023438</ele>
        <time>2023-07-16T08:39:17.000Z</time>
      </trkpt>
      <trkpt lat="42.50305" lon="2.44367">
        <ele>2111</ele>
        <time>2023-07-16T08:39:22.000Z</time>
      </trkpt>
      <trkpt lat="42.50299" lon="2.44362">
        <ele>2110.1999511719</ele>
        <time>2023-07-16T08:39:28.000Z</time>
      </trkpt>
      <trkpt lat="42.50297" lon="2.4436">
        <ele>2109.8000488281</ele>
        <time>2023-07-16T08:39:30.000Z</time>
      </trkpt>
      <trkpt lat="42.50294" lon="2.44355">
        <ele>2109.1999511719</ele>
        <time>2023-07-16T08:39:34.000Z</time>
      </trkpt>
      <trkpt lat="42.50292" lon="2.44352">
        <ele>2109</ele>
        <time>2023-07-16T08:39:36.000Z</time>
      </trkpt>
      <trkpt lat="42.50288" lon="2.44345">
        <ele>2108.1999511719</ele>
        <time>2023-07-16T08:39:43.000Z</time>
      </trkpt>
      <trkpt lat="42.50287" lon="2.44344">
        <ele>2108</ele>
        <time>2023-07-16T08:39:44.000Z</time>
      </trkpt>
      <trkpt lat="42.50284" lon="2.44336">
        <ele>2107.3999023438</ele>
        <time>2023-07-16T08:39:51.000Z</time>
      </trkpt>
      <trkpt lat="42.50283" lon="2.44335">
        <ele>2106.8000488281</ele>
        <time>2023-07-16T08:39:53.000Z</time>
      </trkpt>
      <trkpt lat="42.5028" lon="2.44329">
        <ele>2106.1999511719</ele>
        <time>2023-07-16T08:39:59.000Z</time>
      </trkpt>
      <trkpt lat="42.50279" lon="2.44325">
        <ele>2105.6000976562</ele>
        <time>2023-07-16T08:40:03.000Z</time>
      </trkpt>
      <trkpt lat="42.50279" lon="2.44323">
        <ele>2105</ele>
        <time>2023-07-16T08:40:06.000Z</time>
      </trkpt>
      <trkpt lat="42.50278" lon="2.44319">
        <ele>2104.3999023438</ele>
        <time>2023-07-16T08:40:09.000Z</time>
      </trkpt>
      <trkpt lat="42.50276" lon="2.44317">
        <ele>2104</ele>
        <time>2023-07-16T08:40:12.000Z</time>
      </trkpt>
      <trkpt lat="42.50274" lon="2.44313">
        <ele>2103.3999023438</ele>
        <time>2023-07-16T08:40:15.000Z</time>
      </trkpt>
      <trkpt lat="42.50271" lon="2.44307">
        <ele>2102.8000488281</ele>
        <time>2023-07-16T08:40:21.000Z</time>
      </trkpt>
      <trkpt lat="42.50269" lon="2.44304">
        <ele>2102.3999023438</ele>
        <time>2023-07-16T08:40:24.000Z</time>
      </trkpt>
      <trkpt lat="42.50266" lon="2.44299">
        <ele>2101.6000976562</ele>
        <time>2023-07-16T08:40:30.000Z</time>
      </trkpt>
      <trkpt lat="42.50265" lon="2.44297">
        <ele>2101.3999023438</ele>
        <time>2023-07-16T08:40:32.000Z</time>
      </trkpt>
      <trkpt lat="42.50263" lon="2.44292">
        <ele>2100.3999023438</ele>
        <time>2023-07-16T08:40:37.000Z</time>
      </trkpt>
      <trkpt lat="42.50262" lon="2.44289">
        <ele>2100.3999023438</ele>
        <time>2023-07-16T08:40:39.000Z</time>
      </trkpt>
      <trkpt lat="42.50261" lon="2.44283">
        <ele>2099.6000976562</ele>
        <time>2023-07-16T08:40:47.000Z</time>
      </trkpt>
      <trkpt lat="42.50261" lon="2.44281">
        <ele>2099.1999511719</ele>
        <time>2023-07-16T08:40:49.000Z</time>
      </trkpt>
      <trkpt lat="42.50257" lon="2.44275">
        <ele>2098.1999511719</ele>
        <time>2023-07-16T08:40:55.000Z</time>
      </trkpt>
      <trkpt lat="42.50256" lon="2.44274">
        <ele>2098</ele>
        <time>2023-07-16T08:40:56.000Z</time>
      </trkpt>
      <trkpt lat="42.50251" lon="2.44267">
        <ele>2097</ele>
        <time>2023-07-16T08:41:03.000Z</time>
      </trkpt>
      <trkpt lat="42.5025" lon="2.44265">
        <ele>2096.3999023438</ele>
        <time>2023-07-16T08:41:05.000Z</time>
      </trkpt>
      <trkpt lat="42.50249" lon="2.4426">
        <ele>2095.6000976562</ele>
        <time>2023-07-16T08:41:09.000Z</time>
      </trkpt>
      <trkpt lat="42.50248" lon="2.44258">
        <ele>2095.1999511719</ele>
        <time>2023-07-16T08:41:12.000Z</time>
      </trkpt>
      <trkpt lat="42.50248" lon="2.44256">
        <ele>2094.6000976562</ele>
        <time>2023-07-16T08:41:14.000Z</time>
      </trkpt>
      <trkpt lat="42.50245" lon="2.44251">
        <ele>2094.1999511719</ele>
        <time>2023-07-16T08:41:21.000Z</time>
      </trkpt>
      <trkpt lat="42.50244" lon="2.44246">
        <ele>2092.8000488281</ele>
        <time>2023-07-16T08:41:26.000Z</time>
      </trkpt>
      <trkpt lat="42.50244" lon="2.44245">
        <ele>2092.1999511719</ele>
        <time>2023-07-16T08:41:27.000Z</time>
      </trkpt>
      <trkpt lat="42.50244" lon="2.44243">
        <ele>2091.8000488281</ele>
        <time>2023-07-16T08:41:29.000Z</time>
      </trkpt>
      <trkpt lat="42.50241" lon="2.44235">
        <ele>2091</ele>
        <time>2023-07-16T08:41:37.000Z</time>
      </trkpt>
      <trkpt lat="42.50241" lon="2.44232">
        <ele>2090.6000976562</ele>
        <time>2023-07-16T08:41:39.000Z</time>
      </trkpt>
      <trkpt lat="42.50239" lon="2.44227">
        <ele>2090</ele>
        <time>2023-07-16T08:41:44.000Z</time>
      </trkpt>
      <trkpt lat="42.50238" lon="2.44225">
        <ele>2089.3999023438</ele>
        <time>2023-07-16T08:41:48.000Z</time>
      </trkpt>
      <trkpt lat="42.50236" lon="2.44223">
        <ele>2088.6000976562</ele>
        <time>2023-07-16T08:41:55.000Z</time>
      </trkpt>
      <trkpt lat="42.50238" lon="2.44226">
        <ele>2088.1999511719</ele>
        <time>2023-07-16T08:42:00.000Z</time>
      </trkpt>
      <trkpt lat="42.5024" lon="2.44224">
        <ele>2088.1999511719</ele>
        <time>2023-07-16T08:42:03.000Z</time>
      </trkpt>
      <trkpt lat="42.50239" lon="2.44215">
        <ele>2088.6000976562</ele>
        <time>2023-07-16T08:42:12.000Z</time>
      </trkpt>
      <trkpt lat="42.50237" lon="2.44201">
        <ele>2087.3999023438</ele>
        <time>2023-07-16T08:42:21.000Z</time>
      </trkpt>
      <trkpt lat="42.50237" lon="2.44198">
        <ele>2087</ele>
        <time>2023-07-16T08:42:24.000Z</time>
      </trkpt>
      <trkpt lat="42.50239" lon="2.44192">
        <ele>2086.1999511719</ele>
        <time>2023-07-16T08:42:28.000Z</time>
      </trkpt>
      <trkpt lat="42.5024" lon="2.44189">
        <ele>2085.8000488281</ele>
        <time>2023-07-16T08:42:30.000Z</time>
      </trkpt>
      <trkpt lat="42.50244" lon="2.44181">
        <ele>2084.6000976562</ele>
        <time>2023-07-16T08:42:36.000Z</time>
      </trkpt>
      <trkpt lat="42.50244" lon="2.44177">
        <ele>2083.6000976562</ele>
        <time>2023-07-16T08:42:39.000Z</time>
      </trkpt>
      <trkpt lat="42.50244" lon="2.44173">
        <ele>2082.8000488281</ele>
        <time>2023-07-16T08:42:44.000Z</time>
      </trkpt>
      <trkpt lat="42.50243" lon="2.4417">
        <ele>2082.1999511719</ele>
        <time>2023-07-16T08:42:47.000Z</time>
      </trkpt>
      <trkpt lat="42.50244" lon="2.44162">
        <ele>2081.6000976562</ele>
        <time>2023-07-16T08:42:53.000Z</time>
      </trkpt>
      <trkpt lat="42.50246" lon="2.4415">
        <ele>2081.1999511719</ele>
        <time>2023-07-16T08:43:01.000Z</time>
      </trkpt>
      <trkpt lat="42.50247" lon="2.44148">
        <ele>2081.1999511719</ele>
        <time>2023-07-16T08:43:02.000Z</time>
      </trkpt>
      <trkpt lat="42.50249" lon="2.44141">
        <ele>2080.3999023438</ele>
        <time>2023-07-16T08:43:09.000Z</time>
      </trkpt>
      <trkpt lat="42.5025" lon="2.44139">
        <ele>2080</ele>
        <time>2023-07-16T08:43:11.000Z</time>
      </trkpt>
      <trkpt lat="42.50252" lon="2.44132">
        <ele>2078.8000488281</ele>
        <time>2023-07-16T08:43:17.000Z</time>
      </trkpt>
      <trkpt lat="42.50252" lon="2.44132">
        <ele>2078.6000976562</ele>
        <time>2023-07-16T08:43:18.000Z</time>
      </trkpt>
      <trkpt lat="42.50254" lon="2.44126">
        <ele>2077.8000488281</ele>
        <time>2023-07-16T08:43:22.000Z</time>
      </trkpt>
      <trkpt lat="42.50254" lon="2.44118">
        <ele>2077</ele>
        <time>2023-07-16T08:43:27.000Z</time>
      </trkpt>
      <trkpt lat="42.50255" lon="2.44111">
        <ele>2076.8000488281</ele>
        <time>2023-07-16T08:43:31.000Z</time>
      </trkpt>
      <trkpt lat="42.50256" lon="2.44108">
        <ele>2076.1999511719</ele>
        <time>2023-07-16T08:43:35.000Z</time>
      </trkpt>
      <trkpt lat="42.50256" lon="2.44105">
        <ele>2075.8000488281</ele>
        <time>2023-07-16T08:43:39.000Z</time>
      </trkpt>
      <trkpt lat="42.50254" lon="2.44093">
        <ele>2074.8000488281</ele>
        <time>2023-07-16T08:43:45.000Z</time>
      </trkpt>
      <trkpt lat="42.50254" lon="2.4409">
        <ele>2074.6000976562</ele>
        <time>2023-07-16T08:43:47.000Z</time>
      </trkpt>
      <trkpt lat="42.50255" lon="2.44084">
        <ele>2073.6000976562</ele>
        <time>2023-07-16T08:43:54.000Z</time>
      </trkpt>
      <trkpt lat="42.50255" lon="2.44084">
        <ele>2073.3999023438</ele>
        <time>2023-07-16T08:43:55.000Z</time>
      </trkpt>
      <trkpt lat="42.50257" lon="2.44079">
        <ele>2072.8000488281</ele>
        <time>2023-07-16T08:44:00.000Z</time>
      </trkpt>
      <trkpt lat="42.50259" lon="2.44078">
        <ele>2072.3999023438</ele>
        <time>2023-07-16T08:44:02.000Z</time>
      </trkpt>
      <trkpt lat="42.50262" lon="2.44073">
        <ele>2071.3999023438</ele>
        <time>2023-07-16T08:44:07.000Z</time>
      </trkpt>
      <trkpt lat="42.50267" lon="2.44067">
        <ele>2070.1999511719</ele>
        <time>2023-07-16T08:44:12.000Z</time>
      </trkpt>
      <trkpt lat="42.50269" lon="2.44065">
        <ele>2070</ele>
        <time>2023-07-16T08:44:14.000Z</time>
      </trkpt>
      <trkpt lat="42.50271" lon="2.44063">
        <ele>2069</ele>
        <time>2023-07-16T08:44:16.000Z</time>
      </trkpt>
      <trkpt lat="42.50273" lon="2.44058">
        <ele>2069.3999023438</ele>
        <time>2023-07-16T08:44:22.000Z</time>
      </trkpt>
      <trkpt lat="42.50277" lon="2.44053">
        <ele>2069.3999023438</ele>
        <time>2023-07-16T08:44:28.000Z</time>
      </trkpt>
      <trkpt lat="42.50282" lon="2.4405">
        <ele>2069.3999023438</ele>
        <time>2023-07-16T08:44:34.000Z</time>
      </trkpt>
      <trkpt lat="42.50285" lon="2.44043">
        <ele>2070</ele>
        <time>2023-07-16T08:44:40.000Z</time>
      </trkpt>
      <trkpt lat="42.50285" lon="2.44043">
        <ele>2070.1999511719</ele>
        <time>2023-07-16T08:44:41.000Z</time>
      </trkpt>
      <trkpt lat="42.50285" lon="2.44036">
        <ele>2069.6000976562</ele>
        <time>2023-07-16T08:44:47.000Z</time>
      </trkpt>
      <trkpt lat="42.50285" lon="2.44032">
        <ele>2069</ele>
        <time>2023-07-16T08:44:51.000Z</time>
      </trkpt>
      <trkpt lat="42.50287" lon="2.44027">
        <ele>2068.6000976562</ele>
        <time>2023-07-16T08:44:55.000Z</time>
      </trkpt>
      <trkpt lat="42.50289" lon="2.44016">
        <ele>2068.1999511719</ele>
        <time>2023-07-16T08:45:03.000Z</time>
      </trkpt>
      <trkpt lat="42.50289" lon="2.44013">
        <ele>2068</ele>
        <time>2023-07-16T08:45:06.000Z</time>
      </trkpt>
      <trkpt lat="42.50287" lon="2.44008">
        <ele>2067.1999511719</ele>
        <time>2023-07-16T08:45:11.000Z</time>
      </trkpt>
      <trkpt lat="42.50287" lon="2.44006">
        <ele>2067</ele>
        <time>2023-07-16T08:45:13.000Z</time>
      </trkpt>
      <trkpt lat="42.50288" lon="2.44">
        <ele>2065.8000488281</ele>
        <time>2023-07-16T08:45:19.000Z</time>
      </trkpt>
      <trkpt lat="42.50287" lon="2.43992">
        <ele>2064.8000488281</ele>
        <time>2023-07-16T08:45:25.000Z</time>
      </trkpt>
      <trkpt lat="42.50287" lon="2.43989">
        <ele>2064.1999511719</ele>
        <time>2023-07-16T08:45:28.000Z</time>
      </trkpt>
      <trkpt lat="42.50287" lon="2.43985">
        <ele>2063.6000976562</ele>
        <time>2023-07-16T08:45:32.000Z</time>
      </trkpt>
      <trkpt lat="42.50286" lon="2.43979">
        <ele>2063.3999023438</ele>
        <time>2023-07-16T08:45:37.000Z</time>
      </trkpt>
      <trkpt lat="42.50287" lon="2.43971">
        <ele>2062.6000976562</ele>
        <time>2023-07-16T08:45:44.000Z</time>
      </trkpt>
      <trkpt lat="42.50287" lon="2.43968">
        <ele>2062.1999511719</ele>
        <time>2023-07-16T08:45:47.000Z</time>
      </trkpt>
      <trkpt lat="42.50287" lon="2.4396">
        <ele>2061.6000976562</ele>
        <time>2023-07-16T08:45:53.000Z</time>
      </trkpt>
      <trkpt lat="42.50286" lon="2.43958">
        <ele>2061.6000976562</ele>
        <time>2023-07-16T08:45:55.000Z</time>
      </trkpt>
      <trkpt lat="42.50282" lon="2.43947">
        <ele>2060.6000976562</ele>
        <time>2023-07-16T08:46:03.000Z</time>
      </trkpt>
      <trkpt lat="42.50282" lon="2.43946">
        <ele>2060.6000976562</ele>
        <time>2023-07-16T08:46:04.000Z</time>
      </trkpt>
      <trkpt lat="42.50281" lon="2.43938">
        <ele>2060</ele>
        <time>2023-07-16T08:46:11.000Z</time>
      </trkpt>
      <trkpt lat="42.50281" lon="2.43936">
        <ele>2059.6000976562</ele>
        <time>2023-07-16T08:46:13.000Z</time>
      </trkpt>
      <trkpt lat="42.5028" lon="2.4393">
        <ele>2059.3999023438</ele>
        <time>2023-07-16T08:46:17.000Z</time>
      </trkpt>
      <trkpt lat="42.50278" lon="2.43921">
        <ele>2058.3999023438</ele>
        <time>2023-07-16T08:46:24.000Z</time>
      </trkpt>
      <trkpt lat="42.50279" lon="2.4391">
        <ele>2057.8000488281</ele>
        <time>2023-07-16T08:46:32.000Z</time>
      </trkpt>
      <trkpt lat="42.50279" lon="2.43905">
        <ele>2057.3999023438</ele>
        <time>2023-07-16T08:46:36.000Z</time>
      </trkpt>
      <trkpt lat="42.50279" lon="2.43902">
        <ele>2057</ele>
        <time>2023-07-16T08:46:39.000Z</time>
      </trkpt>
      <trkpt lat="42.50278" lon="2.43898">
        <ele>2056.3999023438</ele>
        <time>2023-07-16T08:46:42.000Z</time>
      </trkpt>
      <trkpt lat="42.50277" lon="2.43895">
        <ele>2055.8000488281</ele>
        <time>2023-07-16T08:46:46.000Z</time>
      </trkpt>
      <trkpt lat="42.50278" lon="2.43888">
        <ele>2055.1999511719</ele>
        <time>2023-07-16T08:46:50.000Z</time>
      </trkpt>
      <trkpt lat="42.50278" lon="2.43886">
        <ele>2054.8000488281</ele>
        <time>2023-07-16T08:46:52.000Z</time>
      </trkpt>
      <trkpt lat="42.50282" lon="2.43877">
        <ele>2054.1999511719</ele>
        <time>2023-07-16T08:47:00.000Z</time>
      </trkpt>
      <trkpt lat="42.50284" lon="2.43876">
        <ele>2054</ele>
        <time>2023-07-16T08:47:01.000Z</time>
      </trkpt>
      <trkpt lat="42.50291" lon="2.43871">
        <ele>2053.8000488281</ele>
        <time>2023-07-16T08:47:06.000Z</time>
      </trkpt>
      <trkpt lat="42.50295" lon="2.43872">
        <ele>2053.1999511719</ele>
        <time>2023-07-16T08:47:12.000Z</time>
      </trkpt>
      <trkpt lat="42.50296" lon="2.43873">
        <ele>2053.1999511719</ele>
        <time>2023-07-16T08:47:14.000Z</time>
      </trkpt>
      <trkpt lat="42.50297" lon="2.43874">
        <ele>2052.8000488281</ele>
        <time>2023-07-16T08:47:15.000Z</time>
      </trkpt>
      <trkpt lat="42.503" lon="2.43877">
        <ele>2051.8000488281</ele>
        <time>2023-07-16T08:47:20.000Z</time>
      </trkpt>
      <trkpt lat="42.50304" lon="2.43882">
        <ele>2050.6000976562</ele>
        <time>2023-07-16T08:47:24.000Z</time>
      </trkpt>
      <trkpt lat="42.50307" lon="2.43886">
        <ele>2050.3999023438</ele>
        <time>2023-07-16T08:47:30.000Z</time>
      </trkpt>
      <trkpt lat="42.50315" lon="2.43888">
        <ele>2051.1999511719</ele>
        <time>2023-07-16T08:47:38.000Z</time>
      </trkpt>
      <trkpt lat="42.50321" lon="2.43889">
        <ele>2051.8000488281</ele>
        <time>2023-07-16T08:47:41.000Z</time>
      </trkpt>
      <trkpt lat="42.50329" lon="2.43891">
        <ele>2051.8000488281</ele>
        <time>2023-07-16T08:47:47.000Z</time>
      </trkpt>
      <trkpt lat="42.50339" lon="2.43893">
        <ele>2050.6000976562</ele>
        <time>2023-07-16T08:47:56.000Z</time>
      </trkpt>
      <trkpt lat="42.5034" lon="2.43893">
        <ele>2050.3999023438</ele>
        <time>2023-07-16T08:47:57.000Z</time>
      </trkpt>
      <trkpt lat="42.50346" lon="2.43887">
        <ele>2049.6000976562</ele>
        <time>2023-07-16T08:48:02.000Z</time>
      </trkpt>
      <trkpt lat="42.50346" lon="2.43885">
        <ele>2049.3999023438</ele>
        <time>2023-07-16T08:48:03.000Z</time>
      </trkpt>
      <trkpt lat="42.50347" lon="2.43874">
        <ele>2049.1999511719</ele>
        <time>2023-07-16T08:48:10.000Z</time>
      </trkpt>
      <trkpt lat="42.50348" lon="2.43861">
        <ele>2048.3999023438</ele>
        <time>2023-07-16T08:48:18.000Z</time>
      </trkpt>
      <trkpt lat="42.50348" lon="2.4386">
        <ele>2048</ele>
        <time>2023-07-16T08:48:19.000Z</time>
      </trkpt>
      <trkpt lat="42.50348" lon="2.43857">
        <ele>2047</ele>
        <time>2023-07-16T08:48:22.000Z</time>
      </trkpt>
      <trkpt lat="42.5035" lon="2.43851">
        <ele>2046.4000244141</ele>
        <time>2023-07-16T08:48:26.000Z</time>
      </trkpt>
      <trkpt lat="42.50349" lon="2.43849">
        <ele>2045.4</ele>
        <time>2023-07-16T09:01:57Z</time>
      </trkpt>
      <trkpt lat="42.5035" lon="2.43841">
        <ele>2044.4</ele>
        <time>2023-07-16T09:02:12Z</time>
      </trkpt>
      <trkpt lat="42.50352" lon="2.43832">
        <ele>2043.9</ele>
        <time>2023-07-16T09:02:27Z</time>
      </trkpt>
      <trkpt lat="42.50355" lon="2.43827">
        <ele>2045</ele>
        <time>2023-07-16T09:02:42Z</time>
      </trkpt>
      <trkpt lat="42.50358" lon="2.43822">
        <ele>2045.8</ele>
        <time>2023-07-16T09:02:57Z</time>
      </trkpt>
      <trkpt lat="42.50354" lon="2.43806">
        <ele>2043.8</ele>
        <time>2023-07-16T09:03:12Z</time>
      </trkpt>
      <trkpt lat="42.50348" lon="2.43793">
        <ele>2042.9</ele>
        <time>2023-07-16T09:03:27Z</time>
      </trkpt>
      <trkpt lat="42.50345" lon="2.43784">
        <ele>2042.2</ele>
        <time>2023-07-16T09:03:42Z</time>
      </trkpt>
      <trkpt lat="42.5034" lon="2.43766">
        <ele>2042.3</ele>
        <time>2023-07-16T09:03:57Z</time>
      </trkpt>
      <trkpt lat="42.50326" lon="2.43746">
        <ele>2038.7</ele>
        <time>2023-07-16T09:04:12Z</time>
      </trkpt>
      <trkpt lat="42.50316" lon="2.43735">
        <ele>2035.3</ele>
        <time>2023-07-16T09:04:27Z</time>
      </trkpt>
      <trkpt lat="42.50311" lon="2.43724">
        <ele>2035.2</ele>
        <time>2023-07-16T09:04:42Z</time>
      </trkpt>
      <trkpt lat="42.50319" lon="2.43673">
        <ele>2032.9</ele>
        <time>2023-07-16T09:04:57Z</time>
      </trkpt>
      <trkpt lat="42.50323" lon="2.43647">
        <ele>2031.3</ele>
        <time>2023-07-16T09:05:12Z</time>
      </trkpt>
      <trkpt lat="42.50326" lon="2.43631">
        <ele>2030.6</ele>
        <time>2023-07-16T09:05:27Z</time>
      </trkpt>
      <trkpt lat="42.50329" lon="2.43578">
        <ele>2024.8</ele>
        <time>2023-07-16T09:05:42Z</time>
      </trkpt>
      <trkpt lat="42.50331" lon="2.43541">
        <ele>2021.3</ele>
        <time>2023-07-16T09:05:57Z</time>
      </trkpt>
      <trkpt lat="42.50332" lon="2.43517">
        <ele>2019.3</ele>
        <time>2023-07-16T09:06:12Z</time>
      </trkpt>
      <trkpt lat="42.50334" lon="2.43501">
        <ele>2018.3</ele>
        <time>2023-07-16T09:06:27Z</time>
      </trkpt>
      <trkpt lat="42.50332" lon="2.43498">
        <ele>2017.3</ele>
        <time>2023-07-16T09:06:42Z</time>
      </trkpt>
      <trkpt lat="42.50327" lon="2.43514">
        <ele>2016</ele>
        <time>2023-07-16T09:06:57Z</time>
      </trkpt>
      <trkpt lat="42.50322" lon="2.43532">
        <ele>2015.7</ele>
        <time>2023-07-16T09:07:12Z</time>
      </trkpt>
      <trkpt lat="42.50321" lon="2.43533">
        <ele>2019.1999511719</ele>
        <time>2023-07-16T09:07:39.000Z</time>
      </trkpt>
      <trkpt lat="42.50319" lon="2.4354">
        <ele>2018.5999755859</ele>
        <time>2023-07-16T09:07:43.000Z</time>
      </trkpt>
      <trkpt lat="42.50318" lon="2.43543">
        <ele>2018.4000244141</ele>
        <time>2023-07-16T09:07:45.000Z</time>
      </trkpt>
      <trkpt lat="42.50314" lon="2.4355">
        <ele>2017.4000244141</ele>
        <time>2023-07-16T09:07:51.000Z</time>
      </trkpt>
      <trkpt lat="42.50308" lon="2.43559">
        <ele>2016.5999755859</ele>
        <time>2023-07-16T09:07:58.000Z</time>
      </trkpt>
      <trkpt lat="42.50304" lon="2.43564">
        <ele>2016.4000244141</ele>
        <time>2023-07-16T09:08:02.000Z</time>
      </trkpt>
      <trkpt lat="42.50302" lon="2.43567">
        <ele>2016.1999511719</ele>
        <time>2023-07-16T09:08:06.000Z</time>
      </trkpt>
      <trkpt lat="42.50301" lon="2.43575">
        <ele>2015.8000488281</ele>
        <time>2023-07-16T09:08:13.000Z</time>
      </trkpt>
      <trkpt lat="42.50298" lon="2.43586">
        <ele>2015.5999755859</ele>
        <time>2023-07-16T09:08:21.000Z</time>
      </trkpt>
      <trkpt lat="42.50298" lon="2.43586">
        <ele>2015.4000244141</ele>
        <time>2023-07-16T09:08:22.000Z</time>
      </trkpt>
      <trkpt lat="42.50298" lon="2.43595">
        <ele>2014.8000488281</ele>
        <time>2023-07-16T09:08:30.000Z</time>
      </trkpt>
      <trkpt lat="42.50294" lon="2.43609">
        <ele>2014.5999755859</ele>
        <time>2023-07-16T09:08:37.000Z</time>
      </trkpt>
      <trkpt lat="42.50294" lon="2.43612">
        <ele>2014.4000244141</ele>
        <time>2023-07-16T09:08:39.000Z</time>
      </trkpt>
      <trkpt lat="42.50293" lon="2.43615">
        <ele>2013.8000488281</ele>
        <time>2023-07-16T09:08:46.000Z</time>
      </trkpt>
      <trkpt lat="42.50288" lon="2.43623">
        <ele>2013.8000488281</ele>
        <time>2023-07-16T09:08:54.000Z</time>
      </trkpt>
      <trkpt lat="42.50282" lon="2.4363">
        <ele>2013.4000244141</ele>
        <time>2023-07-16T09:09:03.000Z</time>
      </trkpt>
      <trkpt lat="42.50282" lon="2.43632">
        <ele>2013.1999511719</ele>
        <time>2023-07-16T09:09:04.000Z</time>
      </trkpt>
      <trkpt lat="42.50279" lon="2.43638">
        <ele>2012.1999511719</ele>
        <time>2023-07-16T09:09:11.000Z</time>
      </trkpt>
      <trkpt lat="42.50279" lon="2.43639">
        <ele>2011.8000488281</ele>
        <time>2023-07-16T09:09:13.000Z</time>
      </trkpt>
      <trkpt lat="42.50279" lon="2.43642">
        <ele>2011.1999511719</ele>
        <time>2023-07-16T09:09:16.000Z</time>
      </trkpt>
      <trkpt lat="42.50277" lon="2.43648">
        <ele>2011.1999511719</ele>
        <time>2023-07-16T09:09:21.000Z</time>
      </trkpt>
      <trkpt lat="42.50273" lon="2.43659">
        <ele>2010.1999511719</ele>
        <time>2023-07-16T09:09:29.000Z</time>
      </trkpt>
      <trkpt lat="42.50272" lon="2.4366">
        <ele>2010</ele>
        <time>2023-07-16T09:09:30.000Z</time>
      </trkpt>
      <trkpt lat="42.50264" lon="2.43668">
        <ele>2009.1999511719</ele>
        <time>2023-07-16T09:09:38.000Z</time>
      </trkpt>
      <trkpt lat="42.50263" lon="2.43669">
        <ele>2009</ele>
        <time>2023-07-16T09:09:40.000Z</time>
      </trkpt>
      <trkpt lat="42.50262" lon="2.43673">
        <ele>2008.8000488281</ele>
        <time>2023-07-16T09:09:45.000Z</time>
      </trkpt>
      <trkpt lat="42.50257" lon="2.43683">
        <ele>2008</ele>
        <time>2023-07-16T09:09:53.000Z</time>
      </trkpt>
      <trkpt lat="42.50256" lon="2.43684">
        <ele>2007.8000488281</ele>
        <time>2023-07-16T09:09:54.000Z</time>
      </trkpt>
      <trkpt lat="42.50253" lon="2.43694">
        <ele>2007</ele>
        <time>2023-07-16T09:10:03.000Z</time>
      </trkpt>
      <trkpt lat="42.50253" lon="2.43695">
        <ele>2006.8000488281</ele>
        <time>2023-07-16T09:10:04.000Z</time>
      </trkpt>
      <trkpt lat="42.50253" lon="2.43708">
        <ele>2005.8000488281</ele>
        <time>2023-07-16T09:10:12.000Z</time>
      </trkpt>
      <trkpt lat="42.50254" lon="2.43719">
        <ele>2005.1999511719</ele>
        <time>2023-07-16T09:10:20.000Z</time>
      </trkpt>
      <trkpt lat="42.50254" lon="2.43724">
        <ele>2004.8000488281</ele>
        <time>2023-07-16T09:10:25.000Z</time>
      </trkpt>
      <trkpt lat="42.50254" lon="2.43724">
        <ele>2004.5999755859</ele>
        <time>2023-07-16T09:10:26.000Z</time>
      </trkpt>
      <trkpt lat="42.50254" lon="2.43727">
        <ele>2003.5999755859</ele>
        <time>2023-07-16T09:10:31.000Z</time>
      </trkpt>
      <trkpt lat="42.50254" lon="2.43727">
        <ele>2003.5999755859</ele>
        <time>2023-07-16T09:10:32.000Z</time>
      </trkpt>
      <trkpt lat="42.50255" lon="2.4373">
        <ele>2002.4000244141</ele>
        <time>2023-07-16T09:10:38.000Z</time>
      </trkpt>
      <trkpt lat="42.50255" lon="2.4373">
        <ele>2002.1999511719</ele>
        <time>2023-07-16T09:10:39.000Z</time>
      </trkpt>
      <trkpt lat="42.50251" lon="2.43735">
        <ele>2001.1999511719</ele>
        <time>2023-07-16T09:10:46.000Z</time>
      </trkpt>
      <trkpt lat="42.50251" lon="2.43735">
        <ele>2001.1999511719</ele>
        <time>2023-07-16T09:10:47.000Z</time>
      </trkpt>
      <trkpt lat="42.5025" lon="2.43739">
        <ele>2000.8000488281</ele>
        <time>2023-07-16T09:10:56.000Z</time>
      </trkpt>
      <trkpt lat="42.50246" lon="2.43737">
        <ele>2000.5999755859</ele>
        <time>2023-07-16T09:11:05.000Z</time>
      </trkpt>
      <trkpt lat="42.50228" lon="2.43734">
        <ele>2000.4000244141</ele>
        <time>2023-07-16T09:11:23.000Z</time>
      </trkpt>
      <trkpt lat="42.50229" lon="2.43735">
        <ele>2000.1999511719</ele>
        <time>2023-07-16T09:11:24.000Z</time>
      </trkpt>
      <trkpt lat="42.50207" lon="2.43736">
        <ele>1998</ele>
        <time>2023-07-16T09:11:40.000Z</time>
      </trkpt>
      <trkpt lat="42.50206" lon="2.43737">
        <ele>1997.8000488281</ele>
        <time>2023-07-16T09:11:41.000Z</time>
      </trkpt>
      <trkpt lat="42.50198" lon="2.43742">
        <ele>1997.4000244141</ele>
        <time>2023-07-16T09:11:48.000Z</time>
      </trkpt>
      <trkpt lat="42.50193" lon="2.43747">
        <ele>1997</ele>
        <time>2023-07-16T09:11:53.000Z</time>
      </trkpt>
      <trkpt lat="42.50188" lon="2.43752">
        <ele>1996.5999755859</ele>
        <time>2023-07-16T09:12:00.000Z</time>
      </trkpt>
      <trkpt lat="42.50184" lon="2.43757">
        <ele>1996.5999755859</ele>
        <time>2023-07-16T09:12:07.000Z</time>
      </trkpt>
      <trkpt lat="42.5018" lon="2.43763">
        <ele>1996</ele>
        <time>2023-07-16T09:12:13.000Z</time>
      </trkpt>
      <trkpt lat="42.50179" lon="2.43765">
        <ele>1996</ele>
        <time>2023-07-16T09:12:14.000Z</time>
      </trkpt>
      <trkpt lat="42.50178" lon="2.43769">
        <ele>1995.1999511719</ele>
        <time>2023-07-16T09:12:20.000Z</time>
      </trkpt>
      <trkpt lat="42.50177" lon="2.4377">
        <ele>1995</ele>
        <time>2023-07-16T09:12:21.000Z</time>
      </trkpt>
      <trkpt lat="42.50172" lon="2.43774">
        <ele>1994.1999511719</ele>
        <time>2023-07-16T09:12:27.000Z</time>
      </trkpt>
      <trkpt lat="42.5017" lon="2.43776">
        <ele>1993.8000488281</ele>
        <time>2023-07-16T09:12:31.000Z</time>
      </trkpt>
      <trkpt lat="42.50168" lon="2.43779">
        <ele>1993.8000488281</ele>
        <time>2023-07-16T09:12:34.000Z</time>
      </trkpt>
      <trkpt lat="42.50163" lon="2.43785">
        <ele>1993.4000244141</ele>
        <time>2023-07-16T09:12:41.000Z</time>
      </trkpt>
      <trkpt lat="42.50157" lon="2.43792">
        <ele>1993.1999511719</ele>
        <time>2023-07-16T09:12:49.000Z</time>
      </trkpt>
      <trkpt lat="42.50154" lon="2.43792">
        <ele>1993</ele>
        <time>2023-07-16T09:12:57.000Z</time>
      </trkpt>
      <trkpt lat="42.50139" lon="2.43795">
        <ele>1992.1999511719</ele>
        <time>2023-07-16T09:13:13.000Z</time>
      </trkpt>
      <trkpt lat="42.50136" lon="2.43796">
        <ele>1991.8000488281</ele>
        <time>2023-07-16T09:13:18.000Z</time>
      </trkpt>
      <trkpt lat="42.50132" lon="2.43797">
        <ele>1991</ele>
        <time>2023-07-16T09:13:23.000Z</time>
      </trkpt>
      <trkpt lat="42.50129" lon="2.43799">
        <ele>1990.8000488281</ele>
        <time>2023-07-16T09:13:25.000Z</time>
      </trkpt>
      <trkpt lat="42.50122" lon="2.43802">
        <ele>1990.4000244141</ele>
        <time>2023-07-16T09:13:31.000Z</time>
      </trkpt>
      <trkpt lat="42.50113" lon="2.43807">
        <ele>1990</ele>
        <time>2023-07-16T09:13:39.000Z</time>
      </trkpt>
      <trkpt lat="42.50106" lon="2.43809">
        <ele>1990</ele>
        <time>2023-07-16T09:13:48.000Z</time>
      </trkpt>
      <trkpt lat="42.50103" lon="2.43809">
        <ele>1989.5999755859</ele>
        <time>2023-07-16T09:13:52.000Z</time>
      </trkpt>
      <trkpt lat="42.50097" lon="2.43814">
        <ele>1989.1999511719</ele>
        <time>2023-07-16T09:13:59.000Z</time>
      </trkpt>
      <trkpt lat="42.50092" lon="2.43822">
        <ele>1988.5999755859</ele>
        <time>2023-07-16T09:14:08.000Z</time>
      </trkpt>
      <trkpt lat="42.5009" lon="2.43825">
        <ele>1988.4000244141</ele>
        <time>2023-07-16T09:14:11.000Z</time>
      </trkpt>
      <trkpt lat="42.50085" lon="2.43832">
        <ele>1987.8000488281</ele>
        <time>2023-07-16T09:14:19.000Z</time>
      </trkpt>
      <trkpt lat="42.50084" lon="2.43833">
        <ele>1987.5999755859</ele>
        <time>2023-07-16T09:14:20.000Z</time>
      </trkpt>
      <trkpt lat="42.50081" lon="2.43842">
        <ele>1987.1999511719</ele>
        <time>2023-07-16T09:14:26.000Z</time>
      </trkpt>
      <trkpt lat="42.50076" lon="2.43849">
        <ele>1986.4000244141</ele>
        <time>2023-07-16T09:14:32.000Z</time>
      </trkpt>
      <trkpt lat="42.50075" lon="2.4385">
        <ele>1986.1999511719</ele>
        <time>2023-07-16T09:14:34.000Z</time>
      </trkpt>
      <trkpt lat="42.50069" lon="2.43858">
        <ele>1985.5999755859</ele>
        <time>2023-07-16T09:14:45.000Z</time>
      </trkpt>
      <trkpt lat="42.50067" lon="2.43859">
        <ele>1985.1999511719</ele>
        <time>2023-07-16T09:14:48.000Z</time>
      </trkpt>
      <trkpt lat="42.50065" lon="2.43861">
        <ele>1984.4000244141</ele>
        <time>2023-07-16T09:14:52.000Z</time>
      </trkpt>
      <trkpt lat="42.50063" lon="2.43865">
        <ele>1984.1999511719</ele>
        <time>2023-07-16T09:14:54.000Z</time>
      </trkpt>
      <trkpt lat="42.50061" lon="2.43871">
        <ele>1984</ele>
        <time>2023-07-16T09:14:58.000Z</time>
      </trkpt>
      <trkpt lat="42.50056" lon="2.43876">
        <ele>1984.1999511719</ele>
        <time>2023-07-16T09:15:05.000Z</time>
      </trkpt>
      <trkpt lat="42.50053" lon="2.4388">
        <ele>1983.5999755859</ele>
        <time>2023-07-16T09:15:12.000Z</time>
      </trkpt>
      <trkpt lat="42.50046" lon="2.43892">
        <ele>1983.1999511719</ele>
        <time>2023-07-16T09:15:19.000Z</time>
      </trkpt>
      <trkpt lat="42.50043" lon="2.43902">
        <ele>1982.4000244141</ele>
        <time>2023-07-16T09:15:28.000Z</time>
      </trkpt>
      <trkpt lat="42.50039" lon="2.43908">
        <ele>1982</ele>
        <time>2023-07-16T09:15:32.000Z</time>
      </trkpt>
      <trkpt lat="42.50036" lon="2.4391">
        <ele>1981.8000488281</ele>
        <time>2023-07-16T09:15:34.000Z</time>
      </trkpt>
      <trkpt lat="42.50029" lon="2.43916">
        <ele>1981.4000244141</ele>
        <time>2023-07-16T09:15:40.000Z</time>
      </trkpt>
      <trkpt lat="42.50024" lon="2.43922">
        <ele>1981.5999755859</ele>
        <time>2023-07-16T09:15:46.000Z</time>
      </trkpt>
      <trkpt lat="42.50021" lon="2.43933">
        <ele>1981.1999511719</ele>
        <time>2023-07-16T09:15:56.000Z</time>
      </trkpt>
      <trkpt lat="42.50017" lon="2.43941">
        <ele>1981</ele>
        <time>2023-07-16T09:16:04.000Z</time>
      </trkpt>
      <trkpt lat="42.50016" lon="2.43943">
        <ele>1981</ele>
        <time>2023-07-16T09:16:05.000Z</time>
      </trkpt>
      <trkpt lat="42.50016" lon="2.43956">
        <ele>1980.8000488281</ele>
        <time>2023-07-16T09:16:11.000Z</time>
      </trkpt>
      <trkpt lat="42.50016" lon="2.43965">
        <ele>1980.1999511719</ele>
        <time>2023-07-16T09:16:17.000Z</time>
      </trkpt>
      <trkpt lat="42.50016" lon="2.43966">
        <ele>1980</ele>
        <time>2023-07-16T09:16:19.000Z</time>
      </trkpt>
      <trkpt lat="42.50018" lon="2.43967">
        <ele>1979.4000244141</ele>
        <time>2023-07-16T09:16:24.000Z</time>
      </trkpt>
      <trkpt lat="42.50019" lon="2.43969">
        <ele>1978.8000488281</ele>
        <time>2023-07-16T09:16:29.000Z</time>
      </trkpt>
      <trkpt lat="42.50018" lon="2.4397">
        <ele>1978.5999755859</ele>
        <time>2023-07-16T09:16:31.000Z</time>
      </trkpt>
      <trkpt lat="42.5001" lon="2.43972">
        <ele>1978</ele>
        <time>2023-07-16T09:16:38.000Z</time>
      </trkpt>
      <trkpt lat="42.50009" lon="2.43971">
        <ele>1977.8000488281</ele>
        <time>2023-07-16T09:16:39.000Z</time>
      </trkpt>
      <trkpt lat="42.50002" lon="2.4397">
        <ele>1977</ele>
        <time>2023-07-16T09:16:46.000Z</time>
      </trkpt>
      <trkpt lat="42.50002" lon="2.4397">
        <ele>1976.8000488281</ele>
        <time>2023-07-16T09:16:47.000Z</time>
      </trkpt>
      <trkpt lat="42.5" lon="2.43967">
        <ele>1975.8000488281</ele>
        <time>2023-07-16T09:16:53.000Z</time>
      </trkpt>
      <trkpt lat="42.49999" lon="2.43967">
        <ele>1975.8000488281</ele>
        <time>2023-07-16T09:16:54.000Z</time>
      </trkpt>
      <trkpt lat="42.49998" lon="2.43969">
        <ele>1975.1999511719</ele>
        <time>2023-07-16T09:16:59.000Z</time>
      </trkpt>
      <trkpt lat="42.49996" lon="2.43968">
        <ele>1974.5999755859</ele>
        <time>2023-07-16T09:17:02.000Z</time>
      </trkpt>
      <trkpt lat="42.49995" lon="2.43968">
        <ele>1974.1999511719</ele>
        <time>2023-07-16T09:17:05.000Z</time>
      </trkpt>
      <trkpt lat="42.49993" lon="2.43967">
        <ele>1973.5999755859</ele>
        <time>2023-07-16T09:17:09.000Z</time>
      </trkpt>
      <trkpt lat="42.4999" lon="2.43965">
        <ele>1972.8000488281</ele>
        <time>2023-07-16T09:17:14.000Z</time>
      </trkpt>
      <trkpt lat="42.4999" lon="2.43965">
        <ele>1972.5999755859</ele>
        <time>2023-07-16T09:17:18.000Z</time>
      </trkpt>
      <trkpt lat="42.49988" lon="2.43962">
        <ele>1972.4000244141</ele>
        <time>2023-07-16T09:17:23.000Z</time>
      </trkpt>
      <trkpt lat="42.49984" lon="2.43958">
        <ele>1972.1999511719</ele>
        <time>2023-07-16T09:17:32.000Z</time>
      </trkpt>
      <trkpt lat="42.49982" lon="2.43964">
        <ele>1972.4000244141</ele>
        <time>2023-07-16T09:17:38.000Z</time>
      </trkpt>
      <trkpt lat="42.49978" lon="2.43962">
        <ele>1971.1999511719</ele>
        <time>2023-07-16T09:17:48.000Z</time>
      </trkpt>
      <trkpt lat="42.49976" lon="2.43955">
        <ele>1970.4000244141</ele>
        <time>2023-07-16T09:17:55.000Z</time>
      </trkpt>
      <trkpt lat="42.49976" lon="2.43956">
        <ele>1970.1999511719</ele>
        <time>2023-07-16T09:17:56.000Z</time>
      </trkpt>
      <trkpt lat="42.49975" lon="2.43957">
        <ele>1969.8000488281</ele>
        <time>2023-07-16T09:17:59.000Z</time>
      </trkpt>
      <trkpt lat="42.49975" lon="2.43958">
        <ele>1969.4000244141</ele>
        <time>2023-07-16T09:18:02.000Z</time>
      </trkpt>
      <trkpt lat="42.49975" lon="2.4396">
        <ele>1969.1999511719</ele>
        <time>2023-07-16T09:18:04.000Z</time>
      </trkpt>
      <trkpt lat="42.49972" lon="2.43957">
        <ele>1969.1999511719</ele>
        <time>2023-07-16T09:18:11.000Z</time>
      </trkpt>
      <trkpt lat="42.49968" lon="2.43957">
        <ele>1969</ele>
        <time>2023-07-16T09:18:18.000Z</time>
      </trkpt>
      <trkpt lat="42.4997" lon="2.43959">
        <ele>1969</ele>
        <time>2023-07-16T09:18:26.000Z</time>
      </trkpt>
      <trkpt lat="42.49969" lon="2.43959">
        <ele>1968.8000488281</ele>
        <time>2023-07-16T09:18:31.000Z</time>
      </trkpt>
      <trkpt lat="42.49966" lon="2.43963">
        <ele>1968.5999755859</ele>
        <time>2023-07-16T09:18:38.000Z</time>
      </trkpt>
      <trkpt lat="42.49963" lon="2.4396">
        <ele>1968.1999511719</ele>
        <time>2023-07-16T09:18:42.000Z</time>
      </trkpt>
      <trkpt lat="42.49963" lon="2.4396">
        <ele>1968.1999511719</ele>
        <time>2023-07-16T09:18:43.000Z</time>
      </trkpt>
      <trkpt lat="42.49957" lon="2.43954">
        <ele>1968</ele>
        <time>2023-07-16T09:18:50.000Z</time>
      </trkpt>
      <trkpt lat="42.49952" lon="2.4395">
        <ele>1967.8000488281</ele>
        <time>2023-07-16T09:18:56.000Z</time>
      </trkpt>
      <trkpt lat="42.49949" lon="2.43945">
        <ele>1967.8000488281</ele>
        <time>2023-07-16T09:19:05.000Z</time>
      </trkpt>
      <trkpt lat="42.4995" lon="2.43946">
        <ele>1969.1999511719</ele>
        <time>2023-07-16T09:19:10.000Z</time>
      </trkpt>
      <trkpt lat="42.49951" lon="2.43948">
        <ele>1969.4000244141</ele>
        <time>2023-07-16T09:19:11.000Z</time>
      </trkpt>
      <trkpt lat="42.4995" lon="2.43949">
        <ele>1970.1999511719</ele>
        <time>2023-07-16T09:19:14.000Z</time>
      </trkpt>
      <trkpt lat="42.49949" lon="2.43945">
        <ele>1971.5999755859</ele>
        <time>2023-07-16T09:19:21.000Z</time>
      </trkpt>
      <trkpt lat="42.49948" lon="2.43943">
        <ele>1971.8000488281</ele>
        <time>2023-07-16T09:19:23.000Z</time>
      </trkpt>
      <trkpt lat="42.49946" lon="2.43936">
        <ele>1972.8000488281</ele>
        <time>2023-07-16T09:19:28.000Z</time>
      </trkpt>
      <trkpt lat="42.49945" lon="2.43934">
        <ele>1973</ele>
        <time>2023-07-16T09:19:31.000Z</time>
      </trkpt>
      <trkpt lat="42.49943" lon="2.43931">
        <ele>1973.8000488281</ele>
        <time>2023-07-16T09:19:36.000Z</time>
      </trkpt>
      <trkpt lat="42.49943" lon="2.43931">
        <ele>1974.1999511719</ele>
        <time>2023-07-16T09:19:38.000Z</time>
      </trkpt>
      <trkpt lat="42.49943" lon="2.4393">
        <ele>1975</ele>
        <time>2023-07-16T09:19:42.000Z</time>
      </trkpt>
      <trkpt lat="42.49944" lon="2.43929">
        <ele>1975.5999755859</ele>
        <time>2023-07-16T09:19:46.000Z</time>
      </trkpt>
      <trkpt lat="42.49943" lon="2.43929">
        <ele>1975.5999755859</ele>
        <time>2023-07-16T09:19:54.000Z</time>
      </trkpt>
      <trkpt lat="42.49942" lon="2.43933">
        <ele>1975.8000488281</ele>
        <time>2023-07-16T09:20:02.000Z</time>
      </trkpt>
      <trkpt lat="42.4994" lon="2.43929">
        <ele>1976</ele>
        <time>2023-07-16T09:20:09.000Z</time>
      </trkpt>
      <trkpt lat="42.49938" lon="2.43926">
        <ele>1976.8000488281</ele>
        <time>2023-07-16T09:20:15.000Z</time>
      </trkpt>
      <trkpt lat="42.49939" lon="2.43924">
        <ele>1977.1999511719</ele>
        <time>2023-07-16T09:20:17.000Z</time>
      </trkpt>
      <trkpt lat="42.4994" lon="2.43918">
        <ele>1977.5999755859</ele>
        <time>2023-07-16T09:20:22.000Z</time>
      </trkpt>
      <trkpt lat="42.49941" lon="2.43909">
        <ele>1977.4000244141</ele>
        <time>2023-07-16T09:20:31.000Z</time>
      </trkpt>
      <trkpt lat="42.4994" lon="2.43906">
        <ele>1977.5999755859</ele>
        <time>2023-07-16T09:20:37.000Z</time>
      </trkpt>
      <trkpt lat="42.49939" lon="2.43905">
        <ele>1978.1999511719</ele>
        <time>2023-07-16T09:20:39.000Z</time>
      </trkpt>
      <trkpt lat="42.49939" lon="2.43904">
        <ele>1979</ele>
        <time>2023-07-16T09:20:43.000Z</time>
      </trkpt>
      <trkpt lat="42.49939" lon="2.43903">
        <ele>1979.4000244141</ele>
        <time>2023-07-16T09:20:45.000Z</time>
      </trkpt>
      <trkpt lat="42.49939" lon="2.43899">
        <ele>1980.5999755859</ele>
        <time>2023-07-16T09:20:50.000Z</time>
      </trkpt>
      <trkpt lat="42.4994" lon="2.43896">
        <ele>1981.1999511719</ele>
        <time>2023-07-16T09:20:53.000Z</time>
      </trkpt>
      <trkpt lat="42.4994" lon="2.43893">
        <ele>1981.5999755859</ele>
        <time>2023-07-16T09:20:56.000Z</time>
      </trkpt>
      <trkpt lat="42.49939" lon="2.43886">
        <ele>1982.5999755859</ele>
        <time>2023-07-16T09:21:03.000Z</time>
      </trkpt>
      <trkpt lat="42.49935" lon="2.43882">
        <ele>1981.5999755859</ele>
        <time>2023-07-16T09:21:13.000Z</time>
      </trkpt>
      <trkpt lat="42.49939" lon="2.43875">
        <ele>1980.8000488281</ele>
        <time>2023-07-16T09:21:21.000Z</time>
      </trkpt>
      <trkpt lat="42.49941" lon="2.4387">
        <ele>1980.5999755859</ele>
        <time>2023-07-16T09:21:28.000Z</time>
      </trkpt>
      <trkpt lat="42.49948" lon="2.43858">
        <ele>1979.5999755859</ele>
        <time>2023-07-16T09:21:40.000Z</time>
      </trkpt>
      <trkpt lat="42.49949" lon="2.43854">
        <ele>1979.1999511719</ele>
        <time>2023-07-16T09:21:47.000Z</time>
      </trkpt>
      <trkpt lat="42.49955" lon="2.43844">
        <ele>1979.1999511719</ele>
        <time>2023-07-16T09:21:54.000Z</time>
      </trkpt>
      <trkpt lat="42.49958" lon="2.43838">
        <ele>1979.8000488281</ele>
        <time>2023-07-16T09:22:02.000Z</time>
      </trkpt>
      <trkpt lat="42.49961" lon="2.43829">
        <ele>1980</ele>
        <time>2023-07-16T09:22:08.000Z</time>
      </trkpt>
      <trkpt lat="42.49961" lon="2.43824">
        <ele>1980.5999755859</ele>
        <time>2023-07-16T09:22:13.000Z</time>
      </trkpt>
      <trkpt lat="42.49961" lon="2.43815">
        <ele>1981.1999511719</ele>
        <time>2023-07-16T09:22:18.000Z</time>
      </trkpt>
      <trkpt lat="42.49961" lon="2.43805">
        <ele>1981</ele>
        <time>2023-07-16T09:22:26.000Z</time>
      </trkpt>
      <trkpt lat="42.49964" lon="2.43801">
        <ele>1980.5999755859</ele>
        <time>2023-07-16T09:22:33.000Z</time>
      </trkpt>
      <trkpt lat="42.49969" lon="2.43788">
        <ele>1981</ele>
        <time>2023-07-16T09:22:41.000Z</time>
      </trkpt>
      <trkpt lat="42.4997" lon="2.43779">
        <ele>1980.5999755859</ele>
        <time>2023-07-16T09:22:48.000Z</time>
      </trkpt>
      <trkpt lat="42.4997" lon="2.43772">
        <ele>1979.4000244141</ele>
        <time>2023-07-16T09:22:54.000Z</time>
      </trkpt>
      <trkpt lat="42.4997" lon="2.4377">
        <ele>1979.1999511719</ele>
        <time>2023-07-16T09:22:56.000Z</time>
      </trkpt>
      <trkpt lat="42.49972" lon="2.43757">
        <ele>1979.8000488281</ele>
        <time>2023-07-16T09:23:04.000Z</time>
      </trkpt>
      <trkpt lat="42.49967" lon="2.43751">
        <ele>1980.1999511719</ele>
        <time>2023-07-16T09:23:13.000Z</time>
      </trkpt>
      <trkpt lat="42.49967" lon="2.43748">
        <ele>1980.4000244141</ele>
        <time>2023-07-16T09:23:17.000Z</time>
      </trkpt>
      <trkpt lat="42.49968" lon="2.43746">
        <ele>1980.4000244141</ele>
        <time>2023-07-16T09:23:18.000Z</time>
      </trkpt>
      <trkpt lat="42.49966" lon="2.43739">
        <ele>1980</ele>
        <time>2023-07-16T09:23:25.000Z</time>
      </trkpt>
      <trkpt lat="42.49966" lon="2.43727">
        <ele>1980</ele>
        <time>2023-07-16T09:23:33.000Z</time>
      </trkpt>
      <trkpt lat="42.4997" lon="2.4372">
        <ele>1979.5999755859</ele>
        <time>2023-07-16T09:23:40.000Z</time>
      </trkpt>
      <trkpt lat="42.49971" lon="2.43717">
        <ele>1979.4000244141</ele>
        <time>2023-07-16T09:23:43.000Z</time>
      </trkpt>
      <trkpt lat="42.49974" lon="2.4371">
        <ele>1979.1999511719</ele>
        <time>2023-07-16T09:23:48.000Z</time>
      </trkpt>
      <trkpt lat="42.49983" lon="2.43699">
        <ele>1979.1999511719</ele>
        <time>2023-07-16T09:23:57.000Z</time>
      </trkpt>
      <trkpt lat="42.49986" lon="2.43691">
        <ele>1979.4000244141</ele>
        <time>2023-07-16T09:24:05.000Z</time>
      </trkpt>
      <trkpt lat="42.49988" lon="2.4368">
        <ele>1979.4000244141</ele>
        <time>2023-07-16T09:24:12.000Z</time>
      </trkpt>
      <trkpt lat="42.49988" lon="2.43672">
        <ele>1979.4000244141</ele>
        <time>2023-07-16T09:24:19.000Z</time>
      </trkpt>
      <trkpt lat="42.49986" lon="2.43664">
        <ele>1979.1999511719</ele>
        <time>2023-07-16T09:24:26.000Z</time>
      </trkpt>
      <trkpt lat="42.49984" lon="2.43655">
        <ele>1978.5999755859</ele>
        <time>2023-07-16T09:24:33.000Z</time>
      </trkpt>
      <trkpt lat="42.49983" lon="2.43651">
        <ele>1978.1999511719</ele>
        <time>2023-07-16T09:24:36.000Z</time>
      </trkpt>
      <trkpt lat="42.49982" lon="2.43644">
        <ele>1978</ele>
        <time>2023-07-16T09:24:40.000Z</time>
      </trkpt>
      <trkpt lat="42.4998" lon="2.4364">
        <ele>1977.5999755859</ele>
        <time>2023-07-16T09:24:47.000Z</time>
      </trkpt>
      <trkpt lat="42.49979" lon="2.43632">
        <ele>1977.4000244141</ele>
        <time>2023-07-16T09:24:54.000Z</time>
      </trkpt>
      <trkpt lat="42.49978" lon="2.43625">
        <ele>1977.1999511719</ele>
        <time>2023-07-16T09:24:58.000Z</time>
      </trkpt>
      <trkpt lat="42.49978" lon="2.4362">
        <ele>1976.4000244141</ele>
        <time>2023-07-16T09:25:04.000Z</time>
      </trkpt>
      <trkpt lat="42.49976" lon="2.43612">
        <ele>1976.1999511719</ele>
        <time>2023-07-16T09:25:09.000Z</time>
      </trkpt>
      <trkpt lat="42.49976" lon="2.43611">
        <ele>1976</ele>
        <time>2023-07-16T09:25:10.000Z</time>
      </trkpt>
      <trkpt lat="42.49974" lon="2.43605">
        <ele>1976</ele>
        <time>2023-07-16T09:25:16.000Z</time>
      </trkpt>
      <trkpt lat="42.49969" lon="2.43598">
        <ele>1975.5999755859</ele>
        <time>2023-07-16T09:25:23.000Z</time>
      </trkpt>
      <trkpt lat="42.4997" lon="2.43595">
        <ele>1975</ele>
        <time>2023-07-16T09:25:27.000Z</time>
      </trkpt>
      <trkpt lat="42.49971" lon="2.43591">
        <ele>1974.8000488281</ele>
        <time>2023-07-16T09:25:30.000Z</time>
      </trkpt>
      <trkpt lat="42.49972" lon="2.4359">
        <ele>1974</ele>
        <time>2023-07-16T09:25:34.000Z</time>
      </trkpt>
      <trkpt lat="42.49973" lon="2.43586">
        <ele>1973.8000488281</ele>
        <time>2023-07-16T09:25:37.000Z</time>
      </trkpt>
      <trkpt lat="42.49976" lon="2.43574">
        <ele>1973.1999511719</ele>
        <time>2023-07-16T09:25:48.000Z</time>
      </trkpt>
      <trkpt lat="42.49977" lon="2.43567">
        <ele>1972.8000488281</ele>
        <time>2023-07-16T09:25:53.000Z</time>
      </trkpt>
      <trkpt lat="42.49978" lon="2.43564">
        <ele>1972.5999755859</ele>
        <time>2023-07-16T09:25:55.000Z</time>
      </trkpt>
      <trkpt lat="42.4998" lon="2.43556">
        <ele>1971.8000488281</ele>
        <time>2023-07-16T09:26:01.000Z</time>
      </trkpt>
      <trkpt lat="42.49981" lon="2.43544">
        <ele>1971.4000244141</ele>
        <time>2023-07-16T09:26:08.000Z</time>
      </trkpt>
      <trkpt lat="42.49981" lon="2.43536">
        <ele>1971.4000244141</ele>
        <time>2023-07-16T09:26:15.000Z</time>
      </trkpt>
      <trkpt lat="42.49981" lon="2.43531">
        <ele>1970.8000488281</ele>
        <time>2023-07-16T09:26:18.000Z</time>
      </trkpt>
      <trkpt lat="42.49982" lon="2.43527">
        <ele>1970.1999511719</ele>
        <time>2023-07-16T09:26:22.000Z</time>
      </trkpt>
      <trkpt lat="42.49983" lon="2.43519">
        <ele>1970.5999755859</ele>
        <time>2023-07-16T09:26:29.000Z</time>
      </trkpt>
      <trkpt lat="42.49987" lon="2.43513">
        <ele>1969.5999755859</ele>
        <time>2023-07-16T09:26:35.000Z</time>
      </trkpt>
      <trkpt lat="42.49988" lon="2.43514">
        <ele>1969.4000244141</ele>
        <time>2023-07-16T09:26:36.000Z</time>
      </trkpt>
      <trkpt lat="42.4999" lon="2.43511">
        <ele>1968.5999755859</ele>
        <time>2023-07-16T09:26:40.000Z</time>
      </trkpt>
      <trkpt lat="42.4999" lon="2.43509">
        <ele>1968.5999755859</ele>
        <time>2023-07-16T09:26:42.000Z</time>
      </trkpt>
      <trkpt lat="42.4999" lon="2.43497">
        <ele>1968.8000488281</ele>
        <time>2023-07-16T09:26:51.000Z</time>
      </trkpt>
      <trkpt lat="42.49986" lon="2.43492">
        <ele>1968.5999755859</ele>
        <time>2023-07-16T09:26:57.000Z</time>
      </trkpt>
      <trkpt lat="42.49983" lon="2.43491">
        <ele>1968.5999755859</ele>
        <time>2023-07-16T09:27:06.000Z</time>
      </trkpt>
      <trkpt lat="42.49985" lon="2.43488">
        <ele>1968.8000488281</ele>
        <time>2023-07-16T09:27:12.000Z</time>
      </trkpt>
      <trkpt lat="42.49986" lon="2.43484">
        <ele>1968.4000244141</ele>
        <time>2023-07-16T09:27:20.000Z</time>
      </trkpt>
      <trkpt lat="42.49988" lon="2.43483">
        <ele>1967.5999755859</ele>
        <time>2023-07-16T09:27:27.000Z</time>
      </trkpt>
      <trkpt lat="42.49989" lon="2.43482">
        <ele>1967.4000244141</ele>
        <time>2023-07-16T09:27:28.000Z</time>
      </trkpt>
      <trkpt lat="42.49992" lon="2.43473">
        <ele>1966.5999755859</ele>
        <time>2023-07-16T09:27:34.000Z</time>
      </trkpt>
      <trkpt lat="42.49993" lon="2.43472">
        <ele>1966.5999755859</ele>
        <time>2023-07-16T09:27:35.000Z</time>
      </trkpt>
      <trkpt lat="42.49991" lon="2.43468">
        <ele>1966.5999755859</ele>
        <time>2023-07-16T09:27:40.000Z</time>
      </trkpt>
      <trkpt lat="42.49987" lon="2.43456">
        <ele>1966</ele>
        <time>2023-07-16T09:27:49.000Z</time>
      </trkpt>
      <trkpt lat="42.49984" lon="2.43449">
        <ele>1965.4000244141</ele>
        <time>2023-07-16T09:27:54.000Z</time>
      </trkpt>
      <trkpt lat="42.49983" lon="2.43446">
        <ele>1965.1999511719</ele>
        <time>2023-07-16T09:27:57.000Z</time>
      </trkpt>
      <trkpt lat="42.49981" lon="2.43438">
        <ele>1964.8000488281</ele>
        <time>2023-07-16T09:28:04.000Z</time>
      </trkpt>
      <trkpt lat="42.49982" lon="2.43436">
        <ele>1964.4000244141</ele>
        <time>2023-07-16T09:28:07.000Z</time>
      </trkpt>
      <trkpt lat="42.49981" lon="2.43431">
        <ele>1963.5999755859</ele>
        <time>2023-07-16T09:28:11.000Z</time>
      </trkpt>
      <trkpt lat="42.4998" lon="2.43429">
        <ele>1963.4000244141</ele>
        <time>2023-07-16T09:28:14.000Z</time>
      </trkpt>
      <trkpt lat="42.49978" lon="2.43425">
        <ele>1962.5999755859</ele>
        <time>2023-07-16T09:28:18.000Z</time>
      </trkpt>
      <trkpt lat="42.49975" lon="2.43419">
        <ele>1962.1999511719</ele>
        <time>2023-07-16T09:28:23.000Z</time>
      </trkpt>
      <trkpt lat="42.49975" lon="2.43412">
        <ele>1961.5999755859</ele>
        <time>2023-07-16T09:28:27.000Z</time>
      </trkpt>
      <trkpt lat="42.49975" lon="2.43409">
        <ele>1961.1999511719</ele>
        <time>2023-07-16T09:28:31.000Z</time>
      </trkpt>
      <trkpt lat="42.49974" lon="2.43406">
        <ele>1960.8000488281</ele>
        <time>2023-07-16T09:28:34.000Z</time>
      </trkpt>
      <trkpt lat="42.49972" lon="2.43401">
        <ele>1960.4000244141</ele>
        <time>2023-07-16T09:28:40.000Z</time>
      </trkpt>
      <trkpt lat="42.4997" lon="2.43397">
        <ele>1960.1999511719</ele>
        <time>2023-07-16T09:28:45.000Z</time>
      </trkpt>
      <trkpt lat="42.49971" lon="2.43395">
        <ele>1959.5999755859</ele>
        <time>2023-07-16T09:28:50.000Z</time>
      </trkpt>
      <trkpt lat="42.49972" lon="2.4339">
        <ele>1959</ele>
        <time>2023-07-16T09:28:54.000Z</time>
      </trkpt>
      <trkpt lat="42.49972" lon="2.43386">
        <ele>1958.8000488281</ele>
        <time>2023-07-16T09:28:57.000Z</time>
      </trkpt>
      <trkpt lat="42.49971" lon="2.43379">
        <ele>1958</ele>
        <time>2023-07-16T09:29:02.000Z</time>
      </trkpt>
      <trkpt lat="42.4997" lon="2.43375">
        <ele>1957.8000488281</ele>
        <time>2023-07-16T09:29:05.000Z</time>
      </trkpt>
      <trkpt lat="42.49966" lon="2.43367">
        <ele>1957.4000244141</ele>
        <time>2023-07-16T09:29:13.000Z</time>
      </trkpt>
      <trkpt lat="42.49963" lon="2.43359">
        <ele>1957.1999511719</ele>
        <time>2023-07-16T09:29:20.000Z</time>
      </trkpt>
      <trkpt lat="42.49962" lon="2.43357">
        <ele>1957</ele>
        <time>2023-07-16T09:29:22.000Z</time>
      </trkpt>
      <trkpt lat="42.49963" lon="2.43348">
        <ele>1955.8000488281</ele>
        <time>2023-07-16T09:29:28.000Z</time>
      </trkpt>
      <trkpt lat="42.49966" lon="2.43342">
        <ele>1954.5999755859</ele>
        <time>2023-07-16T09:29:35.000Z</time>
      </trkpt>
      <trkpt lat="42.49969" lon="2.43334">
        <ele>1954</ele>
        <time>2023-07-16T09:29:41.000Z</time>
      </trkpt>
      <trkpt lat="42.49969" lon="2.4333">
        <ele>1953.4000244141</ele>
        <time>2023-07-16T09:29:45.000Z</time>
      </trkpt>
      <trkpt lat="42.49968" lon="2.43327">
        <ele>1952.5999755859</ele>
        <time>2023-07-16T09:29:48.000Z</time>
      </trkpt>
      <trkpt lat="42.49967" lon="2.43322">
        <ele>1952.4000244141</ele>
        <time>2023-07-16T09:29:52.000Z</time>
      </trkpt>
      <trkpt lat="42.49967" lon="2.4332">
        <ele>1952.1999511719</ele>
        <time>2023-07-16T09:29:54.000Z</time>
      </trkpt>
      <trkpt lat="42.4997" lon="2.43314">
        <ele>1951.8000488281</ele>
        <time>2023-07-16T09:30:03.000Z</time>
      </trkpt>
      <trkpt lat="42.49969" lon="2.4331">
        <ele>1951.5999755859</ele>
        <time>2023-07-16T09:30:12.000Z</time>
      </trkpt>
      <trkpt lat="42.4997" lon="2.43304">
        <ele>1951.4000244141</ele>
        <time>2023-07-16T09:30:17.000Z</time>
      </trkpt>
      <trkpt lat="42.4997" lon="2.433">
        <ele>1951.4000244141</ele>
        <time>2023-07-16T09:30:20.000Z</time>
      </trkpt>
      <trkpt lat="42.49971" lon="2.43297">
        <ele>1951.1999511719</ele>
        <time>2023-07-16T09:30:22.000Z</time>
      </trkpt>
      <trkpt lat="42.49971" lon="2.43292">
        <ele>1950.4000244141</ele>
        <time>2023-07-16T09:30:29.000Z</time>
      </trkpt>
      <trkpt lat="42.4997" lon="2.4329">
        <ele>1949.8000488281</ele>
        <time>2023-07-16T09:30:32.000Z</time>
      </trkpt>
      <trkpt lat="42.49967" lon="2.43288">
        <ele>1949.1999511719</ele>
        <time>2023-07-16T09:30:35.000Z</time>
      </trkpt>
      <trkpt lat="42.49963" lon="2.43287">
        <ele>1948.1999511719</ele>
        <time>2023-07-16T09:30:41.000Z</time>
      </trkpt>
      <trkpt lat="42.49964" lon="2.43285">
        <ele>1947.8000488281</ele>
        <time>2023-07-16T09:30:43.000Z</time>
      </trkpt>
      <trkpt lat="42.49964" lon="2.43284">
        <ele>1947</ele>
        <time>2023-07-16T09:30:46.000Z</time>
      </trkpt>
      <trkpt lat="42.49964" lon="2.43285">
        <ele>1946.4000244141</ele>
        <time>2023-07-16T09:30:49.000Z</time>
      </trkpt>
      <trkpt lat="42.49964" lon="2.43284">
        <ele>1946</ele>
        <time>2023-07-16T09:30:52.000Z</time>
      </trkpt>
      <trkpt lat="42.49961" lon="2.43284">
        <ele>1945.4000244141</ele>
        <time>2023-07-16T09:30:56.000Z</time>
      </trkpt>
      <trkpt lat="42.49958" lon="2.43279">
        <ele>1945</ele>
        <time>2023-07-16T09:31:04.000Z</time>
      </trkpt>
      <trkpt lat="42.49956" lon="2.43278">
        <ele>1944.8000488281</ele>
        <time>2023-07-16T09:31:05.000Z</time>
      </trkpt>
      <trkpt lat="42.49956" lon="2.43273">
        <ele>1944.4000244141</ele>
        <time>2023-07-16T09:31:10.000Z</time>
      </trkpt>
      <trkpt lat="42.49955" lon="2.43273">
        <ele>1943.8000488281</ele>
        <time>2023-07-16T09:31:13.000Z</time>
      </trkpt>
      <trkpt lat="42.49953" lon="2.43273">
        <ele>1943.4000244141</ele>
        <time>2023-07-16T09:31:14.000Z</time>
      </trkpt>
      <trkpt lat="42.49954" lon="2.4327">
        <ele>1942.5999755859</ele>
        <time>2023-07-16T09:31:19.000Z</time>
      </trkpt>
      <trkpt lat="42.49954" lon="2.43269">
        <ele>1942</ele>
        <time>2023-07-16T09:31:23.000Z</time>
      </trkpt>
      <trkpt lat="42.49947" lon="2.43254">
        <ele>1940.5999755859</ele>
        <time>2023-07-16T09:31:54.000Z</time>
      </trkpt>
      <trkpt lat="42.49945" lon="2.43248">
        <ele>1940.8000488281</ele>
        <time>2023-07-16T09:32:02.000Z</time>
      </trkpt>
      <trkpt lat="42.49946" lon="2.43246">
        <ele>1940.5999755859</ele>
        <time>2023-07-16T09:32:07.000Z</time>
      </trkpt>
      <trkpt lat="42.49948" lon="2.4324">
        <ele>1940</ele>
        <time>2023-07-16T09:32:13.000Z</time>
      </trkpt>
      <trkpt lat="42.49945" lon="2.43234">
        <ele>1940.5999755859</ele>
        <time>2023-07-16T09:32:24.000Z</time>
      </trkpt>
      <trkpt lat="42.49945" lon="2.43228">
        <ele>1941.8000488281</ele>
        <time>2023-07-16T09:32:31.000Z</time>
      </trkpt>
      <trkpt lat="42.49945" lon="2.43227">
        <ele>1941.8000488281</ele>
        <time>2023-07-16T09:32:32.000Z</time>
      </trkpt>
      <trkpt lat="42.49946" lon="2.43221">
        <ele>1942.5999755859</ele>
        <time>2023-07-16T09:32:38.000Z</time>
      </trkpt>
      <trkpt lat="42.49946" lon="2.43218">
        <ele>1942.8000488281</ele>
        <time>2023-07-16T09:32:41.000Z</time>
      </trkpt>
      <trkpt lat="42.49946" lon="2.43213">
        <ele>1943.1999511719</ele>
        <time>2023-07-16T09:32:46.000Z</time>
      </trkpt>
      <trkpt lat="42.49946" lon="2.43206">
        <ele>1943.4000244141</ele>
        <time>2023-07-16T09:32:52.000Z</time>
      </trkpt>
      <trkpt lat="42.49947" lon="2.43201">
        <ele>1942.5999755859</ele>
        <time>2023-07-16T09:33:00.000Z</time>
      </trkpt>
      <trkpt lat="42.49947" lon="2.43196">
        <ele>1942.1999511719</ele>
        <time>2023-07-16T09:33:05.000Z</time>
      </trkpt>
      <trkpt lat="42.49948" lon="2.43193">
        <ele>1941.5999755859</ele>
        <time>2023-07-16T09:33:08.000Z</time>
      </trkpt>
      <trkpt lat="42.49948" lon="2.43191">
        <ele>1941.4000244141</ele>
        <time>2023-07-16T09:33:10.000Z</time>
      </trkpt>
      <trkpt lat="42.49949" lon="2.43184">
        <ele>1940.5999755859</ele>
        <time>2023-07-16T09:33:15.000Z</time>
      </trkpt>
      <trkpt lat="42.4995" lon="2.43183">
        <ele>1940.5999755859</ele>
        <time>2023-07-16T09:33:16.000Z</time>
      </trkpt>
      <trkpt lat="42.49949" lon="2.43176">
        <ele>1940.4000244141</ele>
        <time>2023-07-16T09:33:22.000Z</time>
      </trkpt>
      <trkpt lat="42.4995" lon="2.43172">
        <ele>1941</ele>
        <time>2023-07-16T09:33:27.000Z</time>
      </trkpt>
      <trkpt lat="42.49947" lon="2.43163">
        <ele>1941.1999511719</ele>
        <time>2023-07-16T09:33:34.000Z</time>
      </trkpt>
      <trkpt lat="42.49946" lon="2.43158">
        <ele>1941.5999755859</ele>
        <time>2023-07-16T09:33:40.000Z</time>
      </trkpt>
      <trkpt lat="42.49943" lon="2.43155">
        <ele>1942.4000244141</ele>
        <time>2023-07-16T09:33:47.000Z</time>
      </trkpt>
      <trkpt lat="42.49943" lon="2.43154">
        <ele>1942.8000488281</ele>
        <time>2023-07-16T09:33:48.000Z</time>
      </trkpt>
      <trkpt lat="42.49942" lon="2.43151">
        <ele>1943.5999755859</ele>
        <time>2023-07-16T09:33:54.000Z</time>
      </trkpt>
      <trkpt lat="42.49942" lon="2.43147">
        <ele>1943.8000488281</ele>
        <time>2023-07-16T09:33:58.000Z</time>
      </trkpt>
      <trkpt lat="42.49941" lon="2.43144">
        <ele>1943.8000488281</ele>
        <time>2023-07-16T09:34:01.000Z</time>
      </trkpt>
      <trkpt lat="42.49942" lon="2.43137">
        <ele>1943.8000488281</ele>
        <time>2023-07-16T09:34:07.000Z</time>
      </trkpt>
      <trkpt lat="42.49945" lon="2.43127">
        <ele>1943.4000244141</ele>
        <time>2023-07-16T09:34:14.000Z</time>
      </trkpt>
      <trkpt lat="42.49945" lon="2.43121">
        <ele>1943.4000244141</ele>
        <time>2023-07-16T09:34:20.000Z</time>
      </trkpt>
      <trkpt lat="42.49944" lon="2.43113">
        <ele>1943.1999511719</ele>
        <time>2023-07-16T09:34:26.000Z</time>
      </trkpt>
      <trkpt lat="42.49945" lon="2.43107">
        <ele>1943.1999511719</ele>
        <time>2023-07-16T09:34:31.000Z</time>
      </trkpt>
      <trkpt lat="42.4994" lon="2.43103">
        <ele>1942.8000488281</ele>
        <time>2023-07-16T09:34:42.000Z</time>
      </trkpt>
      <trkpt lat="42.49939" lon="2.43093">
        <ele>1942.1999511719</ele>
        <time>2023-07-16T09:34:48.000Z</time>
      </trkpt>
      <trkpt lat="42.49939" lon="2.43088">
        <ele>1941.8000488281</ele>
        <time>2023-07-16T09:34:52.000Z</time>
      </trkpt>
      <trkpt lat="42.49938" lon="2.43085">
        <ele>1941.5999755859</ele>
        <time>2023-07-16T09:34:55.000Z</time>
      </trkpt>
      <trkpt lat="42.49935" lon="2.43079">
        <ele>1941.5999755859</ele>
        <time>2023-07-16T09:35:01.000Z</time>
      </trkpt>
      <trkpt lat="42.49936" lon="2.43069">
        <ele>1941.5999755859</ele>
        <time>2023-07-16T09:35:08.000Z</time>
      </trkpt>
      <trkpt lat="42.49933" lon="2.43064">
        <ele>1940.8000488281</ele>
        <time>2023-07-16T09:35:15.000Z</time>
      </trkpt>
      <trkpt lat="42.49932" lon="2.43064">
        <ele>1940.5999755859</ele>
        <time>2023-07-16T09:35:16.000Z</time>
      </trkpt>
      <trkpt lat="42.49926" lon="2.43058">
        <ele>1940.1999511719</ele>
        <time>2023-07-16T09:35:20.000Z</time>
      </trkpt>
      <trkpt lat="42.49923" lon="2.43051">
        <ele>1940.1999511719</ele>
        <time>2023-07-16T09:35:26.000Z</time>
      </trkpt>
      <trkpt lat="42.49921" lon="2.43046">
        <ele>1939.5999755859</ele>
        <time>2023-07-16T09:35:32.000Z</time>
      </trkpt>
      <trkpt lat="42.49918" lon="2.43045">
        <ele>1939.4000244141</ele>
        <time>2023-07-16T09:35:33.000Z</time>
      </trkpt>
      <trkpt lat="42.49914" lon="2.43041">
        <ele>1939</ele>
        <time>2023-07-16T09:35:39.000Z</time>
      </trkpt>
      <trkpt lat="42.49912" lon="2.43035">
        <ele>1938.5999755859</ele>
        <time>2023-07-16T09:35:48.000Z</time>
      </trkpt>
      <trkpt lat="42.49885" lon="2.43025">
        <ele>1938.8000488281</ele>
        <time>2023-07-16T09:36:07.000Z</time>
      </trkpt>
      <trkpt lat="42.49884" lon="2.43019">
        <ele>1939.4000244141</ele>
        <time>2023-07-16T09:36:11.000Z</time>
      </trkpt>
      <trkpt lat="42.49884" lon="2.43018">
        <ele>1939.4000244141</ele>
        <time>2023-07-16T09:36:12.000Z</time>
      </trkpt>
      <trkpt lat="42.49885" lon="2.43013">
        <ele>1939.4000244141</ele>
        <time>2023-07-16T09:36:16.000Z</time>
      </trkpt>
      <trkpt lat="42.49885" lon="2.43007">
        <ele>1939.1999511719</ele>
        <time>2023-07-16T09:36:21.000Z</time>
      </trkpt>
      <trkpt lat="42.49883" lon="2.42999">
        <ele>1939.4000244141</ele>
        <time>2023-07-16T09:36:28.000Z</time>
      </trkpt>
      <trkpt lat="42.49879" lon="2.42993">
        <ele>1939.1999511719</ele>
        <time>2023-07-16T09:36:33.000Z</time>
      </trkpt>
      <trkpt lat="42.4988" lon="2.42986">
        <ele>1938.5999755859</ele>
        <time>2023-07-16T09:36:41.000Z</time>
      </trkpt>
      <trkpt lat="42.49878" lon="2.42984">
        <ele>1938.1999511719</ele>
        <time>2023-07-16T09:36:47.000Z</time>
      </trkpt>
      <trkpt lat="42.49878" lon="2.42983">
        <ele>1937.8000488281</ele>
        <time>2023-07-16T09:36:49.000Z</time>
      </trkpt>
      <trkpt lat="42.49878" lon="2.4298">
        <ele>1937</ele>
        <time>2023-07-16T09:36:53.000Z</time>
      </trkpt>
      <trkpt lat="42.49877" lon="2.42977">
        <ele>1936.8000488281</ele>
        <time>2023-07-16T09:36:56.000Z</time>
      </trkpt>
      <trkpt lat="42.49877" lon="2.42968">
        <ele>1936</ele>
        <time>2023-07-16T09:37:01.000Z</time>
      </trkpt>
      <trkpt lat="42.49878" lon="2.42966">
        <ele>1935.8000488281</ele>
        <time>2023-07-16T09:37:03.000Z</time>
      </trkpt>
      <trkpt lat="42.49876" lon="2.42961">
        <ele>1935.8000488281</ele>
        <time>2023-07-16T09:37:10.000Z</time>
      </trkpt>
      <trkpt lat="42.49876" lon="2.42953">
        <ele>1936.5999755859</ele>
        <time>2023-07-16T09:37:17.000Z</time>
      </trkpt>
      <trkpt lat="42.49879" lon="2.42945">
        <ele>1936.5999755859</ele>
        <time>2023-07-16T09:37:23.000Z</time>
      </trkpt>
      <trkpt lat="42.49882" lon="2.42937">
        <ele>1936.1999511719</ele>
        <time>2023-07-16T09:37:31.000Z</time>
      </trkpt>
      <trkpt lat="42.49885" lon="2.42932">
        <ele>1935.8000488281</ele>
        <time>2023-07-16T09:37:39.000Z</time>
      </trkpt>
      <trkpt lat="42.49887" lon="2.42927">
        <ele>1934.8000488281</ele>
        <time>2023-07-16T09:37:46.000Z</time>
      </trkpt>
      <trkpt lat="42.4989" lon="2.42925">
        <ele>1933.8000488281</ele>
        <time>2023-07-16T09:37:52.000Z</time>
      </trkpt>
      <trkpt lat="42.4989" lon="2.42927">
        <ele>1933.5999755859</ele>
        <time>2023-07-16T09:37:53.000Z</time>
      </trkpt>
      <trkpt lat="42.49894" lon="2.42924">
        <ele>1933.4000244141</ele>
        <time>2023-07-16T09:37:57.000Z</time>
      </trkpt>
      <trkpt lat="42.49899" lon="2.42917">
        <ele>1933.4000244141</ele>
        <time>2023-07-16T09:38:03.000Z</time>
      </trkpt>
      <trkpt lat="42.49903" lon="2.4291">
        <ele>1932.8000488281</ele>
        <time>2023-07-16T09:38:10.000Z</time>
      </trkpt>
      <trkpt lat="42.49903" lon="2.42909">
        <ele>1932.5999755859</ele>
        <time>2023-07-16T09:38:11.000Z</time>
      </trkpt>
      <trkpt lat="42.49902" lon="2.42908">
        <ele>1932.1999511719</ele>
        <time>2023-07-16T09:38:21.000Z</time>
      </trkpt>
      <trkpt lat="42.49899" lon="2.42903">
        <ele>1932</ele>
        <time>2023-07-16T09:38:30.000Z</time>
      </trkpt>
      <trkpt lat="42.49897" lon="2.42898">
        <ele>1931.5999755859</ele>
        <time>2023-07-16T09:38:33.000Z</time>
      </trkpt>
      <trkpt lat="42.49894" lon="2.42895">
        <ele>1931</ele>
        <time>2023-07-16T09:38:38.000Z</time>
      </trkpt>
      <trkpt lat="42.49888" lon="2.42883">
        <ele>1930.1999511719</ele>
        <time>2023-07-16T09:38:53.000Z</time>
      </trkpt>
      <trkpt lat="42.49889" lon="2.42872">
        <ele>1929.8000488281</ele>
        <time>2023-07-16T09:39:01.000Z</time>
      </trkpt>
      <trkpt lat="42.49889" lon="2.42865">
        <ele>1929.5999755859</ele>
        <time>2023-07-16T09:39:06.000Z</time>
      </trkpt>
      <trkpt lat="42.49889" lon="2.42863">
        <ele>1929.5999755859</ele>
        <time>2023-07-16T09:39:08.000Z</time>
      </trkpt>
      <trkpt lat="42.49888" lon="2.42852">
        <ele>1929</ele>
        <time>2023-07-16T09:39:16.000Z</time>
      </trkpt>
      <trkpt lat="42.49889" lon="2.42843">
        <ele>1928.8000488281</ele>
        <time>2023-07-16T09:39:23.000Z</time>
      </trkpt>
      <trkpt lat="42.4989" lon="2.42834">
        <ele>1928.5999755859</ele>
        <time>2023-07-16T09:39:30.000Z</time>
      </trkpt>
      <trkpt lat="42.49889" lon="2.42828">
        <ele>1928.5999755859</ele>
        <time>2023-07-16T09:39:36.000Z</time>
      </trkpt>
      <trkpt lat="42.49889" lon="2.42826">
        <ele>1928.4000244141</ele>
        <time>2023-07-16T09:39:38.000Z</time>
      </trkpt>
      <trkpt lat="42.49888" lon="2.42819">
        <ele>1928</ele>
        <time>2023-07-16T09:39:43.000Z</time>
      </trkpt>
      <trkpt lat="42.49887" lon="2.42811">
        <ele>1927.8000488281</ele>
        <time>2023-07-16T09:39:49.000Z</time>
      </trkpt>
      <trkpt lat="42.49887" lon="2.42803">
        <ele>1927.8000488281</ele>
        <time>2023-07-16T09:39:55.000Z</time>
      </trkpt>
      <trkpt lat="42.49886" lon="2.42795">
        <ele>1927.8000488281</ele>
        <time>2023-07-16T09:40:02.000Z</time>
      </trkpt>
      <trkpt lat="42.49885" lon="2.42787">
        <ele>1927.5999755859</ele>
        <time>2023-07-16T09:40:09.000Z</time>
      </trkpt>
      <trkpt lat="42.49885" lon="2.42786">
        <ele>1927.4000244141</ele>
        <time>2023-07-16T09:40:10.000Z</time>
      </trkpt>
      <trkpt lat="42.49885" lon="2.42775">
        <ele>1927</ele>
        <time>2023-07-16T09:40:19.000Z</time>
      </trkpt>
      <trkpt lat="42.49883" lon="2.42769">
        <ele>1926.5999755859</ele>
        <time>2023-07-16T09:40:24.000Z</time>
      </trkpt>
      <trkpt lat="42.49883" lon="2.42766">
        <ele>1926.4000244141</ele>
        <time>2023-07-16T09:40:26.000Z</time>
      </trkpt>
      <trkpt lat="42.49883" lon="2.42761">
        <ele>1925.8000488281</ele>
        <time>2023-07-16T09:40:31.000Z</time>
      </trkpt>
      <trkpt lat="42.49883" lon="2.42759">
        <ele>1925.4000244141</ele>
        <time>2023-07-16T09:40:34.000Z</time>
      </trkpt>
      <trkpt lat="42.49883" lon="2.42755">
        <ele>1924.8000488281</ele>
        <time>2023-07-16T09:40:38.000Z</time>
      </trkpt>
      <trkpt lat="42.49884" lon="2.42748">
        <ele>1924.4000244141</ele>
        <time>2023-07-16T09:40:42.000Z</time>
      </trkpt>
      <trkpt lat="42.4988" lon="2.42741">
        <ele>1923.4000244141</ele>
        <time>2023-07-16T09:40:48.000Z</time>
      </trkpt>
      <trkpt lat="42.4988" lon="2.42739">
        <ele>1923.1999511719</ele>
        <time>2023-07-16T09:40:49.000Z</time>
      </trkpt>
      <trkpt lat="42.4988" lon="2.42732">
        <ele>1922.4000244141</ele>
        <time>2023-07-16T09:40:54.000Z</time>
      </trkpt>
      <trkpt lat="42.4988" lon="2.42731">
        <ele>1922.1999511719</ele>
        <time>2023-07-16T09:40:55.000Z</time>
      </trkpt>
      <trkpt lat="42.49877" lon="2.42724">
        <ele>1921.8000488281</ele>
        <time>2023-07-16T09:40:59.000Z</time>
      </trkpt>
      <trkpt lat="42.49874" lon="2.42717">
        <ele>1921.1999511719</ele>
        <time>2023-07-16T09:41:05.000Z</time>
      </trkpt>
      <trkpt lat="42.49874" lon="2.42714">
        <ele>1921.1999511719</ele>
        <time>2023-07-16T09:41:07.000Z</time>
      </trkpt>
      <trkpt lat="42.4987" lon="2.4271">
        <ele>1920.5999755859</ele>
        <time>2023-07-16T09:41:11.000Z</time>
      </trkpt>
      <trkpt lat="42.49866" lon="2.42702">
        <ele>1920</ele>
        <time>2023-07-16T09:41:18.000Z</time>
      </trkpt>
      <trkpt lat="42.4986" lon="2.42698">
        <ele>1919.5999755859</ele>
        <time>2023-07-16T09:41:24.000Z</time>
      </trkpt>
      <trkpt lat="42.49856" lon="2.42697">
        <ele>1919</ele>
        <time>2023-07-16T09:41:28.000Z</time>
      </trkpt>
      <trkpt lat="42.49854" lon="2.42694">
        <ele>1918</ele>
        <time>2023-07-16T09:41:32.000Z</time>
      </trkpt>
      <trkpt lat="42.49853" lon="2.42693">
        <ele>1917.5999755859</ele>
        <time>2023-07-16T09:41:33.000Z</time>
      </trkpt>
      <trkpt lat="42.49851" lon="2.42687">
        <ele>1916.5999755859</ele>
        <time>2023-07-16T09:41:38.000Z</time>
      </trkpt>
      <trkpt lat="42.49852" lon="2.42685">
        <ele>1916.1999511719</ele>
        <time>2023-07-16T09:41:39.000Z</time>
      </trkpt>
      <trkpt lat="42.49851" lon="2.42681">
        <ele>1916.1999511719</ele>
        <time>2023-07-16T09:41:44.000Z</time>
      </trkpt>
      <trkpt lat="42.49855" lon="2.4267">
        <ele>1913.5999755859</ele>
        <time>2023-07-16T09:42:00.000Z</time>
      </trkpt>
      <trkpt lat="42.49856" lon="2.42667">
        <ele>1913.4000244141</ele>
        <time>2023-07-16T09:42:02.000Z</time>
      </trkpt>
      <trkpt lat="42.49859" lon="2.42663">
        <ele>1913.1999511719</ele>
        <time>2023-07-16T09:42:06.000Z</time>
      </trkpt>
      <trkpt lat="42.4986" lon="2.42659">
        <ele>1912.1999511719</ele>
        <time>2023-07-16T09:42:11.000Z</time>
      </trkpt>
      <trkpt lat="42.49859" lon="2.42658">
        <ele>1911.8000488281</ele>
        <time>2023-07-16T09:42:13.000Z</time>
      </trkpt>
      <trkpt lat="42.49859" lon="2.42657">
        <ele>1911.8000488281</ele>
        <time>2023-07-16T09:42:14.000Z</time>
      </trkpt>
      <trkpt lat="42.49857" lon="2.42651">
        <ele>1911.1999511719</ele>
        <time>2023-07-16T09:42:19.000Z</time>
      </trkpt>
      <trkpt lat="42.49855" lon="2.42644">
        <ele>1911</ele>
        <time>2023-07-16T09:42:22.000Z</time>
      </trkpt>
      <trkpt lat="42.49851" lon="2.42638">
        <ele>1910.5999755859</ele>
        <time>2023-07-16T09:42:28.000Z</time>
      </trkpt>
      <trkpt lat="42.49847" lon="2.42634">
        <ele>1910</ele>
        <time>2023-07-16T09:42:33.000Z</time>
      </trkpt>
      <trkpt lat="42.49847" lon="2.42631">
        <ele>1909.5999755859</ele>
        <time>2023-07-16T09:42:36.000Z</time>
      </trkpt>
      <trkpt lat="42.49827" lon="2.42599">
        <ele>1907</ele>
        <time>2023-07-16T09:43:04.000Z</time>
      </trkpt>
      <trkpt lat="42.49832" lon="2.42576">
        <ele>1906.5999755859</ele>
        <time>2023-07-16T09:43:22.000Z</time>
      </trkpt>
      <trkpt lat="42.49828" lon="2.42569">
        <ele>1906.4000244141</ele>
        <time>2023-07-16T09:43:27.000Z</time>
      </trkpt>
      <trkpt lat="42.49826" lon="2.42564">
        <ele>1905.5999755859</ele>
        <time>2023-07-16T09:43:33.000Z</time>
      </trkpt>
      <trkpt lat="42.49826" lon="2.42563">
        <ele>1905.5999755859</ele>
        <time>2023-07-16T09:43:34.000Z</time>
      </trkpt>
      <trkpt lat="42.49825" lon="2.4256">
        <ele>1905</ele>
        <time>2023-07-16T09:43:39.000Z</time>
      </trkpt>
      <trkpt lat="42.49826" lon="2.42556">
        <ele>1904.5999755859</ele>
        <time>2023-07-16T09:43:44.000Z</time>
      </trkpt>
      <trkpt lat="42.49826" lon="2.42555">
        <ele>1904.5999755859</ele>
        <time>2023-07-16T09:43:45.000Z</time>
      </trkpt>
      <trkpt lat="42.49824" lon="2.42548">
        <ele>1904</ele>
        <time>2023-07-16T09:43:52.000Z</time>
      </trkpt>
      <trkpt lat="42.49822" lon="2.42544">
        <ele>1903.4000244141</ele>
        <time>2023-07-16T09:43:56.000Z</time>
      </trkpt>
      <trkpt lat="42.49823" lon="2.42541">
        <ele>1903</ele>
        <time>2023-07-16T09:43:59.000Z</time>
      </trkpt>
      <trkpt lat="42.49824" lon="2.42538">
        <ele>1902.4000244141</ele>
        <time>2023-07-16T09:44:03.000Z</time>
      </trkpt>
      <trkpt lat="42.49824" lon="2.42534">
        <ele>1902</ele>
        <time>2023-07-16T09:44:07.000Z</time>
      </trkpt>
      <trkpt lat="42.49826" lon="2.42525">
        <ele>1901.1999511719</ele>
        <time>2023-07-16T09:44:14.000Z</time>
      </trkpt>
      <trkpt lat="42.49829" lon="2.42522">
        <ele>1901</ele>
        <time>2023-07-16T09:44:16.000Z</time>
      </trkpt>
      <trkpt lat="42.49832" lon="2.42516">
        <ele>1901</ele>
        <time>2023-07-16T09:44:23.000Z</time>
      </trkpt>
      <trkpt lat="42.49832" lon="2.42509">
        <ele>1900.1999511719</ele>
        <time>2023-07-16T09:44:29.000Z</time>
      </trkpt>
      <trkpt lat="42.49831" lon="2.42508">
        <ele>1900</ele>
        <time>2023-07-16T09:44:30.000Z</time>
      </trkpt>
      <trkpt lat="42.49833" lon="2.42503">
        <ele>1899.4000244141</ele>
        <time>2023-07-16T09:44:36.000Z</time>
      </trkpt>
      <trkpt lat="42.49838" lon="2.42498">
        <ele>1899.1999511719</ele>
        <time>2023-07-16T09:44:42.000Z</time>
      </trkpt>
      <trkpt lat="42.49838" lon="2.42495">
        <ele>1899</ele>
        <time>2023-07-16T09:44:45.000Z</time>
      </trkpt>
      <trkpt lat="42.49838" lon="2.4249">
        <ele>1898</ele>
        <time>2023-07-16T09:44:51.000Z</time>
      </trkpt>
      <trkpt lat="42.49838" lon="2.42487">
        <ele>1897.8000488281</ele>
        <time>2023-07-16T09:44:54.000Z</time>
      </trkpt>
      <trkpt lat="42.49838" lon="2.42481">
        <ele>1897.5999755859</ele>
        <time>2023-07-16T09:45:01.000Z</time>
      </trkpt>
      <trkpt lat="42.49838" lon="2.42472">
        <ele>1897</ele>
        <time>2023-07-16T09:45:07.000Z</time>
      </trkpt>
      <trkpt lat="42.49835" lon="2.42463">
        <ele>1897.5999755859</ele>
        <time>2023-07-16T09:45:15.000Z</time>
      </trkpt>
      <trkpt lat="42.49833" lon="2.42457">
        <ele>1897</ele>
        <time>2023-07-16T09:45:21.000Z</time>
      </trkpt>
      <trkpt lat="42.49833" lon="2.42456">
        <ele>1896.8000488281</ele>
        <time>2023-07-16T09:45:22.000Z</time>
      </trkpt>
      <trkpt lat="42.49835" lon="2.42445">
        <ele>1896</ele>
        <time>2023-07-16T09:45:31.000Z</time>
      </trkpt>
      <trkpt lat="42.49835" lon="2.42445">
        <ele>1895.8000488281</ele>
        <time>2023-07-16T09:45:32.000Z</time>
      </trkpt>
      <trkpt lat="42.49836" lon="2.42437">
        <ele>1895</ele>
        <time>2023-07-16T09:45:38.000Z</time>
      </trkpt>
      <trkpt lat="42.49835" lon="2.42436">
        <ele>1894.8000488281</ele>
        <time>2023-07-16T09:45:39.000Z</time>
      </trkpt>
      <trkpt lat="42.49836" lon="2.42429">
        <ele>1894.1999511719</ele>
        <time>2023-07-16T09:45:45.000Z</time>
      </trkpt>
      <trkpt lat="42.49832" lon="2.42423">
        <ele>1893.8000488281</ele>
        <time>2023-07-16T09:45:52.000Z</time>
      </trkpt>
      <trkpt lat="42.49832" lon="2.42422">
        <ele>1893.5999755859</ele>
        <time>2023-07-16T09:45:53.000Z</time>
      </trkpt>
      <trkpt lat="42.49831" lon="2.42414">
        <ele>1892.8000488281</ele>
        <time>2023-07-16T09:46:00.000Z</time>
      </trkpt>
      <trkpt lat="42.49831" lon="2.42413">
        <ele>1892.8000488281</ele>
        <time>2023-07-16T09:46:01.000Z</time>
      </trkpt>
      <trkpt lat="42.4983" lon="2.42405">
        <ele>1892.5999755859</ele>
        <time>2023-07-16T09:46:07.000Z</time>
      </trkpt>
      <trkpt lat="42.49828" lon="2.42403">
        <ele>1892.5999755859</ele>
        <time>2023-07-16T09:46:12.000Z</time>
      </trkpt>
      <trkpt lat="42.49827" lon="2.42405">
        <ele>1892.5999755859</ele>
        <time>2023-07-16T09:46:13.000Z</time>
      </trkpt>
      <trkpt lat="42.49823" lon="2.42405">
        <ele>1892.4000244141</ele>
        <time>2023-07-16T09:46:19.000Z</time>
      </trkpt>
      <trkpt lat="42.49825" lon="2.42399">
        <ele>1891.8000488281</ele>
        <time>2023-07-16T09:46:24.000Z</time>
      </trkpt>
      <trkpt lat="42.49825" lon="2.42398">
        <ele>1891.5999755859</ele>
        <time>2023-07-16T09:46:25.000Z</time>
      </trkpt>
      <trkpt lat="42.49825" lon="2.42389">
        <ele>1891.4000244141</ele>
        <time>2023-07-16T09:46:32.000Z</time>
      </trkpt>
      <trkpt lat="42.49823" lon="2.4238">
        <ele>1891</ele>
        <time>2023-07-16T09:46:39.000Z</time>
      </trkpt>
      <trkpt lat="42.49815" lon="2.42375">
        <ele>1891.8000488281</ele>
        <time>2023-07-16T09:46:48.000Z</time>
      </trkpt>
      <trkpt lat="42.49815" lon="2.42365">
        <ele>1892.1999511719</ele>
        <time>2023-07-16T09:46:54.000Z</time>
      </trkpt>
      <trkpt lat="42.49817" lon="2.4236">
        <ele>1890.4000244141</ele>
        <time>2023-07-16T09:46:57.000Z</time>
      </trkpt>
      <trkpt lat="42.49814" lon="2.42355">
        <ele>1890.1999511719</ele>
        <time>2023-07-16T09:47:02.000Z</time>
      </trkpt>
      <trkpt lat="42.49815" lon="2.42349">
        <ele>1889.5999755859</ele>
        <time>2023-07-16T09:47:08.000Z</time>
      </trkpt>
      <trkpt lat="42.49815" lon="2.42337">
        <ele>1890</ele>
        <time>2023-07-16T09:47:15.000Z</time>
      </trkpt>
      <trkpt lat="42.49815" lon="2.42331">
        <ele>1889.1999511719</ele>
        <time>2023-07-16T09:47:21.000Z</time>
      </trkpt>
      <trkpt lat="42.49815" lon="2.42326">
        <ele>1887.8000488281</ele>
        <time>2023-07-16T09:47:25.000Z</time>
      </trkpt>
      <trkpt lat="42.49815" lon="2.42325">
        <ele>1887.4000244141</ele>
        <time>2023-07-16T09:47:26.000Z</time>
      </trkpt>
      <trkpt lat="42.49814" lon="2.42323">
        <ele>1886.5999755859</ele>
        <time>2023-07-16T09:47:28.000Z</time>
      </trkpt>
      <trkpt lat="42.49811" lon="2.4232">
        <ele>1885.5999755859</ele>
        <time>2023-07-16T09:47:32.000Z</time>
      </trkpt>
      <trkpt lat="42.49808" lon="2.42319">
        <ele>1885.1999511719</ele>
        <time>2023-07-16T09:47:34.000Z</time>
      </trkpt>
      <trkpt lat="42.49809" lon="2.42311">
        <ele>1884.4000244141</ele>
        <time>2023-07-16T09:47:39.000Z</time>
      </trkpt>
      <trkpt lat="42.4981" lon="2.42303">
        <ele>1884.8000488281</ele>
        <time>2023-07-16T09:47:46.000Z</time>
      </trkpt>
      <trkpt lat="42.49812" lon="2.4229">
        <ele>1883.1999511719</ele>
        <time>2023-07-16T09:47:53.000Z</time>
      </trkpt>
      <trkpt lat="42.49813" lon="2.42283">
        <ele>1882.1999511719</ele>
        <time>2023-07-16T09:47:57.000Z</time>
      </trkpt>
      <trkpt lat="42.49812" lon="2.42282">
        <ele>1882.1999511719</ele>
        <time>2023-07-16T09:47:59.000Z</time>
      </trkpt>
      <trkpt lat="42.49812" lon="2.42276">
        <ele>1882.5999755859</ele>
        <time>2023-07-16T09:48:05.000Z</time>
      </trkpt>
      <trkpt lat="42.49812" lon="2.42269">
        <ele>1882.4000244141</ele>
        <time>2023-07-16T09:48:11.000Z</time>
      </trkpt>
      <trkpt lat="42.49812" lon="2.42263">
        <ele>1881.1999511719</ele>
        <time>2023-07-16T09:48:16.000Z</time>
      </trkpt>
      <trkpt lat="42.49813" lon="2.42262">
        <ele>1881</ele>
        <time>2023-07-16T09:48:17.000Z</time>
      </trkpt>
      <trkpt lat="42.49813" lon="2.42258">
        <ele>1880.1999511719</ele>
        <time>2023-07-16T09:48:21.000Z</time>
      </trkpt>
      <trkpt lat="42.49813" lon="2.42257">
        <ele>1880</ele>
        <time>2023-07-16T09:48:22.000Z</time>
      </trkpt>
      <trkpt lat="42.49814" lon="2.42243">
        <ele>1879.1999511719</ele>
        <time>2023-07-16T09:48:29.000Z</time>
      </trkpt>
      <trkpt lat="42.49814" lon="2.42241">
        <ele>1879</ele>
        <time>2023-07-16T09:48:31.000Z</time>
      </trkpt>
      <trkpt lat="42.49815" lon="2.42232">
        <ele>1878</ele>
        <time>2023-07-16T09:48:37.000Z</time>
      </trkpt>
      <trkpt lat="42.49815" lon="2.42227">
        <ele>1877.4000244141</ele>
        <time>2023-07-16T09:48:43.000Z</time>
      </trkpt>
      <trkpt lat="42.49813" lon="2.42223">
        <ele>1877</ele>
        <time>2023-07-16T09:48:46.000Z</time>
      </trkpt>
      <trkpt lat="42.49813" lon="2.42218">
        <ele>1875.8000488281</ele>
        <time>2023-07-16T09:48:51.000Z</time>
      </trkpt>
      <trkpt lat="42.49814" lon="2.42215">
        <ele>1875.5999755859</ele>
        <time>2023-07-16T09:48:53.000Z</time>
      </trkpt>
      <trkpt lat="42.49813" lon="2.42206">
        <ele>1874.5999755859</ele>
        <time>2023-07-16T09:48:59.000Z</time>
      </trkpt>
      <trkpt lat="42.49814" lon="2.42205">
        <ele>1874.5999755859</ele>
        <time>2023-07-16T09:49:00.000Z</time>
      </trkpt>
      <trkpt lat="42.49816" lon="2.42196">
        <ele>1874</ele>
        <time>2023-07-16T09:49:08.000Z</time>
      </trkpt>
      <trkpt lat="42.49818" lon="2.42189">
        <ele>1873.8000488281</ele>
        <time>2023-07-16T09:49:13.000Z</time>
      </trkpt>
      <trkpt lat="42.49817" lon="2.4218">
        <ele>1874.4000244141</ele>
        <time>2023-07-16T09:49:20.000Z</time>
      </trkpt>
      <trkpt lat="42.49818" lon="2.42172">
        <ele>1873.1999511719</ele>
        <time>2023-07-16T09:49:25.000Z</time>
      </trkpt>
      <trkpt lat="42.4982" lon="2.42167">
        <ele>1872</ele>
        <time>2023-07-16T09:49:28.000Z</time>
      </trkpt>
      <trkpt lat="42.4982" lon="2.42161">
        <ele>1871</ele>
        <time>2023-07-16T09:49:33.000Z</time>
      </trkpt>
      <trkpt lat="42.4982" lon="2.42158">
        <ele>1870.4000244141</ele>
        <time>2023-07-16T09:49:35.000Z</time>
      </trkpt>
      <trkpt lat="42.49823" lon="2.4215">
        <ele>1869.8000488281</ele>
        <time>2023-07-16T09:49:41.000Z</time>
      </trkpt>
      <trkpt lat="42.49824" lon="2.42149">
        <ele>1869.8000488281</ele>
        <time>2023-07-16T09:49:42.000Z</time>
      </trkpt>
      <trkpt lat="42.49827" lon="2.42139">
        <ele>1870</ele>
        <time>2023-07-16T09:49:48.000Z</time>
      </trkpt>
      <trkpt lat="42.49828" lon="2.42131">
        <ele>1869</ele>
        <time>2023-07-16T09:49:53.000Z</time>
      </trkpt>
      <trkpt lat="42.49829" lon="2.4213">
        <ele>1868.8000488281</ele>
        <time>2023-07-16T09:49:54.000Z</time>
      </trkpt>
      <trkpt lat="42.49831" lon="2.42128">
        <ele>1868</ele>
        <time>2023-07-16T09:49:58.000Z</time>
      </trkpt>
      <trkpt lat="42.49834" lon="2.42127">
        <ele>1867.5999755859</ele>
        <time>2023-07-16T09:50:06.000Z</time>
      </trkpt>
      <trkpt lat="42.49827" lon="2.4212">
        <ele>1867.4000244141</ele>
        <time>2023-07-16T09:50:15.000Z</time>
      </trkpt>
      <trkpt lat="42.4982" lon="2.42118">
        <ele>1866.8000488281</ele>
        <time>2023-07-16T09:50:22.000Z</time>
      </trkpt>
      <trkpt lat="42.49816" lon="2.42116">
        <ele>1866.5999755859</ele>
        <time>2023-07-16T09:50:24.000Z</time>
      </trkpt>
      <trkpt lat="42.4981" lon="2.42113">
        <ele>1866</ele>
        <time>2023-07-16T09:50:29.000Z</time>
      </trkpt>
      <trkpt lat="42.49807" lon="2.42111">
        <ele>1864</ele>
        <time>2023-07-16T09:50:44.000Z</time>
      </trkpt>
      <trkpt lat="42.49806" lon="2.42109">
        <ele>1863.5999755859</ele>
        <time>2023-07-16T09:50:46.000Z</time>
      </trkpt>
      <trkpt lat="42.49806" lon="2.42109">
        <ele>1863</ele>
        <time>2023-07-16T09:50:49.000Z</time>
      </trkpt>
      <trkpt lat="42.49799" lon="2.42106">
        <ele>1861.8000488281</ele>
        <time>2023-07-16T09:50:55.000Z</time>
      </trkpt>
      <trkpt lat="42.49792" lon="2.42104">
        <ele>1860.8000488281</ele>
        <time>2023-07-16T09:51:00.000Z</time>
      </trkpt>
      <trkpt lat="42.49787" lon="2.42102">
        <ele>1860</ele>
        <time>2023-07-16T09:51:04.000Z</time>
      </trkpt>
      <trkpt lat="42.49774" lon="2.42096">
        <ele>1859.5999755859</ele>
        <time>2023-07-16T09:51:27.000Z</time>
      </trkpt>
      <trkpt lat="42.49772" lon="2.42094">
        <ele>1859.5999755859</ele>
        <time>2023-07-16T09:51:30.000Z</time>
      </trkpt>
      <trkpt lat="42.4977" lon="2.42094">
        <ele>1858.5999755859</ele>
        <time>2023-07-16T09:51:34.000Z</time>
      </trkpt>
      <trkpt lat="42.49769" lon="2.42094">
        <ele>1858.1999511719</ele>
        <time>2023-07-16T09:51:35.000Z</time>
      </trkpt>
      <trkpt lat="42.4974" lon="2.42073">
        <ele>1856.8000488281</ele>
        <time>2023-07-16T09:51:58.000Z</time>
      </trkpt>
      <trkpt lat="42.49738" lon="2.42069">
        <ele>1855.8000488281</ele>
        <time>2023-07-16T09:52:03.000Z</time>
      </trkpt>
      <trkpt lat="42.49738" lon="2.42069">
        <ele>1855.4000244141</ele>
        <time>2023-07-16T09:52:05.000Z</time>
      </trkpt>
      <trkpt lat="42.49737" lon="2.42069">
        <ele>1855</ele>
        <time>2023-07-16T09:52:06.000Z</time>
      </trkpt>
      <trkpt lat="42.49737" lon="2.42068">
        <ele>1854.5999755859</ele>
        <time>2023-07-16T09:52:08.000Z</time>
      </trkpt>
      <trkpt lat="42.49738" lon="2.42064">
        <ele>1853.5999755859</ele>
        <time>2023-07-16T09:52:14.000Z</time>
      </trkpt>
      <trkpt lat="42.49738" lon="2.42063">
        <ele>1852.4000244141</ele>
        <time>2023-07-16T09:52:20.000Z</time>
      </trkpt>
      <trkpt lat="42.49739" lon="2.42063">
        <ele>1852.4000244141</ele>
        <time>2023-07-16T09:52:21.000Z</time>
      </trkpt>
      <trkpt lat="42.49693" lon="2.4202">
        <ele>1843.1999511719</ele>
        <time>2023-07-16T09:53:13.000Z</time>
      </trkpt>
      <trkpt lat="42.49685" lon="2.42009">
        <ele>1841.8000488281</ele>
        <time>2023-07-16T09:53:22.000Z</time>
      </trkpt>
      <trkpt lat="42.4968" lon="2.42005">
        <ele>1841.1999511719</ele>
        <time>2023-07-16T09:53:27.000Z</time>
      </trkpt>
      <trkpt lat="42.49679" lon="2.42003">
        <ele>1841</ele>
        <time>2023-07-16T09:53:29.000Z</time>
      </trkpt>
      <trkpt lat="42.49676" lon="2.42001">
        <ele>1840.8000488281</ele>
        <time>2023-07-16T09:53:33.000Z</time>
      </trkpt>
      <trkpt lat="42.49678" lon="2.41996">
        <ele>1841</ele>
        <time>2023-07-16T09:53:41.000Z</time>
      </trkpt>
      <trkpt lat="42.49678" lon="2.41993">
        <ele>1842.4000244141</ele>
        <time>2023-07-16T09:53:46.000Z</time>
      </trkpt>
      <trkpt lat="42.49608" lon="2.41949">
        <ele>1824.4000244141</ele>
        <time>2023-07-16T09:57:08.000Z</time>
      </trkpt>
      <trkpt lat="42.49608" lon="2.41949">
        <ele>1824.4000244141</ele>
        <time>2023-07-16T09:57:09.000Z</time>
      </trkpt>
      <trkpt lat="42.4961" lon="2.41945">
        <ele>1823.8000488281</ele>
        <time>2023-07-16T09:57:15.000Z</time>
      </trkpt>
      <trkpt lat="42.4961" lon="2.41945">
        <ele>1823.1999511719</ele>
        <time>2023-07-16T09:57:22.000Z</time>
      </trkpt>
      <trkpt lat="42.49624" lon="2.4193">
        <ele>1819.8000488281</ele>
        <time>2023-07-16T09:57:41.000Z</time>
      </trkpt>
      <trkpt lat="42.49625" lon="2.41928">
        <ele>1819.5999755859</ele>
        <time>2023-07-16T09:57:43.000Z</time>
      </trkpt>
      <trkpt lat="42.49628" lon="2.41923">
        <ele>1819</ele>
        <time>2023-07-16T09:57:48.000Z</time>
      </trkpt>
      <trkpt lat="42.49633" lon="2.41918">
        <ele>1819</ele>
        <time>2023-07-16T09:57:56.000Z</time>
      </trkpt>
      <trkpt lat="42.49634" lon="2.41918">
        <ele>1818.8000488281</ele>
        <time>2023-07-16T09:57:58.000Z</time>
      </trkpt>
      <trkpt lat="42.49644" lon="2.41904">
        <ele>1817.1999511719</ele>
        <time>2023-07-16T09:58:16.000Z</time>
      </trkpt>
      <trkpt lat="42.49647" lon="2.41901">
        <ele>1816.5999755859</ele>
        <time>2023-07-16T09:58:20.000Z</time>
      </trkpt>
      <trkpt lat="42.49651" lon="2.41896">
        <ele>1816</ele>
        <time>2023-07-16T09:58:24.000Z</time>
      </trkpt>
      <trkpt lat="42.49654" lon="2.41892">
        <ele>1815.8000488281</ele>
        <time>2023-07-16T09:58:31.000Z</time>
      </trkpt>
      <trkpt lat="42.49655" lon="2.41891">
        <ele>1815.4000244141</ele>
        <time>2023-07-16T09:58:33.000Z</time>
      </trkpt>
      <trkpt lat="42.49655" lon="2.41891">
        <ele>1814.8000488281</ele>
        <time>2023-07-16T09:58:38.000Z</time>
      </trkpt>
      <trkpt lat="42.49656" lon="2.4189">
        <ele>1814.4000244141</ele>
        <time>2023-07-16T09:58:40.000Z</time>
      </trkpt>
      <trkpt lat="42.49698" lon="2.41773">
        <ele>1796</ele>
        <time>2023-07-16T10:00:40.000Z</time>
      </trkpt>
      <trkpt lat="42.497" lon="2.4177">
        <ele>1795.5999755859</ele>
        <time>2023-07-16T10:00:43.000Z</time>
      </trkpt>
      <trkpt lat="42.49704" lon="2.41764">
        <ele>1794.5999755859</ele>
        <time>2023-07-16T10:00:50.000Z</time>
      </trkpt>
      <trkpt lat="42.49713" lon="2.41755">
        <ele>1793</ele>
        <time>2023-07-16T10:01:09.000Z</time>
      </trkpt>
      <trkpt lat="42.49712" lon="2.41755">
        <ele>1793</ele>
        <time>2023-07-16T10:01:11.000Z</time>
      </trkpt>
      <trkpt lat="42.49712" lon="2.41754">
        <ele>1792.8000488281</ele>
        <time>2023-07-16T10:01:18.000Z</time>
      </trkpt>
      <trkpt lat="42.49703" lon="2.4176">
        <ele>1793.8000488281</ele>
        <time>2023-07-16T10:01:27.000Z</time>
      </trkpt>
      <trkpt lat="42.49704" lon="2.41759">
        <ele>1794</ele>
        <time>2023-07-16T10:01:28.000Z</time>
      </trkpt>
      <trkpt lat="42.49705" lon="2.41763">
        <ele>1793.8000488281</ele>
        <time>2023-07-16T10:01:32.000Z</time>
      </trkpt>
      <trkpt lat="42.49705" lon="2.41769">
        <ele>1793</ele>
        <time>2023-07-16T10:01:38.000Z</time>
      </trkpt>
      <trkpt lat="42.49706" lon="2.41771">
        <ele>1792.8000488281</ele>
        <time>2023-07-16T10:01:40.000Z</time>
      </trkpt>
      <trkpt lat="42.49707" lon="2.41778">
        <ele>1792</ele>
        <time>2023-07-16T10:01:46.000Z</time>
      </trkpt>
      <trkpt lat="42.49708" lon="2.41783">
        <ele>1791.4000244141</ele>
        <time>2023-07-16T10:01:49.000Z</time>
      </trkpt>
      <trkpt lat="42.49709" lon="2.41787">
        <ele>1790.8000488281</ele>
        <time>2023-07-16T10:01:53.000Z</time>
      </trkpt>
      <trkpt lat="42.4971" lon="2.4179">
        <ele>1790.5999755859</ele>
        <time>2023-07-16T10:01:56.000Z</time>
      </trkpt>
      <trkpt lat="42.49709" lon="2.41799">
        <ele>1790.1999511719</ele>
        <time>2023-07-16T10:02:02.000Z</time>
      </trkpt>
      <trkpt lat="42.49707" lon="2.41805">
        <ele>1789.8000488281</ele>
        <time>2023-07-16T10:02:08.000Z</time>
      </trkpt>
      <trkpt lat="42.49707" lon="2.41811">
        <ele>1789.5999755859</ele>
        <time>2023-07-16T10:02:12.000Z</time>
      </trkpt>
      <trkpt lat="42.49709" lon="2.41821">
        <ele>1789.1999511719</ele>
        <time>2023-07-16T10:02:18.000Z</time>
      </trkpt>
      <trkpt lat="42.4971" lon="2.41829">
        <ele>1788.8000488281</ele>
        <time>2023-07-16T10:02:22.000Z</time>
      </trkpt>
      <trkpt lat="42.49711" lon="2.41832">
        <ele>1788.5999755859</ele>
        <time>2023-07-16T10:02:24.000Z</time>
      </trkpt>
      <trkpt lat="42.49712" lon="2.4184">
        <ele>1787.5999755859</ele>
        <time>2023-07-16T10:02:30.000Z</time>
      </trkpt>
      <trkpt lat="42.49713" lon="2.41841">
        <ele>1787.4000244141</ele>
        <time>2023-07-16T10:02:31.000Z</time>
      </trkpt>
      <trkpt lat="42.49713" lon="2.41845">
        <ele>1786.4000244141</ele>
        <time>2023-07-16T10:02:35.000Z</time>
      </trkpt>
      <trkpt lat="42.49715" lon="2.41848">
        <ele>1785.4000244141</ele>
        <time>2023-07-16T10:02:39.000Z</time>
      </trkpt>
      <trkpt lat="42.49715" lon="2.41848">
        <ele>1784.8000488281</ele>
        <time>2023-07-16T10:02:41.000Z</time>
      </trkpt>
      <trkpt lat="42.49732" lon="2.41834">
        <ele>1779.5999755859</ele>
        <time>2023-07-16T10:03:02.000Z</time>
      </trkpt>
      <trkpt lat="42.49734" lon="2.41829">
        <ele>1777.5999755859</ele>
        <time>2023-07-16T10:03:10.000Z</time>
      </trkpt>
      <trkpt lat="42.49736" lon="2.41828">
        <ele>1777.1999511719</ele>
        <time>2023-07-16T10:03:12.000Z</time>
      </trkpt>
      <trkpt lat="42.49757" lon="2.41746">
        <ele>1767.8000488281</ele>
        <time>2023-07-16T10:04:26.000Z</time>
      </trkpt>
      <trkpt lat="42.49749" lon="2.41683">
        <ele>1763.8000488281</ele>
        <time>2023-07-16T10:04:56.000Z</time>
      </trkpt>
      <trkpt lat="42.4975" lon="2.4168">
        <ele>1763.8000488281</ele>
        <time>2023-07-16T10:04:58.000Z</time>
      </trkpt>
      <trkpt lat="42.49759" lon="2.4166">
        <ele>1762.1999511719</ele>
        <time>2023-07-16T10:05:12.000Z</time>
      </trkpt>
      <trkpt lat="42.49759" lon="2.41655">
        <ele>1750.3</ele>
        <time>2023-07-16T10:05:52Z</time>
      </trkpt>
      <trkpt lat="42.49749" lon="2.41632">
        <ele>1748.6</ele>
        <time>2023-07-16T10:06:24Z</time>
      </trkpt>
      <trkpt lat="42.49718" lon="2.4159">
        <ele>1745.3</ele>
        <time>2023-07-16T10:06:56Z</time>
      </trkpt>
      <trkpt lat="42.49674" lon="2.41543">
        <ele>1734.3</ele>
        <time>2023-07-16T10:07:28Z</time>
      </trkpt>
      <trkpt lat="42.49647" lon="2.41517">
        <ele>1733.6</ele>
        <time>2023-07-16T10:08:00Z</time>
      </trkpt>
      <trkpt lat="42.49602" lon="2.41457">
        <ele>1726.2</ele>
        <time>2023-07-16T10:08:32Z</time>
      </trkpt>
      <trkpt lat="42.49596" lon="2.4142">
        <ele>1718.6</ele>
        <time>2023-07-16T10:09:04Z</time>
      </trkpt>
      <trkpt lat="42.49577" lon="2.41361">
        <ele>1716.7</ele>
        <time>2023-07-16T10:09:36Z</time>
      </trkpt>
      <trkpt lat="42.49571" lon="2.41341">
        <ele>1716.3</ele>
        <time>2023-07-16T10:10:08Z</time>
      </trkpt>
      <trkpt lat="42.49569" lon="2.41297">
        <ele>1709.3</ele>
        <time>2023-07-16T10:10:40Z</time>
      </trkpt>
      <trkpt lat="42.49549" lon="2.41215">
        <ele>1704.8</ele>
        <time>2023-07-16T10:11:12Z</time>
      </trkpt>
      <trkpt lat="42.49534" lon="2.41171">
        <ele>1694.9</ele>
        <time>2023-07-16T10:11:44Z</time>
      </trkpt>
      <trkpt lat="42.49477" lon="2.41168">
        <ele>1695.8</ele>
        <time>2023-07-16T10:12:16Z</time>
      </trkpt>
      <trkpt lat="42.49456" lon="2.41161">
        <ele>1694.8</ele>
        <time>2023-07-16T10:12:48Z</time>
      </trkpt>
      <trkpt lat="42.49444" lon="2.41144">
        <ele>1692.9</ele>
        <time>2023-07-16T10:13:20Z</time>
      </trkpt>
      <trkpt lat="42.49461" lon="2.41125">
        <ele>1694.4</ele>
        <time>2023-07-16T10:13:52Z</time>
      </trkpt>
      <trkpt lat="42.49485" lon="2.41116">
        <ele>1691.7</ele>
        <time>2023-07-16T10:14:24Z</time>
      </trkpt>
      <trkpt lat="42.49516" lon="2.41103">
        <ele>1687.3</ele>
        <time>2023-07-16T10:14:56Z</time>
      </trkpt>
      <trkpt lat="42.49531" lon="2.41078">
        <ele>1694.3</ele>
        <time>2023-07-16T10:15:28Z</time>
      </trkpt>
      <trkpt lat="42.49553" lon="2.41067">
        <ele>1696.1</ele>
        <time>2023-07-16T10:16:00Z</time>
      </trkpt>
      <trkpt lat="42.49579" lon="2.41065">
        <ele>1695.9</ele>
        <time>2023-07-16T10:16:32Z</time>
      </trkpt>
      <trkpt lat="42.49611" lon="2.41074">
        <ele>1696.2</ele>
        <time>2023-07-16T10:17:04Z</time>
      </trkpt>
      <trkpt lat="42.49616" lon="2.41076">
        <ele>1706.1999511719</ele>
        <time>2023-07-16T10:18:08.000Z</time>
      </trkpt>
      <trkpt lat="42.4962" lon="2.41076">
        <ele>1706.5999755859</ele>
        <time>2023-07-16T10:18:12.000Z</time>
      </trkpt>
      <trkpt lat="42.49626" lon="2.41077">
        <ele>1707</ele>
        <time>2023-07-16T10:18:19.000Z</time>
      </trkpt>
      <trkpt lat="42.49627" lon="2.41078">
        <ele>1707.1999511719</ele>
        <time>2023-07-16T10:18:20.000Z</time>
      </trkpt>
      <trkpt lat="42.49631" lon="2.41081">
        <ele>1707.4000244141</ele>
        <time>2023-07-16T10:18:24.000Z</time>
      </trkpt>
      <trkpt lat="42.49636" lon="2.41085">
        <ele>1708</ele>
        <time>2023-07-16T10:18:30.000Z</time>
      </trkpt>
      <trkpt lat="42.49644" lon="2.41094">
        <ele>1708</ele>
        <time>2023-07-16T10:18:37.000Z</time>
      </trkpt>
      <trkpt lat="42.49645" lon="2.41094">
        <ele>1708.1999511719</ele>
        <time>2023-07-16T10:18:38.000Z</time>
      </trkpt>
      <trkpt lat="42.4965" lon="2.41099">
        <ele>1709.1999511719</ele>
        <time>2023-07-16T10:18:45.000Z</time>
      </trkpt>
      <trkpt lat="42.49651" lon="2.411">
        <ele>1709.4000244141</ele>
        <time>2023-07-16T10:18:46.000Z</time>
      </trkpt>
      <trkpt lat="42.49661" lon="2.41113">
        <ele>1710.1999511719</ele>
        <time>2023-07-16T10:18:58.000Z</time>
      </trkpt>
      <trkpt lat="42.49685" lon="2.41122">
        <ele>1710.5999755859</ele>
        <time>2023-07-16T10:19:23.000Z</time>
      </trkpt>
      <trkpt lat="42.49713" lon="2.4114">
        <ele>1712.1999511719</ele>
        <time>2023-07-16T10:20:02.000Z</time>
      </trkpt>
      <trkpt lat="42.49714" lon="2.41143">
        <ele>1712.1999511719</ele>
        <time>2023-07-16T10:20:06.000Z</time>
      </trkpt>
      <trkpt lat="42.49714" lon="2.41147">
        <ele>1712.4000244141</ele>
        <time>2023-07-16T10:20:10.000Z</time>
      </trkpt>
      <trkpt lat="42.49715" lon="2.41147">
        <ele>1712.4000244141</ele>
        <time>2023-07-16T10:20:11.000Z</time>
      </trkpt>
      <trkpt lat="42.49717" lon="2.41148">
        <ele>1712.4000244141</ele>
        <time>2023-07-16T10:20:15.000Z</time>
      </trkpt>
      <trkpt lat="42.49724" lon="2.41143">
        <ele>1712.4000244141</ele>
        <time>2023-07-16T10:20:21.000Z</time>
      </trkpt>
      <trkpt lat="42.49729" lon="2.41136">
        <ele>1712.5999755859</ele>
        <time>2023-07-16T10:20:28.000Z</time>
      </trkpt>
      <trkpt lat="42.49734" lon="2.41128">
        <ele>1712.5999755859</ele>
        <time>2023-07-16T10:20:36.000Z</time>
      </trkpt>
      <trkpt lat="42.49738" lon="2.41113">
        <ele>1713</ele>
        <time>2023-07-16T10:20:46.000Z</time>
      </trkpt>
      <trkpt lat="42.49744" lon="2.411">
        <ele>1713.1999511719</ele>
        <time>2023-07-16T10:20:54.000Z</time>
      </trkpt>
      <trkpt lat="42.49747" lon="2.41096">
        <ele>1713.4000244141</ele>
        <time>2023-07-16T10:20:58.000Z</time>
      </trkpt>
      <trkpt lat="42.4975" lon="2.41088">
        <ele>1713.8000488281</ele>
        <time>2023-07-16T10:21:03.000Z</time>
      </trkpt>
      <trkpt lat="42.49755" lon="2.41079">
        <ele>1714</ele>
        <time>2023-07-16T10:21:10.000Z</time>
      </trkpt>
      <trkpt lat="42.49762" lon="2.41072">
        <ele>1714.1999511719</ele>
        <time>2023-07-16T10:21:18.000Z</time>
      </trkpt>
      <trkpt lat="42.49765" lon="2.41068">
        <ele>1714.4000244141</ele>
        <time>2023-07-16T10:21:21.000Z</time>
      </trkpt>
      <trkpt lat="42.49769" lon="2.41057">
        <ele>1714.8000488281</ele>
        <time>2023-07-16T10:21:28.000Z</time>
      </trkpt>
      <trkpt lat="42.49774" lon="2.41046">
        <ele>1715.1999511719</ele>
        <time>2023-07-16T10:21:35.000Z</time>
      </trkpt>
      <trkpt lat="42.49777" lon="2.41037">
        <ele>1715.4000244141</ele>
        <time>2023-07-16T10:21:41.000Z</time>
      </trkpt>
      <trkpt lat="42.49782" lon="2.4103">
        <ele>1716</ele>
        <time>2023-07-16T10:21:48.000Z</time>
      </trkpt>
      <trkpt lat="42.49788" lon="2.41021">
        <ele>1716</ele>
        <time>2023-07-16T10:21:56.000Z</time>
      </trkpt>
      <trkpt lat="42.49789" lon="2.41014">
        <ele>1716.1999511719</ele>
        <time>2023-07-16T10:22:02.000Z</time>
      </trkpt>
      <trkpt lat="42.49795" lon="2.41004">
        <ele>1716.4000244141</ele>
        <time>2023-07-16T10:22:10.000Z</time>
      </trkpt>
      <trkpt lat="42.49797" lon="2.41">
        <ele>1716.4000244141</ele>
        <time>2023-07-16T10:22:13.000Z</time>
      </trkpt>
      <trkpt lat="42.49801" lon="2.40996">
        <ele>1716.5999755859</ele>
        <time>2023-07-16T10:22:17.000Z</time>
      </trkpt>
      <trkpt lat="42.49808" lon="2.40989">
        <ele>1717</ele>
        <time>2023-07-16T10:22:26.000Z</time>
      </trkpt>
      <trkpt lat="42.4981" lon="2.40987">
        <ele>1717</ele>
        <time>2023-07-16T10:22:28.000Z</time>
      </trkpt>
      <trkpt lat="42.49821" lon="2.40979">
        <ele>1717</ele>
        <time>2023-07-16T10:22:41.000Z</time>
      </trkpt>
      <trkpt lat="42.49834" lon="2.40967">
        <ele>1718</ele>
        <time>2023-07-16T10:22:58.000Z</time>
      </trkpt>
      <trkpt lat="42.49927" lon="2.40913">
        <ele>1721.4000244141</ele>
        <time>2023-07-16T10:24:51.000Z</time>
      </trkpt>
      <trkpt lat="42.49927" lon="2.40913">
        <ele>1721.4000244141</ele>
        <time>2023-07-16T10:24:52.000Z</time>
      </trkpt>
      <trkpt lat="42.49932" lon="2.40912">
        <ele>1721</ele>
        <time>2023-07-16T10:25:00.000Z</time>
      </trkpt>
      <trkpt lat="42.49938" lon="2.40905">
        <ele>1721.5999755859</ele>
        <time>2023-07-16T10:25:07.000Z</time>
      </trkpt>
      <trkpt lat="42.49943" lon="2.40903">
        <ele>1721.8000488281</ele>
        <time>2023-07-16T10:25:11.000Z</time>
      </trkpt>
      <trkpt lat="42.49946" lon="2.40904">
        <ele>1722</ele>
        <time>2023-07-16T10:25:16.000Z</time>
      </trkpt>
      <trkpt lat="42.4996" lon="2.40902">
        <ele>1722.4000244141</ele>
        <time>2023-07-16T10:25:33.000Z</time>
      </trkpt>
      <trkpt lat="42.49973" lon="2.40897">
        <ele>1722.1999511719</ele>
        <time>2023-07-16T10:25:41.000Z</time>
      </trkpt>
      <trkpt lat="42.49984" lon="2.40893">
        <ele>1722.8000488281</ele>
        <time>2023-07-16T10:25:48.000Z</time>
      </trkpt>
      <trkpt lat="42.49986" lon="2.40892">
        <ele>1723</ele>
        <time>2023-07-16T10:25:50.000Z</time>
      </trkpt>
      <trkpt lat="42.49994" lon="2.40885">
        <ele>1723.8000488281</ele>
        <time>2023-07-16T10:25:58.000Z</time>
      </trkpt>
      <trkpt lat="42.49996" lon="2.40884">
        <ele>1724</ele>
        <time>2023-07-16T10:25:59.000Z</time>
      </trkpt>
      <trkpt lat="42.50006" lon="2.40879">
        <ele>1724.4000244141</ele>
        <time>2023-07-16T10:26:07.000Z</time>
      </trkpt>
      <trkpt lat="42.5001" lon="2.40874">
        <ele>1725</ele>
        <time>2023-07-16T10:26:14.000Z</time>
      </trkpt>
      <trkpt lat="42.50012" lon="2.40871">
        <ele>1725</ele>
        <time>2023-07-16T10:26:16.000Z</time>
      </trkpt>
      <trkpt lat="42.50014" lon="2.40868">
        <ele>1725</ele>
        <time>2023-07-16T10:26:24.000Z</time>
      </trkpt>
      <trkpt lat="42.50014" lon="2.40869">
        <ele>1724.5999755859</ele>
        <time>2023-07-16T10:26:32.000Z</time>
      </trkpt>
      <trkpt lat="42.50017" lon="2.40867">
        <ele>1724.1999511719</ele>
        <time>2023-07-16T10:26:40.000Z</time>
      </trkpt>
      <trkpt lat="42.50018" lon="2.40865">
        <ele>1724</ele>
        <time>2023-07-16T10:26:48.000Z</time>
      </trkpt>
      <trkpt lat="42.50016" lon="2.40863">
        <ele>1724</ele>
        <time>2023-07-16T10:26:55.000Z</time>
      </trkpt>
      <trkpt lat="42.50016" lon="2.40864">
        <ele>1724</ele>
        <time>2023-07-16T10:26:57.000Z</time>
      </trkpt>
      <trkpt lat="42.50018" lon="2.40867">
        <ele>1723.8000488281</ele>
        <time>2023-07-16T10:27:07.000Z</time>
      </trkpt>
      <trkpt lat="42.50024" lon="2.40862">
        <ele>1723.4000244141</ele>
        <time>2023-07-16T10:27:13.000Z</time>
      </trkpt>
      <trkpt lat="42.50025" lon="2.40861">
        <ele>1722.8000488281</ele>
        <time>2023-07-16T10:27:16.000Z</time>
      </trkpt>
      <trkpt lat="42.50025" lon="2.4086">
        <ele>1722.5999755859</ele>
        <time>2023-07-16T10:27:20.000Z</time>
      </trkpt>
      <trkpt lat="42.50033" lon="2.40851">
        <ele>1722</ele>
        <time>2023-07-16T10:27:29.000Z</time>
      </trkpt>
      <trkpt lat="42.50035" lon="2.4085">
        <ele>1721.8000488281</ele>
        <time>2023-07-16T10:27:31.000Z</time>
      </trkpt>
      <trkpt lat="42.50041" lon="2.40848">
        <ele>1720.8000488281</ele>
        <time>2023-07-16T10:27:36.000Z</time>
      </trkpt>
      <trkpt lat="42.50049" lon="2.40845">
        <ele>1719.5999755859</ele>
        <time>2023-07-16T10:27:43.000Z</time>
      </trkpt>
      <trkpt lat="42.5005" lon="2.40845">
        <ele>1719.4000244141</ele>
        <time>2023-07-16T10:27:44.000Z</time>
      </trkpt>
      <trkpt lat="42.50054" lon="2.40842">
        <ele>1718.4000244141</ele>
        <time>2023-07-16T10:27:48.000Z</time>
      </trkpt>
      <trkpt lat="42.50059" lon="2.40839">
        <ele>1717.4000244141</ele>
        <time>2023-07-16T10:27:52.000Z</time>
      </trkpt>
      <trkpt lat="42.5006" lon="2.40839">
        <ele>1717</ele>
        <time>2023-07-16T10:27:53.000Z</time>
      </trkpt>
      <trkpt lat="42.50063" lon="2.40838">
        <ele>1716.1999511719</ele>
        <time>2023-07-16T10:27:56.000Z</time>
      </trkpt>
      <trkpt lat="42.50068" lon="2.40836">
        <ele>1715.1999511719</ele>
        <time>2023-07-16T10:28:00.000Z</time>
      </trkpt>
      <trkpt lat="42.50071" lon="2.40835">
        <ele>1714.1999511719</ele>
        <time>2023-07-16T10:28:03.000Z</time>
      </trkpt>
      <trkpt lat="42.50072" lon="2.40835">
        <ele>1714</ele>
        <time>2023-07-16T10:28:04.000Z</time>
      </trkpt>
      <trkpt lat="42.50078" lon="2.40832">
        <ele>1712.8000488281</ele>
        <time>2023-07-16T10:28:09.000Z</time>
      </trkpt>
      <trkpt lat="42.50082" lon="2.40831">
        <ele>1712</ele>
        <time>2023-07-16T10:28:12.000Z</time>
      </trkpt>
      <trkpt lat="42.50083" lon="2.40831">
        <ele>1711.5999755859</ele>
        <time>2023-07-16T10:28:13.000Z</time>
      </trkpt>
      <trkpt lat="42.50087" lon="2.4083">
        <ele>1710.5999755859</ele>
        <time>2023-07-16T10:28:17.000Z</time>
      </trkpt>
      <trkpt lat="42.50093" lon="2.40828">
        <ele>1709.5999755859</ele>
        <time>2023-07-16T10:28:21.000Z</time>
      </trkpt>
      <trkpt lat="42.50096" lon="2.40827">
        <ele>1709.4000244141</ele>
        <time>2023-07-16T10:28:22.000Z</time>
      </trkpt>
      <trkpt lat="42.50098" lon="2.40824">
        <ele>1708.1999511719</ele>
        <time>2023-07-16T10:28:26.000Z</time>
      </trkpt>
      <trkpt lat="42.501" lon="2.40822">
        <ele>1707.1999511719</ele>
        <time>2023-07-16T10:28:29.000Z</time>
      </trkpt>
      <trkpt lat="42.50101" lon="2.40821">
        <ele>1706.8000488281</ele>
        <time>2023-07-16T10:28:30.000Z</time>
      </trkpt>
      <trkpt lat="42.50103" lon="2.4082">
        <ele>1706.1999511719</ele>
        <time>2023-07-16T10:28:32.000Z</time>
      </trkpt>
      <trkpt lat="42.50107" lon="2.40817">
        <ele>1705.1999511719</ele>
        <time>2023-07-16T10:28:36.000Z</time>
      </trkpt>
      <trkpt lat="42.50109" lon="2.40816">
        <ele>1704.4000244141</ele>
        <time>2023-07-16T10:28:38.000Z</time>
      </trkpt>
      <trkpt lat="42.5011" lon="2.40815">
        <ele>1703.8000488281</ele>
        <time>2023-07-16T10:28:40.000Z</time>
      </trkpt>
      <trkpt lat="42.50116" lon="2.40812">
        <ele>1702.5999755859</ele>
        <time>2023-07-16T10:28:46.000Z</time>
      </trkpt>
      <trkpt lat="42.50118" lon="2.40811">
        <ele>1701.5999755859</ele>
        <time>2023-07-16T10:28:50.000Z</time>
      </trkpt>
      <trkpt lat="42.50119" lon="2.40811">
        <ele>1701.1999511719</ele>
        <time>2023-07-16T10:28:52.000Z</time>
      </trkpt>
      <trkpt lat="42.50124" lon="2.40811">
        <ele>1700.4000244141</ele>
        <time>2023-07-16T10:28:56.000Z</time>
      </trkpt>
      <trkpt lat="42.50127" lon="2.40808">
        <ele>1699.4000244141</ele>
        <time>2023-07-16T10:29:00.000Z</time>
      </trkpt>
      <trkpt lat="42.50127" lon="2.40806">
        <ele>1699.1999511719</ele>
        <time>2023-07-16T10:29:01.000Z</time>
      </trkpt>
      <trkpt lat="42.50128" lon="2.40801">
        <ele>1698</ele>
        <time>2023-07-16T10:29:05.000Z</time>
      </trkpt>
      <trkpt lat="42.50131" lon="2.408">
        <ele>1697.4000244141</ele>
        <time>2023-07-16T10:29:08.000Z</time>
      </trkpt>
      <trkpt lat="42.50133" lon="2.40798">
        <ele>1697</ele>
        <time>2023-07-16T10:29:10.000Z</time>
      </trkpt>
      <trkpt lat="42.50136" lon="2.40795">
        <ele>1695.8000488281</ele>
        <time>2023-07-16T10:29:14.000Z</time>
      </trkpt>
      <trkpt lat="42.50137" lon="2.40793">
        <ele>1695.4000244141</ele>
        <time>2023-07-16T10:29:16.000Z</time>
      </trkpt>
      <trkpt lat="42.50138" lon="2.4079">
        <ele>1694.5999755859</ele>
        <time>2023-07-16T10:29:19.000Z</time>
      </trkpt>
      <trkpt lat="42.50142" lon="2.40786">
        <ele>1693.5999755859</ele>
        <time>2023-07-16T10:29:22.000Z</time>
      </trkpt>
      <trkpt lat="42.50143" lon="2.40785">
        <ele>1693.5999755859</ele>
        <time>2023-07-16T10:29:23.000Z</time>
      </trkpt>
      <trkpt lat="42.50151" lon="2.40782">
        <ele>1692.8000488281</ele>
        <time>2023-07-16T10:29:30.000Z</time>
      </trkpt>
      <trkpt lat="42.50163" lon="2.40784">
        <ele>1693.4000244141</ele>
        <time>2023-07-16T10:29:41.000Z</time>
      </trkpt>
      <trkpt lat="42.50163" lon="2.40787">
        <ele>1693.4000244141</ele>
        <time>2023-07-16T10:31:59.000Z</time>
      </trkpt>
      <trkpt lat="42.50161" lon="2.40785">
        <ele>1692.8000488281</ele>
        <time>2023-07-16T10:32:01.000Z</time>
      </trkpt>
      <trkpt lat="42.5015" lon="2.40778">
        <ele>1693.4000244141</ele>
        <time>2023-07-16T10:32:49.000Z</time>
      </trkpt>
      <trkpt lat="42.50151" lon="2.40775">
        <ele>1693.1999511719</ele>
        <time>2023-07-16T10:32:55.000Z</time>
      </trkpt>
      <trkpt lat="42.5015" lon="2.4077">
        <ele>1693</ele>
        <time>2023-07-16T10:33:02.000Z</time>
      </trkpt>
      <trkpt lat="42.50148" lon="2.40773">
        <ele>1693</ele>
        <time>2023-07-16T10:33:09.000Z</time>
      </trkpt>
      <trkpt lat="42.50152" lon="2.40772">
        <ele>1692.5999755859</ele>
        <time>2023-07-16T10:33:19.000Z</time>
      </trkpt>
      <trkpt lat="42.50151" lon="2.40769">
        <ele>1692.4000244141</ele>
        <time>2023-07-16T10:33:25.000Z</time>
      </trkpt>
      <trkpt lat="42.5015" lon="2.4077">
        <ele>1692.1999511719</ele>
        <time>2023-07-16T10:33:32.000Z</time>
      </trkpt>
      <trkpt lat="42.50148" lon="2.40776">
        <ele>1691.8000488281</ele>
        <time>2023-07-16T10:33:42.000Z</time>
      </trkpt>
      <trkpt lat="42.50151" lon="2.40778">
        <ele>1691.4000244141</ele>
        <time>2023-07-16T10:33:50.000Z</time>
      </trkpt>
      <trkpt lat="42.5015" lon="2.40776">
        <ele>1691.4000244141</ele>
        <time>2023-07-16T10:33:56.000Z</time>
      </trkpt>
      <trkpt lat="42.50148" lon="2.40776">
        <ele>1691.4000244141</ele>
        <time>2023-07-16T10:34:03.000Z</time>
      </trkpt>
      <trkpt lat="42.50147" lon="2.40776">
        <ele>1691.4000244141</ele>
        <time>2023-07-16T10:34:13.000Z</time>
      </trkpt>
      <trkpt lat="42.50155" lon="2.40776">
        <ele>1691.5999755859</ele>
        <time>2023-07-16T10:34:26.000Z</time>
      </trkpt>
      <trkpt lat="42.50153" lon="2.40775">
        <ele>1691.5999755859</ele>
        <time>2023-07-16T10:34:35.000Z</time>
      </trkpt>
      <trkpt lat="42.5016" lon="2.40779">
        <ele>1691.5999755859</ele>
        <time>2023-07-16T10:34:41.000Z</time>
      </trkpt>
      <trkpt lat="42.50163" lon="2.40784">
        <ele>1692.5999755859</ele>
        <time>2023-07-16T10:34:46.000Z</time>
      </trkpt>
      <trkpt lat="42.50164" lon="2.40786">
        <ele>1693.8000488281</ele>
        <time>2023-07-16T10:34:51.000Z</time>
      </trkpt>
      <trkpt lat="42.50164" lon="2.40784">
        <ele>1694.4000244141</ele>
        <time>2023-07-16T10:34:53.000Z</time>
      </trkpt>
      <trkpt lat="42.50164" lon="2.40783">
        <ele>1694.8000488281</ele>
        <time>2023-07-16T10:34:55.000Z</time>
      </trkpt>
      <trkpt lat="42.50179" lon="2.40793">
        <ele>1694.8000488281</ele>
        <time>2023-07-16T10:35:55.000Z</time>
      </trkpt>
      <trkpt lat="42.50166" lon="2.40787">
        <ele>1694.1999511719</ele>
        <time>2023-07-16T10:36:15.000Z</time>
      </trkpt>
      <trkpt lat="42.50164" lon="2.40785">
        <ele>1694.1999511719</ele>
        <time>2023-07-16T10:36:27.000Z</time>
      </trkpt>
      <trkpt lat="42.50164" lon="2.4078">
        <ele>1694</ele>
        <time>2023-07-16T10:36:55.000Z</time>
      </trkpt>
      <trkpt lat="42.50162" lon="2.40779">
        <ele>1693.8000488281</ele>
        <time>2023-07-16T10:37:03.000Z</time>
      </trkpt>
      <trkpt lat="42.50162" lon="2.4078">
        <ele>1693.8000488281</ele>
        <time>2023-07-16T10:37:05.000Z</time>
      </trkpt>
      <trkpt lat="42.50162" lon="2.40781">
        <ele>1693.8000488281</ele>
        <time>2023-07-16T10:37:11.000Z</time>
      </trkpt>
      <trkpt lat="42.50163" lon="2.40782">
        <ele>1693.5999755859</ele>
        <time>2023-07-16T10:37:20.000Z</time>
      </trkpt>
      <trkpt lat="42.50164" lon="2.4078">
        <ele>1694.1999511719</ele>
        <time>2023-07-16T10:37:45.000Z</time>
      </trkpt>
      <trkpt lat="42.50162" lon="2.4078">
        <ele>1694</ele>
        <time>2023-07-16T10:37:55.000Z</time>
      </trkpt>
      <trkpt lat="42.50162" lon="2.40781">
        <ele>1693.8000488281</ele>
        <time>2023-07-16T10:38:01.000Z</time>
      </trkpt>
      <trkpt lat="42.50164" lon="2.4078">
        <ele>1693.5999755859</ele>
        <time>2023-07-16T10:38:09.000Z</time>
      </trkpt>
      <trkpt lat="42.50163" lon="2.40782">
        <ele>1693.4000244141</ele>
        <time>2023-07-16T10:38:19.000Z</time>
      </trkpt>
      <trkpt lat="42.50185" lon="2.40784">
        <ele>1694.1999511719</ele>
        <time>2023-07-16T10:47:51.000Z</time>
      </trkpt>
      <trkpt lat="42.50196" lon="2.40796">
        <ele>1693.8000488281</ele>
        <time>2023-07-16T10:48:33.000Z</time>
      </trkpt>
      <trkpt lat="42.4995" lon="2.40884">
        <ele>1723.5999755859</ele>
        <time>2023-07-16T11:49:35.000Z</time>
      </trkpt>
      <trkpt lat="42.49945" lon="2.40886">
        <ele>1724</ele>
        <time>2023-07-16T11:49:40.000Z</time>
      </trkpt>
      <trkpt lat="42.49939" lon="2.40885">
        <ele>1724</ele>
        <time>2023-07-16T11:49:45.000Z</time>
      </trkpt>
      <trkpt lat="42.49934" lon="2.40881">
        <ele>1724.5999755859</ele>
        <time>2023-07-16T11:49:57.000Z</time>
      </trkpt>
      <trkpt lat="42.49933" lon="2.40879">
        <ele>1724.5999755859</ele>
        <time>2023-07-16T11:50:06.000Z</time>
      </trkpt>
      <trkpt lat="42.49928" lon="2.40878">
        <ele>1724.8000488281</ele>
        <time>2023-07-16T11:50:11.000Z</time>
      </trkpt>
      <trkpt lat="42.49924" lon="2.4088">
        <ele>1725.1999511719</ele>
        <time>2023-07-16T11:50:14.000Z</time>
      </trkpt>
      <trkpt lat="42.49918" lon="2.40882">
        <ele>1725.5999755859</ele>
        <time>2023-07-16T11:50:18.000Z</time>
      </trkpt>
      <trkpt lat="42.49913" lon="2.40884">
        <ele>1726.1999511719</ele>
        <time>2023-07-16T11:50:22.000Z</time>
      </trkpt>
      <trkpt lat="42.49907" lon="2.40886">
        <ele>1726.8000488281</ele>
        <time>2023-07-16T11:50:27.000Z</time>
      </trkpt>
      <trkpt lat="42.49902" lon="2.40891">
        <ele>1727.1999511719</ele>
        <time>2023-07-16T11:50:31.000Z</time>
      </trkpt>
      <trkpt lat="42.49899" lon="2.40894">
        <ele>1727.5999755859</ele>
        <time>2023-07-16T11:50:34.000Z</time>
      </trkpt>
      <trkpt lat="42.49894" lon="2.40898">
        <ele>1728.1999511719</ele>
        <time>2023-07-16T11:50:39.000Z</time>
      </trkpt>
      <trkpt lat="42.49893" lon="2.40899">
        <ele>1728.4000244141</ele>
        <time>2023-07-16T11:50:41.000Z</time>
      </trkpt>
      <trkpt lat="42.49889" lon="2.40902">
        <ele>1728.5999755859</ele>
        <time>2023-07-16T11:50:47.000Z</time>
      </trkpt>
      <trkpt lat="42.49882" lon="2.40905">
        <ele>1729.1999511719</ele>
        <time>2023-07-16T11:50:53.000Z</time>
      </trkpt>
      <trkpt lat="42.49881" lon="2.40905">
        <ele>1729.4000244141</ele>
        <time>2023-07-16T11:50:54.000Z</time>
      </trkpt>
      <trkpt lat="42.4987" lon="2.40907">
        <ele>1730.4000244141</ele>
        <time>2023-07-16T11:51:04.000Z</time>
      </trkpt>
      <trkpt lat="42.4986" lon="2.40914">
        <ele>1731.4000244141</ele>
        <time>2023-07-16T11:51:12.000Z</time>
      </trkpt>
      <trkpt lat="42.49859" lon="2.40914">
        <ele>1731.4000244141</ele>
        <time>2023-07-16T11:51:13.000Z</time>
      </trkpt>
      <trkpt lat="42.49852" lon="2.4092">
        <ele>1732</ele>
        <time>2023-07-16T11:51:19.000Z</time>
      </trkpt>
      <trkpt lat="42.49845" lon="2.40924">
        <ele>1732.4000244141</ele>
        <time>2023-07-16T11:51:25.000Z</time>
      </trkpt>
      <trkpt lat="42.49838" lon="2.40927">
        <ele>1733</ele>
        <time>2023-07-16T11:51:31.000Z</time>
      </trkpt>
      <trkpt lat="42.49825" lon="2.4093">
        <ele>1733.8000488281</ele>
        <time>2023-07-16T11:51:42.000Z</time>
      </trkpt>
      <trkpt lat="42.4982" lon="2.40933">
        <ele>1734.1999511719</ele>
        <time>2023-07-16T11:51:46.000Z</time>
      </trkpt>
      <trkpt lat="42.49816" lon="2.40937">
        <ele>1734.5999755859</ele>
        <time>2023-07-16T11:51:49.000Z</time>
      </trkpt>
      <trkpt lat="42.49802" lon="2.40945">
        <ele>1736</ele>
        <time>2023-07-16T11:52:02.000Z</time>
      </trkpt>
      <trkpt lat="42.49791" lon="2.40954">
        <ele>1736.8000488281</ele>
        <time>2023-07-16T11:52:10.000Z</time>
      </trkpt>
      <trkpt lat="42.49785" lon="2.40962">
        <ele>1737.8000488281</ele>
        <time>2023-07-16T11:52:17.000Z</time>
      </trkpt>
      <trkpt lat="42.49782" lon="2.40965">
        <ele>1738.1999511719</ele>
        <time>2023-07-16T11:52:20.000Z</time>
      </trkpt>
      <trkpt lat="42.49781" lon="2.40966">
        <ele>1738.5999755859</ele>
        <time>2023-07-16T11:52:26.000Z</time>
      </trkpt>
      <trkpt lat="42.49781" lon="2.40967">
        <ele>1739</ele>
        <time>2023-07-16T11:52:28.000Z</time>
      </trkpt>
      <trkpt lat="42.49771" lon="2.40975">
        <ele>1739.8000488281</ele>
        <time>2023-07-16T11:52:42.000Z</time>
      </trkpt>
      <trkpt lat="42.49768" lon="2.40977">
        <ele>1740</ele>
        <time>2023-07-16T11:52:47.000Z</time>
      </trkpt>
      <trkpt lat="42.49766" lon="2.40977">
        <ele>1740.1999511719</ele>
        <time>2023-07-16T11:52:49.000Z</time>
      </trkpt>
      <trkpt lat="42.49758" lon="2.40983">
        <ele>1740.8000488281</ele>
        <time>2023-07-16T11:52:56.000Z</time>
      </trkpt>
      <trkpt lat="42.49755" lon="2.40983">
        <ele>1741</ele>
        <time>2023-07-16T11:53:00.000Z</time>
      </trkpt>
      <trkpt lat="42.49749" lon="2.40989">
        <ele>1741.4000244141</ele>
        <time>2023-07-16T11:53:05.000Z</time>
      </trkpt>
      <trkpt lat="42.49741" lon="2.40996">
        <ele>1742</ele>
        <time>2023-07-16T11:53:13.000Z</time>
      </trkpt>
      <trkpt lat="42.4974" lon="2.40997">
        <ele>1742</ele>
        <time>2023-07-16T11:53:14.000Z</time>
      </trkpt>
      <trkpt lat="42.49734" lon="2.41004">
        <ele>1743</ele>
        <time>2023-07-16T11:53:22.000Z</time>
      </trkpt>
      <trkpt lat="42.49733" lon="2.41004">
        <ele>1743.1999511719</ele>
        <time>2023-07-16T11:53:23.000Z</time>
      </trkpt>
      <trkpt lat="42.49727" lon="2.41008">
        <ele>1744</ele>
        <time>2023-07-16T11:53:29.000Z</time>
      </trkpt>
      <trkpt lat="42.49724" lon="2.4101">
        <ele>1744.1999511719</ele>
        <time>2023-07-16T11:53:33.000Z</time>
      </trkpt>
      <trkpt lat="42.49722" lon="2.41012">
        <ele>1744.4000244141</ele>
        <time>2023-07-16T11:53:35.000Z</time>
      </trkpt>
      <trkpt lat="42.49715" lon="2.41019">
        <ele>1744.8000488281</ele>
        <time>2023-07-16T11:53:42.000Z</time>
      </trkpt>
      <trkpt lat="42.49708" lon="2.41026">
        <ele>1745.1999511719</ele>
        <time>2023-07-16T11:53:49.000Z</time>
      </trkpt>
      <trkpt lat="42.49707" lon="2.41026">
        <ele>1745.1999511719</ele>
        <time>2023-07-16T11:53:50.000Z</time>
      </trkpt>
      <trkpt lat="42.49699" lon="2.41029">
        <ele>1745.8000488281</ele>
        <time>2023-07-16T11:53:56.000Z</time>
      </trkpt>
      <trkpt lat="42.4969" lon="2.41029">
        <ele>1746</ele>
        <time>2023-07-16T11:54:03.000Z</time>
      </trkpt>
      <trkpt lat="42.49687" lon="2.41028">
        <ele>1746.4000244141</ele>
        <time>2023-07-16T11:54:05.000Z</time>
      </trkpt>
      <trkpt lat="42.49683" lon="2.41025">
        <ele>1746.8000488281</ele>
        <time>2023-07-16T11:54:11.000Z</time>
      </trkpt>
      <trkpt lat="42.49672" lon="2.41021">
        <ele>1747.1999511719</ele>
        <time>2023-07-16T11:54:21.000Z</time>
      </trkpt>
      <trkpt lat="42.49667" lon="2.41017">
        <ele>1747.4000244141</ele>
        <time>2023-07-16T11:54:25.000Z</time>
      </trkpt>
      <trkpt lat="42.49664" lon="2.41013">
        <ele>1747.4000244141</ele>
        <time>2023-07-16T11:54:27.000Z</time>
      </trkpt>
      <trkpt lat="42.49655" lon="2.41006">
        <ele>1748</ele>
        <time>2023-07-16T11:54:34.000Z</time>
      </trkpt>
      <trkpt lat="42.49649" lon="2.41004">
        <ele>1748.4000244141</ele>
        <time>2023-07-16T11:54:39.000Z</time>
      </trkpt>
      <trkpt lat="42.49646" lon="2.41002">
        <ele>1748.5999755859</ele>
        <time>2023-07-16T11:54:41.000Z</time>
      </trkpt>
      <trkpt lat="42.49639" lon="2.40999">
        <ele>1749.4000244141</ele>
        <time>2023-07-16T11:54:46.000Z</time>
      </trkpt>
      <trkpt lat="42.49636" lon="2.40998">
        <ele>1750.1999511719</ele>
        <time>2023-07-16T11:54:49.000Z</time>
      </trkpt>
      <trkpt lat="42.49634" lon="2.40997">
        <ele>1750.4000244141</ele>
        <time>2023-07-16T11:54:51.000Z</time>
      </trkpt>
      <trkpt lat="42.49629" lon="2.40995">
        <ele>1750.5999755859</ele>
        <time>2023-07-16T11:54:55.000Z</time>
      </trkpt>
      <trkpt lat="42.4962" lon="2.40992">
        <ele>1750.8000488281</ele>
        <time>2023-07-16T11:55:02.000Z</time>
      </trkpt>
      <trkpt lat="42.49613" lon="2.40989">
        <ele>1750.8000488281</ele>
        <time>2023-07-16T11:55:09.000Z</time>
      </trkpt>
      <trkpt lat="42.49602" lon="2.40987">
        <ele>1751.4000244141</ele>
        <time>2023-07-16T11:55:17.000Z</time>
      </trkpt>
      <trkpt lat="42.49592" lon="2.40984">
        <ele>1752</ele>
        <time>2023-07-16T11:55:24.000Z</time>
      </trkpt>
      <trkpt lat="42.49586" lon="2.4098">
        <ele>1752.5999755859</ele>
        <time>2023-07-16T11:55:31.000Z</time>
      </trkpt>
      <trkpt lat="42.49583" lon="2.4098">
        <ele>1752.8000488281</ele>
        <time>2023-07-16T11:55:33.000Z</time>
      </trkpt>
      <trkpt lat="42.4958" lon="2.40978">
        <ele>1753</ele>
        <time>2023-07-16T11:55:39.000Z</time>
      </trkpt>
      <trkpt lat="42.49573" lon="2.4098">
        <ele>1753.5999755859</ele>
        <time>2023-07-16T11:55:44.000Z</time>
      </trkpt>
      <trkpt lat="42.49569" lon="2.40983">
        <ele>1753.8000488281</ele>
        <time>2023-07-16T11:55:47.000Z</time>
      </trkpt>
      <trkpt lat="42.49563" lon="2.40985">
        <ele>1754.4000244141</ele>
        <time>2023-07-16T11:55:52.000Z</time>
      </trkpt>
      <trkpt lat="42.49559" lon="2.40987">
        <ele>1754.5999755859</ele>
        <time>2023-07-16T11:55:55.000Z</time>
      </trkpt>
      <trkpt lat="42.49553" lon="2.4099">
        <ele>1755.1999511719</ele>
        <time>2023-07-16T11:56:00.000Z</time>
      </trkpt>
      <trkpt lat="42.49545" lon="2.40992">
        <ele>1755.4000244141</ele>
        <time>2023-07-16T11:56:06.000Z</time>
      </trkpt>
      <trkpt lat="42.49543" lon="2.40994">
        <ele>1755.5999755859</ele>
        <time>2023-07-16T11:56:09.000Z</time>
      </trkpt>
      <trkpt lat="42.49537" lon="2.40995">
        <ele>1755.8000488281</ele>
        <time>2023-07-16T11:56:14.000Z</time>
      </trkpt>
      <trkpt lat="42.49527" lon="2.41">
        <ele>1756.4000244141</ele>
        <time>2023-07-16T11:56:22.000Z</time>
      </trkpt>
      <trkpt lat="42.49522" lon="2.41003">
        <ele>1756.5999755859</ele>
        <time>2023-07-16T11:56:29.000Z</time>
      </trkpt>
      <trkpt lat="42.49518" lon="2.41005">
        <ele>1756.5999755859</ele>
        <time>2023-07-16T11:56:32.000Z</time>
      </trkpt>
      <trkpt lat="42.49513" lon="2.41008">
        <ele>1756.8000488281</ele>
        <time>2023-07-16T11:56:35.000Z</time>
      </trkpt>
      <trkpt lat="42.49503" lon="2.41016">
        <ele>1757.1999511719</ele>
        <time>2023-07-16T11:56:43.000Z</time>
      </trkpt>
      <trkpt lat="42.49498" lon="2.41019">
        <ele>1757.8000488281</ele>
        <time>2023-07-16T11:56:49.000Z</time>
      </trkpt>
      <trkpt lat="42.49493" lon="2.41021">
        <ele>1758.1999511719</ele>
        <time>2023-07-16T11:56:54.000Z</time>
      </trkpt>
      <trkpt lat="42.49485" lon="2.41024">
        <ele>1758.8000488281</ele>
        <time>2023-07-16T11:57:00.000Z</time>
      </trkpt>
      <trkpt lat="42.49485" lon="2.41024">
        <ele>1758.8000488281</ele>
        <time>2023-07-16T11:57:01.000Z</time>
      </trkpt>
      <trkpt lat="42.49476" lon="2.41024">
        <ele>1759</ele>
        <time>2023-07-16T11:57:07.000Z</time>
      </trkpt>
      <trkpt lat="42.4947" lon="2.41026">
        <ele>1759.1999511719</ele>
        <time>2023-07-16T11:57:12.000Z</time>
      </trkpt>
      <trkpt lat="42.49461" lon="2.41026">
        <ele>1759.1999511719</ele>
        <time>2023-07-16T11:57:20.000Z</time>
      </trkpt>
      <trkpt lat="42.49455" lon="2.41025">
        <ele>1759.5999755859</ele>
        <time>2023-07-16T11:57:26.000Z</time>
      </trkpt>
      <trkpt lat="42.4945" lon="2.41028">
        <ele>1759.5999755859</ele>
        <time>2023-07-16T11:57:31.000Z</time>
      </trkpt>
      <trkpt lat="42.49443" lon="2.41031">
        <ele>1759.1999511719</ele>
        <time>2023-07-16T11:57:38.000Z</time>
      </trkpt>
      <trkpt lat="42.49438" lon="2.41033">
        <ele>1759.8000488281</ele>
        <time>2023-07-16T11:57:42.000Z</time>
      </trkpt>
      <trkpt lat="42.49435" lon="2.41034">
        <ele>1760.1999511719</ele>
        <time>2023-07-16T11:57:45.000Z</time>
      </trkpt>
      <trkpt lat="42.49433" lon="2.41035">
        <ele>1760.8000488281</ele>
        <time>2023-07-16T11:57:47.000Z</time>
      </trkpt>
      <trkpt lat="42.49428" lon="2.41037">
        <ele>1761.5999755859</ele>
        <time>2023-07-16T11:57:51.000Z</time>
      </trkpt>
      <trkpt lat="42.49426" lon="2.41038">
        <ele>1762</ele>
        <time>2023-07-16T11:57:53.000Z</time>
      </trkpt>
      <trkpt lat="42.49419" lon="2.41039">
        <ele>1762.5999755859</ele>
        <time>2023-07-16T11:57:58.000Z</time>
      </trkpt>
      <trkpt lat="42.49414" lon="2.4104">
        <ele>1762.8000488281</ele>
        <time>2023-07-16T11:58:03.000Z</time>
      </trkpt>
      <trkpt lat="42.49376" lon="2.41056">
        <ele>1767.4000244141</ele>
        <time>2023-07-16T11:58:42.000Z</time>
      </trkpt>
      <trkpt lat="42.49373" lon="2.41057">
        <ele>1767.8000488281</ele>
        <time>2023-07-16T11:58:45.000Z</time>
      </trkpt>
      <trkpt lat="42.49367" lon="2.41059">
        <ele>1768.8000488281</ele>
        <time>2023-07-16T11:58:50.000Z</time>
      </trkpt>
      <trkpt lat="42.49358" lon="2.41063">
        <ele>1769.5999755859</ele>
        <time>2023-07-16T11:58:57.000Z</time>
      </trkpt>
      <trkpt lat="42.49355" lon="2.41064">
        <ele>1770</ele>
        <time>2023-07-16T11:59:00.000Z</time>
      </trkpt>
      <trkpt lat="42.49352" lon="2.41065">
        <ele>1770.4000244141</ele>
        <time>2023-07-16T11:59:04.000Z</time>
      </trkpt>
      <trkpt lat="42.49345" lon="2.41067">
        <ele>1771</ele>
        <time>2023-07-16T11:59:10.000Z</time>
      </trkpt>
      <trkpt lat="42.49344" lon="2.41068">
        <ele>1771.1999511719</ele>
        <time>2023-07-16T11:59:11.000Z</time>
      </trkpt>
      <trkpt lat="42.49336" lon="2.4107">
        <ele>1772</ele>
        <time>2023-07-16T11:59:18.000Z</time>
      </trkpt>
      <trkpt lat="42.49335" lon="2.41071">
        <ele>1772.1999511719</ele>
        <time>2023-07-16T11:59:19.000Z</time>
      </trkpt>
      <trkpt lat="42.49327" lon="2.41073">
        <ele>1772.5999755859</ele>
        <time>2023-07-16T11:59:29.000Z</time>
      </trkpt>
      <trkpt lat="42.49325" lon="2.41073">
        <ele>1773.1999511719</ele>
        <time>2023-07-16T11:59:37.000Z</time>
      </trkpt>
      <trkpt lat="42.49324" lon="2.41072">
        <ele>1773.1999511719</ele>
        <time>2023-07-16T11:59:38.000Z</time>
      </trkpt>
      <trkpt lat="42.49316" lon="2.41072">
        <ele>1774.1999511719</ele>
        <time>2023-07-16T11:59:47.000Z</time>
      </trkpt>
      <trkpt lat="42.4931" lon="2.4107">
        <ele>1775.1999511719</ele>
        <time>2023-07-16T11:59:53.000Z</time>
      </trkpt>
      <trkpt lat="42.49309" lon="2.41069">
        <ele>1775.1999511719</ele>
        <time>2023-07-16T11:59:54.000Z</time>
      </trkpt>
      <trkpt lat="42.49302" lon="2.4106">
        <ele>1776.8000488281</ele>
        <time>2023-07-16T12:00:03.000Z</time>
      </trkpt>
      <trkpt lat="42.493" lon="2.41058">
        <ele>1777.1999511719</ele>
        <time>2023-07-16T12:00:05.000Z</time>
      </trkpt>
      <trkpt lat="42.49298" lon="2.41055">
        <ele>1777.5999755859</ele>
        <time>2023-07-16T12:00:08.000Z</time>
      </trkpt>
      <trkpt lat="42.49296" lon="2.41053">
        <ele>1778</ele>
        <time>2023-07-16T12:00:11.000Z</time>
      </trkpt>
      <trkpt lat="42.49295" lon="2.41054">
        <ele>1778.5999755859</ele>
        <time>2023-07-16T12:00:16.000Z</time>
      </trkpt>
      <trkpt lat="42.49294" lon="2.41054">
        <ele>1778.8000488281</ele>
        <time>2023-07-16T12:00:18.000Z</time>
      </trkpt>
      <trkpt lat="42.49135" lon="2.41163">
        <ele>1802.5999755859</ele>
        <time>2023-07-16T12:04:07.000Z</time>
      </trkpt>
      <trkpt lat="42.49131" lon="2.41163">
        <ele>1803.1999511719</ele>
        <time>2023-07-16T12:04:12.000Z</time>
      </trkpt>
      <trkpt lat="42.49125" lon="2.41165">
        <ele>1804.1999511719</ele>
        <time>2023-07-16T12:04:18.000Z</time>
      </trkpt>
      <trkpt lat="42.49123" lon="2.41165">
        <ele>1804.1999511719</ele>
        <time>2023-07-16T12:04:19.000Z</time>
      </trkpt>
      <trkpt lat="42.49115" lon="2.41168">
        <ele>1805.4000244141</ele>
        <time>2023-07-16T12:04:25.000Z</time>
      </trkpt>
      <trkpt lat="42.49108" lon="2.4117">
        <ele>1806.1999511719</ele>
        <time>2023-07-16T12:04:32.000Z</time>
      </trkpt>
      <trkpt lat="42.49107" lon="2.4117">
        <ele>1806.5999755859</ele>
        <time>2023-07-16T12:04:33.000Z</time>
      </trkpt>
      <trkpt lat="42.49103" lon="2.41171">
        <ele>1807.5999755859</ele>
        <time>2023-07-16T12:04:38.000Z</time>
      </trkpt>
      <trkpt lat="42.49098" lon="2.41173">
        <ele>1808.4000244141</ele>
        <time>2023-07-16T12:04:43.000Z</time>
      </trkpt>
      <trkpt lat="42.49092" lon="2.41179">
        <ele>1808.5999755859</ele>
        <time>2023-07-16T12:04:52.000Z</time>
      </trkpt>
      <trkpt lat="42.49087" lon="2.41185">
        <ele>1810</ele>
        <time>2023-07-16T12:05:01.000Z</time>
      </trkpt>
      <trkpt lat="42.49088" lon="2.41185">
        <ele>1811.1999511719</ele>
        <time>2023-07-16T12:05:06.000Z</time>
      </trkpt>
      <trkpt lat="42.49088" lon="2.41185">
        <ele>1811.1999511719</ele>
        <time>2023-07-16T12:05:07.000Z</time>
      </trkpt>
      <trkpt lat="42.49081" lon="2.41191">
        <ele>1811.8000488281</ele>
        <time>2023-07-16T12:05:14.000Z</time>
      </trkpt>
      <trkpt lat="42.49073" lon="2.41198">
        <ele>1812.1999511719</ele>
        <time>2023-07-16T12:05:22.000Z</time>
      </trkpt>
      <trkpt lat="42.49073" lon="2.41198">
        <ele>1812.4000244141</ele>
        <time>2023-07-16T12:05:23.000Z</time>
      </trkpt>
      <trkpt lat="42.4907" lon="2.41202">
        <ele>1813.1999511719</ele>
        <time>2023-07-16T12:05:29.000Z</time>
      </trkpt>
      <trkpt lat="42.49069" lon="2.41203">
        <ele>1813.5999755859</ele>
        <time>2023-07-16T12:05:31.000Z</time>
      </trkpt>
      <trkpt lat="42.49067" lon="2.4121">
        <ele>1814.4000244141</ele>
        <time>2023-07-16T12:05:38.000Z</time>
      </trkpt>
      <trkpt lat="42.49066" lon="2.41216">
        <ele>1814.5999755859</ele>
        <time>2023-07-16T12:05:44.000Z</time>
      </trkpt>
      <trkpt lat="42.49062" lon="2.41225">
        <ele>1815.4000244141</ele>
        <time>2023-07-16T12:05:48.000Z</time>
      </trkpt>
      <trkpt lat="42.49058" lon="2.41229">
        <ele>1815.8000488281</ele>
        <time>2023-07-16T12:05:51.000Z</time>
      </trkpt>
      <trkpt lat="42.49046" lon="2.41243">
        <ele>1816.1999511719</ele>
        <time>2023-07-16T12:06:01.000Z</time>
      </trkpt>
      <trkpt lat="42.49042" lon="2.41246">
        <ele>1816.4000244141</ele>
        <time>2023-07-16T12:06:04.000Z</time>
      </trkpt>
      <trkpt lat="42.4904" lon="2.41247">
        <ele>1816.8000488281</ele>
        <time>2023-07-16T12:06:06.000Z</time>
      </trkpt>
      <trkpt lat="42.49035" lon="2.41249">
        <ele>1817.5999755859</ele>
        <time>2023-07-16T12:06:10.000Z</time>
      </trkpt>
      <trkpt lat="42.49033" lon="2.41249">
        <ele>1818</ele>
        <time>2023-07-16T12:06:12.000Z</time>
      </trkpt>
      <trkpt lat="42.49031" lon="2.41249">
        <ele>1818.5999755859</ele>
        <time>2023-07-16T12:06:15.000Z</time>
      </trkpt>
      <trkpt lat="42.49027" lon="2.41249">
        <ele>1818.8000488281</ele>
        <time>2023-07-16T12:06:19.000Z</time>
      </trkpt>
      <trkpt lat="42.49021" lon="2.41252">
        <ele>1819.1999511719</ele>
        <time>2023-07-16T12:06:26.000Z</time>
      </trkpt>
      <trkpt lat="42.49016" lon="2.41254">
        <ele>1819</ele>
        <time>2023-07-16T12:06:33.000Z</time>
      </trkpt>
      <trkpt lat="42.49012" lon="2.41257">
        <ele>1819.8000488281</ele>
        <time>2023-07-16T12:06:37.000Z</time>
      </trkpt>
      <trkpt lat="42.49009" lon="2.41259">
        <ele>1820.5999755859</ele>
        <time>2023-07-16T12:06:40.000Z</time>
      </trkpt>
      <trkpt lat="42.49007" lon="2.41259">
        <ele>1820.8000488281</ele>
        <time>2023-07-16T12:06:42.000Z</time>
      </trkpt>
      <trkpt lat="42.49005" lon="2.41261">
        <ele>1821.4000244141</ele>
        <time>2023-07-16T12:06:46.000Z</time>
      </trkpt>
      <trkpt lat="42.49003" lon="2.41262">
        <ele>1821.8000488281</ele>
        <time>2023-07-16T12:06:49.000Z</time>
      </trkpt>
      <trkpt lat="42.48999" lon="2.41265">
        <ele>1822.4000244141</ele>
        <time>2023-07-16T12:06:53.000Z</time>
      </trkpt>
      <trkpt lat="42.48996" lon="2.41267">
        <ele>1823</ele>
        <time>2023-07-16T12:06:56.000Z</time>
      </trkpt>
      <trkpt lat="42.48992" lon="2.41269">
        <ele>1823.5999755859</ele>
        <time>2023-07-16T12:07:00.000Z</time>
      </trkpt>
      <trkpt lat="42.48989" lon="2.41271">
        <ele>1824.4000244141</ele>
        <time>2023-07-16T12:07:05.000Z</time>
      </trkpt>
      <trkpt lat="42.48985" lon="2.41274">
        <ele>1825</ele>
        <time>2023-07-16T12:07:09.000Z</time>
      </trkpt>
      <trkpt lat="42.48978" lon="2.4128">
        <ele>1825.1999511719</ele>
        <time>2023-07-16T12:07:16.000Z</time>
      </trkpt>
      <trkpt lat="42.48977" lon="2.41281">
        <ele>1825.4000244141</ele>
        <time>2023-07-16T12:07:17.000Z</time>
      </trkpt>
      <trkpt lat="42.48973" lon="2.41284">
        <ele>1826.5999755859</ele>
        <time>2023-07-16T12:07:20.000Z</time>
      </trkpt>
      <trkpt lat="42.4897" lon="2.41287">
        <ele>1826.5999755859</ele>
        <time>2023-07-16T12:07:24.000Z</time>
      </trkpt>
      <trkpt lat="42.48962" lon="2.41294">
        <ele>1827.1999511719</ele>
        <time>2023-07-16T12:07:32.000Z</time>
      </trkpt>
      <trkpt lat="42.48955" lon="2.41299">
        <ele>1827.5999755859</ele>
        <time>2023-07-16T12:07:39.000Z</time>
      </trkpt>
      <trkpt lat="42.48954" lon="2.413">
        <ele>1827.8000488281</ele>
        <time>2023-07-16T12:07:40.000Z</time>
      </trkpt>
      <trkpt lat="42.48951" lon="2.41302">
        <ele>1829</ele>
        <time>2023-07-16T12:07:44.000Z</time>
      </trkpt>
      <trkpt lat="42.4895" lon="2.41303">
        <ele>1829</ele>
        <time>2023-07-16T12:07:46.000Z</time>
      </trkpt>
      <trkpt lat="42.48944" lon="2.41308">
        <ele>1829.5999755859</ele>
        <time>2023-07-16T12:07:52.000Z</time>
      </trkpt>
      <trkpt lat="42.48938" lon="2.4131">
        <ele>1829.5999755859</ele>
        <time>2023-07-16T12:08:00.000Z</time>
      </trkpt>
      <trkpt lat="42.48935" lon="2.41311">
        <ele>1830</ele>
        <time>2023-07-16T12:08:03.000Z</time>
      </trkpt>
      <trkpt lat="42.48932" lon="2.41313">
        <ele>1830.8000488281</ele>
        <time>2023-07-16T12:08:07.000Z</time>
      </trkpt>
      <trkpt lat="42.48929" lon="2.41314">
        <ele>1831.1999511719</ele>
        <time>2023-07-16T12:08:11.000Z</time>
      </trkpt>
      <trkpt lat="42.48926" lon="2.41315">
        <ele>1831.4000244141</ele>
        <time>2023-07-16T12:08:13.000Z</time>
      </trkpt>
      <trkpt lat="42.48919" lon="2.41318">
        <ele>1832.1999511719</ele>
        <time>2023-07-16T12:08:19.000Z</time>
      </trkpt>
      <trkpt lat="42.48917" lon="2.41319">
        <ele>1832.8000488281</ele>
        <time>2023-07-16T12:08:21.000Z</time>
      </trkpt>
      <trkpt lat="42.48914" lon="2.41321">
        <ele>1833.1999511719</ele>
        <time>2023-07-16T12:08:25.000Z</time>
      </trkpt>
      <trkpt lat="42.48912" lon="2.41323">
        <ele>1833.4000244141</ele>
        <time>2023-07-16T12:08:27.000Z</time>
      </trkpt>
      <trkpt lat="42.48906" lon="2.41325">
        <ele>1834</ele>
        <time>2023-07-16T12:08:34.000Z</time>
      </trkpt>
      <trkpt lat="42.48904" lon="2.41326">
        <ele>1834.1999511719</ele>
        <time>2023-07-16T12:08:36.000Z</time>
      </trkpt>
      <trkpt lat="42.489" lon="2.41328">
        <ele>1834.4000244141</ele>
        <time>2023-07-16T12:08:42.000Z</time>
      </trkpt>
      <trkpt lat="42.48893" lon="2.41334">
        <ele>1835.1999511719</ele>
        <time>2023-07-16T12:08:49.000Z</time>
      </trkpt>
      <trkpt lat="42.48891" lon="2.41336">
        <ele>1835.4000244141</ele>
        <time>2023-07-16T12:08:51.000Z</time>
      </trkpt>
      <trkpt lat="42.48887" lon="2.4134">
        <ele>1836</ele>
        <time>2023-07-16T12:08:55.000Z</time>
      </trkpt>
      <trkpt lat="42.48883" lon="2.41343">
        <ele>1836.4000244141</ele>
        <time>2023-07-16T12:09:00.000Z</time>
      </trkpt>
      <trkpt lat="42.48881" lon="2.41344">
        <ele>1837.5999755859</ele>
        <time>2023-07-16T12:09:02.000Z</time>
      </trkpt>
      <trkpt lat="42.48871" lon="2.41348">
        <ele>1837.8000488281</ele>
        <time>2023-07-16T12:09:12.000Z</time>
      </trkpt>
      <trkpt lat="42.48865" lon="2.4135">
        <ele>1838.8000488281</ele>
        <time>2023-07-16T12:09:16.000Z</time>
      </trkpt>
      <trkpt lat="42.48863" lon="2.41351">
        <ele>1838.8000488281</ele>
        <time>2023-07-16T12:09:17.000Z</time>
      </trkpt>
      <trkpt lat="42.48857" lon="2.41354">
        <ele>1839.8000488281</ele>
        <time>2023-07-16T12:09:21.000Z</time>
      </trkpt>
      <trkpt lat="42.48856" lon="2.41355">
        <ele>1839.8000488281</ele>
        <time>2023-07-16T12:09:22.000Z</time>
      </trkpt>
      <trkpt lat="42.48849" lon="2.41358">
        <ele>1840.8000488281</ele>
        <time>2023-07-16T12:09:28.000Z</time>
      </trkpt>
      <trkpt lat="42.48846" lon="2.4136">
        <ele>1841</ele>
        <time>2023-07-16T12:09:30.000Z</time>
      </trkpt>
      <trkpt lat="42.48843" lon="2.41362">
        <ele>1841.8000488281</ele>
        <time>2023-07-16T12:09:36.000Z</time>
      </trkpt>
      <trkpt lat="42.48842" lon="2.41363">
        <ele>1842</ele>
        <time>2023-07-16T12:09:37.000Z</time>
      </trkpt>
      <trkpt lat="42.4884" lon="2.41365">
        <ele>1842.4000244141</ele>
        <time>2023-07-16T12:09:42.000Z</time>
      </trkpt>
      <trkpt lat="42.48845" lon="2.41356">
        <ele>1841.8000488281</ele>
        <time>2023-07-16T12:10:04.000Z</time>
      </trkpt>
      <trkpt lat="42.48839" lon="2.41356">
        <ele>1841.5999755859</ele>
        <time>2023-07-16T12:10:10.000Z</time>
      </trkpt>
      <trkpt lat="42.4883" lon="2.41353">
        <ele>1841.4000244141</ele>
        <time>2023-07-16T12:10:17.000Z</time>
      </trkpt>
      <trkpt lat="42.48827" lon="2.41352">
        <ele>1842.5999755859</ele>
        <time>2023-07-16T12:10:23.000Z</time>
      </trkpt>
      <trkpt lat="42.48824" lon="2.41352">
        <ele>1843.1999511719</ele>
        <time>2023-07-16T12:10:25.000Z</time>
      </trkpt>
      <trkpt lat="42.48819" lon="2.41352">
        <ele>1843.8000488281</ele>
        <time>2023-07-16T12:10:29.000Z</time>
      </trkpt>
      <trkpt lat="42.48813" lon="2.41351">
        <ele>1843.8000488281</ele>
        <time>2023-07-16T12:10:34.000Z</time>
      </trkpt>
      <trkpt lat="42.4881" lon="2.41351">
        <ele>1844.4000244141</ele>
        <time>2023-07-16T12:10:37.000Z</time>
      </trkpt>
      <trkpt lat="42.48807" lon="2.4135">
        <ele>1844.8000488281</ele>
        <time>2023-07-16T12:10:40.000Z</time>
      </trkpt>
      <trkpt lat="42.488" lon="2.4135">
        <ele>1845.4000244141</ele>
        <time>2023-07-16T12:10:46.000Z</time>
      </trkpt>
      <trkpt lat="42.48798" lon="2.4135">
        <ele>1846</ele>
        <time>2023-07-16T12:10:48.000Z</time>
      </trkpt>
      <trkpt lat="42.48794" lon="2.41349">
        <ele>1846.5999755859</ele>
        <time>2023-07-16T12:10:54.000Z</time>
      </trkpt>
      <trkpt lat="42.4879" lon="2.41349">
        <ele>1847.4000244141</ele>
        <time>2023-07-16T12:10:58.000Z</time>
      </trkpt>
      <trkpt lat="42.48785" lon="2.4135">
        <ele>1848</ele>
        <time>2023-07-16T12:11:02.000Z</time>
      </trkpt>
      <trkpt lat="42.48778" lon="2.4135">
        <ele>1848.4000244141</ele>
        <time>2023-07-16T12:11:08.000Z</time>
      </trkpt>
      <trkpt lat="42.48777" lon="2.4135">
        <ele>1849</ele>
        <time>2023-07-16T12:11:09.000Z</time>
      </trkpt>
      <trkpt lat="42.48773" lon="2.41349">
        <ele>1849.5999755859</ele>
        <time>2023-07-16T12:11:15.000Z</time>
      </trkpt>
      <trkpt lat="42.48769" lon="2.41348">
        <ele>1850</ele>
        <time>2023-07-16T12:11:18.000Z</time>
      </trkpt>
      <trkpt lat="42.48767" lon="2.41347">
        <ele>1850.1999511719</ele>
        <time>2023-07-16T12:11:20.000Z</time>
      </trkpt>
      <trkpt lat="42.48763" lon="2.41342">
        <ele>1851</ele>
        <time>2023-07-16T12:11:25.000Z</time>
      </trkpt>
      <trkpt lat="42.48762" lon="2.41341">
        <ele>1851.1999511719</ele>
        <time>2023-07-16T12:11:26.000Z</time>
      </trkpt>
      <trkpt lat="42.48758" lon="2.41339">
        <ele>1852.1999511719</ele>
        <time>2023-07-16T12:11:30.000Z</time>
      </trkpt>
      <trkpt lat="42.48754" lon="2.41337">
        <ele>1852.4000244141</ele>
        <time>2023-07-16T12:11:33.000Z</time>
      </trkpt>
      <trkpt lat="42.48749" lon="2.41332">
        <ele>1853.1999511719</ele>
        <time>2023-07-16T12:11:38.000Z</time>
      </trkpt>
      <trkpt lat="42.48748" lon="2.4133">
        <ele>1853.5999755859</ele>
        <time>2023-07-16T12:11:40.000Z</time>
      </trkpt>
      <trkpt lat="42.48744" lon="2.41324">
        <ele>1854</ele>
        <time>2023-07-16T12:11:46.000Z</time>
      </trkpt>
      <trkpt lat="42.48739" lon="2.41319">
        <ele>1854</ele>
        <time>2023-07-16T12:11:52.000Z</time>
      </trkpt>
      <trkpt lat="42.48735" lon="2.41317">
        <ele>1854.1999511719</ele>
        <time>2023-07-16T12:11:56.000Z</time>
      </trkpt>
      <trkpt lat="42.48734" lon="2.41317">
        <ele>1854.4000244141</ele>
        <time>2023-07-16T12:11:59.000Z</time>
      </trkpt>
      <trkpt lat="42.4873" lon="2.41312">
        <ele>1855.4000244141</ele>
        <time>2023-07-16T12:12:04.000Z</time>
      </trkpt>
      <trkpt lat="42.48728" lon="2.41311">
        <ele>1855.5999755859</ele>
        <time>2023-07-16T12:12:06.000Z</time>
      </trkpt>
      <trkpt lat="42.48723" lon="2.41307">
        <ele>1856.4000244141</ele>
        <time>2023-07-16T12:12:12.000Z</time>
      </trkpt>
      <trkpt lat="42.48715" lon="2.41303">
        <ele>1856.5999755859</ele>
        <time>2023-07-16T12:12:19.000Z</time>
      </trkpt>
      <trkpt lat="42.4871" lon="2.41301">
        <ele>1857.4000244141</ele>
        <time>2023-07-16T12:12:24.000Z</time>
      </trkpt>
      <trkpt lat="42.48709" lon="2.413">
        <ele>1857.8000488281</ele>
        <time>2023-07-16T12:12:26.000Z</time>
      </trkpt>
      <trkpt lat="42.48705" lon="2.413">
        <ele>1858.5999755859</ele>
        <time>2023-07-16T12:12:31.000Z</time>
      </trkpt>
      <trkpt lat="42.48703" lon="2.41299">
        <ele>1859</ele>
        <time>2023-07-16T12:12:33.000Z</time>
      </trkpt>
      <trkpt lat="42.48696" lon="2.41298">
        <ele>1859.8000488281</ele>
        <time>2023-07-16T12:12:40.000Z</time>
      </trkpt>
      <trkpt lat="42.48688" lon="2.41295">
        <ele>1860.5999755859</ele>
        <time>2023-07-16T12:12:47.000Z</time>
      </trkpt>
      <trkpt lat="42.48686" lon="2.41294">
        <ele>1860.8000488281</ele>
        <time>2023-07-16T12:12:49.000Z</time>
      </trkpt>
      <trkpt lat="42.48681" lon="2.41291">
        <ele>1861.8000488281</ele>
        <time>2023-07-16T12:12:55.000Z</time>
      </trkpt>
      <trkpt lat="42.4868" lon="2.4129">
        <ele>1861.8000488281</ele>
        <time>2023-07-16T12:12:57.000Z</time>
      </trkpt>
      <trkpt lat="42.48672" lon="2.41284">
        <ele>1862</ele>
        <time>2023-07-16T12:13:05.000Z</time>
      </trkpt>
      <trkpt lat="42.48665" lon="2.41281">
        <ele>1863</ele>
        <time>2023-07-16T12:13:10.000Z</time>
      </trkpt>
      <trkpt lat="42.48663" lon="2.4128">
        <ele>1863.4000244141</ele>
        <time>2023-07-16T12:13:12.000Z</time>
      </trkpt>
      <trkpt lat="42.48659" lon="2.4128">
        <ele>1864</ele>
        <time>2023-07-16T12:13:16.000Z</time>
      </trkpt>
      <trkpt lat="42.48653" lon="2.41278">
        <ele>1864.8000488281</ele>
        <time>2023-07-16T12:13:22.000Z</time>
      </trkpt>
      <trkpt lat="42.48651" lon="2.41277">
        <ele>1865</ele>
        <time>2023-07-16T12:13:24.000Z</time>
      </trkpt>
      <trkpt lat="42.48647" lon="2.41276">
        <ele>1865.4000244141</ele>
        <time>2023-07-16T12:13:29.000Z</time>
      </trkpt>
      <trkpt lat="42.48646" lon="2.41274">
        <ele>1866</ele>
        <time>2023-07-16T12:13:34.000Z</time>
      </trkpt>
      <trkpt lat="42.48645" lon="2.41273">
        <ele>1866.1999511719</ele>
        <time>2023-07-16T12:13:35.000Z</time>
      </trkpt>
      <trkpt lat="42.48643" lon="2.41268">
        <ele>1867.1999511719</ele>
        <time>2023-07-16T12:13:39.000Z</time>
      </trkpt>
      <trkpt lat="42.48642" lon="2.41265">
        <ele>1867.1999511719</ele>
        <time>2023-07-16T12:13:41.000Z</time>
      </trkpt>
      <trkpt lat="42.48641" lon="2.41258">
        <ele>1867.5999755859</ele>
        <time>2023-07-16T12:13:48.000Z</time>
      </trkpt>
      <trkpt lat="42.48636" lon="2.41251">
        <ele>1868.1999511719</ele>
        <time>2023-07-16T12:13:55.000Z</time>
      </trkpt>
      <trkpt lat="42.48635" lon="2.4125">
        <ele>1868.4000244141</ele>
        <time>2023-07-16T12:13:56.000Z</time>
      </trkpt>
      <trkpt lat="42.4863" lon="2.4125">
        <ele>1868.5999755859</ele>
        <time>2023-07-16T12:14:03.000Z</time>
      </trkpt>
      <trkpt lat="42.48625" lon="2.4125">
        <ele>1869.4000244141</ele>
        <time>2023-07-16T12:14:09.000Z</time>
      </trkpt>
      <trkpt lat="42.48624" lon="2.4125">
        <ele>1869.5999755859</ele>
        <time>2023-07-16T12:14:10.000Z</time>
      </trkpt>
      <trkpt lat="42.4862" lon="2.41251">
        <ele>1870.5999755859</ele>
        <time>2023-07-16T12:14:14.000Z</time>
      </trkpt>
      <trkpt lat="42.48615" lon="2.4125">
        <ele>1871.4000244141</ele>
        <time>2023-07-16T12:14:18.000Z</time>
      </trkpt>
      <trkpt lat="42.48611" lon="2.41249">
        <ele>1871.5999755859</ele>
        <time>2023-07-16T12:14:21.000Z</time>
      </trkpt>
      <trkpt lat="42.48609" lon="2.41247">
        <ele>1872</ele>
        <time>2023-07-16T12:14:24.000Z</time>
      </trkpt>
      <trkpt lat="42.48605" lon="2.41245">
        <ele>1872.5999755859</ele>
        <time>2023-07-16T12:14:28.000Z</time>
      </trkpt>
      <trkpt lat="42.48605" lon="2.41245">
        <ele>1872.8000488281</ele>
        <time>2023-07-16T12:14:29.000Z</time>
      </trkpt>
      <trkpt lat="42.48601" lon="2.41243">
        <ele>1873.4000244141</ele>
        <time>2023-07-16T12:14:35.000Z</time>
      </trkpt>
      <trkpt lat="42.48599" lon="2.41242">
        <ele>1873.8000488281</ele>
        <time>2023-07-16T12:14:37.000Z</time>
      </trkpt>
      <trkpt lat="42.48596" lon="2.41241">
        <ele>1874.8000488281</ele>
        <time>2023-07-16T12:14:41.000Z</time>
      </trkpt>
      <trkpt lat="42.48595" lon="2.41241">
        <ele>1875</ele>
        <time>2023-07-16T12:14:42.000Z</time>
      </trkpt>
      <trkpt lat="42.48591" lon="2.41239">
        <ele>1876</ele>
        <time>2023-07-16T12:14:47.000Z</time>
      </trkpt>
      <trkpt lat="42.4859" lon="2.41238">
        <ele>1876.4000244141</ele>
        <time>2023-07-16T12:14:48.000Z</time>
      </trkpt>
      <trkpt lat="42.48587" lon="2.41234">
        <ele>1877</ele>
        <time>2023-07-16T12:14:52.000Z</time>
      </trkpt>
      <trkpt lat="42.48585" lon="2.41231">
        <ele>1877.4000244141</ele>
        <time>2023-07-16T12:14:55.000Z</time>
      </trkpt>
      <trkpt lat="42.48585" lon="2.41226">
        <ele>1878.1999511719</ele>
        <time>2023-07-16T12:15:00.000Z</time>
      </trkpt>
      <trkpt lat="42.48584" lon="2.4122">
        <ele>1878.5999755859</ele>
        <time>2023-07-16T12:15:05.000Z</time>
      </trkpt>
      <trkpt lat="42.48582" lon="2.41217">
        <ele>1878.8000488281</ele>
        <time>2023-07-16T12:15:12.000Z</time>
      </trkpt>
      <trkpt lat="42.48582" lon="2.4122">
        <ele>1878.4000244141</ele>
        <time>2023-07-16T12:15:23.000Z</time>
      </trkpt>
      <trkpt lat="42.48585" lon="2.4121">
        <ele>1878.8000488281</ele>
        <time>2023-07-16T12:15:44.000Z</time>
      </trkpt>
      <trkpt lat="42.48592" lon="2.41206">
        <ele>1878.8000488281</ele>
        <time>2023-07-16T12:16:33.000Z</time>
      </trkpt>
      <trkpt lat="42.48588" lon="2.41203">
        <ele>1879</ele>
        <time>2023-07-16T12:16:40.000Z</time>
      </trkpt>
      <trkpt lat="42.48585" lon="2.41211">
        <ele>1878.8000488281</ele>
        <time>2023-07-16T12:16:48.000Z</time>
      </trkpt>
      <trkpt lat="42.48584" lon="2.41231">
        <ele>1880.1999511719</ele>
        <time>2023-07-16T12:17:53.000Z</time>
      </trkpt>
      <trkpt lat="42.48583" lon="2.41233">
        <ele>1880.4000244141</ele>
        <time>2023-07-16T12:17:55.000Z</time>
      </trkpt>
      <trkpt lat="42.48582" lon="2.41234">
        <ele>1880.4000244141</ele>
        <time>2023-07-16T12:17:56.000Z</time>
      </trkpt>
      <trkpt lat="42.48576" lon="2.41243">
        <ele>1881.1999511719</ele>
        <time>2023-07-16T12:18:04.000Z</time>
      </trkpt>
      <trkpt lat="42.48575" lon="2.41245">
        <ele>1881.4000244141</ele>
        <time>2023-07-16T12:18:05.000Z</time>
      </trkpt>
      <trkpt lat="42.48569" lon="2.41252">
        <ele>1882.4000244141</ele>
        <time>2023-07-16T12:18:11.000Z</time>
      </trkpt>
      <trkpt lat="42.48568" lon="2.41253">
        <ele>1882.8000488281</ele>
        <time>2023-07-16T12:18:12.000Z</time>
      </trkpt>
      <trkpt lat="42.48565" lon="2.41256">
        <ele>1883.4000244141</ele>
        <time>2023-07-16T12:18:17.000Z</time>
      </trkpt>
      <trkpt lat="42.48558" lon="2.41258">
        <ele>1883.8000488281</ele>
        <time>2023-07-16T12:18:25.000Z</time>
      </trkpt>
      <trkpt lat="42.48556" lon="2.41258">
        <ele>1884.5999755859</ele>
        <time>2023-07-16T12:18:26.000Z</time>
      </trkpt>
      <trkpt lat="42.48552" lon="2.41261">
        <ele>1885.5999755859</ele>
        <time>2023-07-16T12:18:29.000Z</time>
      </trkpt>
      <trkpt lat="42.48551" lon="2.41262">
        <ele>1885.8000488281</ele>
        <time>2023-07-16T12:18:31.000Z</time>
      </trkpt>
      <trkpt lat="42.48546" lon="2.41264">
        <ele>1886.1999511719</ele>
        <time>2023-07-16T12:18:36.000Z</time>
      </trkpt>
      <trkpt lat="42.48541" lon="2.41266">
        <ele>1886.1999511719</ele>
        <time>2023-07-16T12:18:41.000Z</time>
      </trkpt>
      <trkpt lat="42.48533" lon="2.41269">
        <ele>1886.4000244141</ele>
        <time>2023-07-16T12:18:50.000Z</time>
      </trkpt>
      <trkpt lat="42.48531" lon="2.41269">
        <ele>1886.5999755859</ele>
        <time>2023-07-16T12:18:52.000Z</time>
      </trkpt>
      <trkpt lat="42.48528" lon="2.4127">
        <ele>1887</ele>
        <time>2023-07-16T12:18:57.000Z</time>
      </trkpt>
      <trkpt lat="42.48523" lon="2.41274">
        <ele>1887.4000244141</ele>
        <time>2023-07-16T12:19:03.000Z</time>
      </trkpt>
      <trkpt lat="42.4852" lon="2.41275">
        <ele>1887.8000488281</ele>
        <time>2023-07-16T12:19:06.000Z</time>
      </trkpt>
      <trkpt lat="42.48519" lon="2.41276">
        <ele>1888</ele>
        <time>2023-07-16T12:19:08.000Z</time>
      </trkpt>
      <trkpt lat="42.48512" lon="2.41281">
        <ele>1888.4000244141</ele>
        <time>2023-07-16T12:19:14.000Z</time>
      </trkpt>
      <trkpt lat="42.48506" lon="2.41287">
        <ele>1888.8000488281</ele>
        <time>2023-07-16T12:19:21.000Z</time>
      </trkpt>
      <trkpt lat="42.48505" lon="2.41288">
        <ele>1889</ele>
        <time>2023-07-16T12:19:23.000Z</time>
      </trkpt>
      <trkpt lat="42.48501" lon="2.4129">
        <ele>1889.8000488281</ele>
        <time>2023-07-16T12:19:27.000Z</time>
      </trkpt>
      <trkpt lat="42.48497" lon="2.41293">
        <ele>1890.4000244141</ele>
        <time>2023-07-16T12:19:31.000Z</time>
      </trkpt>
      <trkpt lat="42.48495" lon="2.41294">
        <ele>1890.8000488281</ele>
        <time>2023-07-16T12:19:34.000Z</time>
      </trkpt>
      <trkpt lat="42.48493" lon="2.41296">
        <ele>1891.1999511719</ele>
        <time>2023-07-16T12:19:36.000Z</time>
      </trkpt>
      <trkpt lat="42.48487" lon="2.413">
        <ele>1891.4000244141</ele>
        <time>2023-07-16T12:19:44.000Z</time>
      </trkpt>
      <trkpt lat="42.48485" lon="2.41301">
        <ele>1892.1999511719</ele>
        <time>2023-07-16T12:19:46.000Z</time>
      </trkpt>
      <trkpt lat="42.48482" lon="2.41302">
        <ele>1893</ele>
        <time>2023-07-16T12:19:51.000Z</time>
      </trkpt>
      <trkpt lat="42.4848" lon="2.41302">
        <ele>1893.1999511719</ele>
        <time>2023-07-16T12:19:54.000Z</time>
      </trkpt>
      <trkpt lat="42.48476" lon="2.41302">
        <ele>1893.5999755859</ele>
        <time>2023-07-16T12:19:59.000Z</time>
      </trkpt>
      <trkpt lat="42.48471" lon="2.41303">
        <ele>1894.1999511719</ele>
        <time>2023-07-16T12:20:06.000Z</time>
      </trkpt>
      <trkpt lat="42.4847" lon="2.41303">
        <ele>1894.4000244141</ele>
        <time>2023-07-16T12:20:07.000Z</time>
      </trkpt>
      <trkpt lat="42.48468" lon="2.41305">
        <ele>1894.5999755859</ele>
        <time>2023-07-16T12:20:12.000Z</time>
      </trkpt>
      <trkpt lat="42.48465" lon="2.4131">
        <ele>1895.4000244141</ele>
        <time>2023-07-16T12:20:19.000Z</time>
      </trkpt>
      <trkpt lat="42.4846" lon="2.41316">
        <ele>1896.1999511719</ele>
        <time>2023-07-16T12:20:28.000Z</time>
      </trkpt>
      <trkpt lat="42.48459" lon="2.41318">
        <ele>1896.4000244141</ele>
        <time>2023-07-16T12:20:30.000Z</time>
      </trkpt>
      <trkpt lat="42.48458" lon="2.41322">
        <ele>1897</ele>
        <time>2023-07-16T12:20:34.000Z</time>
      </trkpt>
      <trkpt lat="42.48458" lon="2.41327">
        <ele>1897.5999755859</ele>
        <time>2023-07-16T12:20:39.000Z</time>
      </trkpt>
      <trkpt lat="42.48457" lon="2.41327">
        <ele>1897.5999755859</ele>
        <time>2023-07-16T12:20:40.000Z</time>
      </trkpt>
      <trkpt lat="42.48454" lon="2.41335">
        <ele>1898.1999511719</ele>
        <time>2023-07-16T12:20:45.000Z</time>
      </trkpt>
      <trkpt lat="42.48453" lon="2.41337">
        <ele>1898.5999755859</ele>
        <time>2023-07-16T12:20:47.000Z</time>
      </trkpt>
      <trkpt lat="42.48448" lon="2.41344">
        <ele>1899.4000244141</ele>
        <time>2023-07-16T12:20:52.000Z</time>
      </trkpt>
      <trkpt lat="42.48446" lon="2.41347">
        <ele>1899.8000488281</ele>
        <time>2023-07-16T12:20:54.000Z</time>
      </trkpt>
      <trkpt lat="42.48444" lon="2.41351">
        <ele>1900.1999511719</ele>
        <time>2023-07-16T12:20:58.000Z</time>
      </trkpt>
      <trkpt lat="42.48441" lon="2.41358">
        <ele>1900.8000488281</ele>
        <time>2023-07-16T12:21:05.000Z</time>
      </trkpt>
      <trkpt lat="42.48433" lon="2.41367">
        <ele>1902</ele>
        <time>2023-07-16T12:21:15.000Z</time>
      </trkpt>
      <trkpt lat="42.48432" lon="2.41368">
        <ele>1903.1999511719</ele>
        <time>2023-07-16T12:21:21.000Z</time>
      </trkpt>
      <trkpt lat="42.48431" lon="2.41368">
        <ele>1903.5999755859</ele>
        <time>2023-07-16T12:21:23.000Z</time>
      </trkpt>
      <trkpt lat="42.48427" lon="2.41373">
        <ele>1904.4000244141</ele>
        <time>2023-07-16T12:21:29.000Z</time>
      </trkpt>
      <trkpt lat="42.48423" lon="2.41377">
        <ele>1905.5999755859</ele>
        <time>2023-07-16T12:21:34.000Z</time>
      </trkpt>
      <trkpt lat="42.48422" lon="2.41378">
        <ele>1906.4000244141</ele>
        <time>2023-07-16T12:21:36.000Z</time>
      </trkpt>
      <trkpt lat="42.48421" lon="2.41379">
        <ele>1907</ele>
        <time>2023-07-16T12:21:37.000Z</time>
      </trkpt>
      <trkpt lat="42.48417" lon="2.41387">
        <ele>1907.4000244141</ele>
        <time>2023-07-16T12:21:44.000Z</time>
      </trkpt>
      <trkpt lat="42.4841" lon="2.41396">
        <ele>1907.4000244141</ele>
        <time>2023-07-16T12:21:52.000Z</time>
      </trkpt>
      <trkpt lat="42.48404" lon="2.41403">
        <ele>1907.8000488281</ele>
        <time>2023-07-16T12:22:00.000Z</time>
      </trkpt>
      <trkpt lat="42.48401" lon="2.41405">
        <ele>1908</ele>
        <time>2023-07-16T12:22:05.000Z</time>
      </trkpt>
      <trkpt lat="42.48399" lon="2.41406">
        <ele>1908.8000488281</ele>
        <time>2023-07-16T12:22:08.000Z</time>
      </trkpt>
      <trkpt lat="42.48397" lon="2.41408">
        <ele>1909.1999511719</ele>
        <time>2023-07-16T12:22:12.000Z</time>
      </trkpt>
      <trkpt lat="42.48395" lon="2.4141">
        <ele>1910.4000244141</ele>
        <time>2023-07-16T12:22:15.000Z</time>
      </trkpt>
      <trkpt lat="42.48387" lon="2.41422">
        <ele>1910.8000488281</ele>
        <time>2023-07-16T12:22:23.000Z</time>
      </trkpt>
      <trkpt lat="42.48382" lon="2.41429">
        <ele>1911.4000244141</ele>
        <time>2023-07-16T12:22:31.000Z</time>
      </trkpt>
      <trkpt lat="42.48378" lon="2.41433">
        <ele>1912.5999755859</ele>
        <time>2023-07-16T12:22:35.000Z</time>
      </trkpt>
      <trkpt lat="42.48375" lon="2.41436">
        <ele>1913.5999755859</ele>
        <time>2023-07-16T12:22:38.000Z</time>
      </trkpt>
      <trkpt lat="42.48372" lon="2.41439">
        <ele>1913.8000488281</ele>
        <time>2023-07-16T12:22:40.000Z</time>
      </trkpt>
      <trkpt lat="42.48366" lon="2.41445">
        <ele>1914.8000488281</ele>
        <time>2023-07-16T12:22:44.000Z</time>
      </trkpt>
      <trkpt lat="42.48361" lon="2.41454">
        <ele>1915.5999755859</ele>
        <time>2023-07-16T12:22:51.000Z</time>
      </trkpt>
      <trkpt lat="42.48357" lon="2.41461">
        <ele>1915.4000244141</ele>
        <time>2023-07-16T12:22:56.000Z</time>
      </trkpt>
      <trkpt lat="42.48354" lon="2.41469">
        <ele>1915.5999755859</ele>
        <time>2023-07-16T12:23:02.000Z</time>
      </trkpt>
      <trkpt lat="42.48352" lon="2.41473">
        <ele>1916</ele>
        <time>2023-07-16T12:23:06.000Z</time>
      </trkpt>
      <trkpt lat="42.48351" lon="2.41474">
        <ele>1916.1999511719</ele>
        <time>2023-07-16T12:23:07.000Z</time>
      </trkpt>
      <trkpt lat="42.48347" lon="2.41483">
        <ele>1917</ele>
        <time>2023-07-16T12:23:13.000Z</time>
      </trkpt>
      <trkpt lat="42.48347" lon="2.41484">
        <ele>1917.1999511719</ele>
        <time>2023-07-16T12:23:14.000Z</time>
      </trkpt>
      <trkpt lat="42.48345" lon="2.4149">
        <ele>1918</ele>
        <time>2023-07-16T12:23:18.000Z</time>
      </trkpt>
      <trkpt lat="42.48342" lon="2.41499">
        <ele>1918.1999511719</ele>
        <time>2023-07-16T12:23:24.000Z</time>
      </trkpt>
      <trkpt lat="42.48339" lon="2.41509">
        <ele>1919</ele>
        <time>2023-07-16T12:23:32.000Z</time>
      </trkpt>
      <trkpt lat="42.48338" lon="2.4151">
        <ele>1919.1999511719</ele>
        <time>2023-07-16T12:23:33.000Z</time>
      </trkpt>
      <trkpt lat="42.48332" lon="2.4152">
        <ele>1919.8000488281</ele>
        <time>2023-07-16T12:23:40.000Z</time>
      </trkpt>
      <trkpt lat="42.48329" lon="2.41523">
        <ele>1920.1999511719</ele>
        <time>2023-07-16T12:23:44.000Z</time>
      </trkpt>
      <trkpt lat="42.48325" lon="2.41529">
        <ele>1920.4000244141</ele>
        <time>2023-07-16T12:23:48.000Z</time>
      </trkpt>
      <trkpt lat="42.48322" lon="2.41532">
        <ele>1921</ele>
        <time>2023-07-16T12:23:54.000Z</time>
      </trkpt>
      <trkpt lat="42.48322" lon="2.41533">
        <ele>1921.1999511719</ele>
        <time>2023-07-16T12:23:58.000Z</time>
      </trkpt>
      <trkpt lat="42.48322" lon="2.41533">
        <ele>1921.1999511719</ele>
        <time>2023-07-16T12:24:00.000Z</time>
      </trkpt>
      <trkpt lat="42.48324" lon="2.41533">
        <ele>1921.4000244141</ele>
        <time>2023-07-16T12:24:04.000Z</time>
      </trkpt>
      <trkpt lat="42.48327" lon="2.41532">
        <ele>1921.5999755859</ele>
        <time>2023-07-16T12:24:12.000Z</time>
      </trkpt>
      <trkpt lat="42.48326" lon="2.41533">
        <ele>1921.5999755859</ele>
        <time>2023-07-16T12:24:20.000Z</time>
      </trkpt>
      <trkpt lat="42.48326" lon="2.4153">
        <ele>1920.8000488281</ele>
        <time>2023-07-16T12:24:28.000Z</time>
      </trkpt>
      <trkpt lat="42.48329" lon="2.41522">
        <ele>1920.4000244141</ele>
        <time>2023-07-16T12:24:34.000Z</time>
      </trkpt>
      <trkpt lat="42.4833" lon="2.41521">
        <ele>1920.1999511719</ele>
        <time>2023-07-16T12:24:35.000Z</time>
      </trkpt>
      <trkpt lat="42.48332" lon="2.41513">
        <ele>1919.1999511719</ele>
        <time>2023-07-16T12:24:41.000Z</time>
      </trkpt>
      <trkpt lat="42.48335" lon="2.41505">
        <ele>1918.5999755859</ele>
        <time>2023-07-16T12:24:48.000Z</time>
      </trkpt>
      <trkpt lat="42.48338" lon="2.41504">
        <ele>1918.4000244141</ele>
        <time>2023-07-16T12:24:55.000Z</time>
      </trkpt>
      <trkpt lat="42.48339" lon="2.41503">
        <ele>1918.1999511719</ele>
        <time>2023-07-16T12:24:59.000Z</time>
      </trkpt>
      <trkpt lat="42.48337" lon="2.41505">
        <ele>1918</ele>
        <time>2023-07-16T12:25:03.000Z</time>
      </trkpt>
      <trkpt lat="42.48337" lon="2.41501">
        <ele>1918</ele>
        <time>2023-07-16T12:25:10.000Z</time>
      </trkpt>
      <trkpt lat="42.48341" lon="2.41494">
        <ele>1918.1999511719</ele>
        <time>2023-07-16T12:25:16.000Z</time>
      </trkpt>
      <trkpt lat="42.48344" lon="2.41483">
        <ele>1918</ele>
        <time>2023-07-16T12:25:25.000Z</time>
      </trkpt>
      <trkpt lat="42.48348" lon="2.41472">
        <ele>1917.1999511719</ele>
        <time>2023-07-16T12:25:32.000Z</time>
      </trkpt>
      <trkpt lat="42.48353" lon="2.4146">
        <ele>1917.1999511719</ele>
        <time>2023-07-16T12:25:41.000Z</time>
      </trkpt>
      <trkpt lat="42.48357" lon="2.41454">
        <ele>1915.8000488281</ele>
        <time>2023-07-16T12:25:47.000Z</time>
      </trkpt>
      <trkpt lat="42.48359" lon="2.41452">
        <ele>1915.5999755859</ele>
        <time>2023-07-16T12:25:49.000Z</time>
      </trkpt>
      <trkpt lat="42.48364" lon="2.41445">
        <ele>1914.8000488281</ele>
        <time>2023-07-16T12:25:55.000Z</time>
      </trkpt>
      <trkpt lat="42.48366" lon="2.41443">
        <ele>1914.5999755859</ele>
        <time>2023-07-16T12:25:57.000Z</time>
      </trkpt>
      <trkpt lat="42.48371" lon="2.41439">
        <ele>1913.8000488281</ele>
        <time>2023-07-16T12:26:04.000Z</time>
      </trkpt>
      <trkpt lat="42.48373" lon="2.41437">
        <ele>1913.5999755859</ele>
        <time>2023-07-16T12:26:06.000Z</time>
      </trkpt>
      <trkpt lat="42.4838" lon="2.41426">
        <ele>1912.8000488281</ele>
        <time>2023-07-16T12:26:14.000Z</time>
      </trkpt>
      <trkpt lat="42.48381" lon="2.41425">
        <ele>1912.5999755859</ele>
        <time>2023-07-16T12:26:15.000Z</time>
      </trkpt>
      <trkpt lat="42.48388" lon="2.41421">
        <ele>1911.5999755859</ele>
        <time>2023-07-16T12:26:20.000Z</time>
      </trkpt>
      <trkpt lat="42.48392" lon="2.41417">
        <ele>1911</ele>
        <time>2023-07-16T12:26:25.000Z</time>
      </trkpt>
      <trkpt lat="42.48398" lon="2.41413">
        <ele>1910.5999755859</ele>
        <time>2023-07-16T12:26:31.000Z</time>
      </trkpt>
      <trkpt lat="42.484" lon="2.41411">
        <ele>1910.1999511719</ele>
        <time>2023-07-16T12:26:34.000Z</time>
      </trkpt>
      <trkpt lat="42.48406" lon="2.41405">
        <ele>1909.4000244141</ele>
        <time>2023-07-16T12:26:40.000Z</time>
      </trkpt>
      <trkpt lat="42.48408" lon="2.41404">
        <ele>1909.1999511719</ele>
        <time>2023-07-16T12:26:43.000Z</time>
      </trkpt>
      <trkpt lat="42.48413" lon="2.41396">
        <ele>1908.4000244141</ele>
        <time>2023-07-16T12:26:50.000Z</time>
      </trkpt>
      <trkpt lat="42.48413" lon="2.41396">
        <ele>1908.1999511719</ele>
        <time>2023-07-16T12:26:51.000Z</time>
      </trkpt>
      <trkpt lat="42.48414" lon="2.41395">
        <ele>1907.5999755859</ele>
        <time>2023-07-16T12:26:56.000Z</time>
      </trkpt>
      <trkpt lat="42.48414" lon="2.41393">
        <ele>1907.5999755859</ele>
        <time>2023-07-16T12:26:58.000Z</time>
      </trkpt>
      <trkpt lat="42.48418" lon="2.41382">
        <ele>1907.4000244141</ele>
        <time>2023-07-16T12:27:05.000Z</time>
      </trkpt>
      <trkpt lat="42.48419" lon="2.4138">
        <ele>1907.4000244141</ele>
        <time>2023-07-16T12:27:07.000Z</time>
      </trkpt>
      <trkpt lat="42.48426" lon="2.41372">
        <ele>1906.1999511719</ele>
        <time>2023-07-16T12:27:14.000Z</time>
      </trkpt>
      <trkpt lat="42.48431" lon="2.41364">
        <ele>1905.4000244141</ele>
        <time>2023-07-16T12:27:22.000Z</time>
      </trkpt>
      <trkpt lat="42.48432" lon="2.41363">
        <ele>1905.1999511719</ele>
        <time>2023-07-16T12:27:23.000Z</time>
      </trkpt>
      <trkpt lat="42.48437" lon="2.41355">
        <ele>1904.4000244141</ele>
        <time>2023-07-16T12:27:30.000Z</time>
      </trkpt>
      <trkpt lat="42.48441" lon="2.4135">
        <ele>1904</ele>
        <time>2023-07-16T12:27:33.000Z</time>
      </trkpt>
      <trkpt lat="42.48444" lon="2.41344">
        <ele>1904</ele>
        <time>2023-07-16T12:27:37.000Z</time>
      </trkpt>
      <trkpt lat="42.48448" lon="2.41336">
        <ele>1904.1999511719</ele>
        <time>2023-07-16T12:27:42.000Z</time>
      </trkpt>
      <trkpt lat="42.48455" lon="2.41325">
        <ele>1903.1999511719</ele>
        <time>2023-07-16T12:27:50.000Z</time>
      </trkpt>
      <trkpt lat="42.48459" lon="2.41319">
        <ele>1903</ele>
        <time>2023-07-16T12:27:56.000Z</time>
      </trkpt>
      <trkpt lat="42.48459" lon="2.41318">
        <ele>1903</ele>
        <time>2023-07-16T12:27:57.000Z</time>
      </trkpt>
      <trkpt lat="42.48465" lon="2.4131">
        <ele>1902.4000244141</ele>
        <time>2023-07-16T12:28:04.000Z</time>
      </trkpt>
      <trkpt lat="42.48468" lon="2.41308">
        <ele>1901.5999755859</ele>
        <time>2023-07-16T12:28:08.000Z</time>
      </trkpt>
      <trkpt lat="42.48469" lon="2.41307">
        <ele>1901</ele>
        <time>2023-07-16T12:28:10.000Z</time>
      </trkpt>
      <trkpt lat="42.48478" lon="2.41305">
        <ele>1900.1999511719</ele>
        <time>2023-07-16T12:28:23.000Z</time>
      </trkpt>
      <trkpt lat="42.48478" lon="2.41306">
        <ele>1899.4000244141</ele>
        <time>2023-07-16T12:28:25.000Z</time>
      </trkpt>
      <trkpt lat="42.48482" lon="2.41304">
        <ele>1898.4000244141</ele>
        <time>2023-07-16T12:28:31.000Z</time>
      </trkpt>
      <trkpt lat="42.48487" lon="2.41302">
        <ele>1897.1999511719</ele>
        <time>2023-07-16T12:28:37.000Z</time>
      </trkpt>
      <trkpt lat="42.48488" lon="2.41301">
        <ele>1896.1999511719</ele>
        <time>2023-07-16T12:28:39.000Z</time>
      </trkpt>
      <trkpt lat="42.48489" lon="2.41301">
        <ele>1896</ele>
        <time>2023-07-16T12:28:40.000Z</time>
      </trkpt>
      <trkpt lat="42.48496" lon="2.41298">
        <ele>1895.1999511719</ele>
        <time>2023-07-16T12:28:45.000Z</time>
      </trkpt>
      <trkpt lat="42.485" lon="2.41296">
        <ele>1894.5999755859</ele>
        <time>2023-07-16T12:28:48.000Z</time>
      </trkpt>
      <trkpt lat="42.48501" lon="2.41295">
        <ele>1894.1999511719</ele>
        <time>2023-07-16T12:28:49.000Z</time>
      </trkpt>
      <trkpt lat="42.48501" lon="2.41294">
        <ele>1893.1999511719</ele>
        <time>2023-07-16T12:28:53.000Z</time>
      </trkpt>
      <trkpt lat="42.485" lon="2.41294">
        <ele>1893</ele>
        <time>2023-07-16T12:28:54.000Z</time>
      </trkpt>
      <trkpt lat="42.48501" lon="2.41293">
        <ele>1893</ele>
        <time>2023-07-16T12:28:55.000Z</time>
      </trkpt>
      <trkpt lat="42.48505" lon="2.41289">
        <ele>1892.8000488281</ele>
        <time>2023-07-16T12:28:59.000Z</time>
      </trkpt>
      <trkpt lat="42.48507" lon="2.41287">
        <ele>1892</ele>
        <time>2023-07-16T12:29:03.000Z</time>
      </trkpt>
      <trkpt lat="42.48509" lon="2.41287">
        <ele>1892</ele>
        <time>2023-07-16T12:29:06.000Z</time>
      </trkpt>
      <trkpt lat="42.48511" lon="2.4129">
        <ele>1892.1999511719</ele>
        <time>2023-07-16T12:29:14.000Z</time>
      </trkpt>
      <trkpt lat="42.48507" lon="2.41287">
        <ele>1891.8000488281</ele>
        <time>2023-07-16T12:29:23.000Z</time>
      </trkpt>
      <trkpt lat="42.48505" lon="2.41282">
        <ele>1891.1999511719</ele>
        <time>2023-07-16T12:29:32.000Z</time>
      </trkpt>
      <trkpt lat="42.48508" lon="2.41278">
        <ele>1892.4000244141</ele>
        <time>2023-07-16T12:29:42.000Z</time>
      </trkpt>
      <trkpt lat="42.48508" lon="2.41278">
        <ele>1893</ele>
        <time>2023-07-16T12:29:44.000Z</time>
      </trkpt>
      <trkpt lat="42.48508" lon="2.41276">
        <ele>1894.1999511719</ele>
        <time>2023-07-16T12:29:49.000Z</time>
      </trkpt>
      <trkpt lat="42.48508" lon="2.41276">
        <ele>1894.5999755859</ele>
        <time>2023-07-16T12:29:50.000Z</time>
      </trkpt>
      <trkpt lat="42.48507" lon="2.41275">
        <ele>1895.1999511719</ele>
        <time>2023-07-16T12:29:58.000Z</time>
      </trkpt>
      <trkpt lat="42.48505" lon="2.41275">
        <ele>1895.8000488281</ele>
        <time>2023-07-16T12:30:05.000Z</time>
      </trkpt>
      <trkpt lat="42.48506" lon="2.41275">
        <ele>1896.4000244141</ele>
        <time>2023-07-16T12:30:08.000Z</time>
      </trkpt>
      <trkpt lat="42.48506" lon="2.41275">
        <ele>1896.8000488281</ele>
        <time>2023-07-16T12:30:12.000Z</time>
      </trkpt>
      <trkpt lat="42.48505" lon="2.41271">
        <ele>1897.1999511719</ele>
        <time>2023-07-16T12:30:20.000Z</time>
      </trkpt>
      <trkpt lat="42.48505" lon="2.41272">
        <ele>1896.8000488281</ele>
        <time>2023-07-16T12:30:27.000Z</time>
      </trkpt>
      <trkpt lat="42.48503" lon="2.41273">
        <ele>1897</ele>
        <time>2023-07-16T12:30:34.000Z</time>
      </trkpt>
      <trkpt lat="42.48505" lon="2.41265">
        <ele>1897.1999511719</ele>
        <time>2023-07-16T12:30:42.000Z</time>
      </trkpt>
      <trkpt lat="42.48505" lon="2.41265">
        <ele>1897.5999755859</ele>
        <time>2023-07-16T12:30:43.000Z</time>
      </trkpt>
      <trkpt lat="42.48506" lon="2.41263">
        <ele>1898.1999511719</ele>
        <time>2023-07-16T12:30:50.000Z</time>
      </trkpt>
      <trkpt lat="42.48509" lon="2.41259">
        <ele>1898.1999511719</ele>
        <time>2023-07-16T12:30:59.000Z</time>
      </trkpt>
      <trkpt lat="42.48509" lon="2.41257">
        <ele>1898.5999755859</ele>
        <time>2023-07-16T12:31:01.000Z</time>
      </trkpt>
      <trkpt lat="42.48509" lon="2.41251">
        <ele>1899.5999755859</ele>
        <time>2023-07-16T12:31:07.000Z</time>
      </trkpt>
      <trkpt lat="42.4851" lon="2.41247">
        <ele>1900.1999511719</ele>
        <time>2023-07-16T12:31:15.000Z</time>
      </trkpt>
      <trkpt lat="42.48509" lon="2.41245">
        <ele>1901</ele>
        <time>2023-07-16T12:31:18.000Z</time>
      </trkpt>
      <trkpt lat="42.48509" lon="2.41243">
        <ele>1901.4000244141</ele>
        <time>2023-07-16T12:31:22.000Z</time>
      </trkpt>
      <trkpt lat="42.48509" lon="2.41241">
        <ele>1902</ele>
        <time>2023-07-16T12:31:24.000Z</time>
      </trkpt>
      <trkpt lat="42.4851" lon="2.41237">
        <ele>1902.8000488281</ele>
        <time>2023-07-16T12:31:30.000Z</time>
      </trkpt>
      <trkpt lat="42.48511" lon="2.41236">
        <ele>1903.1999511719</ele>
        <time>2023-07-16T12:31:32.000Z</time>
      </trkpt>
      <trkpt lat="42.48513" lon="2.41234">
        <ele>1903.8000488281</ele>
        <time>2023-07-16T12:31:37.000Z</time>
      </trkpt>
      <trkpt lat="42.48512" lon="2.41235">
        <ele>1904.1999511719</ele>
        <time>2023-07-16T12:31:39.000Z</time>
      </trkpt>
      <trkpt lat="42.48512" lon="2.41233">
        <ele>1905.4000244141</ele>
        <time>2023-07-16T12:31:45.000Z</time>
      </trkpt>
      <trkpt lat="42.4851" lon="2.41229">
        <ele>1906.4000244141</ele>
        <time>2023-07-16T12:31:52.000Z</time>
      </trkpt>
      <trkpt lat="42.48509" lon="2.41229">
        <ele>1906.5999755859</ele>
        <time>2023-07-16T12:31:54.000Z</time>
      </trkpt>
      <trkpt lat="42.48508" lon="2.4123">
        <ele>1906.8000488281</ele>
        <time>2023-07-16T12:32:01.000Z</time>
      </trkpt>
      <trkpt lat="42.4851" lon="2.41229">
        <ele>1907</ele>
        <time>2023-07-16T12:32:11.000Z</time>
      </trkpt>
      <trkpt lat="42.48509" lon="2.41228">
        <ele>1907.1999511719</ele>
        <time>2023-07-16T12:32:20.000Z</time>
      </trkpt>
      <trkpt lat="42.48512" lon="2.41229">
        <ele>1907.1999511719</ele>
        <time>2023-07-16T12:32:28.000Z</time>
      </trkpt>
      <trkpt lat="42.48512" lon="2.41229">
        <ele>1907.5999755859</ele>
        <time>2023-07-16T12:32:30.000Z</time>
      </trkpt>
      <trkpt lat="42.48511" lon="2.41225">
        <ele>1908</ele>
        <time>2023-07-16T12:32:35.000Z</time>
      </trkpt>
      <trkpt lat="42.4851" lon="2.41221">
        <ele>1908.8000488281</ele>
        <time>2023-07-16T12:32:43.000Z</time>
      </trkpt>
      <trkpt lat="42.48511" lon="2.41218">
        <ele>1909.8000488281</ele>
        <time>2023-07-16T12:32:51.000Z</time>
      </trkpt>
      <trkpt lat="42.4851" lon="2.41216">
        <ele>1910</ele>
        <time>2023-07-16T12:32:52.000Z</time>
      </trkpt>
      <trkpt lat="42.48509" lon="2.41212">
        <ele>1910.8000488281</ele>
        <time>2023-07-16T12:32:55.000Z</time>
      </trkpt>
      <trkpt lat="42.48509" lon="2.4121">
        <ele>1911.5999755859</ele>
        <time>2023-07-16T12:33:00.000Z</time>
      </trkpt>
      <trkpt lat="42.48507" lon="2.41212">
        <ele>1912.1999511719</ele>
        <time>2023-07-16T12:33:06.000Z</time>
      </trkpt>
      <trkpt lat="42.48507" lon="2.41212">
        <ele>1913.1999511719</ele>
        <time>2023-07-16T12:33:07.000Z</time>
      </trkpt>
      <trkpt lat="42.48506" lon="2.41212">
        <ele>1913.5999755859</ele>
        <time>2023-07-16T12:33:08.000Z</time>
      </trkpt>
      <trkpt lat="42.48502" lon="2.41212">
        <ele>1915</ele>
        <time>2023-07-16T12:33:15.000Z</time>
      </trkpt>
      <trkpt lat="42.48502" lon="2.41211">
        <ele>1915.4000244141</ele>
        <time>2023-07-16T12:33:16.000Z</time>
      </trkpt>
      <trkpt lat="42.485" lon="2.4121">
        <ele>1916.1999511719</ele>
        <time>2023-07-16T12:33:19.000Z</time>
      </trkpt>
      <trkpt lat="42.48497" lon="2.41205">
        <ele>1917.1999511719</ele>
        <time>2023-07-16T12:33:25.000Z</time>
      </trkpt>
      <trkpt lat="42.48496" lon="2.412">
        <ele>1918.4000244141</ele>
        <time>2023-07-16T12:33:29.000Z</time>
      </trkpt>
      <trkpt lat="42.48497" lon="2.41198">
        <ele>1919</ele>
        <time>2023-07-16T12:33:32.000Z</time>
      </trkpt>
      <trkpt lat="42.48497" lon="2.41196">
        <ele>1919.4000244141</ele>
        <time>2023-07-16T12:33:40.000Z</time>
      </trkpt>
      <trkpt lat="42.48497" lon="2.4119">
        <ele>1919.5999755859</ele>
        <time>2023-07-16T12:33:46.000Z</time>
      </trkpt>
      <trkpt lat="42.48497" lon="2.41189">
        <ele>1920.5999755859</ele>
        <time>2023-07-16T12:33:48.000Z</time>
      </trkpt>
      <trkpt lat="42.48497" lon="2.4119">
        <ele>1920.8000488281</ele>
        <time>2023-07-16T12:33:49.000Z</time>
      </trkpt>
      <trkpt lat="42.48496" lon="2.4119">
        <ele>1920.8000488281</ele>
        <time>2023-07-16T12:33:50.000Z</time>
      </trkpt>
      <trkpt lat="42.48494" lon="2.41189">
        <ele>1920.5999755859</ele>
        <time>2023-07-16T12:33:54.000Z</time>
      </trkpt>
      <trkpt lat="42.48492" lon="2.41189">
        <ele>1919.4000244141</ele>
        <time>2023-07-16T12:34:00.000Z</time>
      </trkpt>
      <trkpt lat="42.4849" lon="2.41187">
        <ele>1919.8000488281</ele>
        <time>2023-07-16T12:34:04.000Z</time>
      </trkpt>
      <trkpt lat="42.4849" lon="2.41185">
        <ele>1920.5999755859</ele>
        <time>2023-07-16T12:34:07.000Z</time>
      </trkpt>
      <trkpt lat="42.48489" lon="2.41179">
        <ele>1921.5999755859</ele>
        <time>2023-07-16T12:34:13.000Z</time>
      </trkpt>
      <trkpt lat="42.48489" lon="2.41179">
        <ele>1921.5999755859</ele>
        <time>2023-07-16T12:34:14.000Z</time>
      </trkpt>
      <trkpt lat="42.48488" lon="2.41174">
        <ele>1922.4000244141</ele>
        <time>2023-07-16T12:34:21.000Z</time>
      </trkpt>
      <trkpt lat="42.48488" lon="2.41173">
        <ele>1922.8000488281</ele>
        <time>2023-07-16T12:34:23.000Z</time>
      </trkpt>
      <trkpt lat="42.48487" lon="2.4117">
        <ele>1923.5999755859</ele>
        <time>2023-07-16T12:34:29.000Z</time>
      </trkpt>
      <trkpt lat="42.48484" lon="2.41168">
        <ele>1921.8000488281</ele>
        <time>2023-07-16T12:34:37.000Z</time>
      </trkpt>
      <trkpt lat="42.48481" lon="2.41168">
        <ele>1923</ele>
        <time>2023-07-16T12:34:45.000Z</time>
      </trkpt>
      <trkpt lat="42.4848" lon="2.41168">
        <ele>1923.5999755859</ele>
        <time>2023-07-16T12:34:46.000Z</time>
      </trkpt>
      <trkpt lat="42.48479" lon="2.41169">
        <ele>1924.1999511719</ele>
        <time>2023-07-16T12:34:47.000Z</time>
      </trkpt>
      <trkpt lat="42.48477" lon="2.4117">
        <ele>1925.1999511719</ele>
        <time>2023-07-16T12:34:50.000Z</time>
      </trkpt>
      <trkpt lat="42.48474" lon="2.41168">
        <ele>1925.4000244141</ele>
        <time>2023-07-16T12:34:54.000Z</time>
      </trkpt>
      <trkpt lat="42.48474" lon="2.41166">
        <ele>1925.5999755859</ele>
        <time>2023-07-16T12:34:56.000Z</time>
      </trkpt>
      <trkpt lat="42.48473" lon="2.41165">
        <ele>1925.8000488281</ele>
        <time>2023-07-16T12:34:58.000Z</time>
      </trkpt>
      <trkpt lat="42.48473" lon="2.41164">
        <ele>1926.4000244141</ele>
        <time>2023-07-16T12:35:00.000Z</time>
      </trkpt>
      <trkpt lat="42.48473" lon="2.4116">
        <ele>1927.4000244141</ele>
        <time>2023-07-16T12:35:05.000Z</time>
      </trkpt>
      <trkpt lat="42.48473" lon="2.41158">
        <ele>1928.1999511719</ele>
        <time>2023-07-16T12:35:08.000Z</time>
      </trkpt>
      <trkpt lat="42.48473" lon="2.41157">
        <ele>1928.5999755859</ele>
        <time>2023-07-16T12:35:09.000Z</time>
      </trkpt>
      <trkpt lat="42.48472" lon="2.41153">
        <ele>1929.5999755859</ele>
        <time>2023-07-16T12:35:15.000Z</time>
      </trkpt>
      <trkpt lat="42.48472" lon="2.41152">
        <ele>1929.8000488281</ele>
        <time>2023-07-16T12:35:16.000Z</time>
      </trkpt>
      <trkpt lat="42.48473" lon="2.41152">
        <ele>1930.5999755859</ele>
        <time>2023-07-16T12:35:19.000Z</time>
      </trkpt>
      <trkpt lat="42.48474" lon="2.41155">
        <ele>1931.4000244141</ele>
        <time>2023-07-16T12:35:24.000Z</time>
      </trkpt>
      <trkpt lat="42.48474" lon="2.41153">
        <ele>1931.5999755859</ele>
        <time>2023-07-16T12:35:29.000Z</time>
      </trkpt>
      <trkpt lat="42.48474" lon="2.4115">
        <ele>1931.8000488281</ele>
        <time>2023-07-16T12:35:31.000Z</time>
      </trkpt>
      <trkpt lat="42.48474" lon="2.41145">
        <ele>1932.8000488281</ele>
        <time>2023-07-16T12:35:37.000Z</time>
      </trkpt>
      <trkpt lat="42.48473" lon="2.41145">
        <ele>1933</ele>
        <time>2023-07-16T12:35:39.000Z</time>
      </trkpt>
      <trkpt lat="42.48473" lon="2.41142">
        <ele>1933.8000488281</ele>
        <time>2023-07-16T12:35:44.000Z</time>
      </trkpt>
      <trkpt lat="42.48472" lon="2.41141">
        <ele>1934</ele>
        <time>2023-07-16T12:35:46.000Z</time>
      </trkpt>
      <trkpt lat="42.48471" lon="2.41139">
        <ele>1934.5999755859</ele>
        <time>2023-07-16T12:35:49.000Z</time>
      </trkpt>
      <trkpt lat="42.48471" lon="2.41138">
        <ele>1935</ele>
        <time>2023-07-16T12:35:51.000Z</time>
      </trkpt>
      <trkpt lat="42.4847" lon="2.41137">
        <ele>1935.8000488281</ele>
        <time>2023-07-16T12:35:57.000Z</time>
      </trkpt>
      <trkpt lat="42.4847" lon="2.41137">
        <ele>1936</ele>
        <time>2023-07-16T12:35:58.000Z</time>
      </trkpt>
      <trkpt lat="42.48469" lon="2.41134">
        <ele>1936.4000244141</ele>
        <time>2023-07-16T12:36:07.000Z</time>
      </trkpt>
      <trkpt lat="42.48472" lon="2.41139">
        <ele>1936.4000244141</ele>
        <time>2023-07-16T12:36:16.000Z</time>
      </trkpt>
      <trkpt lat="42.48471" lon="2.41135">
        <ele>1936.5999755859</ele>
        <time>2023-07-16T12:36:22.000Z</time>
      </trkpt>
      <trkpt lat="42.48471" lon="2.41133">
        <ele>1937.1999511719</ele>
        <time>2023-07-16T12:36:25.000Z</time>
      </trkpt>
      <trkpt lat="42.4847" lon="2.41129">
        <ele>1938.1999511719</ele>
        <time>2023-07-16T12:36:30.000Z</time>
      </trkpt>
      <trkpt lat="42.48469" lon="2.41127">
        <ele>1939.4000244141</ele>
        <time>2023-07-16T12:36:34.000Z</time>
      </trkpt>
      <trkpt lat="42.48469" lon="2.41126">
        <ele>1940.5999755859</ele>
        <time>2023-07-16T12:36:38.000Z</time>
      </trkpt>
      <trkpt lat="42.4847" lon="2.41126">
        <ele>1940.8000488281</ele>
        <time>2023-07-16T12:36:39.000Z</time>
      </trkpt>
      <trkpt lat="42.4847" lon="2.41127">
        <ele>1941.5999755859</ele>
        <time>2023-07-16T12:36:44.000Z</time>
      </trkpt>
      <trkpt lat="42.4847" lon="2.41124">
        <ele>1942</ele>
        <time>2023-07-16T12:36:46.000Z</time>
      </trkpt>
      <trkpt lat="42.48469" lon="2.4112">
        <ele>1942.8000488281</ele>
        <time>2023-07-16T12:36:51.000Z</time>
      </trkpt>
      <trkpt lat="42.48466" lon="2.41116">
        <ele>1943.4000244141</ele>
        <time>2023-07-16T12:36:54.000Z</time>
      </trkpt>
      <trkpt lat="42.48465" lon="2.41114">
        <ele>1943.8000488281</ele>
        <time>2023-07-16T12:36:58.000Z</time>
      </trkpt>
      <trkpt lat="42.48463" lon="2.41113">
        <ele>1944.4000244141</ele>
        <time>2023-07-16T12:37:03.000Z</time>
      </trkpt>
      <trkpt lat="42.48463" lon="2.41112">
        <ele>1945</ele>
        <time>2023-07-16T12:37:05.000Z</time>
      </trkpt>
      <trkpt lat="42.48461" lon="2.41111">
        <ele>1946</ele>
        <time>2023-07-16T12:37:12.000Z</time>
      </trkpt>
      <trkpt lat="42.48458" lon="2.41108">
        <ele>1947</ele>
        <time>2023-07-16T12:37:18.000Z</time>
      </trkpt>
      <trkpt lat="42.48457" lon="2.41107">
        <ele>1947.4000244141</ele>
        <time>2023-07-16T12:37:20.000Z</time>
      </trkpt>
      <trkpt lat="42.48456" lon="2.41105">
        <ele>1948.1999511719</ele>
        <time>2023-07-16T12:37:23.000Z</time>
      </trkpt>
      <trkpt lat="42.48456" lon="2.41101">
        <ele>1949.1999511719</ele>
        <time>2023-07-16T12:37:30.000Z</time>
      </trkpt>
      <trkpt lat="42.48456" lon="2.41099">
        <ele>1950.1999511719</ele>
        <time>2023-07-16T12:37:37.000Z</time>
      </trkpt>
      <trkpt lat="42.48456" lon="2.41099">
        <ele>1950.4000244141</ele>
        <time>2023-07-16T12:37:38.000Z</time>
      </trkpt>
      <trkpt lat="42.48458" lon="2.41094">
        <ele>1950.4000244141</ele>
        <time>2023-07-16T12:37:47.000Z</time>
      </trkpt>
      <trkpt lat="42.48456" lon="2.41096">
        <ele>1950.8000488281</ele>
        <time>2023-07-16T12:37:54.000Z</time>
      </trkpt>
      <trkpt lat="42.48454" lon="2.41098">
        <ele>1951.4000244141</ele>
        <time>2023-07-16T12:37:58.000Z</time>
      </trkpt>
      <trkpt lat="42.48451" lon="2.41098">
        <ele>1951.8000488281</ele>
        <time>2023-07-16T12:38:02.000Z</time>
      </trkpt>
      <trkpt lat="42.48448" lon="2.41095">
        <ele>1952.5999755859</ele>
        <time>2023-07-16T12:38:10.000Z</time>
      </trkpt>
      <trkpt lat="42.48448" lon="2.41092">
        <ele>1953.1999511719</ele>
        <time>2023-07-16T12:38:19.000Z</time>
      </trkpt>
      <trkpt lat="42.48449" lon="2.41092">
        <ele>1953.8000488281</ele>
        <time>2023-07-16T12:38:22.000Z</time>
      </trkpt>
      <trkpt lat="42.4845" lon="2.4109">
        <ele>1954.8000488281</ele>
        <time>2023-07-16T12:38:26.000Z</time>
      </trkpt>
      <trkpt lat="42.48451" lon="2.4109">
        <ele>1954.8000488281</ele>
        <time>2023-07-16T12:38:27.000Z</time>
      </trkpt>
      <trkpt lat="42.48452" lon="2.41085">
        <ele>1955.5999755859</ele>
        <time>2023-07-16T12:38:32.000Z</time>
      </trkpt>
      <trkpt lat="42.48451" lon="2.41085">
        <ele>1955.8000488281</ele>
        <time>2023-07-16T12:38:33.000Z</time>
      </trkpt>
      <trkpt lat="42.48449" lon="2.41084">
        <ele>1957.1999511719</ele>
        <time>2023-07-16T12:38:39.000Z</time>
      </trkpt>
      <trkpt lat="42.48449" lon="2.41085">
        <ele>1957.1999511719</ele>
        <time>2023-07-16T12:38:40.000Z</time>
      </trkpt>
      <trkpt lat="42.48446" lon="2.41085">
        <ele>1958</ele>
        <time>2023-07-16T12:38:47.000Z</time>
      </trkpt>
      <trkpt lat="42.48445" lon="2.41084">
        <ele>1958.1999511719</ele>
        <time>2023-07-16T12:38:51.000Z</time>
      </trkpt>
      <trkpt lat="42.48444" lon="2.41082">
        <ele>1959</ele>
        <time>2023-07-16T12:38:54.000Z</time>
      </trkpt>
      <trkpt lat="42.48443" lon="2.41083">
        <ele>1959.1999511719</ele>
        <time>2023-07-16T12:39:02.000Z</time>
      </trkpt>
      <trkpt lat="42.48446" lon="2.4108">
        <ele>1959.1999511719</ele>
        <time>2023-07-16T12:39:15.000Z</time>
      </trkpt>
      <trkpt lat="42.48446" lon="2.41079">
        <ele>1959.4000244141</ele>
        <time>2023-07-16T12:39:16.000Z</time>
      </trkpt>
      <trkpt lat="42.48443" lon="2.41079">
        <ele>1959.8000488281</ele>
        <time>2023-07-16T12:39:22.000Z</time>
      </trkpt>
      <trkpt lat="42.4844" lon="2.41081">
        <ele>1960.4000244141</ele>
        <time>2023-07-16T12:39:26.000Z</time>
      </trkpt>
      <trkpt lat="42.48439" lon="2.41083">
        <ele>1961.1999511719</ele>
        <time>2023-07-16T12:39:30.000Z</time>
      </trkpt>
      <trkpt lat="42.48439" lon="2.41084">
        <ele>1961.4000244141</ele>
        <time>2023-07-16T12:39:31.000Z</time>
      </trkpt>
      <trkpt lat="42.48434" lon="2.41082">
        <ele>1963</ele>
        <time>2023-07-16T12:39:46.000Z</time>
      </trkpt>
      <trkpt lat="42.48433" lon="2.41081">
        <ele>1963.5999755859</ele>
        <time>2023-07-16T12:39:50.000Z</time>
      </trkpt>
      <trkpt lat="42.48433" lon="2.4108">
        <ele>1964.5999755859</ele>
        <time>2023-07-16T12:39:53.000Z</time>
      </trkpt>
      <trkpt lat="42.48433" lon="2.41079">
        <ele>1964.8000488281</ele>
        <time>2023-07-16T12:39:57.000Z</time>
      </trkpt>
      <trkpt lat="42.48433" lon="2.41078">
        <ele>1965.5999755859</ele>
        <time>2023-07-16T12:40:00.000Z</time>
      </trkpt>
      <trkpt lat="42.48433" lon="2.41078">
        <ele>1966</ele>
        <time>2023-07-16T12:40:04.000Z</time>
      </trkpt>
      <trkpt lat="42.48432" lon="2.41071">
        <ele>1966.1999511719</ele>
        <time>2023-07-16T12:40:13.000Z</time>
      </trkpt>
      <trkpt lat="42.48432" lon="2.41071">
        <ele>1966.8000488281</ele>
        <time>2023-07-16T12:40:15.000Z</time>
      </trkpt>
      <trkpt lat="42.48431" lon="2.41071">
        <ele>1966.8000488281</ele>
        <time>2023-07-16T12:40:20.000Z</time>
      </trkpt>
      <trkpt lat="42.4843" lon="2.41067">
        <ele>1967.4000244141</ele>
        <time>2023-07-16T12:40:29.000Z</time>
      </trkpt>
      <trkpt lat="42.48433" lon="2.41065">
        <ele>1967.8000488281</ele>
        <time>2023-07-16T12:40:35.000Z</time>
      </trkpt>
      <trkpt lat="42.48434" lon="2.41065">
        <ele>1968</ele>
        <time>2023-07-16T12:40:38.000Z</time>
      </trkpt>
      <trkpt lat="42.48432" lon="2.41059">
        <ele>1968.8000488281</ele>
        <time>2023-07-16T12:40:46.000Z</time>
      </trkpt>
      <trkpt lat="42.48431" lon="2.41056">
        <ele>1969.5999755859</ele>
        <time>2023-07-16T12:40:51.000Z</time>
      </trkpt>
      <trkpt lat="42.48431" lon="2.41056">
        <ele>1970</ele>
        <time>2023-07-16T12:40:54.000Z</time>
      </trkpt>
      <trkpt lat="42.4843" lon="2.41056">
        <ele>1970.4000244141</ele>
        <time>2023-07-16T12:40:58.000Z</time>
      </trkpt>
      <trkpt lat="42.4843" lon="2.41053">
        <ele>1971</ele>
        <time>2023-07-16T12:41:01.000Z</time>
      </trkpt>
      <trkpt lat="42.48428" lon="2.41049">
        <ele>1972</ele>
        <time>2023-07-16T12:41:06.000Z</time>
      </trkpt>
      <trkpt lat="42.48428" lon="2.41048">
        <ele>1972.1999511719</ele>
        <time>2023-07-16T12:41:08.000Z</time>
      </trkpt>
      <trkpt lat="42.4843" lon="2.41043">
        <ele>1973.1999511719</ele>
        <time>2023-07-16T12:41:15.000Z</time>
      </trkpt>
      <trkpt lat="42.48431" lon="2.4104">
        <ele>1974.1999511719</ele>
        <time>2023-07-16T12:41:21.000Z</time>
      </trkpt>
      <trkpt lat="42.48431" lon="2.41039">
        <ele>1974.5999755859</ele>
        <time>2023-07-16T12:41:23.000Z</time>
      </trkpt>
      <trkpt lat="42.48432" lon="2.41039">
        <ele>1975.4000244141</ele>
        <time>2023-07-16T12:41:26.000Z</time>
      </trkpt>
      <trkpt lat="42.48433" lon="2.41035">
        <ele>1976</ele>
        <time>2023-07-16T12:41:32.000Z</time>
      </trkpt>
      <trkpt lat="42.48432" lon="2.41031">
        <ele>1976.5999755859</ele>
        <time>2023-07-16T12:41:38.000Z</time>
      </trkpt>
      <trkpt lat="42.48431" lon="2.41029">
        <ele>1976.8000488281</ele>
        <time>2023-07-16T12:41:40.000Z</time>
      </trkpt>
      <trkpt lat="42.48431" lon="2.41028">
        <ele>1977.5999755859</ele>
        <time>2023-07-16T12:41:43.000Z</time>
      </trkpt>
      <trkpt lat="42.48431" lon="2.41026">
        <ele>1978.1999511719</ele>
        <time>2023-07-16T12:41:47.000Z</time>
      </trkpt>
      <trkpt lat="42.48431" lon="2.41022">
        <ele>1978.8000488281</ele>
        <time>2023-07-16T12:41:53.000Z</time>
      </trkpt>
      <trkpt lat="42.4843" lon="2.4102">
        <ele>1979.1999511719</ele>
        <time>2023-07-16T12:41:57.000Z</time>
      </trkpt>
      <trkpt lat="42.4843" lon="2.41014">
        <ele>1979.8000488281</ele>
        <time>2023-07-16T12:42:04.000Z</time>
      </trkpt>
      <trkpt lat="42.4843" lon="2.41011">
        <ele>1980</ele>
        <time>2023-07-16T12:42:07.000Z</time>
      </trkpt>
      <trkpt lat="42.48433" lon="2.41007">
        <ele>1980.8000488281</ele>
        <time>2023-07-16T12:42:15.000Z</time>
      </trkpt>
      <trkpt lat="42.48434" lon="2.41007">
        <ele>1981.1999511719</ele>
        <time>2023-07-16T12:42:17.000Z</time>
      </trkpt>
      <trkpt lat="42.48435" lon="2.41005">
        <ele>1982.8000488281</ele>
        <time>2023-07-16T12:42:29.000Z</time>
      </trkpt>
      <trkpt lat="42.48435" lon="2.41004">
        <ele>1983</ele>
        <time>2023-07-16T12:42:30.000Z</time>
      </trkpt>
      <trkpt lat="42.48437" lon="2.40999">
        <ele>1984</ele>
        <time>2023-07-16T12:42:36.000Z</time>
      </trkpt>
      <trkpt lat="42.48438" lon="2.40996">
        <ele>1984.4000244141</ele>
        <time>2023-07-16T12:42:38.000Z</time>
      </trkpt>
      <trkpt lat="42.48438" lon="2.40994">
        <ele>1985.1999511719</ele>
        <time>2023-07-16T12:42:41.000Z</time>
      </trkpt>
      <trkpt lat="42.48438" lon="2.40993">
        <ele>1985.8000488281</ele>
        <time>2023-07-16T12:42:46.000Z</time>
      </trkpt>
      <trkpt lat="42.48438" lon="2.40993">
        <ele>1986.1999511719</ele>
        <time>2023-07-16T12:42:48.000Z</time>
      </trkpt>
      <trkpt lat="42.48438" lon="2.40987">
        <ele>1987.4000244141</ele>
        <time>2023-07-16T12:42:55.000Z</time>
      </trkpt>
      <trkpt lat="42.48437" lon="2.40985">
        <ele>1987.4000244141</ele>
        <time>2023-07-16T12:42:56.000Z</time>
      </trkpt>
      <trkpt lat="42.48436" lon="2.40982">
        <ele>1988.5999755859</ele>
        <time>2023-07-16T12:43:01.000Z</time>
      </trkpt>
      <trkpt lat="42.48435" lon="2.40981">
        <ele>1989.1999511719</ele>
        <time>2023-07-16T12:43:04.000Z</time>
      </trkpt>
      <trkpt lat="42.48432" lon="2.40979">
        <ele>1989.8000488281</ele>
        <time>2023-07-16T12:43:10.000Z</time>
      </trkpt>
      <trkpt lat="42.48431" lon="2.40978">
        <ele>1990.8000488281</ele>
        <time>2023-07-16T12:43:14.000Z</time>
      </trkpt>
      <trkpt lat="42.48431" lon="2.40977">
        <ele>1990.8000488281</ele>
        <time>2023-07-16T12:43:15.000Z</time>
      </trkpt>
      <trkpt lat="42.48431" lon="2.40974">
        <ele>1991.8000488281</ele>
        <time>2023-07-16T12:43:18.000Z</time>
      </trkpt>
      <trkpt lat="42.4843" lon="2.40969">
        <ele>1992.5999755859</ele>
        <time>2023-07-16T12:43:23.000Z</time>
      </trkpt>
      <trkpt lat="42.4843" lon="2.40969">
        <ele>1993</ele>
        <time>2023-07-16T12:43:25.000Z</time>
      </trkpt>
      <trkpt lat="42.4843" lon="2.40967">
        <ele>1993.5999755859</ele>
        <time>2023-07-16T12:43:31.000Z</time>
      </trkpt>
      <trkpt lat="42.48429" lon="2.40965">
        <ele>1994</ele>
        <time>2023-07-16T12:43:35.000Z</time>
      </trkpt>
      <trkpt lat="42.4843" lon="2.40963">
        <ele>1994.4000244141</ele>
        <time>2023-07-16T12:43:39.000Z</time>
      </trkpt>
      <trkpt lat="42.4843" lon="2.40961">
        <ele>1995</ele>
        <time>2023-07-16T12:43:42.000Z</time>
      </trkpt>
      <trkpt lat="42.48431" lon="2.40957">
        <ele>1995.4000244141</ele>
        <time>2023-07-16T12:43:47.000Z</time>
      </trkpt>
      <trkpt lat="42.48433" lon="2.40953">
        <ele>1996.1999511719</ele>
        <time>2023-07-16T12:43:53.000Z</time>
      </trkpt>
      <trkpt lat="42.48433" lon="2.40952">
        <ele>1996.1999511719</ele>
        <time>2023-07-16T12:43:54.000Z</time>
      </trkpt>
      <trkpt lat="42.48434" lon="2.40949">
        <ele>1996.8000488281</ele>
        <time>2023-07-16T12:44:02.000Z</time>
      </trkpt>
      <trkpt lat="42.48435" lon="2.40947">
        <ele>1997.4000244141</ele>
        <time>2023-07-16T12:44:05.000Z</time>
      </trkpt>
      <trkpt lat="42.48436" lon="2.40943">
        <ele>1998.1999511719</ele>
        <time>2023-07-16T12:44:10.000Z</time>
      </trkpt>
      <trkpt lat="42.48436" lon="2.40942">
        <ele>1998.5999755859</ele>
        <time>2023-07-16T12:44:12.000Z</time>
      </trkpt>
      <trkpt lat="42.48434" lon="2.40939">
        <ele>1999.4000244141</ele>
        <time>2023-07-16T12:44:17.000Z</time>
      </trkpt>
      <trkpt lat="42.48434" lon="2.40939">
        <ele>1999.5999755859</ele>
        <time>2023-07-16T12:44:18.000Z</time>
      </trkpt>
      <trkpt lat="42.48435" lon="2.40936">
        <ele>2000.4000244141</ele>
        <time>2023-07-16T12:44:26.000Z</time>
      </trkpt>
      <trkpt lat="42.48434" lon="2.40934">
        <ele>2000.8000488281</ele>
        <time>2023-07-16T12:44:30.000Z</time>
      </trkpt>
      <trkpt lat="42.48434" lon="2.40934">
        <ele>2001</ele>
        <time>2023-07-16T12:44:31.000Z</time>
      </trkpt>
      <trkpt lat="42.48432" lon="2.40934">
        <ele>2001.8000488281</ele>
        <time>2023-07-16T12:44:36.000Z</time>
      </trkpt>
      <trkpt lat="42.48432" lon="2.40933">
        <ele>2002</ele>
        <time>2023-07-16T12:44:37.000Z</time>
      </trkpt>
      <trkpt lat="42.4843" lon="2.40931">
        <ele>2002.1999511719</ele>
        <time>2023-07-16T12:44:42.000Z</time>
      </trkpt>
      <trkpt lat="42.48431" lon="2.40927">
        <ele>2003</ele>
        <time>2023-07-16T12:44:49.000Z</time>
      </trkpt>
      <trkpt lat="42.48431" lon="2.40926">
        <ele>2003.1999511719</ele>
        <time>2023-07-16T12:44:51.000Z</time>
      </trkpt>
      <trkpt lat="42.48432" lon="2.40922">
        <ele>2003.8000488281</ele>
        <time>2023-07-16T12:44:57.000Z</time>
      </trkpt>
      <trkpt lat="42.48432" lon="2.40922">
        <ele>2004</ele>
        <time>2023-07-16T12:44:58.000Z</time>
      </trkpt>
      <trkpt lat="42.48432" lon="2.40919">
        <ele>2005.1999511719</ele>
        <time>2023-07-16T12:45:03.000Z</time>
      </trkpt>
      <trkpt lat="42.48432" lon="2.40918">
        <ele>2005.4000244141</ele>
        <time>2023-07-16T12:45:05.000Z</time>
      </trkpt>
      <trkpt lat="42.48431" lon="2.40913">
        <ele>2006.1999511719</ele>
        <time>2023-07-16T12:45:09.000Z</time>
      </trkpt>
      <trkpt lat="42.48431" lon="2.40912">
        <ele>2006.8000488281</ele>
        <time>2023-07-16T12:45:13.000Z</time>
      </trkpt>
      <trkpt lat="42.48431" lon="2.4091">
        <ele>2006.8000488281</ele>
        <time>2023-07-16T12:45:20.000Z</time>
      </trkpt>
      <trkpt lat="42.48431" lon="2.40909">
        <ele>2007.1999511719</ele>
        <time>2023-07-16T12:45:23.000Z</time>
      </trkpt>
      <trkpt lat="42.48433" lon="2.40904">
        <ele>2008.4000244141</ele>
        <time>2023-07-16T12:45:29.000Z</time>
      </trkpt>
      <trkpt lat="42.48433" lon="2.40903">
        <ele>2008.5999755859</ele>
        <time>2023-07-16T12:45:30.000Z</time>
      </trkpt>
      <trkpt lat="42.48434" lon="2.409">
        <ele>2009.5999755859</ele>
        <time>2023-07-16T12:45:34.000Z</time>
      </trkpt>
      <trkpt lat="42.48434" lon="2.40898">
        <ele>2009.5999755859</ele>
        <time>2023-07-16T12:45:40.000Z</time>
      </trkpt>
      <trkpt lat="42.48434" lon="2.40896">
        <ele>2009.5999755859</ele>
        <time>2023-07-16T12:45:48.000Z</time>
      </trkpt>
      <trkpt lat="42.48433" lon="2.40891">
        <ele>2010.1999511719</ele>
        <time>2023-07-16T12:45:54.000Z</time>
      </trkpt>
      <trkpt lat="42.48431" lon="2.40886">
        <ele>2010.4000244141</ele>
        <time>2023-07-16T12:46:01.000Z</time>
      </trkpt>
      <trkpt lat="42.48431" lon="2.40886">
        <ele>2010.8000488281</ele>
        <time>2023-07-16T12:46:03.000Z</time>
      </trkpt>
      <trkpt lat="42.48431" lon="2.40883">
        <ele>2011.8000488281</ele>
        <time>2023-07-16T12:46:08.000Z</time>
      </trkpt>
      <trkpt lat="42.4843" lon="2.40876">
        <ele>2012.4000244141</ele>
        <time>2023-07-16T12:46:18.000Z</time>
      </trkpt>
      <trkpt lat="42.4843" lon="2.40876">
        <ele>2013</ele>
        <time>2023-07-16T12:46:22.000Z</time>
      </trkpt>
      <trkpt lat="42.48429" lon="2.40873">
        <ele>2013.4000244141</ele>
        <time>2023-07-16T12:46:27.000Z</time>
      </trkpt>
      <trkpt lat="42.48429" lon="2.4087">
        <ele>2014</ele>
        <time>2023-07-16T12:46:33.000Z</time>
      </trkpt>
      <trkpt lat="42.48428" lon="2.40867">
        <ele>2014.1999511719</ele>
        <time>2023-07-16T12:46:36.000Z</time>
      </trkpt>
      <trkpt lat="42.48423" lon="2.40862">
        <ele>2015.1999511719</ele>
        <time>2023-07-16T12:46:44.000Z</time>
      </trkpt>
      <trkpt lat="42.48424" lon="2.40862">
        <ele>2015.4000244141</ele>
        <time>2023-07-16T12:46:45.000Z</time>
      </trkpt>
      <trkpt lat="42.48424" lon="2.40859">
        <ele>2016.1999511719</ele>
        <time>2023-07-16T12:46:48.000Z</time>
      </trkpt>
      <trkpt lat="42.48423" lon="2.40854">
        <ele>2017.4000244141</ele>
        <time>2023-07-16T12:46:54.000Z</time>
      </trkpt>
      <trkpt lat="42.48422" lon="2.40853">
        <ele>2018.5999755859</ele>
        <time>2023-07-16T12:46:57.000Z</time>
      </trkpt>
      <trkpt lat="42.48418" lon="2.40847">
        <ele>2019.4000244141</ele>
        <time>2023-07-16T12:47:04.000Z</time>
      </trkpt>
      <trkpt lat="42.48418" lon="2.40846">
        <ele>2019.5999755859</ele>
        <time>2023-07-16T12:47:05.000Z</time>
      </trkpt>
      <trkpt lat="42.48416" lon="2.40841">
        <ele>2021</ele>
        <time>2023-07-16T12:47:12.000Z</time>
      </trkpt>
      <trkpt lat="42.48414" lon="2.40834">
        <ele>2021.8000488281</ele>
        <time>2023-07-16T12:47:18.000Z</time>
      </trkpt>
      <trkpt lat="42.48415" lon="2.40833">
        <ele>2022</ele>
        <time>2023-07-16T12:47:21.000Z</time>
      </trkpt>
      <trkpt lat="42.48415" lon="2.40829">
        <ele>2022.1999511719</ele>
        <time>2023-07-16T12:47:25.000Z</time>
      </trkpt>
      <trkpt lat="42.48414" lon="2.40825">
        <ele>2022.5999755859</ele>
        <time>2023-07-16T12:47:33.000Z</time>
      </trkpt>
      <trkpt lat="42.48413" lon="2.40824">
        <ele>2023</ele>
        <time>2023-07-16T12:47:37.000Z</time>
      </trkpt>
      <trkpt lat="42.48411" lon="2.40823">
        <ele>2023.4000244141</ele>
        <time>2023-07-16T12:47:42.000Z</time>
      </trkpt>
      <trkpt lat="42.48411" lon="2.40821">
        <ele>2024.1999511719</ele>
        <time>2023-07-16T12:47:46.000Z</time>
      </trkpt>
      <trkpt lat="42.48411" lon="2.40819">
        <ele>2025.1999511719</ele>
        <time>2023-07-16T12:47:50.000Z</time>
      </trkpt>
      <trkpt lat="42.48411" lon="2.40819">
        <ele>2025.1999511719</ele>
        <time>2023-07-16T12:47:52.000Z</time>
      </trkpt>
      <trkpt lat="42.48412" lon="2.40818">
        <ele>2026.1999511719</ele>
        <time>2023-07-16T12:47:57.000Z</time>
      </trkpt>
      <trkpt lat="42.48414" lon="2.40819">
        <ele>2026.4000244141</ele>
        <time>2023-07-16T12:47:58.000Z</time>
      </trkpt>
      <trkpt lat="42.48415" lon="2.40809">
        <ele>2027.1999511719</ele>
        <time>2023-07-16T12:48:07.000Z</time>
      </trkpt>
      <trkpt lat="42.48413" lon="2.40808">
        <ele>2027.4000244141</ele>
        <time>2023-07-16T12:48:09.000Z</time>
      </trkpt>
      <trkpt lat="42.48411" lon="2.40805">
        <ele>2028</ele>
        <time>2023-07-16T12:48:15.000Z</time>
      </trkpt>
      <trkpt lat="42.4841" lon="2.40804">
        <ele>2028.5999755859</ele>
        <time>2023-07-16T12:48:18.000Z</time>
      </trkpt>
      <trkpt lat="42.48409" lon="2.40804">
        <ele>2029</ele>
        <time>2023-07-16T12:48:21.000Z</time>
      </trkpt>
      <trkpt lat="42.48409" lon="2.40803">
        <ele>2029.4000244141</ele>
        <time>2023-07-16T12:48:29.000Z</time>
      </trkpt>
      <trkpt lat="42.48412" lon="2.408">
        <ele>2029.8000488281</ele>
        <time>2023-07-16T12:48:33.000Z</time>
      </trkpt>
      <trkpt lat="42.48413" lon="2.40799">
        <ele>2030</ele>
        <time>2023-07-16T12:48:35.000Z</time>
      </trkpt>
      <trkpt lat="42.48414" lon="2.40797">
        <ele>2030.8000488281</ele>
        <time>2023-07-16T12:48:39.000Z</time>
      </trkpt>
      <trkpt lat="42.48414" lon="2.40796">
        <ele>2031.1999511719</ele>
        <time>2023-07-16T12:48:41.000Z</time>
      </trkpt>
      <trkpt lat="42.48412" lon="2.40794">
        <ele>2032</ele>
        <time>2023-07-16T12:48:45.000Z</time>
      </trkpt>
      <trkpt lat="42.48412" lon="2.4079">
        <ele>2032.5999755859</ele>
        <time>2023-07-16T12:48:49.000Z</time>
      </trkpt>
      <trkpt lat="42.48409" lon="2.40786">
        <ele>2033</ele>
        <time>2023-07-16T12:48:53.000Z</time>
      </trkpt>
      <trkpt lat="42.48407" lon="2.40783">
        <ele>2033.8000488281</ele>
        <time>2023-07-16T12:48:58.000Z</time>
      </trkpt>
      <trkpt lat="42.48405" lon="2.4078">
        <ele>2034</ele>
        <time>2023-07-16T12:49:02.000Z</time>
      </trkpt>
      <trkpt lat="42.48403" lon="2.40776">
        <ele>2034.4000244141</ele>
        <time>2023-07-16T12:49:07.000Z</time>
      </trkpt>
      <trkpt lat="42.48404" lon="2.40774">
        <ele>2035.1999511719</ele>
        <time>2023-07-16T12:49:13.000Z</time>
      </trkpt>
      <trkpt lat="42.48404" lon="2.40773">
        <ele>2035.4000244141</ele>
        <time>2023-07-16T12:49:14.000Z</time>
      </trkpt>
      <trkpt lat="42.48404" lon="2.40772">
        <ele>2036.5999755859</ele>
        <time>2023-07-16T12:49:19.000Z</time>
      </trkpt>
      <trkpt lat="42.48404" lon="2.40771">
        <ele>2037.1999511719</ele>
        <time>2023-07-16T12:49:21.000Z</time>
      </trkpt>
      <trkpt lat="42.48399" lon="2.40765">
        <ele>2037.1999511719</ele>
        <time>2023-07-16T12:49:28.000Z</time>
      </trkpt>
      <trkpt lat="42.48397" lon="2.40761">
        <ele>2037.5999755859</ele>
        <time>2023-07-16T12:49:34.000Z</time>
      </trkpt>
      <trkpt lat="42.48397" lon="2.4076">
        <ele>2037.8000488281</ele>
        <time>2023-07-16T12:49:35.000Z</time>
      </trkpt>
      <trkpt lat="42.48397" lon="2.40758">
        <ele>2038.4000244141</ele>
        <time>2023-07-16T12:49:43.000Z</time>
      </trkpt>
      <trkpt lat="42.48395" lon="2.40758">
        <ele>2038.8000488281</ele>
        <time>2023-07-16T12:49:47.000Z</time>
      </trkpt>
      <trkpt lat="42.48395" lon="2.40756">
        <ele>2039.4000244141</ele>
        <time>2023-07-16T12:49:53.000Z</time>
      </trkpt>
      <trkpt lat="42.48395" lon="2.40755">
        <ele>2039.8000488281</ele>
        <time>2023-07-16T12:49:55.000Z</time>
      </trkpt>
      <trkpt lat="42.48395" lon="2.4075">
        <ele>2040.8000488281</ele>
        <time>2023-07-16T12:50:01.000Z</time>
      </trkpt>
      <trkpt lat="42.48395" lon="2.4075">
        <ele>2040.8000488281</ele>
        <time>2023-07-16T12:50:02.000Z</time>
      </trkpt>
      <trkpt lat="42.48395" lon="2.40748">
        <ele>2042</ele>
        <time>2023-07-16T12:50:07.000Z</time>
      </trkpt>
      <trkpt lat="42.48395" lon="2.40745">
        <ele>2043.4000244141</ele>
        <time>2023-07-16T12:50:10.000Z</time>
      </trkpt>
      <trkpt lat="42.48395" lon="2.40744">
        <ele>2044.8000488281</ele>
        <time>2023-07-16T12:50:13.000Z</time>
      </trkpt>
      <trkpt lat="42.48396" lon="2.40743">
        <ele>2046</ele>
        <time>2023-07-16T12:50:15.000Z</time>
      </trkpt>
      <trkpt lat="42.48395" lon="2.40741">
        <ele>2046.5999755859</ele>
        <time>2023-07-16T12:50:18.000Z</time>
      </trkpt>
      <trkpt lat="42.48395" lon="2.4074">
        <ele>2047</ele>
        <time>2023-07-16T12:50:19.000Z</time>
      </trkpt>
      <trkpt lat="42.48394" lon="2.40734">
        <ele>2048</ele>
        <time>2023-07-16T12:50:26.000Z</time>
      </trkpt>
      <trkpt lat="42.48394" lon="2.40728">
        <ele>2047.5999755859</ele>
        <time>2023-07-16T12:50:33.000Z</time>
      </trkpt>
      <trkpt lat="42.48396" lon="2.40722">
        <ele>2047.8000488281</ele>
        <time>2023-07-16T12:50:42.000Z</time>
      </trkpt>
      <trkpt lat="42.48397" lon="2.40719">
        <ele>2048.1999511719</ele>
        <time>2023-07-16T12:50:47.000Z</time>
      </trkpt>
      <trkpt lat="42.48397" lon="2.40719">
        <ele>2048.1999511719</ele>
        <time>2023-07-16T12:50:48.000Z</time>
      </trkpt>
      <trkpt lat="42.48398" lon="2.40716">
        <ele>2049.1999511719</ele>
        <time>2023-07-16T12:50:56.000Z</time>
      </trkpt>
      <trkpt lat="42.48398" lon="2.40712">
        <ele>2050.3999023438</ele>
        <time>2023-07-16T12:51:03.000Z</time>
      </trkpt>
      <trkpt lat="42.48402" lon="2.40712">
        <ele>2051.1999511719</ele>
        <time>2023-07-16T12:51:09.000Z</time>
      </trkpt>
      <trkpt lat="42.48403" lon="2.4071">
        <ele>2051.3999023438</ele>
        <time>2023-07-16T12:51:12.000Z</time>
      </trkpt>
      <trkpt lat="42.48403" lon="2.40705">
        <ele>2052.3999023438</ele>
        <time>2023-07-16T12:51:17.000Z</time>
      </trkpt>
      <trkpt lat="42.48403" lon="2.40705">
        <ele>2052.6000976562</ele>
        <time>2023-07-16T12:51:18.000Z</time>
      </trkpt>
      <trkpt lat="42.48403" lon="2.40705">
        <ele>2053.6000976562</ele>
        <time>2023-07-16T12:51:25.000Z</time>
      </trkpt>
      <trkpt lat="42.48402" lon="2.407">
        <ele>2054.1999511719</ele>
        <time>2023-07-16T12:51:33.000Z</time>
      </trkpt>
      <trkpt lat="42.48402" lon="2.40699">
        <ele>2054.6000976562</ele>
        <time>2023-07-16T12:51:37.000Z</time>
      </trkpt>
      <trkpt lat="42.48403" lon="2.40699">
        <ele>2054.8000488281</ele>
        <time>2023-07-16T12:51:39.000Z</time>
      </trkpt>
      <trkpt lat="42.48405" lon="2.40698">
        <ele>2055.8000488281</ele>
        <time>2023-07-16T12:51:45.000Z</time>
      </trkpt>
      <trkpt lat="42.48406" lon="2.40696">
        <ele>2056</ele>
        <time>2023-07-16T12:51:47.000Z</time>
      </trkpt>
      <trkpt lat="42.48405" lon="2.40692">
        <ele>2056.6000976562</ele>
        <time>2023-07-16T12:51:54.000Z</time>
      </trkpt>
      <trkpt lat="42.48406" lon="2.40692">
        <ele>2056.8000488281</ele>
        <time>2023-07-16T12:51:55.000Z</time>
      </trkpt>
      <trkpt lat="42.48408" lon="2.40696">
        <ele>2057.8000488281</ele>
        <time>2023-07-16T12:52:01.000Z</time>
      </trkpt>
      <trkpt lat="42.48408" lon="2.40695">
        <ele>2058</ele>
        <time>2023-07-16T12:52:02.000Z</time>
      </trkpt>
      <trkpt lat="42.48409" lon="2.40693">
        <ele>2059</ele>
        <time>2023-07-16T12:52:07.000Z</time>
      </trkpt>
      <trkpt lat="42.48407" lon="2.40687">
        <ele>2059.6000976562</ele>
        <time>2023-07-16T12:52:14.000Z</time>
      </trkpt>
      <trkpt lat="42.48407" lon="2.40685">
        <ele>2060</ele>
        <time>2023-07-16T12:52:18.000Z</time>
      </trkpt>
      <trkpt lat="42.48411" lon="2.40685">
        <ele>2060.3999023438</ele>
        <time>2023-07-16T12:52:25.000Z</time>
      </trkpt>
      <trkpt lat="42.48415" lon="2.40683">
        <ele>2059.6000976562</ele>
        <time>2023-07-16T12:52:32.000Z</time>
      </trkpt>
      <trkpt lat="42.48414" lon="2.40686">
        <ele>2060.3999023438</ele>
        <time>2023-07-16T12:52:41.000Z</time>
      </trkpt>
      <trkpt lat="42.48414" lon="2.40684">
        <ele>2061.1999511719</ele>
        <time>2023-07-16T12:52:46.000Z</time>
      </trkpt>
      <trkpt lat="42.48413" lon="2.40684">
        <ele>2061.3999023438</ele>
        <time>2023-07-16T12:52:49.000Z</time>
      </trkpt>
      <trkpt lat="42.48407" lon="2.40684">
        <ele>2062</ele>
        <time>2023-07-16T12:52:57.000Z</time>
      </trkpt>
      <trkpt lat="42.48404" lon="2.40684">
        <ele>2062.1999511719</ele>
        <time>2023-07-16T12:53:03.000Z</time>
      </trkpt>
      <trkpt lat="42.48402" lon="2.40684">
        <ele>2062.8000488281</ele>
        <time>2023-07-16T12:53:07.000Z</time>
      </trkpt>
      <trkpt lat="42.48403" lon="2.40682">
        <ele>2063.1999511719</ele>
        <time>2023-07-16T12:53:12.000Z</time>
      </trkpt>
      <trkpt lat="42.48403" lon="2.4068">
        <ele>2064</ele>
        <time>2023-07-16T12:53:15.000Z</time>
      </trkpt>
      <trkpt lat="42.48403" lon="2.40679">
        <ele>2064.1999511719</ele>
        <time>2023-07-16T12:53:16.000Z</time>
      </trkpt>
      <trkpt lat="42.48401" lon="2.40676">
        <ele>2065.3999023438</ele>
        <time>2023-07-16T12:53:22.000Z</time>
      </trkpt>
      <trkpt lat="42.48401" lon="2.40673">
        <ele>2065.8000488281</ele>
        <time>2023-07-16T12:53:29.000Z</time>
      </trkpt>
      <trkpt lat="42.484" lon="2.40673">
        <ele>2066.3999023438</ele>
        <time>2023-07-16T12:53:33.000Z</time>
      </trkpt>
      <trkpt lat="42.48399" lon="2.40673">
        <ele>2066.8000488281</ele>
        <time>2023-07-16T12:53:36.000Z</time>
      </trkpt>
      <trkpt lat="42.48397" lon="2.40671">
        <ele>2067.6000976562</ele>
        <time>2023-07-16T12:53:39.000Z</time>
      </trkpt>
      <trkpt lat="42.48394" lon="2.4067">
        <ele>2069</ele>
        <time>2023-07-16T12:53:45.000Z</time>
      </trkpt>
      <trkpt lat="42.48397" lon="2.4067">
        <ele>2069.8000488281</ele>
        <time>2023-07-16T12:53:50.000Z</time>
      </trkpt>
      <trkpt lat="42.48397" lon="2.40669">
        <ele>2070.1999511719</ele>
        <time>2023-07-16T12:53:54.000Z</time>
      </trkpt>
      <trkpt lat="42.48395" lon="2.40669">
        <ele>2070.8000488281</ele>
        <time>2023-07-16T12:53:57.000Z</time>
      </trkpt>
      <trkpt lat="42.48394" lon="2.40669">
        <ele>2071.3999023438</ele>
        <time>2023-07-16T12:54:04.000Z</time>
      </trkpt>
      <trkpt lat="42.48391" lon="2.40667">
        <ele>2072.1999511719</ele>
        <time>2023-07-16T12:54:12.000Z</time>
      </trkpt>
      <trkpt lat="42.48391" lon="2.40667">
        <ele>2072.3999023438</ele>
        <time>2023-07-16T12:54:13.000Z</time>
      </trkpt>
      <trkpt lat="42.48391" lon="2.40669">
        <ele>2073.3999023438</ele>
        <time>2023-07-16T12:54:17.000Z</time>
      </trkpt>
      <trkpt lat="42.48387" lon="2.4067">
        <ele>2073.6000976562</ele>
        <time>2023-07-16T12:54:20.000Z</time>
      </trkpt>
      <trkpt lat="42.48386" lon="2.40669">
        <ele>2073.1999511719</ele>
        <time>2023-07-16T12:54:26.000Z</time>
      </trkpt>
      <trkpt lat="42.48385" lon="2.40668">
        <ele>2073.3999023438</ele>
        <time>2023-07-16T12:54:32.000Z</time>
      </trkpt>
      <trkpt lat="42.48384" lon="2.40666">
        <ele>2074.6000976562</ele>
        <time>2023-07-16T12:54:40.000Z</time>
      </trkpt>
      <trkpt lat="42.48384" lon="2.40666">
        <ele>2075</ele>
        <time>2023-07-16T12:54:42.000Z</time>
      </trkpt>
      <trkpt lat="42.48383" lon="2.40667">
        <ele>2075.6000976562</ele>
        <time>2023-07-16T12:54:49.000Z</time>
      </trkpt>
      <trkpt lat="42.48377" lon="2.40672">
        <ele>2076.3999023438</ele>
        <time>2023-07-16T12:54:58.000Z</time>
      </trkpt>
      <trkpt lat="42.48376" lon="2.40671">
        <ele>2076.6000976562</ele>
        <time>2023-07-16T12:55:00.000Z</time>
      </trkpt>
      <trkpt lat="42.48376" lon="2.40667">
        <ele>2077.8000488281</ele>
        <time>2023-07-16T12:55:06.000Z</time>
      </trkpt>
      <trkpt lat="42.48372" lon="2.40664">
        <ele>2078.8000488281</ele>
        <time>2023-07-16T12:55:13.000Z</time>
      </trkpt>
      <trkpt lat="42.48371" lon="2.40662">
        <ele>2079.3999023438</ele>
        <time>2023-07-16T12:55:21.000Z</time>
      </trkpt>
      <trkpt lat="42.48372" lon="2.40665">
        <ele>2079</ele>
        <time>2023-07-16T12:55:31.000Z</time>
      </trkpt>
      <trkpt lat="42.48369" lon="2.40665">
        <ele>2078.8000488281</ele>
        <time>2023-07-16T12:55:40.000Z</time>
      </trkpt>
      <trkpt lat="42.48367" lon="2.40663">
        <ele>2079.1999511719</ele>
        <time>2023-07-16T12:55:48.000Z</time>
      </trkpt>
      <trkpt lat="42.48366" lon="2.40661">
        <ele>2080</ele>
        <time>2023-07-16T12:55:52.000Z</time>
      </trkpt>
      <trkpt lat="42.48365" lon="2.4066">
        <ele>2080.8000488281</ele>
        <time>2023-07-16T12:55:57.000Z</time>
      </trkpt>
      <trkpt lat="42.48365" lon="2.40659">
        <ele>2081.1999511719</ele>
        <time>2023-07-16T12:55:59.000Z</time>
      </trkpt>
      <trkpt lat="42.48366" lon="2.40659">
        <ele>2081.8000488281</ele>
        <time>2023-07-16T12:56:04.000Z</time>
      </trkpt>
      <trkpt lat="42.48365" lon="2.40658">
        <ele>2082.3999023438</ele>
        <time>2023-07-16T12:56:07.000Z</time>
      </trkpt>
      <trkpt lat="42.48364" lon="2.40657">
        <ele>2083.8000488281</ele>
        <time>2023-07-16T12:56:10.000Z</time>
      </trkpt>
      <trkpt lat="42.48363" lon="2.40656">
        <ele>2083.8000488281</ele>
        <time>2023-07-16T12:56:11.000Z</time>
      </trkpt>
      <trkpt lat="42.48363" lon="2.40657">
        <ele>2084.3999023438</ele>
        <time>2023-07-16T12:56:18.000Z</time>
      </trkpt>
      <trkpt lat="42.48364" lon="2.40658">
        <ele>2084.8000488281</ele>
        <time>2023-07-16T12:56:25.000Z</time>
      </trkpt>
      <trkpt lat="42.48363" lon="2.40656">
        <ele>2084.8000488281</ele>
        <time>2023-07-16T12:56:29.000Z</time>
      </trkpt>
      <trkpt lat="42.48363" lon="2.40657">
        <ele>2084.8000488281</ele>
        <time>2023-07-16T12:56:37.000Z</time>
      </trkpt>
      <trkpt lat="42.48365" lon="2.4066">
        <ele>2084.3999023438</ele>
        <time>2023-07-16T12:56:44.000Z</time>
      </trkpt>
      <trkpt lat="42.48362" lon="2.40661">
        <ele>2086</ele>
        <time>2023-07-16T12:56:51.000Z</time>
      </trkpt>
      <trkpt lat="42.48361" lon="2.4066">
        <ele>2086.6000976562</ele>
        <time>2023-07-16T12:56:52.000Z</time>
      </trkpt>
      <trkpt lat="42.48353" lon="2.40661">
        <ele>2086.6000976562</ele>
        <time>2023-07-16T12:57:02.000Z</time>
      </trkpt>
      <trkpt lat="42.48353" lon="2.40663">
        <ele>2086.6000976562</ele>
        <time>2023-07-16T12:57:11.000Z</time>
      </trkpt>
      <trkpt lat="42.48351" lon="2.40662">
        <ele>2086.6000976562</ele>
        <time>2023-07-16T12:57:19.000Z</time>
      </trkpt>
      <trkpt lat="42.48349" lon="2.40662">
        <ele>2087.3999023438</ele>
        <time>2023-07-16T12:57:22.000Z</time>
      </trkpt>
      <trkpt lat="42.48345" lon="2.40664">
        <ele>2088</ele>
        <time>2023-07-16T12:57:26.000Z</time>
      </trkpt>
      <trkpt lat="42.48342" lon="2.40667">
        <ele>2087.6000976562</ele>
        <time>2023-07-16T12:57:34.000Z</time>
      </trkpt>
      <trkpt lat="42.48342" lon="2.40668">
        <ele>2087.8000488281</ele>
        <time>2023-07-16T12:57:38.000Z</time>
      </trkpt>
      <trkpt lat="42.48343" lon="2.4067">
        <ele>2087.3999023438</ele>
        <time>2023-07-16T12:57:41.000Z</time>
      </trkpt>
      <trkpt lat="42.48342" lon="2.4068">
        <ele>2087.1999511719</ele>
        <time>2023-07-16T12:57:48.000Z</time>
      </trkpt>
      <trkpt lat="42.48342" lon="2.40689">
        <ele>2087.8000488281</ele>
        <time>2023-07-16T12:57:55.000Z</time>
      </trkpt>
      <trkpt lat="42.48339" lon="2.40695">
        <ele>2088.3999023438</ele>
        <time>2023-07-16T12:58:02.000Z</time>
      </trkpt>
      <trkpt lat="42.48338" lon="2.40696">
        <ele>2088.3999023438</ele>
        <time>2023-07-16T12:58:03.000Z</time>
      </trkpt>
      <trkpt lat="42.48335" lon="2.407">
        <ele>2088.8000488281</ele>
        <time>2023-07-16T12:58:08.000Z</time>
      </trkpt>
      <trkpt lat="42.48333" lon="2.40706">
        <ele>2089.3999023438</ele>
        <time>2023-07-16T12:58:12.000Z</time>
      </trkpt>
      <trkpt lat="42.48329" lon="2.40712">
        <ele>2089.8000488281</ele>
        <time>2023-07-16T12:58:17.000Z</time>
      </trkpt>
      <trkpt lat="42.48329" lon="2.40709">
        <ele>2090</ele>
        <time>2023-07-16T12:58:24.000Z</time>
      </trkpt>
      <trkpt lat="42.48326" lon="2.40715">
        <ele>2090.1999511719</ele>
        <time>2023-07-16T12:58:32.000Z</time>
      </trkpt>
      <trkpt lat="42.48325" lon="2.40716">
        <ele>2090.3999023438</ele>
        <time>2023-07-16T12:58:34.000Z</time>
      </trkpt>
      <trkpt lat="42.48321" lon="2.4072">
        <ele>2090.8000488281</ele>
        <time>2023-07-16T12:58:42.000Z</time>
      </trkpt>
      <trkpt lat="42.4832" lon="2.40721">
        <ele>2090.8000488281</ele>
        <time>2023-07-16T12:58:49.000Z</time>
      </trkpt>
      <trkpt lat="42.4832" lon="2.40725">
        <ele>2090.8000488281</ele>
        <time>2023-07-16T12:58:57.000Z</time>
      </trkpt>
      <trkpt lat="42.48319" lon="2.40729">
        <ele>2091.6000976562</ele>
        <time>2023-07-16T12:59:01.000Z</time>
      </trkpt>
      <trkpt lat="42.48317" lon="2.40732">
        <ele>2092.1999511719</ele>
        <time>2023-07-16T12:59:03.000Z</time>
      </trkpt>
      <trkpt lat="42.48316" lon="2.40735">
        <ele>2093</ele>
        <time>2023-07-16T12:59:05.000Z</time>
      </trkpt>
      <trkpt lat="42.48314" lon="2.40741">
        <ele>2093.8000488281</ele>
        <time>2023-07-16T12:59:10.000Z</time>
      </trkpt>
      <trkpt lat="42.48314" lon="2.40742">
        <ele>2094</ele>
        <time>2023-07-16T12:59:11.000Z</time>
      </trkpt>
      <trkpt lat="42.48312" lon="2.40747">
        <ele>2094.8000488281</ele>
        <time>2023-07-16T12:59:16.000Z</time>
      </trkpt>
      <trkpt lat="42.48312" lon="2.40748">
        <ele>2095</ele>
        <time>2023-07-16T12:59:19.000Z</time>
      </trkpt>
      <trkpt lat="42.4831" lon="2.40751">
        <ele>2095.6000976562</ele>
        <time>2023-07-16T12:59:23.000Z</time>
      </trkpt>
      <trkpt lat="42.48307" lon="2.40759">
        <ele>2096.1999511719</ele>
        <time>2023-07-16T12:59:28.000Z</time>
      </trkpt>
      <trkpt lat="42.48306" lon="2.40762">
        <ele>2096.1999511719</ele>
        <time>2023-07-16T12:59:31.000Z</time>
      </trkpt>
      <trkpt lat="42.48303" lon="2.40771">
        <ele>2096.3999023438</ele>
        <time>2023-07-16T12:59:38.000Z</time>
      </trkpt>
      <trkpt lat="42.483" lon="2.40774">
        <ele>2097.1999511719</ele>
        <time>2023-07-16T12:59:43.000Z</time>
      </trkpt>
      <trkpt lat="42.48299" lon="2.40776">
        <ele>2098</ele>
        <time>2023-07-16T12:59:47.000Z</time>
      </trkpt>
      <trkpt lat="42.48298" lon="2.4078">
        <ele>2098.3999023438</ele>
        <time>2023-07-16T12:59:51.000Z</time>
      </trkpt>
      <trkpt lat="42.48297" lon="2.40787">
        <ele>2099.1999511719</ele>
        <time>2023-07-16T12:59:56.000Z</time>
      </trkpt>
      <trkpt lat="42.48297" lon="2.40795">
        <ele>2099.3999023438</ele>
        <time>2023-07-16T13:00:02.000Z</time>
      </trkpt>
      <trkpt lat="42.48296" lon="2.40797">
        <ele>2099.3999023438</ele>
        <time>2023-07-16T13:00:03.000Z</time>
      </trkpt>
      <trkpt lat="42.48295" lon="2.40802">
        <ele>2099.8000488281</ele>
        <time>2023-07-16T13:00:09.000Z</time>
      </trkpt>
      <trkpt lat="42.48294" lon="2.4081">
        <ele>2099.1999511719</ele>
        <time>2023-07-16T13:00:19.000Z</time>
      </trkpt>
      <trkpt lat="42.4829" lon="2.40816">
        <ele>2099.1999511719</ele>
        <time>2023-07-16T13:00:26.000Z</time>
      </trkpt>
      <trkpt lat="42.48286" lon="2.40825">
        <ele>2100.1999511719</ele>
        <time>2023-07-16T13:00:35.000Z</time>
      </trkpt>
      <trkpt lat="42.48286" lon="2.40825">
        <ele>2100.3999023438</ele>
        <time>2023-07-16T13:00:37.000Z</time>
      </trkpt>
      <trkpt lat="42.48284" lon="2.40828">
        <ele>2100.6000976562</ele>
        <time>2023-07-16T13:00:41.000Z</time>
      </trkpt>
      <trkpt lat="42.48282" lon="2.40835">
        <ele>2101.3999023438</ele>
        <time>2023-07-16T13:00:47.000Z</time>
      </trkpt>
      <trkpt lat="42.48282" lon="2.40837">
        <ele>2101.6000976562</ele>
        <time>2023-07-16T13:00:49.000Z</time>
      </trkpt>
      <trkpt lat="42.48281" lon="2.40841">
        <ele>2101.8000488281</ele>
        <time>2023-07-16T13:00:53.000Z</time>
      </trkpt>
      <trkpt lat="42.48279" lon="2.40852">
        <ele>2102.6000976562</ele>
        <time>2023-07-16T13:01:00.000Z</time>
      </trkpt>
      <trkpt lat="42.48276" lon="2.40858">
        <ele>2103</ele>
        <time>2023-07-16T13:01:06.000Z</time>
      </trkpt>
      <trkpt lat="42.48273" lon="2.40863">
        <ele>2103.6000976562</ele>
        <time>2023-07-16T13:01:11.000Z</time>
      </trkpt>
      <trkpt lat="42.48272" lon="2.40865">
        <ele>2104</ele>
        <time>2023-07-16T13:01:13.000Z</time>
      </trkpt>
      <trkpt lat="42.48269" lon="2.40871">
        <ele>2104.8000488281</ele>
        <time>2023-07-16T13:01:20.000Z</time>
      </trkpt>
      <trkpt lat="42.48268" lon="2.40874">
        <ele>2104.8000488281</ele>
        <time>2023-07-16T13:01:23.000Z</time>
      </trkpt>
      <trkpt lat="42.48261" lon="2.40883">
        <ele>2105.1999511719</ele>
        <time>2023-07-16T13:01:31.000Z</time>
      </trkpt>
      <trkpt lat="42.48257" lon="2.40886">
        <ele>2105.8000488281</ele>
        <time>2023-07-16T13:01:36.000Z</time>
      </trkpt>
      <trkpt lat="42.48255" lon="2.40889">
        <ele>2105.8000488281</ele>
        <time>2023-07-16T13:01:39.000Z</time>
      </trkpt>
      <trkpt lat="42.4825" lon="2.40893">
        <ele>2106.6000976562</ele>
        <time>2023-07-16T13:01:45.000Z</time>
      </trkpt>
      <trkpt lat="42.4825" lon="2.40893">
        <ele>2106.8000488281</ele>
        <time>2023-07-16T13:01:46.000Z</time>
      </trkpt>
      <trkpt lat="42.48244" lon="2.40901">
        <ele>2107.3999023438</ele>
        <time>2023-07-16T13:01:52.000Z</time>
      </trkpt>
      <trkpt lat="42.48242" lon="2.40907">
        <ele>2107.6000976562</ele>
        <time>2023-07-16T13:01:59.000Z</time>
      </trkpt>
      <trkpt lat="42.48241" lon="2.40909">
        <ele>2107.8000488281</ele>
        <time>2023-07-16T13:02:02.000Z</time>
      </trkpt>
      <trkpt lat="42.48238" lon="2.40913">
        <ele>2108.6000976562</ele>
        <time>2023-07-16T13:02:07.000Z</time>
      </trkpt>
      <trkpt lat="42.48237" lon="2.40915">
        <ele>2109</ele>
        <time>2023-07-16T13:02:10.000Z</time>
      </trkpt>
      <trkpt lat="42.48235" lon="2.40917">
        <ele>2110.1999511719</ele>
        <time>2023-07-16T13:02:13.000Z</time>
      </trkpt>
      <trkpt lat="42.48232" lon="2.40921">
        <ele>2111.1999511719</ele>
        <time>2023-07-16T13:02:17.000Z</time>
      </trkpt>
      <trkpt lat="42.48228" lon="2.40924">
        <ele>2111.1999511719</ele>
        <time>2023-07-16T13:02:25.000Z</time>
      </trkpt>
      <trkpt lat="42.48228" lon="2.40924">
        <ele>2111.1999511719</ele>
        <time>2023-07-16T13:02:27.000Z</time>
      </trkpt>
      <trkpt lat="42.48228" lon="2.40924">
        <ele>2110.6000976562</ele>
        <time>2023-07-16T13:02:31.000Z</time>
      </trkpt>
      <trkpt lat="42.48228" lon="2.40924">
        <ele>2110.6000976562</ele>
        <time>2023-07-16T13:02:33.000Z</time>
      </trkpt>
      <trkpt lat="42.48226" lon="2.40921">
        <ele>2111.6000976562</ele>
        <time>2023-07-16T13:02:38.000Z</time>
      </trkpt>
      <trkpt lat="42.48226" lon="2.40923">
        <ele>2112</ele>
        <time>2023-07-16T13:02:42.000Z</time>
      </trkpt>
      <trkpt lat="42.48224" lon="2.40926">
        <ele>2111.8000488281</ele>
        <time>2023-07-16T13:02:47.000Z</time>
      </trkpt>
      <trkpt lat="42.4822" lon="2.40929">
        <ele>2112.1999511719</ele>
        <time>2023-07-16T13:02:53.000Z</time>
      </trkpt>
      <trkpt lat="42.48215" lon="2.4093">
        <ele>2112.6000976562</ele>
        <time>2023-07-16T13:03:00.000Z</time>
      </trkpt>
      <trkpt lat="42.48213" lon="2.40932">
        <ele>2113</ele>
        <time>2023-07-16T13:03:02.000Z</time>
      </trkpt>
      <trkpt lat="42.48204" lon="2.40939">
        <ele>2113.8000488281</ele>
        <time>2023-07-16T13:03:10.000Z</time>
      </trkpt>
      <trkpt lat="42.48202" lon="2.4094">
        <ele>2114</ele>
        <time>2023-07-16T13:03:12.000Z</time>
      </trkpt>
      <trkpt lat="42.48196" lon="2.40942">
        <ele>2114.8000488281</ele>
        <time>2023-07-16T13:03:19.000Z</time>
      </trkpt>
      <trkpt lat="42.48192" lon="2.40945">
        <ele>2115.3999023438</ele>
        <time>2023-07-16T13:03:25.000Z</time>
      </trkpt>
      <trkpt lat="42.48188" lon="2.40946">
        <ele>2115.6000976562</ele>
        <time>2023-07-16T13:03:31.000Z</time>
      </trkpt>
      <trkpt lat="42.48187" lon="2.40948">
        <ele>2115.8000488281</ele>
        <time>2023-07-16T13:03:34.000Z</time>
      </trkpt>
      <trkpt lat="42.48185" lon="2.40951">
        <ele>2116.1999511719</ele>
        <time>2023-07-16T13:03:38.000Z</time>
      </trkpt>
      <trkpt lat="42.48175" lon="2.40956">
        <ele>2116.8000488281</ele>
        <time>2023-07-16T13:03:47.000Z</time>
      </trkpt>
      <trkpt lat="42.4817" lon="2.40958">
        <ele>2117</ele>
        <time>2023-07-16T13:03:50.000Z</time>
      </trkpt>
      <trkpt lat="42.48164" lon="2.40964">
        <ele>2117.6000976562</ele>
        <time>2023-07-16T13:03:55.000Z</time>
      </trkpt>
      <trkpt lat="42.48162" lon="2.40965">
        <ele>2118</ele>
        <time>2023-07-16T13:03:58.000Z</time>
      </trkpt>
      <trkpt lat="42.48158" lon="2.40967">
        <ele>2118.1999511719</ele>
        <time>2023-07-16T13:04:02.000Z</time>
      </trkpt>
      <trkpt lat="42.48153" lon="2.40971">
        <ele>2119</ele>
        <time>2023-07-16T13:04:08.000Z</time>
      </trkpt>
      <trkpt lat="42.48151" lon="2.40972">
        <ele>2119.3999023438</ele>
        <time>2023-07-16T13:04:11.000Z</time>
      </trkpt>
      <trkpt lat="42.48147" lon="2.40976">
        <ele>2120</ele>
        <time>2023-07-16T13:04:17.000Z</time>
      </trkpt>
      <trkpt lat="42.48146" lon="2.40978">
        <ele>2120.1999511719</ele>
        <time>2023-07-16T13:04:18.000Z</time>
      </trkpt>
      <trkpt lat="42.48142" lon="2.40987">
        <ele>2121</ele>
        <time>2023-07-16T13:04:24.000Z</time>
      </trkpt>
      <trkpt lat="42.48142" lon="2.40988">
        <ele>2121.1999511719</ele>
        <time>2023-07-16T13:04:25.000Z</time>
      </trkpt>
      <trkpt lat="42.4814" lon="2.40995">
        <ele>2121.6000976562</ele>
        <time>2023-07-16T13:04:32.000Z</time>
      </trkpt>
      <trkpt lat="42.48136" lon="2.41003">
        <ele>2122.1999511719</ele>
        <time>2023-07-16T13:04:38.000Z</time>
      </trkpt>
      <trkpt lat="42.48134" lon="2.41007">
        <ele>2122.6000976562</ele>
        <time>2023-07-16T13:04:42.000Z</time>
      </trkpt>
      <trkpt lat="42.48133" lon="2.4101">
        <ele>2123.3999023438</ele>
        <time>2023-07-16T13:04:48.000Z</time>
      </trkpt>
      <trkpt lat="42.48133" lon="2.4101">
        <ele>2123.6000976562</ele>
        <time>2023-07-16T13:04:51.000Z</time>
      </trkpt>
      <trkpt lat="42.48132" lon="2.41012">
        <ele>2123.6000976562</ele>
        <time>2023-07-16T13:04:58.000Z</time>
      </trkpt>
      <trkpt lat="42.48129" lon="2.41013">
        <ele>2123.6000976562</ele>
        <time>2023-07-16T13:05:06.000Z</time>
      </trkpt>
      <trkpt lat="42.48126" lon="2.41012">
        <ele>2123</ele>
        <time>2023-07-16T13:05:16.000Z</time>
      </trkpt>
      <trkpt lat="42.48126" lon="2.4101">
        <ele>2123</ele>
        <time>2023-07-16T13:05:25.000Z</time>
      </trkpt>
      <trkpt lat="42.48125" lon="2.41008">
        <ele>2123.1999511719</ele>
        <time>2023-07-16T13:05:36.000Z</time>
      </trkpt>
      <trkpt lat="42.48126" lon="2.41005">
        <ele>2123.1999511719</ele>
        <time>2023-07-16T13:05:45.000Z</time>
      </trkpt>
      <trkpt lat="42.48118" lon="2.41002">
        <ele>2123.3999023438</ele>
        <time>2023-07-16T13:05:54.000Z</time>
      </trkpt>
      <trkpt lat="42.48123" lon="2.41004">
        <ele>2123.3999023438</ele>
        <time>2023-07-16T13:06:02.000Z</time>
      </trkpt>
      <trkpt lat="42.48125" lon="2.41002">
        <ele>2124</ele>
        <time>2023-07-16T13:06:11.000Z</time>
      </trkpt>
      <trkpt lat="42.48125" lon="2.4101">
        <ele>2124.1999511719</ele>
        <time>2023-07-16T13:06:16.000Z</time>
      </trkpt>
      <trkpt lat="42.48123" lon="2.41017">
        <ele>2124.3999023438</ele>
        <time>2023-07-16T13:06:20.000Z</time>
      </trkpt>
      <trkpt lat="42.48121" lon="2.4102">
        <ele>2124.6000976562</ele>
        <time>2023-07-16T13:06:22.000Z</time>
      </trkpt>
      <trkpt lat="42.48118" lon="2.41027">
        <ele>2124.8000488281</ele>
        <time>2023-07-16T13:06:28.000Z</time>
      </trkpt>
      <trkpt lat="42.48113" lon="2.41033">
        <ele>2125.3999023438</ele>
        <time>2023-07-16T13:06:35.000Z</time>
      </trkpt>
      <trkpt lat="42.48112" lon="2.41035">
        <ele>2125.3999023438</ele>
        <time>2023-07-16T13:06:37.000Z</time>
      </trkpt>
      <trkpt lat="42.48106" lon="2.41041">
        <ele>2126</ele>
        <time>2023-07-16T13:06:44.000Z</time>
      </trkpt>
      <trkpt lat="42.48101" lon="2.41047">
        <ele>2126.6000976562</ele>
        <time>2023-07-16T13:06:48.000Z</time>
      </trkpt>
      <trkpt lat="42.48099" lon="2.4105">
        <ele>2127.1999511719</ele>
        <time>2023-07-16T13:06:51.000Z</time>
      </trkpt>
      <trkpt lat="42.48096" lon="2.41054">
        <ele>2127.8000488281</ele>
        <time>2023-07-16T13:06:55.000Z</time>
      </trkpt>
      <trkpt lat="42.48093" lon="2.41058">
        <ele>2128</ele>
        <time>2023-07-16T13:06:59.000Z</time>
      </trkpt>
      <trkpt lat="42.48087" lon="2.41066">
        <ele>2128.8000488281</ele>
        <time>2023-07-16T13:07:07.000Z</time>
      </trkpt>
      <trkpt lat="42.48085" lon="2.41069">
        <ele>2128.8000488281</ele>
        <time>2023-07-16T13:07:09.000Z</time>
      </trkpt>
      <trkpt lat="42.48081" lon="2.41075">
        <ele>2128.8000488281</ele>
        <time>2023-07-16T13:07:16.000Z</time>
      </trkpt>
      <trkpt lat="42.48079" lon="2.41079">
        <ele>2129.8000488281</ele>
        <time>2023-07-16T13:07:19.000Z</time>
      </trkpt>
      <trkpt lat="42.48074" lon="2.41085">
        <ele>2130.3999023438</ele>
        <time>2023-07-16T13:07:24.000Z</time>
      </trkpt>
      <trkpt lat="42.48068" lon="2.41087">
        <ele>2130.8000488281</ele>
        <time>2023-07-16T13:07:28.000Z</time>
      </trkpt>
      <trkpt lat="42.48064" lon="2.4109">
        <ele>2131</ele>
        <time>2023-07-16T13:07:32.000Z</time>
      </trkpt>
      <trkpt lat="42.48062" lon="2.41096">
        <ele>2132</ele>
        <time>2023-07-16T13:07:36.000Z</time>
      </trkpt>
      <trkpt lat="42.4806" lon="2.41101">
        <ele>2132.6000976562</ele>
        <time>2023-07-16T13:07:40.000Z</time>
      </trkpt>
      <trkpt lat="42.48058" lon="2.41105">
        <ele>2133.1999511719</ele>
        <time>2023-07-16T13:07:43.000Z</time>
      </trkpt>
      <trkpt lat="42.48054" lon="2.41113">
        <ele>2133.8000488281</ele>
        <time>2023-07-16T13:07:49.000Z</time>
      </trkpt>
      <trkpt lat="42.48053" lon="2.41115">
        <ele>2134.1999511719</ele>
        <time>2023-07-16T13:07:51.000Z</time>
      </trkpt>
      <trkpt lat="42.48048" lon="2.41118">
        <ele>2135.1999511719</ele>
        <time>2023-07-16T13:07:56.000Z</time>
      </trkpt>
      <trkpt lat="42.48046" lon="2.4112">
        <ele>2135.1999511719</ele>
        <time>2023-07-16T13:07:57.000Z</time>
      </trkpt>
      <trkpt lat="42.48039" lon="2.41126">
        <ele>2135.6000976562</ele>
        <time>2023-07-16T13:08:05.000Z</time>
      </trkpt>
      <trkpt lat="42.48034" lon="2.41131">
        <ele>2136.3999023438</ele>
        <time>2023-07-16T13:08:12.000Z</time>
      </trkpt>
      <trkpt lat="42.48029" lon="2.41138">
        <ele>2136.8000488281</ele>
        <time>2023-07-16T13:08:18.000Z</time>
      </trkpt>
      <trkpt lat="42.48025" lon="2.41142">
        <ele>2137.3999023438</ele>
        <time>2023-07-16T13:08:23.000Z</time>
      </trkpt>
      <trkpt lat="42.48021" lon="2.41146">
        <ele>2137.8000488281</ele>
        <time>2023-07-16T13:08:26.000Z</time>
      </trkpt>
      <trkpt lat="42.48014" lon="2.41155">
        <ele>2138.1999511719</ele>
        <time>2023-07-16T13:08:35.000Z</time>
      </trkpt>
      <trkpt lat="42.4801" lon="2.4116">
        <ele>2138.3999023438</ele>
        <time>2023-07-16T13:08:39.000Z</time>
      </trkpt>
      <trkpt lat="42.48005" lon="2.41163">
        <ele>2138.6000976562</ele>
        <time>2023-07-16T13:08:43.000Z</time>
      </trkpt>
      <trkpt lat="42.47997" lon="2.41173">
        <ele>2139</ele>
        <time>2023-07-16T13:08:53.000Z</time>
      </trkpt>
      <trkpt lat="42.47995" lon="2.41177">
        <ele>2139.3999023438</ele>
        <time>2023-07-16T13:08:56.000Z</time>
      </trkpt>
      <trkpt lat="42.47992" lon="2.4118">
        <ele>2139.8000488281</ele>
        <time>2023-07-16T13:09:00.000Z</time>
      </trkpt>
      <trkpt lat="42.47986" lon="2.41185">
        <ele>2140.3999023438</ele>
        <time>2023-07-16T13:09:07.000Z</time>
      </trkpt>
      <trkpt lat="42.47984" lon="2.41187">
        <ele>2140.6000976562</ele>
        <time>2023-07-16T13:09:08.000Z</time>
      </trkpt>
      <trkpt lat="42.47981" lon="2.41192">
        <ele>2141.8000488281</ele>
        <time>2023-07-16T13:09:14.000Z</time>
      </trkpt>
      <trkpt lat="42.47976" lon="2.41198">
        <ele>2142.8000488281</ele>
        <time>2023-07-16T13:09:20.000Z</time>
      </trkpt>
      <trkpt lat="42.47974" lon="2.41199">
        <ele>2143.1999511719</ele>
        <time>2023-07-16T13:09:22.000Z</time>
      </trkpt>
      <trkpt lat="42.47966" lon="2.41207">
        <ele>2143.8000488281</ele>
        <time>2023-07-16T13:09:30.000Z</time>
      </trkpt>
      <trkpt lat="42.47965" lon="2.41207">
        <ele>2144</ele>
        <time>2023-07-16T13:09:32.000Z</time>
      </trkpt>
      <trkpt lat="42.47959" lon="2.41211">
        <ele>2145</ele>
        <time>2023-07-16T13:09:39.000Z</time>
      </trkpt>
      <trkpt lat="42.47954" lon="2.41217">
        <ele>2146</ele>
        <time>2023-07-16T13:09:46.000Z</time>
      </trkpt>
      <trkpt lat="42.4795" lon="2.41222">
        <ele>2147.1999511719</ele>
        <time>2023-07-16T13:09:52.000Z</time>
      </trkpt>
      <trkpt lat="42.47942" lon="2.41229">
        <ele>2148.1999511719</ele>
        <time>2023-07-16T13:10:01.000Z</time>
      </trkpt>
      <trkpt lat="42.47937" lon="2.41233">
        <ele>2148.6000976562</ele>
        <time>2023-07-16T13:10:07.000Z</time>
      </trkpt>
      <trkpt lat="42.47934" lon="2.41236">
        <ele>2149.1999511719</ele>
        <time>2023-07-16T13:10:09.000Z</time>
      </trkpt>
      <trkpt lat="42.47929" lon="2.4124">
        <ele>2150.1999511719</ele>
        <time>2023-07-16T13:10:13.000Z</time>
      </trkpt>
      <trkpt lat="42.47928" lon="2.41241">
        <ele>2150.1999511719</ele>
        <time>2023-07-16T13:10:15.000Z</time>
      </trkpt>
      <trkpt lat="42.47925" lon="2.41245">
        <ele>2150.8000488281</ele>
        <time>2023-07-16T13:10:20.000Z</time>
      </trkpt>
      <trkpt lat="42.47922" lon="2.41249">
        <ele>2151.3999023438</ele>
        <time>2023-07-16T13:10:24.000Z</time>
      </trkpt>
      <trkpt lat="42.4792" lon="2.41253">
        <ele>2152</ele>
        <time>2023-07-16T13:10:28.000Z</time>
      </trkpt>
      <trkpt lat="42.47916" lon="2.41258">
        <ele>2152.3999023438</ele>
        <time>2023-07-16T13:10:33.000Z</time>
      </trkpt>
      <trkpt lat="42.47914" lon="2.41263">
        <ele>2152.6000976562</ele>
        <time>2023-07-16T13:10:37.000Z</time>
      </trkpt>
      <trkpt lat="42.47907" lon="2.4127">
        <ele>2153.3999023438</ele>
        <time>2023-07-16T13:10:45.000Z</time>
      </trkpt>
      <trkpt lat="42.47903" lon="2.41275">
        <ele>2154.3999023438</ele>
        <time>2023-07-16T13:10:52.000Z</time>
      </trkpt>
      <trkpt lat="42.47902" lon="2.41276">
        <ele>2154.6000976562</ele>
        <time>2023-07-16T13:10:53.000Z</time>
      </trkpt>
      <trkpt lat="42.47896" lon="2.41286">
        <ele>2155.6000976562</ele>
        <time>2023-07-16T13:11:02.000Z</time>
      </trkpt>
      <trkpt lat="42.47895" lon="2.41287">
        <ele>2155.8000488281</ele>
        <time>2023-07-16T13:11:03.000Z</time>
      </trkpt>
      <trkpt lat="42.47892" lon="2.41294">
        <ele>2156.6000976562</ele>
        <time>2023-07-16T13:11:09.000Z</time>
      </trkpt>
      <trkpt lat="42.47891" lon="2.41296">
        <ele>2156.8000488281</ele>
        <time>2023-07-16T13:11:10.000Z</time>
      </trkpt>
      <trkpt lat="42.47888" lon="2.41304">
        <ele>2157.6000976562</ele>
        <time>2023-07-16T13:11:17.000Z</time>
      </trkpt>
      <trkpt lat="42.47886" lon="2.41306">
        <ele>2158</ele>
        <time>2023-07-16T13:11:19.000Z</time>
      </trkpt>
      <trkpt lat="42.47881" lon="2.41313">
        <ele>2158.6000976562</ele>
        <time>2023-07-16T13:11:26.000Z</time>
      </trkpt>
      <trkpt lat="42.47878" lon="2.41316">
        <ele>2159</ele>
        <time>2023-07-16T13:11:29.000Z</time>
      </trkpt>
      <trkpt lat="42.47873" lon="2.41323">
        <ele>2159.8000488281</ele>
        <time>2023-07-16T13:11:37.000Z</time>
      </trkpt>
      <trkpt lat="42.47867" lon="2.41331">
        <ele>2160.1999511719</ele>
        <time>2023-07-16T13:11:44.000Z</time>
      </trkpt>
      <trkpt lat="42.47864" lon="2.41336">
        <ele>2160.8000488281</ele>
        <time>2023-07-16T13:11:48.000Z</time>
      </trkpt>
      <trkpt lat="42.47862" lon="2.41339">
        <ele>2161</ele>
        <time>2023-07-16T13:11:51.000Z</time>
      </trkpt>
      <trkpt lat="42.47859" lon="2.41345">
        <ele>2161.6000976562</ele>
        <time>2023-07-16T13:11:57.000Z</time>
      </trkpt>
      <trkpt lat="42.47858" lon="2.41347">
        <ele>2161.8000488281</ele>
        <time>2023-07-16T13:11:59.000Z</time>
      </trkpt>
      <trkpt lat="42.47856" lon="2.41357">
        <ele>2162.3999023438</ele>
        <time>2023-07-16T13:12:06.000Z</time>
      </trkpt>
      <trkpt lat="42.47854" lon="2.41365">
        <ele>2163</ele>
        <time>2023-07-16T13:12:12.000Z</time>
      </trkpt>
      <trkpt lat="42.47849" lon="2.41374">
        <ele>2164</ele>
        <time>2023-07-16T13:12:21.000Z</time>
      </trkpt>
      <trkpt lat="42.47846" lon="2.41381">
        <ele>2164.6000976562</ele>
        <time>2023-07-16T13:12:27.000Z</time>
      </trkpt>
      <trkpt lat="42.47844" lon="2.41386">
        <ele>2165</ele>
        <time>2023-07-16T13:12:30.000Z</time>
      </trkpt>
      <trkpt lat="42.47843" lon="2.41389">
        <ele>2165.3999023438</ele>
        <time>2023-07-16T13:12:33.000Z</time>
      </trkpt>
      <trkpt lat="42.47839" lon="2.414">
        <ele>2165.8000488281</ele>
        <time>2023-07-16T13:12:40.000Z</time>
      </trkpt>
      <trkpt lat="42.47838" lon="2.41404">
        <ele>2166</ele>
        <time>2023-07-16T13:12:42.000Z</time>
      </trkpt>
      <trkpt lat="42.47836" lon="2.41412">
        <ele>2166.6000976562</ele>
        <time>2023-07-16T13:12:48.000Z</time>
      </trkpt>
      <trkpt lat="42.47833" lon="2.41417">
        <ele>2167.1999511719</ele>
        <time>2023-07-16T13:12:53.000Z</time>
      </trkpt>
      <trkpt lat="42.47833" lon="2.41419">
        <ele>2167.1999511719</ele>
        <time>2023-07-16T13:12:54.000Z</time>
      </trkpt>
      <trkpt lat="42.4783" lon="2.41426">
        <ele>2168.1999511719</ele>
        <time>2023-07-16T13:13:01.000Z</time>
      </trkpt>
      <trkpt lat="42.47829" lon="2.41436">
        <ele>2169.3999023438</ele>
        <time>2023-07-16T13:13:09.000Z</time>
      </trkpt>
      <trkpt lat="42.47828" lon="2.41438">
        <ele>2169.6000976562</ele>
        <time>2023-07-16T13:13:11.000Z</time>
      </trkpt>
      <trkpt lat="42.47823" lon="2.41449">
        <ele>2170.3999023438</ele>
        <time>2023-07-16T13:13:18.000Z</time>
      </trkpt>
      <trkpt lat="42.47822" lon="2.4145">
        <ele>2170.6000976562</ele>
        <time>2023-07-16T13:13:19.000Z</time>
      </trkpt>
      <trkpt lat="42.47818" lon="2.4146">
        <ele>2171.1999511719</ele>
        <time>2023-07-16T13:13:26.000Z</time>
      </trkpt>
      <trkpt lat="42.47818" lon="2.41463">
        <ele>2171.6000976562</ele>
        <time>2023-07-16T13:13:28.000Z</time>
      </trkpt>
      <trkpt lat="42.47815" lon="2.4147">
        <ele>2172.3999023438</ele>
        <time>2023-07-16T13:13:34.000Z</time>
      </trkpt>
      <trkpt lat="42.47814" lon="2.41474">
        <ele>2172.8000488281</ele>
        <time>2023-07-16T13:13:37.000Z</time>
      </trkpt>
      <trkpt lat="42.47812" lon="2.41477">
        <ele>2173</ele>
        <time>2023-07-16T13:13:40.000Z</time>
      </trkpt>
      <trkpt lat="42.47808" lon="2.41484">
        <ele>2173.8000488281</ele>
        <time>2023-07-16T13:13:46.000Z</time>
      </trkpt>
      <trkpt lat="42.47807" lon="2.41487">
        <ele>2174</ele>
        <time>2023-07-16T13:13:48.000Z</time>
      </trkpt>
      <trkpt lat="42.47805" lon="2.41494">
        <ele>2174.8000488281</ele>
        <time>2023-07-16T13:13:55.000Z</time>
      </trkpt>
      <trkpt lat="42.47805" lon="2.41495">
        <ele>2175</ele>
        <time>2023-07-16T13:13:56.000Z</time>
      </trkpt>
      <trkpt lat="42.47806" lon="2.41494">
        <ele>2175</ele>
        <time>2023-07-16T13:14:00.000Z</time>
      </trkpt>
      <trkpt lat="42.47806" lon="2.41493">
        <ele>2175</ele>
        <time>2023-07-16T13:14:02.000Z</time>
      </trkpt>
      <trkpt lat="42.47806" lon="2.4149">
        <ele>2174.6000976562</ele>
        <time>2023-07-16T13:14:14.000Z</time>
      </trkpt>
      <trkpt lat="42.47807" lon="2.41492">
        <ele>2174.3999023438</ele>
        <time>2023-07-16T13:14:23.000Z</time>
      </trkpt>
      <trkpt lat="42.47805" lon="2.41496">
        <ele>2174.1999511719</ele>
        <time>2023-07-16T13:14:29.000Z</time>
      </trkpt>
      <trkpt lat="42.47801" lon="2.41506">
        <ele>2175.1999511719</ele>
        <time>2023-07-16T13:14:36.000Z</time>
      </trkpt>
      <trkpt lat="42.47797" lon="2.41517">
        <ele>2175.6000976562</ele>
        <time>2023-07-16T13:14:43.000Z</time>
      </trkpt>
      <trkpt lat="42.47795" lon="2.41522">
        <ele>2176</ele>
        <time>2023-07-16T13:14:46.000Z</time>
      </trkpt>
      <trkpt lat="42.47791" lon="2.41528">
        <ele>2176.6000976562</ele>
        <time>2023-07-16T13:14:52.000Z</time>
      </trkpt>
      <trkpt lat="42.47788" lon="2.41533">
        <ele>2177</ele>
        <time>2023-07-16T13:14:56.000Z</time>
      </trkpt>
      <trkpt lat="42.47785" lon="2.41537">
        <ele>2177.8000488281</ele>
        <time>2023-07-16T13:14:59.000Z</time>
      </trkpt>
      <trkpt lat="42.47784" lon="2.4154">
        <ele>2178.1999511719</ele>
        <time>2023-07-16T13:15:02.000Z</time>
      </trkpt>
      <trkpt lat="42.47783" lon="2.41547">
        <ele>2179</ele>
        <time>2023-07-16T13:15:07.000Z</time>
      </trkpt>
      <trkpt lat="42.47783" lon="2.41546">
        <ele>2179.1999511719</ele>
        <time>2023-07-16T13:15:10.000Z</time>
      </trkpt>
      <trkpt lat="42.47783" lon="2.41547">
        <ele>2179.3999023438</ele>
        <time>2023-07-16T13:15:13.000Z</time>
      </trkpt>
      <trkpt lat="42.47778" lon="2.4156">
        <ele>2180</ele>
        <time>2023-07-16T13:15:22.000Z</time>
      </trkpt>
      <trkpt lat="42.47774" lon="2.41569">
        <ele>2180.1999511719</ele>
        <time>2023-07-16T13:15:29.000Z</time>
      </trkpt>
      <trkpt lat="42.47771" lon="2.41573">
        <ele>2180.6000976562</ele>
        <time>2023-07-16T13:15:33.000Z</time>
      </trkpt>
      <trkpt lat="42.47767" lon="2.4158">
        <ele>2181.3999023438</ele>
        <time>2023-07-16T13:15:38.000Z</time>
      </trkpt>
      <trkpt lat="42.47764" lon="2.41586">
        <ele>2182</ele>
        <time>2023-07-16T13:15:43.000Z</time>
      </trkpt>
      <trkpt lat="42.47762" lon="2.4159">
        <ele>2182.6000976562</ele>
        <time>2023-07-16T13:15:47.000Z</time>
      </trkpt>
      <trkpt lat="42.47759" lon="2.41595">
        <ele>2183</ele>
        <time>2023-07-16T13:15:50.000Z</time>
      </trkpt>
      <trkpt lat="42.47754" lon="2.41602">
        <ele>2183.6000976562</ele>
        <time>2023-07-16T13:15:57.000Z</time>
      </trkpt>
      <trkpt lat="42.47753" lon="2.41603">
        <ele>2184</ele>
        <time>2023-07-16T13:15:59.000Z</time>
      </trkpt>
      <trkpt lat="42.47748" lon="2.41609">
        <ele>2185</ele>
        <time>2023-07-16T13:16:05.000Z</time>
      </trkpt>
      <trkpt lat="42.47747" lon="2.4161">
        <ele>2185</ele>
        <time>2023-07-16T13:16:06.000Z</time>
      </trkpt>
      <trkpt lat="42.47744" lon="2.41618">
        <ele>2186.1999511719</ele>
        <time>2023-07-16T13:16:12.000Z</time>
      </trkpt>
      <trkpt lat="42.47744" lon="2.41618">
        <ele>2186.6000976562</ele>
        <time>2023-07-16T13:16:13.000Z</time>
      </trkpt>
      <trkpt lat="42.47746" lon="2.41619">
        <ele>2186.6000976562</ele>
        <time>2023-07-16T13:16:22.000Z</time>
      </trkpt>
      <trkpt lat="42.47746" lon="2.41619">
        <ele>2186.8000488281</ele>
        <time>2023-07-16T13:16:24.000Z</time>
      </trkpt>
      <trkpt lat="42.47747" lon="2.41618">
        <ele>2187.1999511719</ele>
        <time>2023-07-16T13:16:27.000Z</time>
      </trkpt>
      <trkpt lat="42.47744" lon="2.41621">
        <ele>2187.3999023438</ele>
        <time>2023-07-16T13:16:31.000Z</time>
      </trkpt>
      <trkpt lat="42.47739" lon="2.41629">
        <ele>2187.6000976562</ele>
        <time>2023-07-16T13:16:37.000Z</time>
      </trkpt>
      <trkpt lat="42.47733" lon="2.41639">
        <ele>2188</ele>
        <time>2023-07-16T13:16:46.000Z</time>
      </trkpt>
      <trkpt lat="42.47732" lon="2.41643">
        <ele>2188.3999023438</ele>
        <time>2023-07-16T13:16:49.000Z</time>
      </trkpt>
      <trkpt lat="42.47731" lon="2.41644">
        <ele>2189.3999023438</ele>
        <time>2023-07-16T13:16:51.000Z</time>
      </trkpt>
      <trkpt lat="42.47728" lon="2.41648">
        <ele>2189.8000488281</ele>
        <time>2023-07-16T13:16:55.000Z</time>
      </trkpt>
      <trkpt lat="42.47719" lon="2.41656">
        <ele>2190.1999511719</ele>
        <time>2023-07-16T13:17:03.000Z</time>
      </trkpt>
      <trkpt lat="42.47717" lon="2.41659">
        <ele>2190.3999023438</ele>
        <time>2023-07-16T13:17:07.000Z</time>
      </trkpt>
      <trkpt lat="42.47716" lon="2.41661">
        <ele>2190.8000488281</ele>
        <time>2023-07-16T13:17:09.000Z</time>
      </trkpt>
      <trkpt lat="42.47713" lon="2.41663">
        <ele>2190.8000488281</ele>
        <time>2023-07-16T13:17:15.000Z</time>
      </trkpt>
      <trkpt lat="42.47708" lon="2.41667">
        <ele>2191.6000976562</ele>
        <time>2023-07-16T13:17:21.000Z</time>
      </trkpt>
      <trkpt lat="42.47706" lon="2.41667">
        <ele>2191.8000488281</ele>
        <time>2023-07-16T13:17:23.000Z</time>
      </trkpt>
      <trkpt lat="42.47702" lon="2.4167">
        <ele>2192.6000976562</ele>
        <time>2023-07-16T13:17:27.000Z</time>
      </trkpt>
      <trkpt lat="42.47699" lon="2.41671">
        <ele>2193.1999511719</ele>
        <time>2023-07-16T13:17:31.000Z</time>
      </trkpt>
      <trkpt lat="42.47697" lon="2.41671">
        <ele>2194</ele>
        <time>2023-07-16T13:17:33.000Z</time>
      </trkpt>
      <trkpt lat="42.47692" lon="2.41673">
        <ele>2194.6000976562</ele>
        <time>2023-07-16T13:17:40.000Z</time>
      </trkpt>
      <trkpt lat="42.47689" lon="2.41674">
        <ele>2195</ele>
        <time>2023-07-16T13:17:43.000Z</time>
      </trkpt>
      <trkpt lat="42.47684" lon="2.41674">
        <ele>2195.8000488281</ele>
        <time>2023-07-16T13:17:49.000Z</time>
      </trkpt>
      <trkpt lat="42.47684" lon="2.41674">
        <ele>2196</ele>
        <time>2023-07-16T13:17:50.000Z</time>
      </trkpt>
      <trkpt lat="42.47681" lon="2.41676">
        <ele>2197</ele>
        <time>2023-07-16T13:17:57.000Z</time>
      </trkpt>
      <trkpt lat="42.47679" lon="2.41677">
        <ele>2197.3999023438</ele>
        <time>2023-07-16T13:18:00.000Z</time>
      </trkpt>
      <trkpt lat="42.47676" lon="2.41679">
        <ele>2198.3999023438</ele>
        <time>2023-07-16T13:18:04.000Z</time>
      </trkpt>
      <trkpt lat="42.47673" lon="2.41681">
        <ele>2198.8000488281</ele>
        <time>2023-07-16T13:18:08.000Z</time>
      </trkpt>
      <trkpt lat="42.47669" lon="2.41682">
        <ele>2199.3999023438</ele>
        <time>2023-07-16T13:18:13.000Z</time>
      </trkpt>
      <trkpt lat="42.47667" lon="2.41683">
        <ele>2199.6000976562</ele>
        <time>2023-07-16T13:18:16.000Z</time>
      </trkpt>
      <trkpt lat="42.47661" lon="2.41685">
        <ele>2200.6000976562</ele>
        <time>2023-07-16T13:18:24.000Z</time>
      </trkpt>
      <trkpt lat="42.4766" lon="2.41685">
        <ele>2200.8000488281</ele>
        <time>2023-07-16T13:18:25.000Z</time>
      </trkpt>
      <trkpt lat="42.47655" lon="2.41686">
        <ele>2201.6000976562</ele>
        <time>2023-07-16T13:18:30.000Z</time>
      </trkpt>
      <trkpt lat="42.47654" lon="2.41686">
        <ele>2201.8000488281</ele>
        <time>2023-07-16T13:18:33.000Z</time>
      </trkpt>
      <trkpt lat="42.47648" lon="2.41684">
        <ele>2201.8000488281</ele>
        <time>2023-07-16T13:18:41.000Z</time>
      </trkpt>
      <trkpt lat="42.47649" lon="2.41684">
        <ele>2201.6000976562</ele>
        <time>2023-07-16T13:18:49.000Z</time>
      </trkpt>
      <trkpt lat="42.47644" lon="2.41683">
        <ele>2201.8000488281</ele>
        <time>2023-07-16T13:18:56.000Z</time>
      </trkpt>
      <trkpt lat="42.47639" lon="2.41684">
        <ele>2201.6000976562</ele>
        <time>2023-07-16T13:19:03.000Z</time>
      </trkpt>
      <trkpt lat="42.47638" lon="2.41683">
        <ele>2201.6000976562</ele>
        <time>2023-07-16T13:19:11.000Z</time>
      </trkpt>
      <trkpt lat="42.47639" lon="2.41685">
        <ele>2201.8000488281</ele>
        <time>2023-07-16T13:19:16.000Z</time>
      </trkpt>
      <trkpt lat="42.47642" lon="2.41689">
        <ele>2202</ele>
        <time>2023-07-16T13:19:26.000Z</time>
      </trkpt>
      <trkpt lat="42.47646" lon="2.41701">
        <ele>2202.1999511719</ele>
        <time>2023-07-16T13:19:35.000Z</time>
      </trkpt>
      <trkpt lat="42.47647" lon="2.41704">
        <ele>2202.8000488281</ele>
        <time>2023-07-16T13:19:39.000Z</time>
      </trkpt>
      <trkpt lat="42.47649" lon="2.41714">
        <ele>2203.3999023438</ele>
        <time>2023-07-16T13:19:46.000Z</time>
      </trkpt>
      <trkpt lat="42.47649" lon="2.41718">
        <ele>2203.8000488281</ele>
        <time>2023-07-16T13:19:50.000Z</time>
      </trkpt>
      <trkpt lat="42.47651" lon="2.41724">
        <ele>2204</ele>
        <time>2023-07-16T13:19:53.000Z</time>
      </trkpt>
      <trkpt lat="42.47655" lon="2.41734">
        <ele>2204.6000976562</ele>
        <time>2023-07-16T13:20:02.000Z</time>
      </trkpt>
      <trkpt lat="42.47655" lon="2.4174">
        <ele>2204.8000488281</ele>
        <time>2023-07-16T13:20:06.000Z</time>
      </trkpt>
      <trkpt lat="42.47655" lon="2.41744">
        <ele>2205</ele>
        <time>2023-07-16T13:20:09.000Z</time>
      </trkpt>
      <trkpt lat="42.47654" lon="2.41746">
        <ele>2205.6000976562</ele>
        <time>2023-07-16T13:20:14.000Z</time>
      </trkpt>
      <trkpt lat="42.47653" lon="2.41744">
        <ele>2205.6000976562</ele>
        <time>2023-07-16T13:20:24.000Z</time>
      </trkpt>
      <trkpt lat="42.47653" lon="2.41745">
        <ele>2205.1999511719</ele>
        <time>2023-07-16T13:20:29.000Z</time>
      </trkpt>
      <trkpt lat="42.47651" lon="2.41748">
        <ele>2205.8000488281</ele>
        <time>2023-07-16T13:20:32.000Z</time>
      </trkpt>
      <trkpt lat="42.4765" lon="2.4175">
        <ele>2206.8000488281</ele>
        <time>2023-07-16T13:20:38.000Z</time>
      </trkpt>
      <trkpt lat="42.47649" lon="2.41752">
        <ele>2207</ele>
        <time>2023-07-16T13:20:40.000Z</time>
      </trkpt>
      <trkpt lat="42.47647" lon="2.41755">
        <ele>2207.1999511719</ele>
        <time>2023-07-16T13:20:43.000Z</time>
      </trkpt>
      <trkpt lat="42.47642" lon="2.41763">
        <ele>2207.8000488281</ele>
        <time>2023-07-16T13:20:51.000Z</time>
      </trkpt>
      <trkpt lat="42.47641" lon="2.41764">
        <ele>2208.1999511719</ele>
        <time>2023-07-16T13:20:53.000Z</time>
      </trkpt>
      <trkpt lat="42.4764" lon="2.41764">
        <ele>2208.3999023438</ele>
        <time>2023-07-16T13:20:57.000Z</time>
      </trkpt>
      <trkpt lat="42.47641" lon="2.41765">
        <ele>2208.1999511719</ele>
        <time>2023-07-16T13:21:05.000Z</time>
      </trkpt>
      <trkpt lat="42.47638" lon="2.41768">
        <ele>2208.6000976562</ele>
        <time>2023-07-16T13:21:11.000Z</time>
      </trkpt>
      <trkpt lat="42.47634" lon="2.41769">
        <ele>2209.1999511719</ele>
        <time>2023-07-16T13:21:16.000Z</time>
      </trkpt>
      <trkpt lat="42.4763" lon="2.41772">
        <ele>2209.3999023438</ele>
        <time>2023-07-16T13:21:20.000Z</time>
      </trkpt>
      <trkpt lat="42.47627" lon="2.41781">
        <ele>2210.1999511719</ele>
        <time>2023-07-16T13:21:26.000Z</time>
      </trkpt>
      <trkpt lat="42.47626" lon="2.41786">
        <ele>2210.1999511719</ele>
        <time>2023-07-16T13:21:30.000Z</time>
      </trkpt>
      <trkpt lat="42.47626" lon="2.41791">
        <ele>2210.1999511719</ele>
        <time>2023-07-16T13:21:33.000Z</time>
      </trkpt>
      <trkpt lat="42.47624" lon="2.418">
        <ele>2210.3999023438</ele>
        <time>2023-07-16T13:21:40.000Z</time>
      </trkpt>
      <trkpt lat="42.47618" lon="2.41808">
        <ele>2211</ele>
        <time>2023-07-16T13:21:47.000Z</time>
      </trkpt>
      <trkpt lat="42.47617" lon="2.4181">
        <ele>2211.1999511719</ele>
        <time>2023-07-16T13:21:49.000Z</time>
      </trkpt>
      <trkpt lat="42.47613" lon="2.41816">
        <ele>2212</ele>
        <time>2023-07-16T13:21:54.000Z</time>
      </trkpt>
      <trkpt lat="42.47611" lon="2.41823">
        <ele>2212.1999511719</ele>
        <time>2023-07-16T13:21:59.000Z</time>
      </trkpt>
      <trkpt lat="42.47611" lon="2.41823">
        <ele>2212.3999023438</ele>
        <time>2023-07-16T13:22:00.000Z</time>
      </trkpt>
      <trkpt lat="42.47609" lon="2.41832">
        <ele>2213.1999511719</ele>
        <time>2023-07-16T13:22:07.000Z</time>
      </trkpt>
      <trkpt lat="42.47608" lon="2.41833">
        <ele>2213.1999511719</ele>
        <time>2023-07-16T13:22:08.000Z</time>
      </trkpt>
      <trkpt lat="42.47606" lon="2.41839">
        <ele>2214.1999511719</ele>
        <time>2023-07-16T13:22:14.000Z</time>
      </trkpt>
      <trkpt lat="42.47604" lon="2.41842">
        <ele>2214.3999023438</ele>
        <time>2023-07-16T13:22:17.000Z</time>
      </trkpt>
      <trkpt lat="42.47603" lon="2.41846">
        <ele>2214.8000488281</ele>
        <time>2023-07-16T13:22:21.000Z</time>
      </trkpt>
      <trkpt lat="42.47602" lon="2.41855">
        <ele>2215.6000976562</ele>
        <time>2023-07-16T13:22:27.000Z</time>
      </trkpt>
      <trkpt lat="42.47599" lon="2.41862">
        <ele>2216.1999511719</ele>
        <time>2023-07-16T13:22:33.000Z</time>
      </trkpt>
      <trkpt lat="42.47599" lon="2.41865">
        <ele>2216.6000976562</ele>
        <time>2023-07-16T13:22:36.000Z</time>
      </trkpt>
      <trkpt lat="42.47599" lon="2.41867">
        <ele>2217</ele>
        <time>2023-07-16T13:22:40.000Z</time>
      </trkpt>
      <trkpt lat="42.476" lon="2.41866">
        <ele>2217.3999023438</ele>
        <time>2023-07-16T13:22:50.000Z</time>
      </trkpt>
      <trkpt lat="42.47599" lon="2.4187">
        <ele>2217.3999023438</ele>
        <time>2023-07-16T13:22:59.000Z</time>
      </trkpt>
      <trkpt lat="42.47598" lon="2.41874">
        <ele>2217.6000976562</ele>
        <time>2023-07-16T13:23:02.000Z</time>
      </trkpt>
      <trkpt lat="42.47598" lon="2.4188">
        <ele>2218.3999023438</ele>
        <time>2023-07-16T13:23:05.000Z</time>
      </trkpt>
      <trkpt lat="42.47598" lon="2.41885">
        <ele>2218.6000976562</ele>
        <time>2023-07-16T13:23:09.000Z</time>
      </trkpt>
      <trkpt lat="42.47598" lon="2.41886">
        <ele>2218.8000488281</ele>
        <time>2023-07-16T13:23:10.000Z</time>
      </trkpt>
      <trkpt lat="42.47597" lon="2.41896">
        <ele>2219.3999023438</ele>
        <time>2023-07-16T13:23:17.000Z</time>
      </trkpt>
      <trkpt lat="42.47599" lon="2.41902">
        <ele>2219.8000488281</ele>
        <time>2023-07-16T13:23:21.000Z</time>
      </trkpt>
      <trkpt lat="42.476" lon="2.4191">
        <ele>2220.3999023438</ele>
        <time>2023-07-16T13:23:26.000Z</time>
      </trkpt>
      <trkpt lat="42.476" lon="2.41914">
        <ele>2220.8000488281</ele>
        <time>2023-07-16T13:23:29.000Z</time>
      </trkpt>
      <trkpt lat="42.47601" lon="2.41922">
        <ele>2221.3999023438</ele>
        <time>2023-07-16T13:23:34.000Z</time>
      </trkpt>
      <trkpt lat="42.47601" lon="2.41927">
        <ele>2222</ele>
        <time>2023-07-16T13:23:37.000Z</time>
      </trkpt>
      <trkpt lat="42.47601" lon="2.41933">
        <ele>2222.3999023438</ele>
        <time>2023-07-16T13:23:43.000Z</time>
      </trkpt>
      <trkpt lat="42.47602" lon="2.41941">
        <ele>2223.1999511719</ele>
        <time>2023-07-16T13:23:49.000Z</time>
      </trkpt>
      <trkpt lat="42.47601" lon="2.41943">
        <ele>2223.3999023438</ele>
        <time>2023-07-16T13:23:50.000Z</time>
      </trkpt>
      <trkpt lat="42.47599" lon="2.41951">
        <ele>2224</ele>
        <time>2023-07-16T13:23:57.000Z</time>
      </trkpt>
      <trkpt lat="42.47598" lon="2.41953">
        <ele>2224.1999511719</ele>
        <time>2023-07-16T13:23:58.000Z</time>
      </trkpt>
      <trkpt lat="42.47597" lon="2.41959">
        <ele>2225.1999511719</ele>
        <time>2023-07-16T13:24:02.000Z</time>
      </trkpt>
      <trkpt lat="42.47596" lon="2.4196">
        <ele>2225.3999023438</ele>
        <time>2023-07-16T13:24:03.000Z</time>
      </trkpt>
      <trkpt lat="42.47595" lon="2.41967">
        <ele>2225.6000976562</ele>
        <time>2023-07-16T13:24:10.000Z</time>
      </trkpt>
      <trkpt lat="42.47593" lon="2.41975">
        <ele>2226.1999511719</ele>
        <time>2023-07-16T13:24:16.000Z</time>
      </trkpt>
      <trkpt lat="42.47593" lon="2.4198">
        <ele>2226.1999511719</ele>
        <time>2023-07-16T13:24:20.000Z</time>
      </trkpt>
      <trkpt lat="42.47594" lon="2.41983">
        <ele>2226.6000976562</ele>
        <time>2023-07-16T13:24:23.000Z</time>
      </trkpt>
      <trkpt lat="42.47597" lon="2.41995">
        <ele>2227.1999511719</ele>
        <time>2023-07-16T13:24:31.000Z</time>
      </trkpt>
      <trkpt lat="42.47597" lon="2.41995">
        <ele>2227.3999023438</ele>
        <time>2023-07-16T13:24:32.000Z</time>
      </trkpt>
      <trkpt lat="42.47598" lon="2.42001">
        <ele>2228</ele>
        <time>2023-07-16T13:24:37.000Z</time>
      </trkpt>
      <trkpt lat="42.47597" lon="2.42007">
        <ele>2228.1999511719</ele>
        <time>2023-07-16T13:24:42.000Z</time>
      </trkpt>
      <trkpt lat="42.47597" lon="2.42011">
        <ele>2228.3999023438</ele>
        <time>2023-07-16T13:24:45.000Z</time>
      </trkpt>
      <trkpt lat="42.47596" lon="2.42016">
        <ele>2228.8000488281</ele>
        <time>2023-07-16T13:24:49.000Z</time>
      </trkpt>
      <trkpt lat="42.47595" lon="2.42023">
        <ele>2229.6000976562</ele>
        <time>2023-07-16T13:24:55.000Z</time>
      </trkpt>
      <trkpt lat="42.47595" lon="2.42024">
        <ele>2229.8000488281</ele>
        <time>2023-07-16T13:24:57.000Z</time>
      </trkpt>
      <trkpt lat="42.47594" lon="2.42022">
        <ele>2230.1999511719</ele>
        <time>2023-07-16T13:25:05.000Z</time>
      </trkpt>
      <trkpt lat="42.47595" lon="2.42026">
        <ele>2230.1999511719</ele>
        <time>2023-07-16T13:25:12.000Z</time>
      </trkpt>
      <trkpt lat="42.47596" lon="2.42025">
        <ele>2230.3999023438</ele>
        <time>2023-07-16T13:25:22.000Z</time>
      </trkpt>
      <trkpt lat="42.47596" lon="2.42025">
        <ele>2230.3999023438</ele>
        <time>2023-07-16T13:25:29.000Z</time>
      </trkpt>
      <trkpt lat="42.47597" lon="2.42026">
        <ele>2230.3999023438</ele>
        <time>2023-07-16T13:25:37.000Z</time>
      </trkpt>
      <trkpt lat="42.47599" lon="2.42035">
        <ele>2230.8000488281</ele>
        <time>2023-07-16T13:25:42.000Z</time>
      </trkpt>
      <trkpt lat="42.47599" lon="2.42037">
        <ele>2231</ele>
        <time>2023-07-16T13:25:44.000Z</time>
      </trkpt>
      <trkpt lat="42.476" lon="2.42045">
        <ele>2232</ele>
        <time>2023-07-16T13:25:49.000Z</time>
      </trkpt>
      <trkpt lat="42.476" lon="2.42046">
        <ele>2232</ele>
        <time>2023-07-16T13:25:50.000Z</time>
      </trkpt>
      <trkpt lat="42.47602" lon="2.42056">
        <ele>2233</ele>
        <time>2023-07-16T13:25:57.000Z</time>
      </trkpt>
      <trkpt lat="42.47603" lon="2.42057">
        <ele>2233</ele>
        <time>2023-07-16T13:25:58.000Z</time>
      </trkpt>
      <trkpt lat="42.47603" lon="2.42068">
        <ele>2233.6000976562</ele>
        <time>2023-07-16T13:26:05.000Z</time>
      </trkpt>
      <trkpt lat="42.47603" lon="2.42074">
        <ele>2234.1999511719</ele>
        <time>2023-07-16T13:26:09.000Z</time>
      </trkpt>
      <trkpt lat="42.47603" lon="2.42079">
        <ele>2234.3999023438</ele>
        <time>2023-07-16T13:26:13.000Z</time>
      </trkpt>
      <trkpt lat="42.47604" lon="2.42091">
        <ele>2235.1999511719</ele>
        <time>2023-07-16T13:26:21.000Z</time>
      </trkpt>
      <trkpt lat="42.47604" lon="2.42096">
        <ele>2235.3999023438</ele>
        <time>2023-07-16T13:26:24.000Z</time>
      </trkpt>
      <trkpt lat="42.47604" lon="2.42098">
        <ele>2235.3999023438</ele>
        <time>2023-07-16T13:26:26.000Z</time>
      </trkpt>
      <trkpt lat="42.47605" lon="2.42102">
        <ele>2235.6000976562</ele>
        <time>2023-07-16T13:26:29.000Z</time>
      </trkpt>
      <trkpt lat="42.47606" lon="2.42111">
        <ele>2236.3999023438</ele>
        <time>2023-07-16T13:26:36.000Z</time>
      </trkpt>
      <trkpt lat="42.47606" lon="2.42114">
        <ele>2236.6000976562</ele>
        <time>2023-07-16T13:26:38.000Z</time>
      </trkpt>
      <trkpt lat="42.47606" lon="2.42126">
        <ele>2237.1999511719</ele>
        <time>2023-07-16T13:26:47.000Z</time>
      </trkpt>
      <trkpt lat="42.47607" lon="2.42128">
        <ele>2237.3999023438</ele>
        <time>2023-07-16T13:26:49.000Z</time>
      </trkpt>
      <trkpt lat="42.47606" lon="2.4214">
        <ele>2238.1999511719</ele>
        <time>2023-07-16T13:26:56.000Z</time>
      </trkpt>
      <trkpt lat="42.47606" lon="2.42142">
        <ele>2238.6000976562</ele>
        <time>2023-07-16T13:26:58.000Z</time>
      </trkpt>
      <trkpt lat="42.47606" lon="2.42151">
        <ele>2239.6000976562</ele>
        <time>2023-07-16T13:27:05.000Z</time>
      </trkpt>
      <trkpt lat="42.47606" lon="2.42155">
        <ele>2239.6000976562</ele>
        <time>2023-07-16T13:27:08.000Z</time>
      </trkpt>
      <trkpt lat="42.47606" lon="2.42163">
        <ele>2240.6000976562</ele>
        <time>2023-07-16T13:27:14.000Z</time>
      </trkpt>
      <trkpt lat="42.47606" lon="2.42164">
        <ele>2240.8000488281</ele>
        <time>2023-07-16T13:27:15.000Z</time>
      </trkpt>
      <trkpt lat="42.47607" lon="2.42175">
        <ele>2242</ele>
        <time>2023-07-16T13:27:23.000Z</time>
      </trkpt>
      <trkpt lat="42.47607" lon="2.42177">
        <ele>2242</ele>
        <time>2023-07-16T13:27:24.000Z</time>
      </trkpt>
      <trkpt lat="42.47608" lon="2.42186">
        <ele>2243</ele>
        <time>2023-07-16T13:27:30.000Z</time>
      </trkpt>
      <trkpt lat="42.47607" lon="2.4219">
        <ele>2243</ele>
        <time>2023-07-16T13:27:33.000Z</time>
      </trkpt>
      <trkpt lat="42.47604" lon="2.42195">
        <ele>2243.8000488281</ele>
        <time>2023-07-16T13:27:41.000Z</time>
      </trkpt>
      <trkpt lat="42.47602" lon="2.42197">
        <ele>2244</ele>
        <time>2023-07-16T13:27:44.000Z</time>
      </trkpt>
      <trkpt lat="42.476" lon="2.42196">
        <ele>2244.3999023438</ele>
        <time>2023-07-16T13:27:50.000Z</time>
      </trkpt>
      <trkpt lat="42.47598" lon="2.42193">
        <ele>2244.3999023438</ele>
        <time>2023-07-16T13:27:57.000Z</time>
      </trkpt>
      <trkpt lat="42.47599" lon="2.42194">
        <ele>2244.3999023438</ele>
        <time>2023-07-16T13:28:05.000Z</time>
      </trkpt>
      <trkpt lat="42.47597" lon="2.42192">
        <ele>2244.8000488281</ele>
        <time>2023-07-16T13:28:12.000Z</time>
      </trkpt>
      <trkpt lat="42.47594" lon="2.42184">
        <ele>2245</ele>
        <time>2023-07-16T13:28:18.000Z</time>
      </trkpt>
      <trkpt lat="42.47594" lon="2.42184">
        <ele>2245</ele>
        <time>2023-07-16T13:28:19.000Z</time>
      </trkpt>
      <trkpt lat="42.47594" lon="2.42183">
        <ele>2245.3999023438</ele>
        <time>2023-07-16T13:28:23.000Z</time>
      </trkpt>
      <trkpt lat="42.47593" lon="2.42183">
        <ele>2245.3999023438</ele>
        <time>2023-07-16T13:28:29.000Z</time>
      </trkpt>
      <trkpt lat="42.47594" lon="2.42182">
        <ele>2245</ele>
        <time>2023-07-16T13:28:37.000Z</time>
      </trkpt>
      <trkpt lat="42.47592" lon="2.42175">
        <ele>2245</ele>
        <time>2023-07-16T13:28:43.000Z</time>
      </trkpt>
      <trkpt lat="42.47588" lon="2.42166">
        <ele>2245.6000976562</ele>
        <time>2023-07-16T13:28:50.000Z</time>
      </trkpt>
      <trkpt lat="42.47586" lon="2.42162">
        <ele>2246.1999511719</ele>
        <time>2023-07-16T13:28:54.000Z</time>
      </trkpt>
      <trkpt lat="42.47585" lon="2.4216">
        <ele>2246.3999023438</ele>
        <time>2023-07-16T13:28:56.000Z</time>
      </trkpt>
      <trkpt lat="42.47584" lon="2.42156">
        <ele>2247.1999511719</ele>
        <time>2023-07-16T13:29:00.000Z</time>
      </trkpt>
      <trkpt lat="42.47581" lon="2.4215">
        <ele>2247.6000976562</ele>
        <time>2023-07-16T13:29:04.000Z</time>
      </trkpt>
      <trkpt lat="42.47577" lon="2.42141">
        <ele>2248</ele>
        <time>2023-07-16T13:29:12.000Z</time>
      </trkpt>
      <trkpt lat="42.47576" lon="2.42138">
        <ele>2248.1999511719</ele>
        <time>2023-07-16T13:29:14.000Z</time>
      </trkpt>
      <trkpt lat="42.47573" lon="2.42133">
        <ele>2249.1999511719</ele>
        <time>2023-07-16T13:29:18.000Z</time>
      </trkpt>
      <trkpt lat="42.47571" lon="2.42129">
        <ele>2250</ele>
        <time>2023-07-16T13:29:22.000Z</time>
      </trkpt>
      <trkpt lat="42.47569" lon="2.42127">
        <ele>2250.3999023438</ele>
        <time>2023-07-16T13:29:24.000Z</time>
      </trkpt>
      <trkpt lat="42.47564" lon="2.42122">
        <ele>2251</ele>
        <time>2023-07-16T13:29:30.000Z</time>
      </trkpt>
      <trkpt lat="42.4756" lon="2.42119">
        <ele>2251.3999023438</ele>
        <time>2023-07-16T13:29:35.000Z</time>
      </trkpt>
      <trkpt lat="42.47559" lon="2.42118">
        <ele>2251.6000976562</ele>
        <time>2023-07-16T13:29:36.000Z</time>
      </trkpt>
      <trkpt lat="42.47552" lon="2.42113">
        <ele>2252</ele>
        <time>2023-07-16T13:29:42.000Z</time>
      </trkpt>
      <trkpt lat="42.4755" lon="2.42113">
        <ele>2252.6000976562</ele>
        <time>2023-07-16T13:29:45.000Z</time>
      </trkpt>
      <trkpt lat="42.47546" lon="2.42111">
        <ele>2253</ele>
        <time>2023-07-16T13:29:48.000Z</time>
      </trkpt>
      <trkpt lat="42.4754" lon="2.42111">
        <ele>2253.6000976562</ele>
        <time>2023-07-16T13:29:54.000Z</time>
      </trkpt>
      <trkpt lat="42.47539" lon="2.42111">
        <ele>2253.6000976562</ele>
        <time>2023-07-16T13:29:55.000Z</time>
      </trkpt>
      <trkpt lat="42.47533" lon="2.42111">
        <ele>2254</ele>
        <time>2023-07-16T13:30:02.000Z</time>
      </trkpt>
      <trkpt lat="42.47524" lon="2.4211">
        <ele>2254.6000976562</ele>
        <time>2023-07-16T13:30:09.000Z</time>
      </trkpt>
      <trkpt lat="42.47517" lon="2.42109">
        <ele>2254.8000488281</ele>
        <time>2023-07-16T13:30:16.000Z</time>
      </trkpt>
      <trkpt lat="42.47509" lon="2.42107">
        <ele>2255.6000976562</ele>
        <time>2023-07-16T13:30:23.000Z</time>
      </trkpt>
      <trkpt lat="42.47508" lon="2.42107">
        <ele>2255.8000488281</ele>
        <time>2023-07-16T13:30:24.000Z</time>
      </trkpt>
      <trkpt lat="42.47502" lon="2.42105">
        <ele>2256.3999023438</ele>
        <time>2023-07-16T13:30:31.000Z</time>
      </trkpt>
      <trkpt lat="42.47497" lon="2.42096">
        <ele>2256.6000976562</ele>
        <time>2023-07-16T13:30:39.000Z</time>
      </trkpt>
      <trkpt lat="42.47487" lon="2.42089">
        <ele>2256.6000976562</ele>
        <time>2023-07-16T13:30:48.000Z</time>
      </trkpt>
      <trkpt lat="42.47481" lon="2.42081">
        <ele>2256.8000488281</ele>
        <time>2023-07-16T13:30:55.000Z</time>
      </trkpt>
      <trkpt lat="42.47477" lon="2.42076">
        <ele>2257</ele>
        <time>2023-07-16T13:31:00.000Z</time>
      </trkpt>
      <trkpt lat="42.47475" lon="2.42075">
        <ele>2257.1999511719</ele>
        <time>2023-07-16T13:31:02.000Z</time>
      </trkpt>
      <trkpt lat="42.47466" lon="2.42072">
        <ele>2258.1999511719</ele>
        <time>2023-07-16T13:31:10.000Z</time>
      </trkpt>
      <trkpt lat="42.47459" lon="2.42071">
        <ele>2259</ele>
        <time>2023-07-16T13:31:17.000Z</time>
      </trkpt>
      <trkpt lat="42.47451" lon="2.42068">
        <ele>2259.1999511719</ele>
        <time>2023-07-16T13:31:25.000Z</time>
      </trkpt>
      <trkpt lat="42.47447" lon="2.42062">
        <ele>2259.1999511719</ele>
        <time>2023-07-16T13:31:32.000Z</time>
      </trkpt>
      <trkpt lat="42.47446" lon="2.42061">
        <ele>2259.1999511719</ele>
        <time>2023-07-16T13:31:33.000Z</time>
      </trkpt>
      <trkpt lat="42.4744" lon="2.42052">
        <ele>2260</ele>
        <time>2023-07-16T13:31:41.000Z</time>
      </trkpt>
      <trkpt lat="42.47439" lon="2.42051">
        <ele>2260.1999511719</ele>
        <time>2023-07-16T13:31:43.000Z</time>
      </trkpt>
      <trkpt lat="42.47435" lon="2.42048">
        <ele>2260.6000976562</ele>
        <time>2023-07-16T13:31:48.000Z</time>
      </trkpt>
      <trkpt lat="42.47429" lon="2.42042">
        <ele>2261</ele>
        <time>2023-07-16T13:31:54.000Z</time>
      </trkpt>
      <trkpt lat="42.47426" lon="2.42039">
        <ele>2261.3999023438</ele>
        <time>2023-07-16T13:31:57.000Z</time>
      </trkpt>
      <trkpt lat="42.47423" lon="2.42034">
        <ele>2262</ele>
        <time>2023-07-16T13:32:01.000Z</time>
      </trkpt>
      <trkpt lat="42.4742" lon="2.4203">
        <ele>2262.6000976562</ele>
        <time>2023-07-16T13:32:04.000Z</time>
      </trkpt>
      <trkpt lat="42.47418" lon="2.42027">
        <ele>2263.1999511719</ele>
        <time>2023-07-16T13:32:09.000Z</time>
      </trkpt>
      <trkpt lat="42.47415" lon="2.42024">
        <ele>2263.8000488281</ele>
        <time>2023-07-16T13:32:12.000Z</time>
      </trkpt>
      <trkpt lat="42.47414" lon="2.42023">
        <ele>2264.8000488281</ele>
        <time>2023-07-16T13:32:17.000Z</time>
      </trkpt>
      <trkpt lat="42.47414" lon="2.42023">
        <ele>2265.1999511719</ele>
        <time>2023-07-16T13:32:19.000Z</time>
      </trkpt>
      <trkpt lat="42.47415" lon="2.42023">
        <ele>2265.8000488281</ele>
        <time>2023-07-16T13:32:22.000Z</time>
      </trkpt>
      <trkpt lat="42.47415" lon="2.42023">
        <ele>2266</ele>
        <time>2023-07-16T13:32:24.000Z</time>
      </trkpt>
      <trkpt lat="42.47416" lon="2.42023">
        <ele>2266</ele>
        <time>2023-07-16T13:32:25.000Z</time>
      </trkpt>
      <trkpt lat="42.47417" lon="2.42022">
        <ele>2266.3999023438</ele>
        <time>2023-07-16T13:32:31.000Z</time>
      </trkpt>
      <trkpt lat="42.47415" lon="2.42021">
        <ele>2266.6000976562</ele>
        <time>2023-07-16T13:32:40.000Z</time>
      </trkpt>
      <trkpt lat="42.47413" lon="2.42018">
        <ele>2266.1999511719</ele>
        <time>2023-07-16T13:32:49.000Z</time>
      </trkpt>
      <trkpt lat="42.47409" lon="2.42013">
        <ele>2266</ele>
        <time>2023-07-16T13:32:54.000Z</time>
      </trkpt>
      <trkpt lat="42.47403" lon="2.42007">
        <ele>2266.6000976562</ele>
        <time>2023-07-16T13:33:01.000Z</time>
      </trkpt>
      <trkpt lat="42.47401" lon="2.42004">
        <ele>2266.8000488281</ele>
        <time>2023-07-16T13:33:04.000Z</time>
      </trkpt>
      <trkpt lat="42.47396" lon="2.41999">
        <ele>2267.3999023438</ele>
        <time>2023-07-16T13:33:09.000Z</time>
      </trkpt>
      <trkpt lat="42.47392" lon="2.41995">
        <ele>2268</ele>
        <time>2023-07-16T13:33:13.000Z</time>
      </trkpt>
      <trkpt lat="42.4739" lon="2.41993">
        <ele>2268.1999511719</ele>
        <time>2023-07-16T13:33:16.000Z</time>
      </trkpt>
      <trkpt lat="42.47385" lon="2.41989">
        <ele>2269</ele>
        <time>2023-07-16T13:33:22.000Z</time>
      </trkpt>
      <trkpt lat="42.47382" lon="2.41986">
        <ele>2269.3999023438</ele>
        <time>2023-07-16T13:33:26.000Z</time>
      </trkpt>
      <trkpt lat="42.47374" lon="2.41979">
        <ele>2270</ele>
        <time>2023-07-16T13:33:33.000Z</time>
      </trkpt>
      <trkpt lat="42.47371" lon="2.41975">
        <ele>2270.1999511719</ele>
        <time>2023-07-16T13:33:37.000Z</time>
      </trkpt>
      <trkpt lat="42.47369" lon="2.41973">
        <ele>2270.3999023438</ele>
        <time>2023-07-16T13:33:40.000Z</time>
      </trkpt>
      <trkpt lat="42.47361" lon="2.41967">
        <ele>2270.3999023438</ele>
        <time>2023-07-16T13:33:48.000Z</time>
      </trkpt>
      <trkpt lat="42.47353" lon="2.41961">
        <ele>2271</ele>
        <time>2023-07-16T13:33:55.000Z</time>
      </trkpt>
      <trkpt lat="42.47351" lon="2.41958">
        <ele>2271.1999511719</ele>
        <time>2023-07-16T13:33:59.000Z</time>
      </trkpt>
      <trkpt lat="42.47347" lon="2.41955">
        <ele>2271.3999023438</ele>
        <time>2023-07-16T13:34:02.000Z</time>
      </trkpt>
      <trkpt lat="42.47342" lon="2.41951">
        <ele>2272.1999511719</ele>
        <time>2023-07-16T13:34:08.000Z</time>
      </trkpt>
      <trkpt lat="42.4734" lon="2.41948">
        <ele>2272.1999511719</ele>
        <time>2023-07-16T13:34:10.000Z</time>
      </trkpt>
      <trkpt lat="42.47337" lon="2.41942">
        <ele>2272.3999023438</ele>
        <time>2023-07-16T13:34:15.000Z</time>
      </trkpt>
      <trkpt lat="42.47329" lon="2.41937">
        <ele>2272.8000488281</ele>
        <time>2023-07-16T13:34:22.000Z</time>
      </trkpt>
      <trkpt lat="42.47323" lon="2.41931">
        <ele>2273.3999023438</ele>
        <time>2023-07-16T13:34:28.000Z</time>
      </trkpt>
      <trkpt lat="42.47321" lon="2.41931">
        <ele>2273.3999023438</ele>
        <time>2023-07-16T13:34:29.000Z</time>
      </trkpt>
      <trkpt lat="42.47314" lon="2.41925">
        <ele>2273.6000976562</ele>
        <time>2023-07-16T13:34:36.000Z</time>
      </trkpt>
      <trkpt lat="42.47305" lon="2.41916">
        <ele>2273.8000488281</ele>
        <time>2023-07-16T13:34:45.000Z</time>
      </trkpt>
      <trkpt lat="42.473" lon="2.41911">
        <ele>2274.3999023438</ele>
        <time>2023-07-16T13:34:52.000Z</time>
      </trkpt>
      <trkpt lat="42.47299" lon="2.4191">
        <ele>2274.8000488281</ele>
        <time>2023-07-16T13:34:53.000Z</time>
      </trkpt>
      <trkpt lat="42.47295" lon="2.41906">
        <ele>2274.8000488281</ele>
        <time>2023-07-16T13:35:00.000Z</time>
      </trkpt>
      <trkpt lat="42.47292" lon="2.41908">
        <ele>2274.8000488281</ele>
        <time>2023-07-16T13:35:05.000Z</time>
      </trkpt>
      <trkpt lat="42.47292" lon="2.41908">
        <ele>2274.8000488281</ele>
        <time>2023-07-16T13:35:07.000Z</time>
      </trkpt>
      <trkpt lat="42.47294" lon="2.41907">
        <ele>2275.8000488281</ele>
        <time>2023-07-16T13:35:12.000Z</time>
      </trkpt>
      <trkpt lat="42.47293" lon="2.41906">
        <ele>2275.8000488281</ele>
        <time>2023-07-16T13:35:14.000Z</time>
      </trkpt>
      <trkpt lat="42.47288" lon="2.419">
        <ele>2275</ele>
        <time>2023-07-16T13:35:20.000Z</time>
      </trkpt>
      <trkpt lat="42.47282" lon="2.41893">
        <ele>2275.1999511719</ele>
        <time>2023-07-16T13:35:29.000Z</time>
      </trkpt>
      <trkpt lat="42.47274" lon="2.41883">
        <ele>2275.6000976562</ele>
        <time>2023-07-16T13:35:38.000Z</time>
      </trkpt>
      <trkpt lat="42.47267" lon="2.41875">
        <ele>2276</ele>
        <time>2023-07-16T13:35:46.000Z</time>
      </trkpt>
      <trkpt lat="42.47261" lon="2.4187">
        <ele>2276.6000976562</ele>
        <time>2023-07-16T13:35:52.000Z</time>
      </trkpt>
      <trkpt lat="42.47257" lon="2.41867">
        <ele>2276.8000488281</ele>
        <time>2023-07-16T13:35:56.000Z</time>
      </trkpt>
      <trkpt lat="42.47254" lon="2.41863">
        <ele>2277.1999511719</ele>
        <time>2023-07-16T13:36:00.000Z</time>
      </trkpt>
      <trkpt lat="42.4725" lon="2.4186">
        <ele>2277.8000488281</ele>
        <time>2023-07-16T13:36:04.000Z</time>
      </trkpt>
      <trkpt lat="42.47249" lon="2.41859">
        <ele>2277.8000488281</ele>
        <time>2023-07-16T13:36:05.000Z</time>
      </trkpt>
      <trkpt lat="42.47243" lon="2.41853">
        <ele>2278.1999511719</ele>
        <time>2023-07-16T13:36:12.000Z</time>
      </trkpt>
      <trkpt lat="42.47237" lon="2.41844">
        <ele>2278.1999511719</ele>
        <time>2023-07-16T13:36:19.000Z</time>
      </trkpt>
      <trkpt lat="42.4723" lon="2.4184">
        <ele>2278.3999023438</ele>
        <time>2023-07-16T13:36:26.000Z</time>
      </trkpt>
      <trkpt lat="42.47223" lon="2.41833">
        <ele>2277.6000976562</ele>
        <time>2023-07-16T13:36:33.000Z</time>
      </trkpt>
      <trkpt lat="42.47217" lon="2.41827">
        <ele>2278</ele>
        <time>2023-07-16T13:36:40.000Z</time>
      </trkpt>
      <trkpt lat="42.47212" lon="2.41823">
        <ele>2278.8000488281</ele>
        <time>2023-07-16T13:36:45.000Z</time>
      </trkpt>
      <trkpt lat="42.47209" lon="2.41822">
        <ele>2279</ele>
        <time>2023-07-16T13:36:47.000Z</time>
      </trkpt>
      <trkpt lat="42.47204" lon="2.41818">
        <ele>2279.3999023438</ele>
        <time>2023-07-16T13:36:53.000Z</time>
      </trkpt>
      <trkpt lat="42.47201" lon="2.41816">
        <ele>2279.8000488281</ele>
        <time>2023-07-16T13:36:56.000Z</time>
      </trkpt>
      <trkpt lat="42.47195" lon="2.41813">
        <ele>2280.8000488281</ele>
        <time>2023-07-16T13:37:01.000Z</time>
      </trkpt>
      <trkpt lat="42.47194" lon="2.41813">
        <ele>2281</ele>
        <time>2023-07-16T13:37:02.000Z</time>
      </trkpt>
      <trkpt lat="42.4719" lon="2.41808">
        <ele>2282</ele>
        <time>2023-07-16T13:37:07.000Z</time>
      </trkpt>
      <trkpt lat="42.47188" lon="2.41807">
        <ele>2282</ele>
        <time>2023-07-16T13:37:08.000Z</time>
      </trkpt>
      <trkpt lat="42.47186" lon="2.41803">
        <ele>2282.1999511719</ele>
        <time>2023-07-16T13:37:13.000Z</time>
      </trkpt>
      <trkpt lat="42.47177" lon="2.41802">
        <ele>2283</ele>
        <time>2023-07-16T13:37:21.000Z</time>
      </trkpt>
      <trkpt lat="42.47176" lon="2.41802">
        <ele>2283</ele>
        <time>2023-07-16T13:37:23.000Z</time>
      </trkpt>
      <trkpt lat="42.47172" lon="2.41802">
        <ele>2283.1999511719</ele>
        <time>2023-07-16T13:37:27.000Z</time>
      </trkpt>
      <trkpt lat="42.47165" lon="2.41799">
        <ele>2283.1999511719</ele>
        <time>2023-07-16T13:37:34.000Z</time>
      </trkpt>
      <trkpt lat="42.4716" lon="2.41796">
        <ele>2283.8000488281</ele>
        <time>2023-07-16T13:37:39.000Z</time>
      </trkpt>
      <trkpt lat="42.47155" lon="2.41794">
        <ele>2284.1999511719</ele>
        <time>2023-07-16T13:37:44.000Z</time>
      </trkpt>
      <trkpt lat="42.47154" lon="2.41794">
        <ele>2284.1999511719</ele>
        <time>2023-07-16T13:37:46.000Z</time>
      </trkpt>
      <trkpt lat="42.47154" lon="2.41794">
        <ele>2283.8000488281</ele>
        <time>2023-07-16T13:37:49.000Z</time>
      </trkpt>
      <trkpt lat="42.47157" lon="2.41793">
        <ele>2283.3999023438</ele>
        <time>2023-07-16T13:37:52.000Z</time>
      </trkpt>
      <trkpt lat="42.47162" lon="2.41793">
        <ele>2283</ele>
        <time>2023-07-16T13:37:57.000Z</time>
      </trkpt>
      <trkpt lat="42.47162" lon="2.41793">
        <ele>2283</ele>
        <time>2023-07-16T13:37:58.000Z</time>
      </trkpt>
      <trkpt lat="42.47166" lon="2.4179">
        <ele>2282.3999023438</ele>
        <time>2023-07-16T13:38:05.000Z</time>
      </trkpt>
      <trkpt lat="42.47171" lon="2.41786">
        <ele>2282</ele>
        <time>2023-07-16T13:38:10.000Z</time>
      </trkpt>
      <trkpt lat="42.47179" lon="2.4178">
        <ele>2281.6000976562</ele>
        <time>2023-07-16T13:38:16.000Z</time>
      </trkpt>
      <trkpt lat="42.47181" lon="2.41777">
        <ele>2280.8000488281</ele>
        <time>2023-07-16T13:38:22.000Z</time>
      </trkpt>
      <trkpt lat="42.47183" lon="2.41775">
        <ele>2280.8000488281</ele>
        <time>2023-07-16T13:38:23.000Z</time>
      </trkpt>
      <trkpt lat="42.47189" lon="2.41764">
        <ele>2280</ele>
        <time>2023-07-16T13:38:32.000Z</time>
      </trkpt>
      <trkpt lat="42.47193" lon="2.4176">
        <ele>2279.8000488281</ele>
        <time>2023-07-16T13:38:35.000Z</time>
      </trkpt>
      <trkpt lat="42.47196" lon="2.41757">
        <ele>2279.6000976562</ele>
        <time>2023-07-16T13:38:39.000Z</time>
      </trkpt>
      <trkpt lat="42.47204" lon="2.41748">
        <ele>2279</ele>
        <time>2023-07-16T13:38:48.000Z</time>
      </trkpt>
      <trkpt lat="42.47213" lon="2.4174">
        <ele>2279</ele>
        <time>2023-07-16T13:38:57.000Z</time>
      </trkpt>
      <trkpt lat="42.47213" lon="2.41739">
        <ele>2278.8000488281</ele>
        <time>2023-07-16T13:38:58.000Z</time>
      </trkpt>
      <trkpt lat="42.47218" lon="2.41735">
        <ele>2278.1999511719</ele>
        <time>2023-07-16T13:39:04.000Z</time>
      </trkpt>
      <trkpt lat="42.47222" lon="2.41731">
        <ele>2277.6000976562</ele>
        <time>2023-07-16T13:39:08.000Z</time>
      </trkpt>
      <trkpt lat="42.47225" lon="2.41729">
        <ele>2277.1999511719</ele>
        <time>2023-07-16T13:39:11.000Z</time>
      </trkpt>
      <trkpt lat="42.47231" lon="2.41724">
        <ele>2276.6000976562</ele>
        <time>2023-07-16T13:39:17.000Z</time>
      </trkpt>
      <trkpt lat="42.47234" lon="2.41722">
        <ele>2276</ele>
        <time>2023-07-16T13:39:20.000Z</time>
      </trkpt>
      <trkpt lat="42.47236" lon="2.41717">
        <ele>2275.3999023438</ele>
        <time>2023-07-16T13:39:24.000Z</time>
      </trkpt>
      <trkpt lat="42.47238" lon="2.41714">
        <ele>2274.8000488281</ele>
        <time>2023-07-16T13:39:27.000Z</time>
      </trkpt>
      <trkpt lat="42.47243" lon="2.4171">
        <ele>2274.8000488281</ele>
        <time>2023-07-16T13:39:33.000Z</time>
      </trkpt>
      <trkpt lat="42.47241" lon="2.41709">
        <ele>2275</ele>
        <time>2023-07-16T13:39:35.000Z</time>
      </trkpt>
      <trkpt lat="42.47242" lon="2.41708">
        <ele>2275</ele>
        <time>2023-07-16T13:39:36.000Z</time>
      </trkpt>
      <trkpt lat="42.47245" lon="2.41704">
        <ele>2275</ele>
        <time>2023-07-16T13:39:40.000Z</time>
      </trkpt>
      <trkpt lat="42.47251" lon="2.41696">
        <ele>2275.1999511719</ele>
        <time>2023-07-16T13:39:47.000Z</time>
      </trkpt>
      <trkpt lat="42.47255" lon="2.41687">
        <ele>2275.3999023438</ele>
        <time>2023-07-16T13:39:53.000Z</time>
      </trkpt>
      <trkpt lat="42.4726" lon="2.41679">
        <ele>2275</ele>
        <time>2023-07-16T13:40:00.000Z</time>
      </trkpt>
      <trkpt lat="42.47263" lon="2.41671">
        <ele>2274.8000488281</ele>
        <time>2023-07-16T13:40:06.000Z</time>
      </trkpt>
      <trkpt lat="42.47268" lon="2.41661">
        <ele>2274.3999023438</ele>
        <time>2023-07-16T13:40:12.000Z</time>
      </trkpt>
      <trkpt lat="42.4727" lon="2.41659">
        <ele>2274</ele>
        <time>2023-07-16T13:40:14.000Z</time>
      </trkpt>
      <trkpt lat="42.47278" lon="2.41651">
        <ele>2273.8000488281</ele>
        <time>2023-07-16T13:40:22.000Z</time>
      </trkpt>
      <trkpt lat="42.47286" lon="2.41637">
        <ele>2273.3999023438</ele>
        <time>2023-07-16T13:40:33.000Z</time>
      </trkpt>
      <trkpt lat="42.47288" lon="2.41632">
        <ele>2273.3999023438</ele>
        <time>2023-07-16T13:40:36.000Z</time>
      </trkpt>
      <trkpt lat="42.4729" lon="2.41625">
        <ele>2273.1999511719</ele>
        <time>2023-07-16T13:40:40.000Z</time>
      </trkpt>
      <trkpt lat="42.47294" lon="2.41615">
        <ele>2273.3999023438</ele>
        <time>2023-07-16T13:40:48.000Z</time>
      </trkpt>
      <trkpt lat="42.473" lon="2.41602">
        <ele>2273.3999023438</ele>
        <time>2023-07-16T13:40:56.000Z</time>
      </trkpt>
      <trkpt lat="42.47305" lon="2.41598">
        <ele>2273.3999023438</ele>
        <time>2023-07-16T13:41:02.000Z</time>
      </trkpt>
      <trkpt lat="42.47312" lon="2.41594">
        <ele>2273.3999023438</ele>
        <time>2023-07-16T13:41:08.000Z</time>
      </trkpt>
      <trkpt lat="42.47321" lon="2.41587">
        <ele>2273.1999511719</ele>
        <time>2023-07-16T13:41:16.000Z</time>
      </trkpt>
      <trkpt lat="42.47331" lon="2.41578">
        <ele>2273.3999023438</ele>
        <time>2023-07-16T13:41:25.000Z</time>
      </trkpt>
      <trkpt lat="42.47339" lon="2.41569">
        <ele>2273.3999023438</ele>
        <time>2023-07-16T13:41:33.000Z</time>
      </trkpt>
      <trkpt lat="42.47346" lon="2.41562">
        <ele>2273.6000976562</ele>
        <time>2023-07-16T13:41:40.000Z</time>
      </trkpt>
      <trkpt lat="42.47355" lon="2.41553">
        <ele>2273</ele>
        <time>2023-07-16T13:41:49.000Z</time>
      </trkpt>
      <trkpt lat="42.47363" lon="2.41545">
        <ele>2272.1999511719</ele>
        <time>2023-07-16T13:41:56.000Z</time>
      </trkpt>
      <trkpt lat="42.47366" lon="2.41543">
        <ele>2271.8000488281</ele>
        <time>2023-07-16T13:42:00.000Z</time>
      </trkpt>
      <trkpt lat="42.47376" lon="2.41533">
        <ele>2271.1999511719</ele>
        <time>2023-07-16T13:42:09.000Z</time>
      </trkpt>
      <trkpt lat="42.4738" lon="2.41527">
        <ele>2271.1999511719</ele>
        <time>2023-07-16T13:42:13.000Z</time>
      </trkpt>
      <trkpt lat="42.47383" lon="2.4152">
        <ele>2271</ele>
        <time>2023-07-16T13:42:18.000Z</time>
      </trkpt>
      <trkpt lat="42.4739" lon="2.41511">
        <ele>2270.3999023438</ele>
        <time>2023-07-16T13:42:26.000Z</time>
      </trkpt>
      <trkpt lat="42.47397" lon="2.41496">
        <ele>2270.1999511719</ele>
        <time>2023-07-16T13:42:36.000Z</time>
      </trkpt>
      <trkpt lat="42.47397" lon="2.41495">
        <ele>2270.1999511719</ele>
        <time>2023-07-16T13:42:37.000Z</time>
      </trkpt>
      <trkpt lat="42.47403" lon="2.41482">
        <ele>2269.8000488281</ele>
        <time>2023-07-16T13:42:45.000Z</time>
      </trkpt>
      <trkpt lat="42.47407" lon="2.41468">
        <ele>2269.1999511719</ele>
        <time>2023-07-16T13:42:54.000Z</time>
      </trkpt>
      <trkpt lat="42.47412" lon="2.41454">
        <ele>2269.3999023438</ele>
        <time>2023-07-16T13:43:03.000Z</time>
      </trkpt>
      <trkpt lat="42.47418" lon="2.4144">
        <ele>2269.3999023438</ele>
        <time>2023-07-16T13:43:12.000Z</time>
      </trkpt>
      <trkpt lat="42.47426" lon="2.41423">
        <ele>2269.3999023438</ele>
        <time>2023-07-16T13:43:22.000Z</time>
      </trkpt>
      <trkpt lat="42.47432" lon="2.41414">
        <ele>2269.1999511719</ele>
        <time>2023-07-16T13:43:30.000Z</time>
      </trkpt>
      <trkpt lat="42.4744" lon="2.41402">
        <ele>2269</ele>
        <time>2023-07-16T13:43:39.000Z</time>
      </trkpt>
      <trkpt lat="42.47451" lon="2.41391">
        <ele>2269</ele>
        <time>2023-07-16T13:43:49.000Z</time>
      </trkpt>
      <trkpt lat="42.47456" lon="2.41381">
        <ele>2268</ele>
        <time>2023-07-16T13:43:57.000Z</time>
      </trkpt>
      <trkpt lat="42.47463" lon="2.41372">
        <ele>2267.8000488281</ele>
        <time>2023-07-16T13:44:06.000Z</time>
      </trkpt>
      <trkpt lat="42.47464" lon="2.41372">
        <ele>2268</ele>
        <time>2023-07-16T13:44:09.000Z</time>
      </trkpt>
      <trkpt lat="42.47464" lon="2.41372">
        <ele>2267.8000488281</ele>
        <time>2023-07-16T13:44:15.000Z</time>
      </trkpt>
      <trkpt lat="42.47464" lon="2.41371">
        <ele>2267.8000488281</ele>
        <time>2023-07-16T13:44:26.000Z</time>
      </trkpt>
      <trkpt lat="42.47463" lon="2.41371">
        <ele>2267.3999023438</ele>
        <time>2023-07-16T13:44:38.000Z</time>
      </trkpt>
      <trkpt lat="42.47463" lon="2.41371">
        <ele>2267.6000976562</ele>
        <time>2023-07-16T13:44:50.000Z</time>
      </trkpt>
      <trkpt lat="42.47463" lon="2.41372">
        <ele>2268.1999511719</ele>
        <time>2023-07-16T13:45:08.000Z</time>
      </trkpt>
      <trkpt lat="42.47464" lon="2.41372">
        <ele>2268.3999023438</ele>
        <time>2023-07-16T13:45:19.000Z</time>
      </trkpt>
      <trkpt lat="42.47463" lon="2.41369">
        <ele>2268.1999511719</ele>
        <time>2023-07-16T13:45:29.000Z</time>
      </trkpt>
      <trkpt lat="42.47467" lon="2.41365">
        <ele>2268</ele>
        <time>2023-07-16T13:45:35.000Z</time>
      </trkpt>
      <trkpt lat="42.47471" lon="2.41361">
        <ele>2267.6000976562</ele>
        <time>2023-07-16T13:45:42.000Z</time>
      </trkpt>
      <trkpt lat="42.47472" lon="2.41359">
        <ele>2267</ele>
        <time>2023-07-16T13:45:49.000Z</time>
      </trkpt>
      <trkpt lat="42.47473" lon="2.41358">
        <ele>2267</ele>
        <time>2023-07-16T13:45:50.000Z</time>
      </trkpt>
      <trkpt lat="42.47478" lon="2.4135">
        <ele>2267.1999511719</ele>
        <time>2023-07-16T13:45:59.000Z</time>
      </trkpt>
      <trkpt lat="42.47486" lon="2.41342">
        <ele>2268</ele>
        <time>2023-07-16T13:46:06.000Z</time>
      </trkpt>
      <trkpt lat="42.47489" lon="2.41338">
        <ele>2268</ele>
        <time>2023-07-16T13:46:10.000Z</time>
      </trkpt>
      <trkpt lat="42.47491" lon="2.41338">
        <ele>2268.6000976562</ele>
        <time>2023-07-16T13:46:13.000Z</time>
      </trkpt>
      <trkpt lat="42.47492" lon="2.4134">
        <ele>2268.8000488281</ele>
        <time>2023-07-16T13:46:17.000Z</time>
      </trkpt>
      <trkpt lat="42.47492" lon="2.41338">
        <ele>2268.8000488281</ele>
        <time>2023-07-16T13:46:19.000Z</time>
      </trkpt>
      <trkpt lat="42.47493" lon="2.41338">
        <ele>2268.8000488281</ele>
        <time>2023-07-16T13:46:20.000Z</time>
      </trkpt>
      <trkpt lat="42.47491" lon="2.41337">
        <ele>2268.8000488281</ele>
        <time>2023-07-16T13:46:28.000Z</time>
      </trkpt>
      <trkpt lat="42.47495" lon="2.41336">
        <ele>2267.1999511719</ele>
        <time>2023-07-16T13:46:35.000Z</time>
      </trkpt>
      <trkpt lat="42.475" lon="2.4133">
        <ele>2267.3999023438</ele>
        <time>2023-07-16T13:46:42.000Z</time>
      </trkpt>
      <trkpt lat="42.47501" lon="2.4133">
        <ele>2266.8000488281</ele>
        <time>2023-07-16T13:46:43.000Z</time>
      </trkpt>
      <trkpt lat="42.47506" lon="2.41324">
        <ele>2268</ele>
        <time>2023-07-16T13:46:47.000Z</time>
      </trkpt>
      <trkpt lat="42.47509" lon="2.41316">
        <ele>2268.3999023438</ele>
        <time>2023-07-16T13:46:53.000Z</time>
      </trkpt>
      <trkpt lat="42.47513" lon="2.41305">
        <ele>2266.3999023438</ele>
        <time>2023-07-16T13:47:01.000Z</time>
      </trkpt>
      <trkpt lat="42.47514" lon="2.41302">
        <ele>2266.1999511719</ele>
        <time>2023-07-16T13:47:03.000Z</time>
      </trkpt>
      <trkpt lat="42.47516" lon="2.41297">
        <ele>2267.6000976562</ele>
        <time>2023-07-16T13:47:08.000Z</time>
      </trkpt>
      <trkpt lat="42.47517" lon="2.41295">
        <ele>2268.3999023438</ele>
        <time>2023-07-16T13:47:10.000Z</time>
      </trkpt>
      <trkpt lat="42.47518" lon="2.41293">
        <ele>2269.3999023438</ele>
        <time>2023-07-16T13:47:11.000Z</time>
      </trkpt>
      <trkpt lat="42.47519" lon="2.41292">
        <ele>2270.8000488281</ele>
        <time>2023-07-16T13:47:12.000Z</time>
      </trkpt>
      <trkpt lat="42.47522" lon="2.41288">
        <ele>2271.8000488281</ele>
        <time>2023-07-16T13:47:17.000Z</time>
      </trkpt>
      <trkpt lat="42.47526" lon="2.41282">
        <ele>2272</ele>
        <time>2023-07-16T13:47:23.000Z</time>
      </trkpt>
      <trkpt lat="42.47535" lon="2.41275">
        <ele>2272.8000488281</ele>
        <time>2023-07-16T13:47:30.000Z</time>
      </trkpt>
      <trkpt lat="42.4754" lon="2.41273">
        <ele>2273</ele>
        <time>2023-07-16T13:47:36.000Z</time>
      </trkpt>
      <trkpt lat="42.47546" lon="2.41269">
        <ele>2272.8000488281</ele>
        <time>2023-07-16T13:47:43.000Z</time>
      </trkpt>
      <trkpt lat="42.47545" lon="2.41269">
        <ele>2272.6000976562</ele>
        <time>2023-07-16T13:47:44.000Z</time>
      </trkpt>
      <trkpt lat="42.47545" lon="2.41269">
        <ele>2271</ele>
        <time>2023-07-16T13:47:46.000Z</time>
      </trkpt>
      <trkpt lat="42.47546" lon="2.41267">
        <ele>2269.8000488281</ele>
        <time>2023-07-16T13:47:48.000Z</time>
      </trkpt>
      <trkpt lat="42.47546" lon="2.41266">
        <ele>2269.3999023438</ele>
        <time>2023-07-16T13:47:49.000Z</time>
      </trkpt>
      <trkpt lat="42.47548" lon="2.41266">
        <ele>2269.6000976562</ele>
        <time>2023-07-16T13:47:53.000Z</time>
      </trkpt>
      <trkpt lat="42.47549" lon="2.41266">
        <ele>2271.1999511719</ele>
        <time>2023-07-16T13:47:54.000Z</time>
      </trkpt>
      <trkpt lat="42.47549" lon="2.41267">
        <ele>2272.1999511719</ele>
        <time>2023-07-16T13:47:56.000Z</time>
      </trkpt>
      <trkpt lat="42.47548" lon="2.41266">
        <ele>2272.1999511719</ele>
        <time>2023-07-16T13:48:02.000Z</time>
      </trkpt>
      <trkpt lat="42.47545" lon="2.41265">
        <ele>2273.3999023438</ele>
        <time>2023-07-16T13:48:07.000Z</time>
      </trkpt>
      <trkpt lat="42.47546" lon="2.41265">
        <ele>2273</ele>
        <time>2023-07-16T13:48:11.000Z</time>
      </trkpt>
      <trkpt lat="42.47548" lon="2.41263">
        <ele>2272.1999511719</ele>
        <time>2023-07-16T13:48:14.000Z</time>
      </trkpt>
      <trkpt lat="42.47549" lon="2.41262">
        <ele>2271</ele>
        <time>2023-07-16T13:48:15.000Z</time>
      </trkpt>
      <trkpt lat="42.47551" lon="2.4126">
        <ele>2270.8000488281</ele>
        <time>2023-07-16T13:48:17.000Z</time>
      </trkpt>
      <trkpt lat="42.47561" lon="2.41256">
        <ele>2272</ele>
        <time>2023-07-16T13:48:26.000Z</time>
      </trkpt>
      <trkpt lat="42.47568" lon="2.41254">
        <ele>2272</ele>
        <time>2023-07-16T13:48:33.000Z</time>
      </trkpt>
      <trkpt lat="42.47574" lon="2.41257">
        <ele>2272.3999023438</ele>
        <time>2023-07-16T13:48:40.000Z</time>
      </trkpt>
      <trkpt lat="42.47573" lon="2.41257">
        <ele>2272.3999023438</ele>
        <time>2023-07-16T13:48:42.000Z</time>
      </trkpt>
      <trkpt lat="42.47574" lon="2.41255">
        <ele>2272.3999023438</ele>
        <time>2023-07-16T13:48:44.000Z</time>
      </trkpt>
      <trkpt lat="42.47576" lon="2.41256">
        <ele>2272</ele>
        <time>2023-07-16T13:48:46.000Z</time>
      </trkpt>
      <trkpt lat="42.47576" lon="2.41257">
        <ele>2270</ele>
        <time>2023-07-16T13:48:47.000Z</time>
      </trkpt>
      <trkpt lat="42.47581" lon="2.4126">
        <ele>2269.6000976562</ele>
        <time>2023-07-16T13:48:53.000Z</time>
      </trkpt>
      <trkpt lat="42.47589" lon="2.41261">
        <ele>2270.3999023438</ele>
        <time>2023-07-16T13:48:59.000Z</time>
      </trkpt>
      <trkpt lat="42.47594" lon="2.41265">
        <ele>2269</ele>
        <time>2023-07-16T13:49:05.000Z</time>
      </trkpt>
      <trkpt lat="42.47595" lon="2.41266">
        <ele>2268.1999511719</ele>
        <time>2023-07-16T13:49:06.000Z</time>
      </trkpt>
      <trkpt lat="42.47602" lon="2.41268">
        <ele>2268</ele>
        <time>2023-07-16T13:49:13.000Z</time>
      </trkpt>
      <trkpt lat="42.47602" lon="2.41269">
        <ele>2268</ele>
        <time>2023-07-16T13:49:14.000Z</time>
      </trkpt>
      <trkpt lat="42.47611" lon="2.41276">
        <ele>2268</ele>
        <time>2023-07-16T13:49:20.000Z</time>
      </trkpt>
      <trkpt lat="42.47615" lon="2.41282">
        <ele>2267.8000488281</ele>
        <time>2023-07-16T13:49:28.000Z</time>
      </trkpt>
      <trkpt lat="42.4762" lon="2.41287">
        <ele>2267.3999023438</ele>
        <time>2023-07-16T13:49:35.000Z</time>
      </trkpt>
      <trkpt lat="42.47623" lon="2.41288">
        <ele>2264.8000488281</ele>
        <time>2023-07-16T13:50:36.000Z</time>
      </trkpt>
    </trkseg>
  </trk>
</gpx>